<?xml version="1.0" encoding="UTF-8" standalone="no" ?>
<gpx xmlns="http://www.topografix.com/GPX/1/1" xmlns:xsi="http://www.w3.org/2001/XMLSchema-instance" xsi:schemaLocation="http://www.topografix.com/GPX/1/1 http://www.topografix.com/GPX/1/1/gpx.xsd" version="1.1" creator="VisuGPX - https://www.visugpx.com">
  <metadata>
    <name>Les drailhes du diable</name>
    <desc><![CDATA[Rando vtt au départ du site du pont du diable, parcourant les hauteurs de st Guilhem le désert.]]></desc>
  </metadata>
  <trk>
    <name><![CDATA[Les drailhes du diable_1]]></name>
    <trkseg>
      <trkpt lat="43.70442" lon="3.56029">
        <ele>63.989292</ele>
        <time>2014-06-08T06:03:56Z</time>
      </trkpt>
      <trkpt lat="43.70442" lon="3.56029">
        <ele>64.11264</ele>
        <time>2014-06-08T06:03:57Z</time>
      </trkpt>
      <trkpt lat="43.70448" lon="3.56018">
        <ele>64.557266</ele>
        <time>2014-06-08T06:04:54Z</time>
      </trkpt>
      <trkpt lat="43.70458" lon="3.5602">
        <ele>64.5</ele>
        <time>2014-06-08T06:04:57Z</time>
      </trkpt>
      <trkpt lat="43.70467" lon="3.56025">
        <ele>65</ele>
        <time>2014-06-08T06:05:00Z</time>
      </trkpt>
      <trkpt lat="43.70478" lon="3.56027">
        <ele>65.4</ele>
        <time>2014-06-08T06:05:03Z</time>
      </trkpt>
      <trkpt lat="43.70491" lon="3.56026">
        <ele>65.1</ele>
        <time>2014-06-08T06:05:06Z</time>
      </trkpt>
      <trkpt lat="43.70503" lon="3.56023">
        <ele>65.3</ele>
        <time>2014-06-08T06:05:09Z</time>
      </trkpt>
      <trkpt lat="43.70515" lon="3.56021">
        <ele>65.9</ele>
        <time>2014-06-08T06:05:12Z</time>
      </trkpt>
      <trkpt lat="43.70527" lon="3.56017">
        <ele>66.1</ele>
        <time>2014-06-08T06:05:15Z</time>
      </trkpt>
      <trkpt lat="43.7054" lon="3.56014">
        <ele>66.2</ele>
        <time>2014-06-08T06:05:18Z</time>
      </trkpt>
      <trkpt lat="43.70552" lon="3.56009">
        <ele>65.6</ele>
        <time>2014-06-08T06:05:21Z</time>
      </trkpt>
      <trkpt lat="43.70564" lon="3.56005">
        <ele>65.6</ele>
        <time>2014-06-08T06:05:24Z</time>
      </trkpt>
      <trkpt lat="43.70576" lon="3.56004">
        <ele>66</ele>
        <time>2014-06-08T06:05:27Z</time>
      </trkpt>
      <trkpt lat="43.70587" lon="3.56012">
        <ele>65.6</ele>
        <time>2014-06-08T06:05:30Z</time>
      </trkpt>
      <trkpt lat="43.70597" lon="3.56017">
        <ele>65.7</ele>
        <time>2014-06-08T06:05:33Z</time>
      </trkpt>
      <trkpt lat="43.70609" lon="3.5601">
        <ele>65.9</ele>
        <time>2014-06-08T06:05:36Z</time>
      </trkpt>
      <trkpt lat="43.70621" lon="3.56002">
        <ele>66.3</ele>
        <time>2014-06-08T06:05:39Z</time>
      </trkpt>
      <trkpt lat="43.7063" lon="3.55997">
        <ele>66.4</ele>
        <time>2014-06-08T06:05:41Z</time>
      </trkpt>
      <trkpt lat="43.70639" lon="3.55991">
        <ele>66.4</ele>
        <time>2014-06-08T06:05:43Z</time>
      </trkpt>
      <trkpt lat="43.70648" lon="3.55985">
        <ele>66.6</ele>
        <time>2014-06-08T06:05:45Z</time>
      </trkpt>
      <trkpt lat="43.70658" lon="3.55979">
        <ele>66.5</ele>
        <time>2014-06-08T06:05:47Z</time>
      </trkpt>
      <trkpt lat="43.70666" lon="3.55971">
        <ele>66.2</ele>
        <time>2014-06-08T06:05:49Z</time>
      </trkpt>
      <trkpt lat="43.70674" lon="3.55962">
        <ele>66.3</ele>
        <time>2014-06-08T06:05:51Z</time>
      </trkpt>
      <trkpt lat="43.70681" lon="3.55953">
        <ele>66.5</ele>
        <time>2014-06-08T06:05:53Z</time>
      </trkpt>
      <trkpt lat="43.70688" lon="3.55943">
        <ele>66.4</ele>
        <time>2014-06-08T06:05:55Z</time>
      </trkpt>
      <trkpt lat="43.70695" lon="3.55933">
        <ele>65.9</ele>
        <time>2014-06-08T06:05:57Z</time>
      </trkpt>
      <trkpt lat="43.70703" lon="3.55923">
        <ele>65.7</ele>
        <time>2014-06-08T06:05:59Z</time>
      </trkpt>
      <trkpt lat="43.7071" lon="3.55912">
        <ele>65.6</ele>
        <time>2014-06-08T06:06:01Z</time>
      </trkpt>
      <trkpt lat="43.70715" lon="3.55899">
        <ele>65.5</ele>
        <time>2014-06-08T06:06:03Z</time>
      </trkpt>
      <trkpt lat="43.7072" lon="3.55885">
        <ele>65.5</ele>
        <time>2014-06-08T06:06:05Z</time>
      </trkpt>
      <trkpt lat="43.70725" lon="3.55871">
        <ele>65.7</ele>
        <time>2014-06-08T06:06:07Z</time>
      </trkpt>
      <trkpt lat="43.70731" lon="3.55857">
        <ele>65.6</ele>
        <time>2014-06-08T06:06:09Z</time>
      </trkpt>
      <trkpt lat="43.7074" lon="3.55843">
        <ele>65.4</ele>
        <time>2014-06-08T06:06:11Z</time>
      </trkpt>
      <trkpt lat="43.70748" lon="3.55829">
        <ele>65.2</ele>
        <time>2014-06-08T06:06:13Z</time>
      </trkpt>
      <trkpt lat="43.70756" lon="3.55813">
        <ele>64.4</ele>
        <time>2014-06-08T06:06:15Z</time>
      </trkpt>
      <trkpt lat="43.70762" lon="3.55796">
        <ele>64</ele>
        <time>2014-06-08T06:06:17Z</time>
      </trkpt>
      <trkpt lat="43.70767" lon="3.55778">
        <ele>64.2</ele>
        <time>2014-06-08T06:06:19Z</time>
      </trkpt>
      <trkpt lat="43.70767" lon="3.55758">
        <ele>63</ele>
        <time>2014-06-08T06:06:21Z</time>
      </trkpt>
      <trkpt lat="43.70763" lon="3.5574">
        <ele>63.5</ele>
        <time>2014-06-08T06:06:23Z</time>
      </trkpt>
      <trkpt lat="43.7076" lon="3.55723">
        <ele>63.7</ele>
        <time>2014-06-08T06:06:25Z</time>
      </trkpt>
      <trkpt lat="43.70754" lon="3.55708">
        <ele>63.5</ele>
        <time>2014-06-08T06:06:27Z</time>
      </trkpt>
      <trkpt lat="43.70748" lon="3.55696">
        <ele>63.2</ele>
        <time>2014-06-08T06:06:29Z</time>
      </trkpt>
      <trkpt lat="43.70744" lon="3.55685">
        <ele>63.1</ele>
        <time>2014-06-08T06:06:31Z</time>
      </trkpt>
      <trkpt lat="43.7074" lon="3.55673">
        <ele>63.3</ele>
        <time>2014-06-08T06:06:33Z</time>
      </trkpt>
      <trkpt lat="43.70737" lon="3.55661">
        <ele>63.9</ele>
        <time>2014-06-08T06:06:35Z</time>
      </trkpt>
      <trkpt lat="43.70734" lon="3.55649">
        <ele>64.3</ele>
        <time>2014-06-08T06:06:37Z</time>
      </trkpt>
      <trkpt lat="43.70729" lon="3.55638">
        <ele>64.3</ele>
        <time>2014-06-08T06:06:39Z</time>
      </trkpt>
      <trkpt lat="43.70722" lon="3.55628">
        <ele>65</ele>
        <time>2014-06-08T06:06:41Z</time>
      </trkpt>
      <trkpt lat="43.70713" lon="3.55617">
        <ele>66.3</ele>
        <time>2014-06-08T06:06:44Z</time>
      </trkpt>
      <trkpt lat="43.70705" lon="3.5561">
        <ele>66.9</ele>
        <time>2014-06-08T06:06:47Z</time>
      </trkpt>
      <trkpt lat="43.70696" lon="3.55607">
        <ele>65.2</ele>
        <time>2014-06-08T06:07:03Z</time>
      </trkpt>
      <trkpt lat="43.70677" lon="3.55597">
        <ele>66.4</ele>
        <time>2014-06-08T06:07:18Z</time>
      </trkpt>
      <trkpt lat="43.70667" lon="3.55596">
        <ele>66.8</ele>
        <time>2014-06-08T06:07:23Z</time>
      </trkpt>
      <trkpt lat="43.70659" lon="3.55589">
        <ele>68.9</ele>
        <time>2014-06-08T06:07:30Z</time>
      </trkpt>
      <trkpt lat="43.70651" lon="3.55581">
        <ele>69.5</ele>
        <time>2014-06-08T06:07:36Z</time>
      </trkpt>
      <trkpt lat="43.70642" lon="3.55572">
        <ele>70.2</ele>
        <time>2014-06-08T06:07:40Z</time>
      </trkpt>
      <trkpt lat="43.70634" lon="3.55564">
        <ele>70.2</ele>
        <time>2014-06-08T06:07:43Z</time>
      </trkpt>
      <trkpt lat="43.70626" lon="3.55557">
        <ele>70</ele>
        <time>2014-06-08T06:07:48Z</time>
      </trkpt>
      <trkpt lat="43.70618" lon="3.5555">
        <ele>70.8</ele>
        <time>2014-06-08T06:07:53Z</time>
      </trkpt>
      <trkpt lat="43.70608" lon="3.55545">
        <ele>72.3</ele>
        <time>2014-06-08T06:07:59Z</time>
      </trkpt>
      <trkpt lat="43.70597" lon="3.55539">
        <ele>73.9</ele>
        <time>2014-06-08T06:08:04Z</time>
      </trkpt>
      <trkpt lat="43.70588" lon="3.5554">
        <ele>75</ele>
        <time>2014-06-08T06:08:07Z</time>
      </trkpt>
      <trkpt lat="43.7057" lon="3.55541">
        <ele>76.3</ele>
        <time>2014-06-08T06:08:13Z</time>
      </trkpt>
      <trkpt lat="43.7056" lon="3.55542">
        <ele>77.2</ele>
        <time>2014-06-08T06:08:16Z</time>
      </trkpt>
      <trkpt lat="43.7055" lon="3.55541">
        <ele>78.3</ele>
        <time>2014-06-08T06:08:19Z</time>
      </trkpt>
      <trkpt lat="43.70541" lon="3.55538">
        <ele>78.7</ele>
        <time>2014-06-08T06:08:22Z</time>
      </trkpt>
      <trkpt lat="43.70532" lon="3.55532">
        <ele>79.6</ele>
        <time>2014-06-08T06:08:25Z</time>
      </trkpt>
      <trkpt lat="43.70524" lon="3.55526">
        <ele>79.8</ele>
        <time>2014-06-08T06:08:28Z</time>
      </trkpt>
      <trkpt lat="43.70516" lon="3.55518">
        <ele>80.2</ele>
        <time>2014-06-08T06:08:31Z</time>
      </trkpt>
      <trkpt lat="43.70507" lon="3.5551">
        <ele>80.7</ele>
        <time>2014-06-08T06:08:34Z</time>
      </trkpt>
      <trkpt lat="43.70499" lon="3.55502">
        <ele>81.5</ele>
        <time>2014-06-08T06:08:37Z</time>
      </trkpt>
      <trkpt lat="43.70491" lon="3.55494">
        <ele>82.5</ele>
        <time>2014-06-08T06:08:40Z</time>
      </trkpt>
      <trkpt lat="43.70483" lon="3.55486">
        <ele>83.6</ele>
        <time>2014-06-08T06:08:43Z</time>
      </trkpt>
      <trkpt lat="43.70475" lon="3.55478">
        <ele>83.6</ele>
        <time>2014-06-08T06:08:46Z</time>
      </trkpt>
      <trkpt lat="43.70467" lon="3.5547">
        <ele>83.5</ele>
        <time>2014-06-08T06:08:49Z</time>
      </trkpt>
      <trkpt lat="43.70459" lon="3.55461">
        <ele>84.1</ele>
        <time>2014-06-08T06:08:52Z</time>
      </trkpt>
      <trkpt lat="43.70451" lon="3.55453">
        <ele>85.2</ele>
        <time>2014-06-08T06:08:55Z</time>
      </trkpt>
      <trkpt lat="43.70443" lon="3.55445">
        <ele>86.6</ele>
        <time>2014-06-08T06:08:58Z</time>
      </trkpt>
      <trkpt lat="43.70436" lon="3.55436">
        <ele>86.8</ele>
        <time>2014-06-08T06:09:01Z</time>
      </trkpt>
      <trkpt lat="43.70428" lon="3.55428">
        <ele>87.6</ele>
        <time>2014-06-08T06:09:04Z</time>
      </trkpt>
      <trkpt lat="43.7042" lon="3.55419">
        <ele>87.7</ele>
        <time>2014-06-08T06:09:07Z</time>
      </trkpt>
      <trkpt lat="43.70413" lon="3.55411">
        <ele>89</ele>
        <time>2014-06-08T06:09:10Z</time>
      </trkpt>
      <trkpt lat="43.70397" lon="3.55394">
        <ele>90.1</ele>
        <time>2014-06-08T06:09:16Z</time>
      </trkpt>
      <trkpt lat="43.70388" lon="3.55386">
        <ele>90.6</ele>
        <time>2014-06-08T06:09:19Z</time>
      </trkpt>
      <trkpt lat="43.7038" lon="3.55377">
        <ele>90.8</ele>
        <time>2014-06-08T06:09:22Z</time>
      </trkpt>
      <trkpt lat="43.7037" lon="3.55368">
        <ele>90.9</ele>
        <time>2014-06-08T06:09:25Z</time>
      </trkpt>
      <trkpt lat="43.7036" lon="3.55358">
        <ele>91.2</ele>
        <time>2014-06-08T06:09:28Z</time>
      </trkpt>
      <trkpt lat="43.70349" lon="3.55348">
        <ele>91.5</ele>
        <time>2014-06-08T06:09:31Z</time>
      </trkpt>
      <trkpt lat="43.7034" lon="3.55342">
        <ele>91.4</ele>
        <time>2014-06-08T06:09:33Z</time>
      </trkpt>
      <trkpt lat="43.70332" lon="3.55336">
        <ele>92.1</ele>
        <time>2014-06-08T06:09:35Z</time>
      </trkpt>
      <trkpt lat="43.70323" lon="3.55331">
        <ele>92.3</ele>
        <time>2014-06-08T06:09:37Z</time>
      </trkpt>
      <trkpt lat="43.70315" lon="3.55325">
        <ele>91.8</ele>
        <time>2014-06-08T06:09:39Z</time>
      </trkpt>
      <trkpt lat="43.70306" lon="3.55318">
        <ele>91.6</ele>
        <time>2014-06-08T06:09:41Z</time>
      </trkpt>
      <trkpt lat="43.70298" lon="3.55311">
        <ele>91.8</ele>
        <time>2014-06-08T06:09:43Z</time>
      </trkpt>
      <trkpt lat="43.7029" lon="3.55304">
        <ele>91.9</ele>
        <time>2014-06-08T06:09:45Z</time>
      </trkpt>
      <trkpt lat="43.70282" lon="3.55298">
        <ele>92.1</ele>
        <time>2014-06-08T06:09:47Z</time>
      </trkpt>
      <trkpt lat="43.7027" lon="3.5529">
        <ele>92.2</ele>
        <time>2014-06-08T06:09:50Z</time>
      </trkpt>
      <trkpt lat="43.70259" lon="3.55282">
        <ele>92</ele>
        <time>2014-06-08T06:09:53Z</time>
      </trkpt>
      <trkpt lat="43.70248" lon="3.55274">
        <ele>92.3</ele>
        <time>2014-06-08T06:09:56Z</time>
      </trkpt>
      <trkpt lat="43.70239" lon="3.55263">
        <ele>93.4</ele>
        <time>2014-06-08T06:09:59Z</time>
      </trkpt>
      <trkpt lat="43.70234" lon="3.55249">
        <ele>94.1</ele>
        <time>2014-06-08T06:10:02Z</time>
      </trkpt>
      <trkpt lat="43.70231" lon="3.55234">
        <ele>94.9</ele>
        <time>2014-06-08T06:10:05Z</time>
      </trkpt>
      <trkpt lat="43.70229" lon="3.55219">
        <ele>95.5</ele>
        <time>2014-06-08T06:10:08Z</time>
      </trkpt>
      <trkpt lat="43.70226" lon="3.55205">
        <ele>96.2</ele>
        <time>2014-06-08T06:10:11Z</time>
      </trkpt>
      <trkpt lat="43.70216" lon="3.55178">
        <ele>97.6</ele>
        <time>2014-06-08T06:10:17Z</time>
      </trkpt>
      <trkpt lat="43.70211" lon="3.55165">
        <ele>98.7</ele>
        <time>2014-06-08T06:10:20Z</time>
      </trkpt>
      <trkpt lat="43.70206" lon="3.55151">
        <ele>99</ele>
        <time>2014-06-08T06:10:23Z</time>
      </trkpt>
      <trkpt lat="43.702" lon="3.55138">
        <ele>99.7</ele>
        <time>2014-06-08T06:10:26Z</time>
      </trkpt>
      <trkpt lat="43.70195" lon="3.55125">
        <ele>99.8</ele>
        <time>2014-06-08T06:10:29Z</time>
      </trkpt>
      <trkpt lat="43.70189" lon="3.55113">
        <ele>100.6</ele>
        <time>2014-06-08T06:10:32Z</time>
      </trkpt>
      <trkpt lat="43.70183" lon="3.551">
        <ele>101.5</ele>
        <time>2014-06-08T06:10:35Z</time>
      </trkpt>
      <trkpt lat="43.70177" lon="3.55086">
        <ele>102.2</ele>
        <time>2014-06-08T06:10:38Z</time>
      </trkpt>
      <trkpt lat="43.70172" lon="3.55072">
        <ele>102.6</ele>
        <time>2014-06-08T06:10:41Z</time>
      </trkpt>
      <trkpt lat="43.70165" lon="3.55057">
        <ele>102.5</ele>
        <time>2014-06-08T06:10:44Z</time>
      </trkpt>
      <trkpt lat="43.70159" lon="3.55042">
        <ele>102.8</ele>
        <time>2014-06-08T06:10:47Z</time>
      </trkpt>
      <trkpt lat="43.70154" lon="3.55027">
        <ele>102.7</ele>
        <time>2014-06-08T06:10:50Z</time>
      </trkpt>
      <trkpt lat="43.7015" lon="3.55011">
        <ele>103.6</ele>
        <time>2014-06-08T06:10:53Z</time>
      </trkpt>
      <trkpt lat="43.70146" lon="3.54993">
        <ele>103.5</ele>
        <time>2014-06-08T06:10:56Z</time>
      </trkpt>
      <trkpt lat="43.70145" lon="3.5498">
        <ele>104</ele>
        <time>2014-06-08T06:10:58Z</time>
      </trkpt>
      <trkpt lat="43.70143" lon="3.54968">
        <ele>104.5</ele>
        <time>2014-06-08T06:11:00Z</time>
      </trkpt>
      <trkpt lat="43.70141" lon="3.54955">
        <ele>105</ele>
        <time>2014-06-08T06:11:02Z</time>
      </trkpt>
      <trkpt lat="43.70138" lon="3.54937">
        <ele>105.2</ele>
        <time>2014-06-08T06:11:05Z</time>
      </trkpt>
      <trkpt lat="43.70137" lon="3.54924">
        <ele>105.9</ele>
        <time>2014-06-08T06:11:07Z</time>
      </trkpt>
      <trkpt lat="43.70141" lon="3.54913">
        <ele>106.8</ele>
        <time>2014-06-08T06:11:09Z</time>
      </trkpt>
      <trkpt lat="43.70145" lon="3.54902">
        <ele>106.9</ele>
        <time>2014-06-08T06:11:11Z</time>
      </trkpt>
      <trkpt lat="43.70148" lon="3.5489">
        <ele>106.8</ele>
        <time>2014-06-08T06:11:13Z</time>
      </trkpt>
      <trkpt lat="43.70154" lon="3.54866">
        <ele>106.8</ele>
        <time>2014-06-08T06:11:17Z</time>
      </trkpt>
      <trkpt lat="43.70158" lon="3.54849">
        <ele>107.5</ele>
        <time>2014-06-08T06:11:20Z</time>
      </trkpt>
      <trkpt lat="43.70163" lon="3.54834">
        <ele>108.1</ele>
        <time>2014-06-08T06:11:23Z</time>
      </trkpt>
      <trkpt lat="43.70166" lon="3.54819">
        <ele>107.9</ele>
        <time>2014-06-08T06:11:26Z</time>
      </trkpt>
      <trkpt lat="43.70169" lon="3.54803">
        <ele>107.9</ele>
        <time>2014-06-08T06:11:29Z</time>
      </trkpt>
      <trkpt lat="43.70171" lon="3.54787">
        <ele>109.1</ele>
        <time>2014-06-08T06:11:32Z</time>
      </trkpt>
      <trkpt lat="43.70172" lon="3.54771">
        <ele>109</ele>
        <time>2014-06-08T06:11:35Z</time>
      </trkpt>
      <trkpt lat="43.70171" lon="3.54755">
        <ele>108.9</ele>
        <time>2014-06-08T06:11:38Z</time>
      </trkpt>
      <trkpt lat="43.7017" lon="3.54738">
        <ele>109.6</ele>
        <time>2014-06-08T06:11:41Z</time>
      </trkpt>
      <trkpt lat="43.70169" lon="3.54721">
        <ele>110.1</ele>
        <time>2014-06-08T06:11:44Z</time>
      </trkpt>
      <trkpt lat="43.70168" lon="3.54705">
        <ele>110.3</ele>
        <time>2014-06-08T06:11:47Z</time>
      </trkpt>
      <trkpt lat="43.70167" lon="3.5469">
        <ele>111</ele>
        <time>2014-06-08T06:11:50Z</time>
      </trkpt>
      <trkpt lat="43.70166" lon="3.54675">
        <ele>111.7</ele>
        <time>2014-06-08T06:11:53Z</time>
      </trkpt>
      <trkpt lat="43.70164" lon="3.5466">
        <ele>112.7</ele>
        <time>2014-06-08T06:11:56Z</time>
      </trkpt>
      <trkpt lat="43.70163" lon="3.54645">
        <ele>113.5</ele>
        <time>2014-06-08T06:11:59Z</time>
      </trkpt>
      <trkpt lat="43.70161" lon="3.54629">
        <ele>113.8</ele>
        <time>2014-06-08T06:12:02Z</time>
      </trkpt>
      <trkpt lat="43.70159" lon="3.54615">
        <ele>113.4</ele>
        <time>2014-06-08T06:12:05Z</time>
      </trkpt>
      <trkpt lat="43.70157" lon="3.546">
        <ele>115.1</ele>
        <time>2014-06-08T06:12:08Z</time>
      </trkpt>
      <trkpt lat="43.70154" lon="3.54586">
        <ele>115.8</ele>
        <time>2014-06-08T06:12:11Z</time>
      </trkpt>
      <trkpt lat="43.70152" lon="3.54572">
        <ele>116.1</ele>
        <time>2014-06-08T06:12:14Z</time>
      </trkpt>
      <trkpt lat="43.70151" lon="3.54559">
        <ele>116.5</ele>
        <time>2014-06-08T06:12:17Z</time>
      </trkpt>
      <trkpt lat="43.70151" lon="3.54534">
        <ele>118.6</ele>
        <time>2014-06-08T06:12:23Z</time>
      </trkpt>
      <trkpt lat="43.70153" lon="3.54518">
        <ele>119.1</ele>
        <time>2014-06-08T06:12:27Z</time>
      </trkpt>
      <trkpt lat="43.70156" lon="3.54506">
        <ele>120.2</ele>
        <time>2014-06-08T06:12:30Z</time>
      </trkpt>
      <trkpt lat="43.7016" lon="3.54494">
        <ele>120.7</ele>
        <time>2014-06-08T06:12:33Z</time>
      </trkpt>
      <trkpt lat="43.70163" lon="3.54483">
        <ele>121.4</ele>
        <time>2014-06-08T06:12:36Z</time>
      </trkpt>
      <trkpt lat="43.70167" lon="3.54468">
        <ele>122.1</ele>
        <time>2014-06-08T06:12:40Z</time>
      </trkpt>
      <trkpt lat="43.70169" lon="3.54454">
        <ele>123.3</ele>
        <time>2014-06-08T06:12:44Z</time>
      </trkpt>
      <trkpt lat="43.7017" lon="3.54438">
        <ele>124.3</ele>
        <time>2014-06-08T06:12:48Z</time>
      </trkpt>
      <trkpt lat="43.7017" lon="3.54424">
        <ele>125.1</ele>
        <time>2014-06-08T06:12:52Z</time>
      </trkpt>
      <trkpt lat="43.7017" lon="3.54409">
        <ele>126</ele>
        <time>2014-06-08T06:12:56Z</time>
      </trkpt>
      <trkpt lat="43.70169" lon="3.54396">
        <ele>126.4</ele>
        <time>2014-06-08T06:13:00Z</time>
      </trkpt>
      <trkpt lat="43.70166" lon="3.54381">
        <ele>127.2</ele>
        <time>2014-06-08T06:13:04Z</time>
      </trkpt>
      <trkpt lat="43.70162" lon="3.54367">
        <ele>127.8</ele>
        <time>2014-06-08T06:13:08Z</time>
      </trkpt>
      <trkpt lat="43.70159" lon="3.54352">
        <ele>128.4</ele>
        <time>2014-06-08T06:13:12Z</time>
      </trkpt>
      <trkpt lat="43.70156" lon="3.54337">
        <ele>129.5</ele>
        <time>2014-06-08T06:13:16Z</time>
      </trkpt>
      <trkpt lat="43.70156" lon="3.5432">
        <ele>130.3</ele>
        <time>2014-06-08T06:13:20Z</time>
      </trkpt>
      <trkpt lat="43.70159" lon="3.54289">
        <ele>131.8</ele>
        <time>2014-06-08T06:13:28Z</time>
      </trkpt>
      <trkpt lat="43.70159" lon="3.54273">
        <ele>131.5</ele>
        <time>2014-06-08T06:13:32Z</time>
      </trkpt>
      <trkpt lat="43.70158" lon="3.54257">
        <ele>132.6</ele>
        <time>2014-06-08T06:13:36Z</time>
      </trkpt>
      <trkpt lat="43.70158" lon="3.54243">
        <ele>132.6</ele>
        <time>2014-06-08T06:13:39Z</time>
      </trkpt>
      <trkpt lat="43.70158" lon="3.54229">
        <ele>133</ele>
        <time>2014-06-08T06:13:42Z</time>
      </trkpt>
      <trkpt lat="43.70158" lon="3.54214">
        <ele>132.1</ele>
        <time>2014-06-08T06:13:45Z</time>
      </trkpt>
      <trkpt lat="43.70157" lon="3.542">
        <ele>132.8</ele>
        <time>2014-06-08T06:13:48Z</time>
      </trkpt>
      <trkpt lat="43.70157" lon="3.54186">
        <ele>133.3</ele>
        <time>2014-06-08T06:13:51Z</time>
      </trkpt>
      <trkpt lat="43.70162" lon="3.54173">
        <ele>134.1</ele>
        <time>2014-06-08T06:13:55Z</time>
      </trkpt>
      <trkpt lat="43.70172" lon="3.54174">
        <ele>135.1</ele>
        <time>2014-06-08T06:13:58Z</time>
      </trkpt>
      <trkpt lat="43.70182" lon="3.54174">
        <ele>135.7</ele>
        <time>2014-06-08T06:14:01Z</time>
      </trkpt>
      <trkpt lat="43.70192" lon="3.54172">
        <ele>135.7</ele>
        <time>2014-06-08T06:14:04Z</time>
      </trkpt>
      <trkpt lat="43.70203" lon="3.54169">
        <ele>136.9</ele>
        <time>2014-06-08T06:14:08Z</time>
      </trkpt>
      <trkpt lat="43.70213" lon="3.54166">
        <ele>138.1</ele>
        <time>2014-06-08T06:14:12Z</time>
      </trkpt>
      <trkpt lat="43.70223" lon="3.54159">
        <ele>138.1</ele>
        <time>2014-06-08T06:14:16Z</time>
      </trkpt>
      <trkpt lat="43.70232" lon="3.54149">
        <ele>139.6</ele>
        <time>2014-06-08T06:14:20Z</time>
      </trkpt>
      <trkpt lat="43.70239" lon="3.54137">
        <ele>140</ele>
        <time>2014-06-08T06:14:24Z</time>
      </trkpt>
      <trkpt lat="43.70254" lon="3.54117">
        <ele>141.7</ele>
        <time>2014-06-08T06:14:31Z</time>
      </trkpt>
      <trkpt lat="43.70261" lon="3.54107">
        <ele>141.2</ele>
        <time>2014-06-08T06:14:34Z</time>
      </trkpt>
      <trkpt lat="43.70267" lon="3.54096">
        <ele>141.5</ele>
        <time>2014-06-08T06:14:37Z</time>
      </trkpt>
      <trkpt lat="43.70272" lon="3.54086">
        <ele>142.4</ele>
        <time>2014-06-08T06:14:40Z</time>
      </trkpt>
      <trkpt lat="43.70277" lon="3.54074">
        <ele>143.2</ele>
        <time>2014-06-08T06:14:43Z</time>
      </trkpt>
      <trkpt lat="43.70282" lon="3.54062">
        <ele>143.2</ele>
        <time>2014-06-08T06:14:46Z</time>
      </trkpt>
      <trkpt lat="43.70287" lon="3.54051">
        <ele>144.2</ele>
        <time>2014-06-08T06:14:49Z</time>
      </trkpt>
      <trkpt lat="43.70292" lon="3.54039">
        <ele>144</ele>
        <time>2014-06-08T06:14:52Z</time>
      </trkpt>
      <trkpt lat="43.70297" lon="3.54028">
        <ele>144.7</ele>
        <time>2014-06-08T06:14:55Z</time>
      </trkpt>
      <trkpt lat="43.70303" lon="3.54014">
        <ele>144.5</ele>
        <time>2014-06-08T06:14:59Z</time>
      </trkpt>
      <trkpt lat="43.70305" lon="3.54001">
        <ele>144.7</ele>
        <time>2014-06-08T06:15:02Z</time>
      </trkpt>
      <trkpt lat="43.70307" lon="3.53987">
        <ele>145.7</ele>
        <time>2014-06-08T06:15:05Z</time>
      </trkpt>
      <trkpt lat="43.70307" lon="3.53974">
        <ele>146</ele>
        <time>2014-06-08T06:15:08Z</time>
      </trkpt>
      <trkpt lat="43.70307" lon="3.53959">
        <ele>147.3</ele>
        <time>2014-06-08T06:15:12Z</time>
      </trkpt>
      <trkpt lat="43.70308" lon="3.53943">
        <ele>148.4</ele>
        <time>2014-06-08T06:15:16Z</time>
      </trkpt>
      <trkpt lat="43.70308" lon="3.53927">
        <ele>148.7</ele>
        <time>2014-06-08T06:15:20Z</time>
      </trkpt>
      <trkpt lat="43.70309" lon="3.53911">
        <ele>149.3</ele>
        <time>2014-06-08T06:15:24Z</time>
      </trkpt>
      <trkpt lat="43.7031" lon="3.53895">
        <ele>150.4</ele>
        <time>2014-06-08T06:15:28Z</time>
      </trkpt>
      <trkpt lat="43.70317" lon="3.53864">
        <ele>150.7</ele>
        <time>2014-06-08T06:15:36Z</time>
      </trkpt>
      <trkpt lat="43.70323" lon="3.53851">
        <ele>151.6</ele>
        <time>2014-06-08T06:15:40Z</time>
      </trkpt>
      <trkpt lat="43.7033" lon="3.53838">
        <ele>151.9</ele>
        <time>2014-06-08T06:15:44Z</time>
      </trkpt>
      <trkpt lat="43.70335" lon="3.53823">
        <ele>152.9</ele>
        <time>2014-06-08T06:15:48Z</time>
      </trkpt>
      <trkpt lat="43.70333" lon="3.53808">
        <ele>153.9</ele>
        <time>2014-06-08T06:15:52Z</time>
      </trkpt>
      <trkpt lat="43.70329" lon="3.53797">
        <ele>154.2</ele>
        <time>2014-06-08T06:15:55Z</time>
      </trkpt>
      <trkpt lat="43.7032" lon="3.53785">
        <ele>154.9</ele>
        <time>2014-06-08T06:15:59Z</time>
      </trkpt>
      <trkpt lat="43.70313" lon="3.53777">
        <ele>155</ele>
        <time>2014-06-08T06:16:02Z</time>
      </trkpt>
      <trkpt lat="43.70305" lon="3.53765">
        <ele>155.5</ele>
        <time>2014-06-08T06:16:06Z</time>
      </trkpt>
      <trkpt lat="43.70297" lon="3.53753">
        <ele>156.1</ele>
        <time>2014-06-08T06:16:10Z</time>
      </trkpt>
      <trkpt lat="43.70291" lon="3.53739">
        <ele>156.7</ele>
        <time>2014-06-08T06:16:14Z</time>
      </trkpt>
      <trkpt lat="43.70286" lon="3.53723">
        <ele>157.4</ele>
        <time>2014-06-08T06:16:18Z</time>
      </trkpt>
      <trkpt lat="43.70283" lon="3.53707">
        <ele>158.1</ele>
        <time>2014-06-08T06:16:22Z</time>
      </trkpt>
      <trkpt lat="43.70281" lon="3.53692">
        <ele>158.6</ele>
        <time>2014-06-08T06:16:26Z</time>
      </trkpt>
      <trkpt lat="43.70279" lon="3.53677">
        <ele>158.8</ele>
        <time>2014-06-08T06:16:30Z</time>
      </trkpt>
      <trkpt lat="43.70275" lon="3.53645">
        <ele>161.1</ele>
        <time>2014-06-08T06:16:38Z</time>
      </trkpt>
      <trkpt lat="43.70274" lon="3.53628">
        <ele>162</ele>
        <time>2014-06-08T06:16:42Z</time>
      </trkpt>
      <trkpt lat="43.70272" lon="3.53612">
        <ele>162.5</ele>
        <time>2014-06-08T06:16:46Z</time>
      </trkpt>
      <trkpt lat="43.7027" lon="3.53596">
        <ele>164</ele>
        <time>2014-06-08T06:16:50Z</time>
      </trkpt>
      <trkpt lat="43.70267" lon="3.53581">
        <ele>164.3</ele>
        <time>2014-06-08T06:16:54Z</time>
      </trkpt>
      <trkpt lat="43.70264" lon="3.53565">
        <ele>164.1</ele>
        <time>2014-06-08T06:16:58Z</time>
      </trkpt>
      <trkpt lat="43.70261" lon="3.53549">
        <ele>165.2</ele>
        <time>2014-06-08T06:17:02Z</time>
      </trkpt>
      <trkpt lat="43.70258" lon="3.53537">
        <ele>166.2</ele>
        <time>2014-06-08T06:17:05Z</time>
      </trkpt>
      <trkpt lat="43.70254" lon="3.53521">
        <ele>167</ele>
        <time>2014-06-08T06:17:09Z</time>
      </trkpt>
      <trkpt lat="43.70251" lon="3.53509">
        <ele>166.7</ele>
        <time>2014-06-08T06:17:12Z</time>
      </trkpt>
      <trkpt lat="43.70248" lon="3.53494">
        <ele>167.6</ele>
        <time>2014-06-08T06:17:16Z</time>
      </trkpt>
      <trkpt lat="43.70245" lon="3.53479">
        <ele>168.1</ele>
        <time>2014-06-08T06:17:20Z</time>
      </trkpt>
      <trkpt lat="43.70244" lon="3.53463">
        <ele>168.9</ele>
        <time>2014-06-08T06:17:24Z</time>
      </trkpt>
      <trkpt lat="43.70246" lon="3.53448">
        <ele>168.8</ele>
        <time>2014-06-08T06:17:28Z</time>
      </trkpt>
      <trkpt lat="43.70253" lon="3.53438">
        <ele>170.5</ele>
        <time>2014-06-08T06:17:33Z</time>
      </trkpt>
      <trkpt lat="43.70253" lon="3.53467">
        <ele>171.1</ele>
        <time>2014-06-08T06:17:43Z</time>
      </trkpt>
      <trkpt lat="43.70258" lon="3.53482">
        <ele>172.7</ele>
        <time>2014-06-08T06:17:47Z</time>
      </trkpt>
      <trkpt lat="43.70264" lon="3.53495">
        <ele>173</ele>
        <time>2014-06-08T06:17:51Z</time>
      </trkpt>
      <trkpt lat="43.70271" lon="3.53505">
        <ele>173.1</ele>
        <time>2014-06-08T06:17:55Z</time>
      </trkpt>
      <trkpt lat="43.70277" lon="3.53515">
        <ele>173.3</ele>
        <time>2014-06-08T06:17:59Z</time>
      </trkpt>
      <trkpt lat="43.70282" lon="3.53527">
        <ele>174.1</ele>
        <time>2014-06-08T06:18:03Z</time>
      </trkpt>
      <trkpt lat="43.70288" lon="3.53539">
        <ele>174.7</ele>
        <time>2014-06-08T06:18:07Z</time>
      </trkpt>
      <trkpt lat="43.70293" lon="3.53551">
        <ele>175.4</ele>
        <time>2014-06-08T06:18:11Z</time>
      </trkpt>
      <trkpt lat="43.70298" lon="3.53565">
        <ele>175.6</ele>
        <time>2014-06-08T06:18:15Z</time>
      </trkpt>
      <trkpt lat="43.70302" lon="3.53579">
        <ele>175.9</ele>
        <time>2014-06-08T06:18:19Z</time>
      </trkpt>
      <trkpt lat="43.70306" lon="3.53595">
        <ele>177</ele>
        <time>2014-06-08T06:18:23Z</time>
      </trkpt>
      <trkpt lat="43.70309" lon="3.53611">
        <ele>177.2</ele>
        <time>2014-06-08T06:18:27Z</time>
      </trkpt>
      <trkpt lat="43.70313" lon="3.53626">
        <ele>178.6</ele>
        <time>2014-06-08T06:18:31Z</time>
      </trkpt>
      <trkpt lat="43.70316" lon="3.5364">
        <ele>179.3</ele>
        <time>2014-06-08T06:18:35Z</time>
      </trkpt>
      <trkpt lat="43.70328" lon="3.53665">
        <ele>181.1</ele>
        <time>2014-06-08T06:18:43Z</time>
      </trkpt>
      <trkpt lat="43.70335" lon="3.53675">
        <ele>181.3</ele>
        <time>2014-06-08T06:18:47Z</time>
      </trkpt>
      <trkpt lat="43.70342" lon="3.53684">
        <ele>181</ele>
        <time>2014-06-08T06:18:51Z</time>
      </trkpt>
      <trkpt lat="43.7035" lon="3.53691">
        <ele>182.1</ele>
        <time>2014-06-08T06:18:55Z</time>
      </trkpt>
      <trkpt lat="43.7036" lon="3.53698">
        <ele>182</ele>
        <time>2014-06-08T06:19:00Z</time>
      </trkpt>
      <trkpt lat="43.70368" lon="3.53702">
        <ele>183.3</ele>
        <time>2014-06-08T06:19:04Z</time>
      </trkpt>
      <trkpt lat="43.70378" lon="3.53704">
        <ele>183.1</ele>
        <time>2014-06-08T06:19:08Z</time>
      </trkpt>
      <trkpt lat="43.70387" lon="3.53705">
        <ele>183.7</ele>
        <time>2014-06-08T06:19:12Z</time>
      </trkpt>
      <trkpt lat="43.70397" lon="3.5371">
        <ele>184.3</ele>
        <time>2014-06-08T06:19:17Z</time>
      </trkpt>
      <trkpt lat="43.70402" lon="3.53722">
        <ele>184.7</ele>
        <time>2014-06-08T06:19:21Z</time>
      </trkpt>
      <trkpt lat="43.70408" lon="3.53731">
        <ele>185.2</ele>
        <time>2014-06-08T06:19:25Z</time>
      </trkpt>
      <trkpt lat="43.70416" lon="3.5374">
        <ele>185.5</ele>
        <time>2014-06-08T06:19:29Z</time>
      </trkpt>
      <trkpt lat="43.70424" lon="3.53747">
        <ele>187</ele>
        <time>2014-06-08T06:19:33Z</time>
      </trkpt>
      <trkpt lat="43.70432" lon="3.53753">
        <ele>187.9</ele>
        <time>2014-06-08T06:19:37Z</time>
      </trkpt>
      <trkpt lat="43.70451" lon="3.53757">
        <ele>188.2</ele>
        <time>2014-06-08T06:19:45Z</time>
      </trkpt>
      <trkpt lat="43.70462" lon="3.53756">
        <ele>188.1</ele>
        <time>2014-06-08T06:19:50Z</time>
      </trkpt>
      <trkpt lat="43.70473" lon="3.53756">
        <ele>189.1</ele>
        <time>2014-06-08T06:19:55Z</time>
      </trkpt>
      <trkpt lat="43.70479" lon="3.53766">
        <ele>189.4</ele>
        <time>2014-06-08T06:19:59Z</time>
      </trkpt>
      <trkpt lat="43.70478" lon="3.53781">
        <ele>190.2</ele>
        <time>2014-06-08T06:20:04Z</time>
      </trkpt>
      <trkpt lat="43.70476" lon="3.53793">
        <ele>190.8</ele>
        <time>2014-06-08T06:20:08Z</time>
      </trkpt>
      <trkpt lat="43.70474" lon="3.53806">
        <ele>191.2</ele>
        <time>2014-06-08T06:20:12Z</time>
      </trkpt>
      <trkpt lat="43.70474" lon="3.5382">
        <ele>191.8</ele>
        <time>2014-06-08T06:20:16Z</time>
      </trkpt>
      <trkpt lat="43.70474" lon="3.53834">
        <ele>192.8</ele>
        <time>2014-06-08T06:20:20Z</time>
      </trkpt>
      <trkpt lat="43.70473" lon="3.53848">
        <ele>193.9</ele>
        <time>2014-06-08T06:20:24Z</time>
      </trkpt>
      <trkpt lat="43.70473" lon="3.53862">
        <ele>194</ele>
        <time>2014-06-08T06:20:28Z</time>
      </trkpt>
      <trkpt lat="43.70474" lon="3.53875">
        <ele>194.8</ele>
        <time>2014-06-08T06:20:32Z</time>
      </trkpt>
      <trkpt lat="43.70475" lon="3.53888">
        <ele>195.4</ele>
        <time>2014-06-08T06:20:36Z</time>
      </trkpt>
      <trkpt lat="43.70478" lon="3.53902">
        <ele>196.4</ele>
        <time>2014-06-08T06:20:41Z</time>
      </trkpt>
      <trkpt lat="43.70485" lon="3.53928">
        <ele>198.5</ele>
        <time>2014-06-08T06:20:50Z</time>
      </trkpt>
      <trkpt lat="43.70489" lon="3.53942">
        <ele>199</ele>
        <time>2014-06-08T06:20:55Z</time>
      </trkpt>
      <trkpt lat="43.70493" lon="3.53953">
        <ele>199.9</ele>
        <time>2014-06-08T06:20:59Z</time>
      </trkpt>
      <trkpt lat="43.70498" lon="3.53966">
        <ele>200.8</ele>
        <time>2014-06-08T06:21:04Z</time>
      </trkpt>
      <trkpt lat="43.70503" lon="3.53978">
        <ele>200.6</ele>
        <time>2014-06-08T06:21:09Z</time>
      </trkpt>
      <trkpt lat="43.70508" lon="3.53991">
        <ele>202.1</ele>
        <time>2014-06-08T06:21:14Z</time>
      </trkpt>
      <trkpt lat="43.70513" lon="3.54002">
        <ele>203</ele>
        <time>2014-06-08T06:21:19Z</time>
      </trkpt>
      <trkpt lat="43.70519" lon="3.54014">
        <ele>203.6</ele>
        <time>2014-06-08T06:21:24Z</time>
      </trkpt>
      <trkpt lat="43.70526" lon="3.54025">
        <ele>204.4</ele>
        <time>2014-06-08T06:21:29Z</time>
      </trkpt>
      <trkpt lat="43.70532" lon="3.54036">
        <ele>205.6</ele>
        <time>2014-06-08T06:21:34Z</time>
      </trkpt>
      <trkpt lat="43.70537" lon="3.54048">
        <ele>206.2</ele>
        <time>2014-06-08T06:21:39Z</time>
      </trkpt>
      <trkpt lat="43.70542" lon="3.54061">
        <ele>207.2</ele>
        <time>2014-06-08T06:21:44Z</time>
      </trkpt>
      <trkpt lat="43.7055" lon="3.54086">
        <ele>208.2</ele>
        <time>2014-06-08T06:21:54Z</time>
      </trkpt>
      <trkpt lat="43.70553" lon="3.54099">
        <ele>209.3</ele>
        <time>2014-06-08T06:21:59Z</time>
      </trkpt>
      <trkpt lat="43.70558" lon="3.54113">
        <ele>209.5</ele>
        <time>2014-06-08T06:22:04Z</time>
      </trkpt>
      <trkpt lat="43.70562" lon="3.54126">
        <ele>211.8</ele>
        <time>2014-06-08T06:22:09Z</time>
      </trkpt>
      <trkpt lat="43.70568" lon="3.54139">
        <ele>212.2</ele>
        <time>2014-06-08T06:22:14Z</time>
      </trkpt>
      <trkpt lat="43.70576" lon="3.5415">
        <ele>212.9</ele>
        <time>2014-06-08T06:22:19Z</time>
      </trkpt>
      <trkpt lat="43.70584" lon="3.54159">
        <ele>214</ele>
        <time>2014-06-08T06:22:24Z</time>
      </trkpt>
      <trkpt lat="43.70592" lon="3.54166">
        <ele>214</ele>
        <time>2014-06-08T06:22:29Z</time>
      </trkpt>
      <trkpt lat="43.70601" lon="3.54172">
        <ele>215.6</ele>
        <time>2014-06-08T06:22:34Z</time>
      </trkpt>
      <trkpt lat="43.7061" lon="3.54177">
        <ele>215.9</ele>
        <time>2014-06-08T06:22:39Z</time>
      </trkpt>
      <trkpt lat="43.7062" lon="3.5418">
        <ele>216.7</ele>
        <time>2014-06-08T06:22:44Z</time>
      </trkpt>
      <trkpt lat="43.7063" lon="3.54183">
        <ele>216.9</ele>
        <time>2014-06-08T06:22:49Z</time>
      </trkpt>
      <trkpt lat="43.7065" lon="3.54186">
        <ele>218.6</ele>
        <time>2014-06-08T06:22:59Z</time>
      </trkpt>
      <trkpt lat="43.7066" lon="3.54185">
        <ele>219.6</ele>
        <time>2014-06-08T06:23:04Z</time>
      </trkpt>
      <trkpt lat="43.7067" lon="3.54183">
        <ele>220.7</ele>
        <time>2014-06-08T06:23:09Z</time>
      </trkpt>
      <trkpt lat="43.7068" lon="3.5418">
        <ele>221.8</ele>
        <time>2014-06-08T06:23:14Z</time>
      </trkpt>
      <trkpt lat="43.70691" lon="3.54178">
        <ele>222.2</ele>
        <time>2014-06-08T06:23:19Z</time>
      </trkpt>
      <trkpt lat="43.70701" lon="3.54175">
        <ele>223.2</ele>
        <time>2014-06-08T06:23:24Z</time>
      </trkpt>
      <trkpt lat="43.70712" lon="3.54172">
        <ele>223.8</ele>
        <time>2014-06-08T06:23:29Z</time>
      </trkpt>
      <trkpt lat="43.70722" lon="3.54169">
        <ele>224.5</ele>
        <time>2014-06-08T06:23:34Z</time>
      </trkpt>
      <trkpt lat="43.70732" lon="3.54164">
        <ele>224.8</ele>
        <time>2014-06-08T06:23:39Z</time>
      </trkpt>
      <trkpt lat="43.70742" lon="3.5416">
        <ele>225.6</ele>
        <time>2014-06-08T06:23:44Z</time>
      </trkpt>
      <trkpt lat="43.70751" lon="3.54158">
        <ele>227</ele>
        <time>2014-06-08T06:23:48Z</time>
      </trkpt>
      <trkpt lat="43.70762" lon="3.54153">
        <ele>227.5</ele>
        <time>2014-06-08T06:23:53Z</time>
      </trkpt>
      <trkpt lat="43.70743" lon="3.54145">
        <ele>229</ele>
        <time>2014-06-08T06:24:06Z</time>
      </trkpt>
      <trkpt lat="43.70734" lon="3.54143">
        <ele>230.7</ele>
        <time>2014-06-08T06:24:10Z</time>
      </trkpt>
      <trkpt lat="43.70723" lon="3.54139">
        <ele>230.8</ele>
        <time>2014-06-08T06:24:15Z</time>
      </trkpt>
      <trkpt lat="43.70713" lon="3.54133">
        <ele>231.9</ele>
        <time>2014-06-08T06:24:20Z</time>
      </trkpt>
      <trkpt lat="43.70703" lon="3.54129">
        <ele>232.5</ele>
        <time>2014-06-08T06:24:25Z</time>
      </trkpt>
      <trkpt lat="43.70694" lon="3.54123">
        <ele>233.3</ele>
        <time>2014-06-08T06:24:29Z</time>
      </trkpt>
      <trkpt lat="43.70685" lon="3.54117">
        <ele>234.4</ele>
        <time>2014-06-08T06:24:34Z</time>
      </trkpt>
      <trkpt lat="43.70676" lon="3.54109">
        <ele>235</ele>
        <time>2014-06-08T06:24:39Z</time>
      </trkpt>
      <trkpt lat="43.70669" lon="3.541">
        <ele>236</ele>
        <time>2014-06-08T06:24:43Z</time>
      </trkpt>
      <trkpt lat="43.70664" lon="3.5409">
        <ele>236.4</ele>
        <time>2014-06-08T06:24:47Z</time>
      </trkpt>
      <trkpt lat="43.70661" lon="3.54076">
        <ele>237.7</ele>
        <time>2014-06-08T06:24:52Z</time>
      </trkpt>
      <trkpt lat="43.70658" lon="3.54064">
        <ele>238.3</ele>
        <time>2014-06-08T06:24:56Z</time>
      </trkpt>
      <trkpt lat="43.70652" lon="3.54036">
        <ele>240.7</ele>
        <time>2014-06-08T06:25:05Z</time>
      </trkpt>
      <trkpt lat="43.70649" lon="3.54022">
        <ele>241.4</ele>
        <time>2014-06-08T06:25:10Z</time>
      </trkpt>
      <trkpt lat="43.70647" lon="3.54008">
        <ele>242.1</ele>
        <time>2014-06-08T06:25:15Z</time>
      </trkpt>
      <trkpt lat="43.70644" lon="3.53993">
        <ele>243</ele>
        <time>2014-06-08T06:25:20Z</time>
      </trkpt>
      <trkpt lat="43.70642" lon="3.53978">
        <ele>243.7</ele>
        <time>2014-06-08T06:25:25Z</time>
      </trkpt>
      <trkpt lat="43.70639" lon="3.53966">
        <ele>244.4</ele>
        <time>2014-06-08T06:25:29Z</time>
      </trkpt>
      <trkpt lat="43.70636" lon="3.53952">
        <ele>244.3</ele>
        <time>2014-06-08T06:25:34Z</time>
      </trkpt>
      <trkpt lat="43.70633" lon="3.53937">
        <ele>245.2</ele>
        <time>2014-06-08T06:25:39Z</time>
      </trkpt>
      <trkpt lat="43.70632" lon="3.53923">
        <ele>247.6</ele>
        <time>2014-06-08T06:25:44Z</time>
      </trkpt>
      <trkpt lat="43.7063" lon="3.53909">
        <ele>248.8</ele>
        <time>2014-06-08T06:25:49Z</time>
      </trkpt>
      <trkpt lat="43.70629" lon="3.53895">
        <ele>249.2</ele>
        <time>2014-06-08T06:25:54Z</time>
      </trkpt>
      <trkpt lat="43.70628" lon="3.53881">
        <ele>250.2</ele>
        <time>2014-06-08T06:25:59Z</time>
      </trkpt>
      <trkpt lat="43.70631" lon="3.53854">
        <ele>251.8</ele>
        <time>2014-06-08T06:26:09Z</time>
      </trkpt>
      <trkpt lat="43.70633" lon="3.5384">
        <ele>253.4</ele>
        <time>2014-06-08T06:26:14Z</time>
      </trkpt>
      <trkpt lat="43.70636" lon="3.53828">
        <ele>253.5</ele>
        <time>2014-06-08T06:26:19Z</time>
      </trkpt>
      <trkpt lat="43.70639" lon="3.53814">
        <ele>254.3</ele>
        <time>2014-06-08T06:26:24Z</time>
      </trkpt>
      <trkpt lat="43.70643" lon="3.53802">
        <ele>255.4</ele>
        <time>2014-06-08T06:26:29Z</time>
      </trkpt>
      <trkpt lat="43.70647" lon="3.5379">
        <ele>256.3</ele>
        <time>2014-06-08T06:26:34Z</time>
      </trkpt>
      <trkpt lat="43.70652" lon="3.53777">
        <ele>257.1</ele>
        <time>2014-06-08T06:26:39Z</time>
      </trkpt>
      <trkpt lat="43.70656" lon="3.53764">
        <ele>258.7</ele>
        <time>2014-06-08T06:26:44Z</time>
      </trkpt>
      <trkpt lat="43.70661" lon="3.53752">
        <ele>260</ele>
        <time>2014-06-08T06:26:49Z</time>
      </trkpt>
      <trkpt lat="43.70665" lon="3.5374">
        <ele>259.8</ele>
        <time>2014-06-08T06:26:54Z</time>
      </trkpt>
      <trkpt lat="43.70669" lon="3.53729">
        <ele>260.6</ele>
        <time>2014-06-08T06:26:59Z</time>
      </trkpt>
      <trkpt lat="43.70674" lon="3.53717">
        <ele>262.1</ele>
        <time>2014-06-08T06:27:04Z</time>
      </trkpt>
      <trkpt lat="43.70685" lon="3.53693">
        <ele>264.7</ele>
        <time>2014-06-08T06:27:14Z</time>
      </trkpt>
      <trkpt lat="43.70691" lon="3.53683">
        <ele>264.8</ele>
        <time>2014-06-08T06:27:19Z</time>
      </trkpt>
      <trkpt lat="43.70697" lon="3.53671">
        <ele>265.1</ele>
        <time>2014-06-08T06:27:24Z</time>
      </trkpt>
      <trkpt lat="43.70703" lon="3.5366">
        <ele>265.9</ele>
        <time>2014-06-08T06:27:29Z</time>
      </trkpt>
      <trkpt lat="43.7071" lon="3.53652">
        <ele>267.3</ele>
        <time>2014-06-08T06:27:34Z</time>
      </trkpt>
      <trkpt lat="43.70719" lon="3.53644">
        <ele>268.3</ele>
        <time>2014-06-08T06:27:39Z</time>
      </trkpt>
      <trkpt lat="43.70728" lon="3.53641">
        <ele>270.5</ele>
        <time>2014-06-08T06:27:44Z</time>
      </trkpt>
      <trkpt lat="43.70738" lon="3.5364">
        <ele>269.7</ele>
        <time>2014-06-08T06:27:50Z</time>
      </trkpt>
      <trkpt lat="43.70747" lon="3.53643">
        <ele>271</ele>
        <time>2014-06-08T06:27:55Z</time>
      </trkpt>
      <trkpt lat="43.70756" lon="3.53648">
        <ele>272.1</ele>
        <time>2014-06-08T06:28:00Z</time>
      </trkpt>
      <trkpt lat="43.70766" lon="3.53652">
        <ele>274.3</ele>
        <time>2014-06-08T06:28:06Z</time>
      </trkpt>
      <trkpt lat="43.70785" lon="3.53658">
        <ele>276.3</ele>
        <time>2014-06-08T06:28:17Z</time>
      </trkpt>
      <trkpt lat="43.70779" lon="3.53669">
        <ele>276.4</ele>
        <time>2014-06-08T06:28:25Z</time>
      </trkpt>
      <trkpt lat="43.70769" lon="3.53673">
        <ele>276.7</ele>
        <time>2014-06-08T06:28:30Z</time>
      </trkpt>
      <trkpt lat="43.7076" lon="3.53682">
        <ele>278.1</ele>
        <time>2014-06-08T06:28:35Z</time>
      </trkpt>
      <trkpt lat="43.70755" lon="3.53692">
        <ele>279.4</ele>
        <time>2014-06-08T06:28:39Z</time>
      </trkpt>
      <trkpt lat="43.70752" lon="3.53707">
        <ele>279.9</ele>
        <time>2014-06-08T06:28:44Z</time>
      </trkpt>
      <trkpt lat="43.70752" lon="3.53721">
        <ele>280.6</ele>
        <time>2014-06-08T06:28:49Z</time>
      </trkpt>
      <trkpt lat="43.70752" lon="3.53735">
        <ele>280.5</ele>
        <time>2014-06-08T06:28:54Z</time>
      </trkpt>
      <trkpt lat="43.70755" lon="3.53748">
        <ele>282.1</ele>
        <time>2014-06-08T06:28:59Z</time>
      </trkpt>
      <trkpt lat="43.70757" lon="3.53762">
        <ele>282.8</ele>
        <time>2014-06-08T06:29:05Z</time>
      </trkpt>
      <trkpt lat="43.70761" lon="3.53773">
        <ele>285.1</ele>
        <time>2014-06-08T06:29:11Z</time>
      </trkpt>
      <trkpt lat="43.70768" lon="3.53797">
        <ele>287.1</ele>
        <time>2014-06-08T06:29:21Z</time>
      </trkpt>
      <trkpt lat="43.70773" lon="3.53808">
        <ele>288.5</ele>
        <time>2014-06-08T06:29:26Z</time>
      </trkpt>
      <trkpt lat="43.70778" lon="3.5382">
        <ele>290.2</ele>
        <time>2014-06-08T06:29:32Z</time>
      </trkpt>
      <trkpt lat="43.70785" lon="3.53828">
        <ele>290.3</ele>
        <time>2014-06-08T06:29:37Z</time>
      </trkpt>
      <trkpt lat="43.70796" lon="3.53832">
        <ele>290.3</ele>
        <time>2014-06-08T06:29:43Z</time>
      </trkpt>
      <trkpt lat="43.70807" lon="3.53831">
        <ele>291.4</ele>
        <time>2014-06-08T06:29:48Z</time>
      </trkpt>
      <trkpt lat="43.70816" lon="3.5383">
        <ele>292</ele>
        <time>2014-06-08T06:29:52Z</time>
      </trkpt>
      <trkpt lat="43.70825" lon="3.53829">
        <ele>292.1</ele>
        <time>2014-06-08T06:29:56Z</time>
      </trkpt>
      <trkpt lat="43.70834" lon="3.53828">
        <ele>292</ele>
        <time>2014-06-08T06:30:00Z</time>
      </trkpt>
      <trkpt lat="43.70844" lon="3.53827">
        <ele>292.1</ele>
        <time>2014-06-08T06:30:04Z</time>
      </trkpt>
      <trkpt lat="43.70854" lon="3.53826">
        <ele>293.4</ele>
        <time>2014-06-08T06:30:08Z</time>
      </trkpt>
      <trkpt lat="43.70863" lon="3.53824">
        <ele>294</ele>
        <time>2014-06-08T06:30:12Z</time>
      </trkpt>
      <trkpt lat="43.70883" lon="3.53821">
        <ele>293.4</ele>
        <time>2014-06-08T06:30:20Z</time>
      </trkpt>
      <trkpt lat="43.70895" lon="3.53819">
        <ele>293.8</ele>
        <time>2014-06-08T06:30:24Z</time>
      </trkpt>
      <trkpt lat="43.70904" lon="3.53818">
        <ele>294.4</ele>
        <time>2014-06-08T06:30:27Z</time>
      </trkpt>
      <trkpt lat="43.70913" lon="3.53817">
        <ele>294.5</ele>
        <time>2014-06-08T06:30:30Z</time>
      </trkpt>
      <trkpt lat="43.70924" lon="3.53815">
        <ele>294.3</ele>
        <time>2014-06-08T06:30:34Z</time>
      </trkpt>
      <trkpt lat="43.70934" lon="3.53815">
        <ele>295</ele>
        <time>2014-06-08T06:30:38Z</time>
      </trkpt>
      <trkpt lat="43.70944" lon="3.53814">
        <ele>297</ele>
        <time>2014-06-08T06:30:43Z</time>
      </trkpt>
      <trkpt lat="43.70954" lon="3.53812">
        <ele>298</ele>
        <time>2014-06-08T06:30:48Z</time>
      </trkpt>
      <trkpt lat="43.70965" lon="3.53811">
        <ele>298.5</ele>
        <time>2014-06-08T06:30:53Z</time>
      </trkpt>
      <trkpt lat="43.70975" lon="3.5381">
        <ele>299.7</ele>
        <time>2014-06-08T06:30:58Z</time>
      </trkpt>
      <trkpt lat="43.70984" lon="3.53809">
        <ele>300.7</ele>
        <time>2014-06-08T06:31:03Z</time>
      </trkpt>
      <trkpt lat="43.70994" lon="3.53807">
        <ele>301.5</ele>
        <time>2014-06-08T06:31:09Z</time>
      </trkpt>
      <trkpt lat="43.71003" lon="3.53806">
        <ele>303.2</ele>
        <time>2014-06-08T06:31:14Z</time>
      </trkpt>
      <trkpt lat="43.71022" lon="3.53804">
        <ele>304.4</ele>
        <time>2014-06-08T06:31:24Z</time>
      </trkpt>
      <trkpt lat="43.71032" lon="3.53803">
        <ele>305.2</ele>
        <time>2014-06-08T06:31:29Z</time>
      </trkpt>
      <trkpt lat="43.71042" lon="3.53801">
        <ele>305.8</ele>
        <time>2014-06-08T06:31:34Z</time>
      </trkpt>
      <trkpt lat="43.71051" lon="3.538">
        <ele>306.5</ele>
        <time>2014-06-08T06:31:38Z</time>
      </trkpt>
      <trkpt lat="43.71061" lon="3.53799">
        <ele>306.9</ele>
        <time>2014-06-08T06:31:42Z</time>
      </trkpt>
      <trkpt lat="43.7107" lon="3.53798">
        <ele>307.1</ele>
        <time>2014-06-08T06:31:46Z</time>
      </trkpt>
      <trkpt lat="43.7108" lon="3.53797">
        <ele>308.1</ele>
        <time>2014-06-08T06:31:51Z</time>
      </trkpt>
      <trkpt lat="43.7109" lon="3.53794">
        <ele>309.5</ele>
        <time>2014-06-08T06:31:56Z</time>
      </trkpt>
      <trkpt lat="43.71101" lon="3.5379">
        <ele>310.2</ele>
        <time>2014-06-08T06:32:01Z</time>
      </trkpt>
      <trkpt lat="43.71112" lon="3.5379">
        <ele>309.8</ele>
        <time>2014-06-08T06:32:06Z</time>
      </trkpt>
      <trkpt lat="43.71122" lon="3.53789">
        <ele>311.9</ele>
        <time>2014-06-08T06:32:11Z</time>
      </trkpt>
      <trkpt lat="43.71132" lon="3.53788">
        <ele>312.5</ele>
        <time>2014-06-08T06:32:16Z</time>
      </trkpt>
      <trkpt lat="43.71152" lon="3.53784">
        <ele>314.2</ele>
        <time>2014-06-08T06:32:27Z</time>
      </trkpt>
      <trkpt lat="43.71161" lon="3.53783">
        <ele>314.9</ele>
        <time>2014-06-08T06:32:32Z</time>
      </trkpt>
      <trkpt lat="43.71171" lon="3.53781">
        <ele>315.1</ele>
        <time>2014-06-08T06:32:37Z</time>
      </trkpt>
      <trkpt lat="43.71181" lon="3.53779">
        <ele>315.6</ele>
        <time>2014-06-08T06:32:42Z</time>
      </trkpt>
      <trkpt lat="43.7119" lon="3.53779">
        <ele>317</ele>
        <time>2014-06-08T06:32:47Z</time>
      </trkpt>
      <trkpt lat="43.712" lon="3.53777">
        <ele>318.1</ele>
        <time>2014-06-08T06:32:52Z</time>
      </trkpt>
      <trkpt lat="43.71209" lon="3.53776">
        <ele>319.4</ele>
        <time>2014-06-08T06:32:57Z</time>
      </trkpt>
      <trkpt lat="43.71218" lon="3.53774">
        <ele>319.9</ele>
        <time>2014-06-08T06:33:02Z</time>
      </trkpt>
      <trkpt lat="43.71228" lon="3.53773">
        <ele>320.9</ele>
        <time>2014-06-08T06:33:07Z</time>
      </trkpt>
      <trkpt lat="43.71237" lon="3.53772">
        <ele>320.7</ele>
        <time>2014-06-08T06:33:12Z</time>
      </trkpt>
      <trkpt lat="43.71247" lon="3.5377">
        <ele>321</ele>
        <time>2014-06-08T06:33:17Z</time>
      </trkpt>
      <trkpt lat="43.71267" lon="3.53768">
        <ele>322.5</ele>
        <time>2014-06-08T06:33:27Z</time>
      </trkpt>
      <trkpt lat="43.71277" lon="3.53767">
        <ele>323.4</ele>
        <time>2014-06-08T06:33:31Z</time>
      </trkpt>
      <trkpt lat="43.71286" lon="3.53766">
        <ele>323</ele>
        <time>2014-06-08T06:33:35Z</time>
      </trkpt>
      <trkpt lat="43.71296" lon="3.53766">
        <ele>324.2</ele>
        <time>2014-06-08T06:33:39Z</time>
      </trkpt>
      <trkpt lat="43.71308" lon="3.53764">
        <ele>324.7</ele>
        <time>2014-06-08T06:33:43Z</time>
      </trkpt>
      <trkpt lat="43.71319" lon="3.53762">
        <ele>325.2</ele>
        <time>2014-06-08T06:33:47Z</time>
      </trkpt>
      <trkpt lat="43.7133" lon="3.53762">
        <ele>325.2</ele>
        <time>2014-06-08T06:33:51Z</time>
      </trkpt>
      <trkpt lat="43.71341" lon="3.53761">
        <ele>324.8</ele>
        <time>2014-06-08T06:33:55Z</time>
      </trkpt>
      <trkpt lat="43.7135" lon="3.53761">
        <ele>326.1</ele>
        <time>2014-06-08T06:33:59Z</time>
      </trkpt>
      <trkpt lat="43.7136" lon="3.5376">
        <ele>327.9</ele>
        <time>2014-06-08T06:34:04Z</time>
      </trkpt>
      <trkpt lat="43.7137" lon="3.53758">
        <ele>328.4</ele>
        <time>2014-06-08T06:34:09Z</time>
      </trkpt>
      <trkpt lat="43.7138" lon="3.53756">
        <ele>329.1</ele>
        <time>2014-06-08T06:34:14Z</time>
      </trkpt>
      <trkpt lat="43.7139" lon="3.53755">
        <ele>330.9</ele>
        <time>2014-06-08T06:34:19Z</time>
      </trkpt>
      <trkpt lat="43.71409" lon="3.53753">
        <ele>332.4</ele>
        <time>2014-06-08T06:34:29Z</time>
      </trkpt>
      <trkpt lat="43.71419" lon="3.53751">
        <ele>333.3</ele>
        <time>2014-06-08T06:34:34Z</time>
      </trkpt>
      <trkpt lat="43.71429" lon="3.53749">
        <ele>334.3</ele>
        <time>2014-06-08T06:34:39Z</time>
      </trkpt>
      <trkpt lat="43.71439" lon="3.53746">
        <ele>335.7</ele>
        <time>2014-06-08T06:34:44Z</time>
      </trkpt>
      <trkpt lat="43.71448" lon="3.53745">
        <ele>336.7</ele>
        <time>2014-06-08T06:34:49Z</time>
      </trkpt>
      <trkpt lat="43.71457" lon="3.53742">
        <ele>337.1</ele>
        <time>2014-06-08T06:34:54Z</time>
      </trkpt>
      <trkpt lat="43.71468" lon="3.5374">
        <ele>338.3</ele>
        <time>2014-06-08T06:35:00Z</time>
      </trkpt>
      <trkpt lat="43.71474" lon="3.5375">
        <ele>339.1</ele>
        <time>2014-06-08T06:35:07Z</time>
      </trkpt>
      <trkpt lat="43.71479" lon="3.53762">
        <ele>338.9</ele>
        <time>2014-06-08T06:35:14Z</time>
      </trkpt>
      <trkpt lat="43.71479" lon="3.53776">
        <ele>339</ele>
        <time>2014-06-08T06:35:20Z</time>
      </trkpt>
      <trkpt lat="43.7148" lon="3.53803">
        <ele>339</ele>
        <time>2014-06-08T06:35:30Z</time>
      </trkpt>
      <trkpt lat="43.7148" lon="3.53818">
        <ele>338.9</ele>
        <time>2014-06-08T06:35:36Z</time>
      </trkpt>
      <trkpt lat="43.71479" lon="3.53831">
        <ele>339</ele>
        <time>2014-06-08T06:35:43Z</time>
      </trkpt>
      <trkpt lat="43.71478" lon="3.53844">
        <ele>338.1</ele>
        <time>2014-06-08T06:35:48Z</time>
      </trkpt>
      <trkpt lat="43.71478" lon="3.53857">
        <ele>337.1</ele>
        <time>2014-06-08T06:35:52Z</time>
      </trkpt>
      <trkpt lat="43.71477" lon="3.53874">
        <ele>337.5</ele>
        <time>2014-06-08T06:35:56Z</time>
      </trkpt>
      <trkpt lat="43.71476" lon="3.53887">
        <ele>337.6</ele>
        <time>2014-06-08T06:35:59Z</time>
      </trkpt>
      <trkpt lat="43.71476" lon="3.539">
        <ele>337.2</ele>
        <time>2014-06-08T06:36:02Z</time>
      </trkpt>
      <trkpt lat="43.71476" lon="3.53914">
        <ele>337.4</ele>
        <time>2014-06-08T06:36:05Z</time>
      </trkpt>
      <trkpt lat="43.71474" lon="3.53929">
        <ele>337.1</ele>
        <time>2014-06-08T06:36:08Z</time>
      </trkpt>
      <trkpt lat="43.71473" lon="3.53945">
        <ele>336.8</ele>
        <time>2014-06-08T06:36:11Z</time>
      </trkpt>
      <trkpt lat="43.71472" lon="3.53959">
        <ele>336.7</ele>
        <time>2014-06-08T06:36:14Z</time>
      </trkpt>
      <trkpt lat="43.71471" lon="3.53973">
        <ele>336.6</ele>
        <time>2014-06-08T06:36:17Z</time>
      </trkpt>
      <trkpt lat="43.71476" lon="3.53985">
        <ele>336.8</ele>
        <time>2014-06-08T06:36:21Z</time>
      </trkpt>
      <trkpt lat="43.71475" lon="3.54013">
        <ele>337.3</ele>
        <time>2014-06-08T06:36:28Z</time>
      </trkpt>
      <trkpt lat="43.71474" lon="3.54028">
        <ele>337.2</ele>
        <time>2014-06-08T06:36:31Z</time>
      </trkpt>
      <trkpt lat="43.71474" lon="3.54043">
        <ele>336.5</ele>
        <time>2014-06-08T06:36:34Z</time>
      </trkpt>
      <trkpt lat="43.71472" lon="3.54059">
        <ele>337.2</ele>
        <time>2014-06-08T06:36:37Z</time>
      </trkpt>
      <trkpt lat="43.71471" lon="3.54074">
        <ele>337.4</ele>
        <time>2014-06-08T06:36:40Z</time>
      </trkpt>
      <trkpt lat="43.7147" lon="3.54087">
        <ele>336.5</ele>
        <time>2014-06-08T06:36:51Z</time>
      </trkpt>
      <trkpt lat="43.7147" lon="3.541">
        <ele>335.5</ele>
        <time>2014-06-08T06:37:01Z</time>
      </trkpt>
      <trkpt lat="43.71469" lon="3.54114">
        <ele>335.7</ele>
        <time>2014-06-08T06:37:05Z</time>
      </trkpt>
      <trkpt lat="43.71469" lon="3.54127">
        <ele>335.8</ele>
        <time>2014-06-08T06:37:13Z</time>
      </trkpt>
      <trkpt lat="43.71471" lon="3.54139">
        <ele>336.1</ele>
        <time>2014-06-08T06:37:19Z</time>
      </trkpt>
      <trkpt lat="43.71474" lon="3.54153">
        <ele>337</ele>
        <time>2014-06-08T06:37:24Z</time>
      </trkpt>
      <trkpt lat="43.71469" lon="3.54181">
        <ele>337.6</ele>
        <time>2014-06-08T06:37:33Z</time>
      </trkpt>
      <trkpt lat="43.71469" lon="3.54195">
        <ele>338.6</ele>
        <time>2014-06-08T06:37:56Z</time>
      </trkpt>
      <trkpt lat="43.71469" lon="3.5421">
        <ele>337.4</ele>
        <time>2014-06-08T06:38:01Z</time>
      </trkpt>
      <trkpt lat="43.7147" lon="3.54226">
        <ele>336.8</ele>
        <time>2014-06-08T06:38:05Z</time>
      </trkpt>
      <trkpt lat="43.7147" lon="3.54241">
        <ele>336.1</ele>
        <time>2014-06-08T06:38:08Z</time>
      </trkpt>
      <trkpt lat="43.7147" lon="3.54259">
        <ele>336.1</ele>
        <time>2014-06-08T06:38:11Z</time>
      </trkpt>
      <trkpt lat="43.71471" lon="3.54276">
        <ele>336.4</ele>
        <time>2014-06-08T06:38:14Z</time>
      </trkpt>
      <trkpt lat="43.7147" lon="3.54289">
        <ele>336</ele>
        <time>2014-06-08T06:38:17Z</time>
      </trkpt>
      <trkpt lat="43.71468" lon="3.54302">
        <ele>335.7</ele>
        <time>2014-06-08T06:38:19Z</time>
      </trkpt>
      <trkpt lat="43.71468" lon="3.54317">
        <ele>334.9</ele>
        <time>2014-06-08T06:38:21Z</time>
      </trkpt>
      <trkpt lat="43.71467" lon="3.54333">
        <ele>334.6</ele>
        <time>2014-06-08T06:38:23Z</time>
      </trkpt>
      <trkpt lat="43.71466" lon="3.54346">
        <ele>334.5</ele>
        <time>2014-06-08T06:38:25Z</time>
      </trkpt>
      <trkpt lat="43.71461" lon="3.54373">
        <ele>333.6</ele>
        <time>2014-06-08T06:38:35Z</time>
      </trkpt>
      <trkpt lat="43.71463" lon="3.54385">
        <ele>333.7</ele>
        <time>2014-06-08T06:38:43Z</time>
      </trkpt>
      <trkpt lat="43.71464" lon="3.54398">
        <ele>335.2</ele>
        <time>2014-06-08T06:38:54Z</time>
      </trkpt>
      <trkpt lat="43.71465" lon="3.54411">
        <ele>334.7</ele>
        <time>2014-06-08T06:39:07Z</time>
      </trkpt>
      <trkpt lat="43.71467" lon="3.54424">
        <ele>333.5</ele>
        <time>2014-06-08T06:39:15Z</time>
      </trkpt>
      <trkpt lat="43.71468" lon="3.54437">
        <ele>332.6</ele>
        <time>2014-06-08T06:39:23Z</time>
      </trkpt>
      <trkpt lat="43.71467" lon="3.5445">
        <ele>332.1</ele>
        <time>2014-06-08T06:39:31Z</time>
      </trkpt>
      <trkpt lat="43.71462" lon="3.54476">
        <ele>328.9</ele>
        <time>2014-06-08T06:39:48Z</time>
      </trkpt>
      <trkpt lat="43.71461" lon="3.54488">
        <ele>329.8</ele>
        <time>2014-06-08T06:39:59Z</time>
      </trkpt>
      <trkpt lat="43.71463" lon="3.54501">
        <ele>333.3</ele>
        <time>2014-06-08T06:40:15Z</time>
      </trkpt>
      <trkpt lat="43.71461" lon="3.54514">
        <ele>335.1</ele>
        <time>2014-06-08T06:40:28Z</time>
      </trkpt>
      <trkpt lat="43.7146" lon="3.54527">
        <ele>336.3</ele>
        <time>2014-06-08T06:40:37Z</time>
      </trkpt>
      <trkpt lat="43.71458" lon="3.54554">
        <ele>340.3</ele>
        <time>2014-06-08T06:40:55Z</time>
      </trkpt>
      <trkpt lat="43.71457" lon="3.54567">
        <ele>341.6</ele>
        <time>2014-06-08T06:41:04Z</time>
      </trkpt>
      <trkpt lat="43.71459" lon="3.54582">
        <ele>342.4</ele>
        <time>2014-06-08T06:41:09Z</time>
      </trkpt>
      <trkpt lat="43.71464" lon="3.54594">
        <ele>343.8</ele>
        <time>2014-06-08T06:41:14Z</time>
      </trkpt>
      <trkpt lat="43.71472" lon="3.54601">
        <ele>344.5</ele>
        <time>2014-06-08T06:41:19Z</time>
      </trkpt>
      <trkpt lat="43.71482" lon="3.54599">
        <ele>345.1</ele>
        <time>2014-06-08T06:41:24Z</time>
      </trkpt>
      <trkpt lat="43.71487" lon="3.54589">
        <ele>346.2</ele>
        <time>2014-06-08T06:41:29Z</time>
      </trkpt>
      <trkpt lat="43.71496" lon="3.54583">
        <ele>346.8</ele>
        <time>2014-06-08T06:41:34Z</time>
      </trkpt>
      <trkpt lat="43.71496" lon="3.5457">
        <ele>348.1</ele>
        <time>2014-06-08T06:41:39Z</time>
      </trkpt>
      <trkpt lat="43.71511" lon="3.54557">
        <ele>347.9</ele>
        <time>2014-06-08T06:41:47Z</time>
      </trkpt>
      <trkpt lat="43.71519" lon="3.5455">
        <ele>348.6</ele>
        <time>2014-06-08T06:41:51Z</time>
      </trkpt>
      <trkpt lat="43.71529" lon="3.54549">
        <ele>348.6</ele>
        <time>2014-06-08T06:41:56Z</time>
      </trkpt>
      <trkpt lat="43.71538" lon="3.5455">
        <ele>348.7</ele>
        <time>2014-06-08T06:42:00Z</time>
      </trkpt>
      <trkpt lat="43.71549" lon="3.54546">
        <ele>349.7</ele>
        <time>2014-06-08T06:42:04Z</time>
      </trkpt>
      <trkpt lat="43.71558" lon="3.54544">
        <ele>349.3</ele>
        <time>2014-06-08T06:42:07Z</time>
      </trkpt>
      <trkpt lat="43.71568" lon="3.54541">
        <ele>349.1</ele>
        <time>2014-06-08T06:42:10Z</time>
      </trkpt>
      <trkpt lat="43.71577" lon="3.54539">
        <ele>348.9</ele>
        <time>2014-06-08T06:42:13Z</time>
      </trkpt>
      <trkpt lat="43.71587" lon="3.54535">
        <ele>349.9</ele>
        <time>2014-06-08T06:42:17Z</time>
      </trkpt>
      <trkpt lat="43.71596" lon="3.54533">
        <ele>351.3</ele>
        <time>2014-06-08T06:42:21Z</time>
      </trkpt>
      <trkpt lat="43.71606" lon="3.54533">
        <ele>352</ele>
        <time>2014-06-08T06:42:26Z</time>
      </trkpt>
      <trkpt lat="43.71615" lon="3.54536">
        <ele>352</ele>
        <time>2014-06-08T06:42:30Z</time>
      </trkpt>
      <trkpt lat="43.71625" lon="3.54533">
        <ele>351.9</ele>
        <time>2014-06-08T06:42:35Z</time>
      </trkpt>
      <trkpt lat="43.71634" lon="3.54535">
        <ele>352.3</ele>
        <time>2014-06-08T06:42:43Z</time>
      </trkpt>
      <trkpt lat="43.71652" lon="3.54535">
        <ele>355.5</ele>
        <time>2014-06-08T06:43:05Z</time>
      </trkpt>
      <trkpt lat="43.71662" lon="3.54529">
        <ele>355.8</ele>
        <time>2014-06-08T06:43:12Z</time>
      </trkpt>
      <trkpt lat="43.71667" lon="3.54518">
        <ele>356.7</ele>
        <time>2014-06-08T06:43:20Z</time>
      </trkpt>
      <trkpt lat="43.71671" lon="3.54506">
        <ele>357.7</ele>
        <time>2014-06-08T06:43:26Z</time>
      </trkpt>
      <trkpt lat="43.71679" lon="3.54501">
        <ele>357.3</ele>
        <time>2014-06-08T06:43:30Z</time>
      </trkpt>
      <trkpt lat="43.71689" lon="3.54494">
        <ele>358.3</ele>
        <time>2014-06-08T06:43:34Z</time>
      </trkpt>
      <trkpt lat="43.71699" lon="3.54489">
        <ele>358.7</ele>
        <time>2014-06-08T06:43:38Z</time>
      </trkpt>
      <trkpt lat="43.71704" lon="3.54476">
        <ele>358.5</ele>
        <time>2014-06-08T06:43:42Z</time>
      </trkpt>
      <trkpt lat="43.71707" lon="3.54465">
        <ele>358.5</ele>
        <time>2014-06-08T06:43:45Z</time>
      </trkpt>
      <trkpt lat="43.7172" lon="3.54446">
        <ele>359.8</ele>
        <time>2014-06-08T06:43:53Z</time>
      </trkpt>
      <trkpt lat="43.7173" lon="3.54451">
        <ele>359.8</ele>
        <time>2014-06-08T06:43:57Z</time>
      </trkpt>
      <trkpt lat="43.71739" lon="3.54456">
        <ele>360.2</ele>
        <time>2014-06-08T06:44:01Z</time>
      </trkpt>
      <trkpt lat="43.71749" lon="3.54452">
        <ele>361.6</ele>
        <time>2014-06-08T06:44:07Z</time>
      </trkpt>
      <trkpt lat="43.71757" lon="3.54447">
        <ele>362.1</ele>
        <time>2014-06-08T06:44:12Z</time>
      </trkpt>
      <trkpt lat="43.71766" lon="3.54443">
        <ele>363.7</ele>
        <time>2014-06-08T06:44:19Z</time>
      </trkpt>
      <trkpt lat="43.71772" lon="3.54431">
        <ele>365.2</ele>
        <time>2014-06-08T06:45:19Z</time>
      </trkpt>
      <trkpt lat="43.71781" lon="3.54406">
        <ele>364.3</ele>
        <time>2014-06-08T06:45:26Z</time>
      </trkpt>
      <trkpt lat="43.71789" lon="3.54391">
        <ele>363</ele>
        <time>2014-06-08T06:45:29Z</time>
      </trkpt>
      <trkpt lat="43.71797" lon="3.54382">
        <ele>361.9</ele>
        <time>2014-06-08T06:45:31Z</time>
      </trkpt>
      <trkpt lat="43.71804" lon="3.54373">
        <ele>361</ele>
        <time>2014-06-08T06:45:33Z</time>
      </trkpt>
      <trkpt lat="43.71808" lon="3.54361">
        <ele>360.4</ele>
        <time>2014-06-08T06:45:35Z</time>
      </trkpt>
      <trkpt lat="43.71811" lon="3.54344">
        <ele>360.1</ele>
        <time>2014-06-08T06:45:38Z</time>
      </trkpt>
      <trkpt lat="43.71815" lon="3.54327">
        <ele>359.4</ele>
        <time>2014-06-08T06:45:41Z</time>
      </trkpt>
      <trkpt lat="43.7182" lon="3.54316">
        <ele>358.9</ele>
        <time>2014-06-08T06:45:43Z</time>
      </trkpt>
      <trkpt lat="43.71822" lon="3.54301">
        <ele>358.3</ele>
        <time>2014-06-08T06:45:46Z</time>
      </trkpt>
      <trkpt lat="43.71828" lon="3.54285">
        <ele>357.4</ele>
        <time>2014-06-08T06:45:49Z</time>
      </trkpt>
      <trkpt lat="43.71831" lon="3.54272">
        <ele>357</ele>
        <time>2014-06-08T06:45:51Z</time>
      </trkpt>
      <trkpt lat="43.71834" lon="3.54258">
        <ele>356.7</ele>
        <time>2014-06-08T06:45:53Z</time>
      </trkpt>
      <trkpt lat="43.71839" lon="3.54242">
        <ele>356.7</ele>
        <time>2014-06-08T06:45:55Z</time>
      </trkpt>
      <trkpt lat="43.71844" lon="3.5423">
        <ele>356.1</ele>
        <time>2014-06-08T06:45:57Z</time>
      </trkpt>
      <trkpt lat="43.71847" lon="3.54217">
        <ele>355.3</ele>
        <time>2014-06-08T06:45:59Z</time>
      </trkpt>
      <trkpt lat="43.71851" lon="3.54202">
        <ele>353.1</ele>
        <time>2014-06-08T06:46:02Z</time>
      </trkpt>
      <trkpt lat="43.71852" lon="3.54186">
        <ele>351.6</ele>
        <time>2014-06-08T06:46:05Z</time>
      </trkpt>
      <trkpt lat="43.71856" lon="3.54173">
        <ele>351.1</ele>
        <time>2014-06-08T06:46:07Z</time>
      </trkpt>
      <trkpt lat="43.71859" lon="3.54161">
        <ele>351.2</ele>
        <time>2014-06-08T06:46:09Z</time>
      </trkpt>
      <trkpt lat="43.71863" lon="3.5415">
        <ele>351.4</ele>
        <time>2014-06-08T06:46:12Z</time>
      </trkpt>
      <trkpt lat="43.71864" lon="3.54137">
        <ele>350.8</ele>
        <time>2014-06-08T06:46:14Z</time>
      </trkpt>
      <trkpt lat="43.71861" lon="3.54125">
        <ele>350.4</ele>
        <time>2014-06-08T06:46:16Z</time>
      </trkpt>
      <trkpt lat="43.71855" lon="3.5411">
        <ele>350.1</ele>
        <time>2014-06-08T06:46:19Z</time>
      </trkpt>
      <trkpt lat="43.71852" lon="3.54092">
        <ele>350.3</ele>
        <time>2014-06-08T06:46:22Z</time>
      </trkpt>
      <trkpt lat="43.71857" lon="3.54065">
        <ele>350.1</ele>
        <time>2014-06-08T06:46:26Z</time>
      </trkpt>
      <trkpt lat="43.7186" lon="3.54051">
        <ele>349.5</ele>
        <time>2014-06-08T06:46:28Z</time>
      </trkpt>
      <trkpt lat="43.7186" lon="3.54038">
        <ele>348.7</ele>
        <time>2014-06-08T06:46:30Z</time>
      </trkpt>
      <trkpt lat="43.71857" lon="3.54025">
        <ele>349.8</ele>
        <time>2014-06-08T06:46:32Z</time>
      </trkpt>
      <trkpt lat="43.71857" lon="3.54011">
        <ele>349.8</ele>
        <time>2014-06-08T06:46:34Z</time>
      </trkpt>
      <trkpt lat="43.71859" lon="3.53997">
        <ele>349.8</ele>
        <time>2014-06-08T06:46:36Z</time>
      </trkpt>
      <trkpt lat="43.71861" lon="3.53984">
        <ele>349.7</ele>
        <time>2014-06-08T06:46:38Z</time>
      </trkpt>
      <trkpt lat="43.71859" lon="3.53971">
        <ele>349.4</ele>
        <time>2014-06-08T06:46:40Z</time>
      </trkpt>
      <trkpt lat="43.71858" lon="3.53959">
        <ele>349.1</ele>
        <time>2014-06-08T06:46:42Z</time>
      </trkpt>
      <trkpt lat="43.7186" lon="3.53946">
        <ele>348.1</ele>
        <time>2014-06-08T06:46:44Z</time>
      </trkpt>
      <trkpt lat="43.71863" lon="3.53932">
        <ele>347.8</ele>
        <time>2014-06-08T06:46:46Z</time>
      </trkpt>
      <trkpt lat="43.71865" lon="3.53918">
        <ele>347.4</ele>
        <time>2014-06-08T06:46:48Z</time>
      </trkpt>
      <trkpt lat="43.71864" lon="3.53903">
        <ele>346.2</ele>
        <time>2014-06-08T06:46:51Z</time>
      </trkpt>
      <trkpt lat="43.71856" lon="3.53896">
        <ele>345.4</ele>
        <time>2014-06-08T06:46:53Z</time>
      </trkpt>
      <trkpt lat="43.7185" lon="3.53886">
        <ele>344.6</ele>
        <time>2014-06-08T06:46:55Z</time>
      </trkpt>
      <trkpt lat="43.71844" lon="3.53873">
        <ele>344.2</ele>
        <time>2014-06-08T06:46:57Z</time>
      </trkpt>
      <trkpt lat="43.71838" lon="3.53859">
        <ele>343.8</ele>
        <time>2014-06-08T06:46:59Z</time>
      </trkpt>
      <trkpt lat="43.71834" lon="3.53843">
        <ele>343.2</ele>
        <time>2014-06-08T06:47:01Z</time>
      </trkpt>
      <trkpt lat="43.71834" lon="3.53827">
        <ele>342.8</ele>
        <time>2014-06-08T06:47:03Z</time>
      </trkpt>
      <trkpt lat="43.71833" lon="3.5381">
        <ele>342</ele>
        <time>2014-06-08T06:47:05Z</time>
      </trkpt>
      <trkpt lat="43.71834" lon="3.53795">
        <ele>341.4</ele>
        <time>2014-06-08T06:47:07Z</time>
      </trkpt>
      <trkpt lat="43.71836" lon="3.53779">
        <ele>341.3</ele>
        <time>2014-06-08T06:47:09Z</time>
      </trkpt>
      <trkpt lat="43.71836" lon="3.53764">
        <ele>340.8</ele>
        <time>2014-06-08T06:47:11Z</time>
      </trkpt>
      <trkpt lat="43.71834" lon="3.5375">
        <ele>340.8</ele>
        <time>2014-06-08T06:47:13Z</time>
      </trkpt>
      <trkpt lat="43.71839" lon="3.53737">
        <ele>341</ele>
        <time>2014-06-08T06:47:16Z</time>
      </trkpt>
      <trkpt lat="43.71849" lon="3.53735">
        <ele>340.7</ele>
        <time>2014-06-08T06:47:19Z</time>
      </trkpt>
      <trkpt lat="43.7186" lon="3.53732">
        <ele>340.3</ele>
        <time>2014-06-08T06:47:22Z</time>
      </trkpt>
      <trkpt lat="43.71871" lon="3.53729">
        <ele>341.3</ele>
        <time>2014-06-08T06:47:25Z</time>
      </trkpt>
      <trkpt lat="43.71893" lon="3.53723">
        <ele>341.2</ele>
        <time>2014-06-08T06:47:30Z</time>
      </trkpt>
      <trkpt lat="43.71904" lon="3.53719">
        <ele>340.9</ele>
        <time>2014-06-08T06:47:32Z</time>
      </trkpt>
      <trkpt lat="43.71916" lon="3.53717">
        <ele>340.7</ele>
        <time>2014-06-08T06:47:34Z</time>
      </trkpt>
      <trkpt lat="43.71926" lon="3.53714">
        <ele>340.2</ele>
        <time>2014-06-08T06:47:36Z</time>
      </trkpt>
      <trkpt lat="43.71937" lon="3.53711">
        <ele>340.4</ele>
        <time>2014-06-08T06:47:38Z</time>
      </trkpt>
      <trkpt lat="43.71947" lon="3.53709">
        <ele>340.9</ele>
        <time>2014-06-08T06:47:40Z</time>
      </trkpt>
      <trkpt lat="43.71956" lon="3.53707">
        <ele>341.3</ele>
        <time>2014-06-08T06:47:42Z</time>
      </trkpt>
      <trkpt lat="43.71966" lon="3.53705">
        <ele>341.7</ele>
        <time>2014-06-08T06:47:44Z</time>
      </trkpt>
      <trkpt lat="43.71976" lon="3.53703">
        <ele>342.2</ele>
        <time>2014-06-08T06:47:46Z</time>
      </trkpt>
      <trkpt lat="43.71987" lon="3.537">
        <ele>342.1</ele>
        <time>2014-06-08T06:47:48Z</time>
      </trkpt>
      <trkpt lat="43.71998" lon="3.53697">
        <ele>342</ele>
        <time>2014-06-08T06:47:50Z</time>
      </trkpt>
      <trkpt lat="43.72009" lon="3.53694">
        <ele>341</ele>
        <time>2014-06-08T06:47:52Z</time>
      </trkpt>
      <trkpt lat="43.72019" lon="3.53691">
        <ele>340.8</ele>
        <time>2014-06-08T06:47:54Z</time>
      </trkpt>
      <trkpt lat="43.7203" lon="3.53688">
        <ele>341</ele>
        <time>2014-06-08T06:47:56Z</time>
      </trkpt>
      <trkpt lat="43.7204" lon="3.53685">
        <ele>341.2</ele>
        <time>2014-06-08T06:47:58Z</time>
      </trkpt>
      <trkpt lat="43.72051" lon="3.53682">
        <ele>341.2</ele>
        <time>2014-06-08T06:48:00Z</time>
      </trkpt>
      <trkpt lat="43.72061" lon="3.53679">
        <ele>340.7</ele>
        <time>2014-06-08T06:48:02Z</time>
      </trkpt>
      <trkpt lat="43.7207" lon="3.53672">
        <ele>341.1</ele>
        <time>2014-06-08T06:48:04Z</time>
      </trkpt>
      <trkpt lat="43.72076" lon="3.5366">
        <ele>340.9</ele>
        <time>2014-06-08T06:48:06Z</time>
      </trkpt>
      <trkpt lat="43.72079" lon="3.53646">
        <ele>340.6</ele>
        <time>2014-06-08T06:48:08Z</time>
      </trkpt>
      <trkpt lat="43.72082" lon="3.53631">
        <ele>340.5</ele>
        <time>2014-06-08T06:48:10Z</time>
      </trkpt>
      <trkpt lat="43.72087" lon="3.53617">
        <ele>340.6</ele>
        <time>2014-06-08T06:48:12Z</time>
      </trkpt>
      <trkpt lat="43.72094" lon="3.53608">
        <ele>340.4</ele>
        <time>2014-06-08T06:48:14Z</time>
      </trkpt>
      <trkpt lat="43.72101" lon="3.53599">
        <ele>340.1</ele>
        <time>2014-06-08T06:48:16Z</time>
      </trkpt>
      <trkpt lat="43.7211" lon="3.53587">
        <ele>340.4</ele>
        <time>2014-06-08T06:48:19Z</time>
      </trkpt>
      <trkpt lat="43.72117" lon="3.53578">
        <ele>341.9</ele>
        <time>2014-06-08T06:48:21Z</time>
      </trkpt>
      <trkpt lat="43.72126" lon="3.53567">
        <ele>341.9</ele>
        <time>2014-06-08T06:48:24Z</time>
      </trkpt>
      <trkpt lat="43.72135" lon="3.53558">
        <ele>341.9</ele>
        <time>2014-06-08T06:48:27Z</time>
      </trkpt>
      <trkpt lat="43.72154" lon="3.53546">
        <ele>343.4</ele>
        <time>2014-06-08T06:48:34Z</time>
      </trkpt>
      <trkpt lat="43.72163" lon="3.53539">
        <ele>343.6</ele>
        <time>2014-06-08T06:48:38Z</time>
      </trkpt>
      <trkpt lat="43.72172" lon="3.5353">
        <ele>345</ele>
        <time>2014-06-08T06:48:42Z</time>
      </trkpt>
      <trkpt lat="43.72181" lon="3.5352">
        <ele>346.4</ele>
        <time>2014-06-08T06:48:46Z</time>
      </trkpt>
      <trkpt lat="43.7219" lon="3.5351">
        <ele>347.2</ele>
        <time>2014-06-08T06:48:50Z</time>
      </trkpt>
      <trkpt lat="43.72198" lon="3.535">
        <ele>348.2</ele>
        <time>2014-06-08T06:48:54Z</time>
      </trkpt>
      <trkpt lat="43.72207" lon="3.53491">
        <ele>349.2</ele>
        <time>2014-06-08T06:48:58Z</time>
      </trkpt>
      <trkpt lat="43.72214" lon="3.53482">
        <ele>351.5</ele>
        <time>2014-06-08T06:49:02Z</time>
      </trkpt>
      <trkpt lat="43.72221" lon="3.53473">
        <ele>351.2</ele>
        <time>2014-06-08T06:49:06Z</time>
      </trkpt>
      <trkpt lat="43.72227" lon="3.53463">
        <ele>351.8</ele>
        <time>2014-06-08T06:49:10Z</time>
      </trkpt>
      <trkpt lat="43.72233" lon="3.53451">
        <ele>352</ele>
        <time>2014-06-08T06:49:14Z</time>
      </trkpt>
      <trkpt lat="43.72237" lon="3.53439">
        <ele>352.7</ele>
        <time>2014-06-08T06:49:18Z</time>
      </trkpt>
      <trkpt lat="43.72238" lon="3.53427">
        <ele>354.3</ele>
        <time>2014-06-08T06:49:22Z</time>
      </trkpt>
      <trkpt lat="43.72236" lon="3.53411">
        <ele>354.2</ele>
        <time>2014-06-08T06:49:27Z</time>
      </trkpt>
      <trkpt lat="43.72235" lon="3.53399">
        <ele>355.6</ele>
        <time>2014-06-08T06:49:31Z</time>
      </trkpt>
      <trkpt lat="43.72231" lon="3.53374">
        <ele>356.3</ele>
        <time>2014-06-08T06:49:39Z</time>
      </trkpt>
      <trkpt lat="43.7223" lon="3.53361">
        <ele>357.1</ele>
        <time>2014-06-08T06:49:43Z</time>
      </trkpt>
      <trkpt lat="43.72229" lon="3.53348">
        <ele>357.6</ele>
        <time>2014-06-08T06:49:47Z</time>
      </trkpt>
      <trkpt lat="43.72229" lon="3.53335">
        <ele>358.7</ele>
        <time>2014-06-08T06:49:51Z</time>
      </trkpt>
      <trkpt lat="43.72229" lon="3.53321">
        <ele>358.9</ele>
        <time>2014-06-08T06:49:55Z</time>
      </trkpt>
      <trkpt lat="43.72231" lon="3.53308">
        <ele>360.3</ele>
        <time>2014-06-08T06:49:59Z</time>
      </trkpt>
      <trkpt lat="43.72232" lon="3.53295">
        <ele>360.8</ele>
        <time>2014-06-08T06:50:03Z</time>
      </trkpt>
      <trkpt lat="43.72231" lon="3.53282">
        <ele>360.7</ele>
        <time>2014-06-08T06:50:07Z</time>
      </trkpt>
      <trkpt lat="43.72226" lon="3.53268">
        <ele>363.1</ele>
        <time>2014-06-08T06:50:12Z</time>
      </trkpt>
      <trkpt lat="43.72222" lon="3.53257">
        <ele>363</ele>
        <time>2014-06-08T06:50:16Z</time>
      </trkpt>
      <trkpt lat="43.72221" lon="3.53243">
        <ele>363.5</ele>
        <time>2014-06-08T06:50:20Z</time>
      </trkpt>
      <trkpt lat="43.72228" lon="3.53235">
        <ele>363.8</ele>
        <time>2014-06-08T06:50:25Z</time>
      </trkpt>
      <trkpt lat="43.72234" lon="3.53245">
        <ele>365.4</ele>
        <time>2014-06-08T06:50:30Z</time>
      </trkpt>
      <trkpt lat="43.72242" lon="3.53254">
        <ele>366.1</ele>
        <time>2014-06-08T06:50:35Z</time>
      </trkpt>
      <trkpt lat="43.72261" lon="3.53267">
        <ele>367.6</ele>
        <time>2014-06-08T06:50:45Z</time>
      </trkpt>
      <trkpt lat="43.72267" lon="3.53277">
        <ele>367.8</ele>
        <time>2014-06-08T06:50:49Z</time>
      </trkpt>
      <trkpt lat="43.72273" lon="3.53287">
        <ele>368.7</ele>
        <time>2014-06-08T06:50:53Z</time>
      </trkpt>
      <trkpt lat="43.72278" lon="3.53297">
        <ele>370.5</ele>
        <time>2014-06-08T06:50:57Z</time>
      </trkpt>
      <trkpt lat="43.72284" lon="3.53307">
        <ele>370.6</ele>
        <time>2014-06-08T06:51:01Z</time>
      </trkpt>
      <trkpt lat="43.72291" lon="3.53316">
        <ele>371.2</ele>
        <time>2014-06-08T06:51:05Z</time>
      </trkpt>
      <trkpt lat="43.72299" lon="3.53323">
        <ele>372.4</ele>
        <time>2014-06-08T06:51:09Z</time>
      </trkpt>
      <trkpt lat="43.72309" lon="3.53328">
        <ele>372.6</ele>
        <time>2014-06-08T06:51:14Z</time>
      </trkpt>
      <trkpt lat="43.72318" lon="3.53329">
        <ele>373.9</ele>
        <time>2014-06-08T06:51:18Z</time>
      </trkpt>
      <trkpt lat="43.72328" lon="3.53328">
        <ele>375</ele>
        <time>2014-06-08T06:51:23Z</time>
      </trkpt>
      <trkpt lat="43.72338" lon="3.53324">
        <ele>376.1</ele>
        <time>2014-06-08T06:51:28Z</time>
      </trkpt>
      <trkpt lat="43.72348" lon="3.53319">
        <ele>376.4</ele>
        <time>2014-06-08T06:51:33Z</time>
      </trkpt>
      <trkpt lat="43.72357" lon="3.53318">
        <ele>376.2</ele>
        <time>2014-06-08T06:51:37Z</time>
      </trkpt>
      <trkpt lat="43.72377" lon="3.53317">
        <ele>379.2</ele>
        <time>2014-06-08T06:51:46Z</time>
      </trkpt>
      <trkpt lat="43.72386" lon="3.53311">
        <ele>379.1</ele>
        <time>2014-06-08T06:51:50Z</time>
      </trkpt>
      <trkpt lat="43.72377" lon="3.53303">
        <ele>380.3</ele>
        <time>2014-06-08T06:51:57Z</time>
      </trkpt>
      <trkpt lat="43.72367" lon="3.53298">
        <ele>381.3</ele>
        <time>2014-06-08T06:52:02Z</time>
      </trkpt>
      <trkpt lat="43.72358" lon="3.53289">
        <ele>382.1</ele>
        <time>2014-06-08T06:52:07Z</time>
      </trkpt>
      <trkpt lat="43.72352" lon="3.53279">
        <ele>382</ele>
        <time>2014-06-08T06:52:11Z</time>
      </trkpt>
      <trkpt lat="43.72345" lon="3.53267">
        <ele>383.6</ele>
        <time>2014-06-08T06:52:16Z</time>
      </trkpt>
      <trkpt lat="43.72341" lon="3.53256">
        <ele>384.1</ele>
        <time>2014-06-08T06:52:20Z</time>
      </trkpt>
      <trkpt lat="43.72337" lon="3.53242">
        <ele>384.6</ele>
        <time>2014-06-08T06:52:25Z</time>
      </trkpt>
      <trkpt lat="43.72334" lon="3.53229">
        <ele>385.3</ele>
        <time>2014-06-08T06:52:29Z</time>
      </trkpt>
      <trkpt lat="43.72332" lon="3.53216">
        <ele>385.9</ele>
        <time>2014-06-08T06:52:33Z</time>
      </trkpt>
      <trkpt lat="43.72331" lon="3.53203">
        <ele>387.2</ele>
        <time>2014-06-08T06:52:37Z</time>
      </trkpt>
      <trkpt lat="43.72329" lon="3.53191">
        <ele>387.6</ele>
        <time>2014-06-08T06:52:41Z</time>
      </trkpt>
      <trkpt lat="43.72327" lon="3.53162">
        <ele>389.3</ele>
        <time>2014-06-08T06:52:50Z</time>
      </trkpt>
      <trkpt lat="43.72326" lon="3.53148">
        <ele>390.8</ele>
        <time>2014-06-08T06:52:55Z</time>
      </trkpt>
      <trkpt lat="43.72325" lon="3.53132">
        <ele>391.5</ele>
        <time>2014-06-08T06:53:00Z</time>
      </trkpt>
      <trkpt lat="43.72327" lon="3.53117">
        <ele>392.7</ele>
        <time>2014-06-08T06:53:05Z</time>
      </trkpt>
      <trkpt lat="43.72329" lon="3.53104">
        <ele>392.7</ele>
        <time>2014-06-08T06:53:09Z</time>
      </trkpt>
      <trkpt lat="43.72332" lon="3.53092">
        <ele>392.9</ele>
        <time>2014-06-08T06:53:13Z</time>
      </trkpt>
      <trkpt lat="43.72334" lon="3.53079">
        <ele>393.5</ele>
        <time>2014-06-08T06:53:17Z</time>
      </trkpt>
      <trkpt lat="43.72337" lon="3.53064">
        <ele>394.6</ele>
        <time>2014-06-08T06:53:22Z</time>
      </trkpt>
      <trkpt lat="43.72338" lon="3.53049">
        <ele>395.7</ele>
        <time>2014-06-08T06:53:27Z</time>
      </trkpt>
      <trkpt lat="43.72342" lon="3.53035">
        <ele>397.5</ele>
        <time>2014-06-08T06:53:32Z</time>
      </trkpt>
      <trkpt lat="43.72347" lon="3.53024">
        <ele>398.4</ele>
        <time>2014-06-08T06:53:36Z</time>
      </trkpt>
      <trkpt lat="43.72353" lon="3.53012">
        <ele>398.9</ele>
        <time>2014-06-08T06:53:41Z</time>
      </trkpt>
      <trkpt lat="43.72359" lon="3.53001">
        <ele>398.9</ele>
        <time>2014-06-08T06:53:46Z</time>
      </trkpt>
      <trkpt lat="43.72372" lon="3.52977">
        <ele>400.5</ele>
        <time>2014-06-08T06:53:56Z</time>
      </trkpt>
      <trkpt lat="43.72378" lon="3.52968">
        <ele>401.8</ele>
        <time>2014-06-08T06:54:00Z</time>
      </trkpt>
      <trkpt lat="43.72384" lon="3.52955">
        <ele>402.5</ele>
        <time>2014-06-08T06:54:05Z</time>
      </trkpt>
      <trkpt lat="43.72386" lon="3.52943">
        <ele>403.1</ele>
        <time>2014-06-08T06:54:09Z</time>
      </trkpt>
      <trkpt lat="43.7239" lon="3.52928">
        <ele>404.2</ele>
        <time>2014-06-08T06:54:14Z</time>
      </trkpt>
      <trkpt lat="43.72399" lon="3.52924">
        <ele>404.5</ele>
        <time>2014-06-08T06:54:18Z</time>
      </trkpt>
      <trkpt lat="43.72406" lon="3.52935">
        <ele>405.4</ele>
        <time>2014-06-08T06:54:23Z</time>
      </trkpt>
      <trkpt lat="43.72403" lon="3.5295">
        <ele>406.9</ele>
        <time>2014-06-08T06:54:27Z</time>
      </trkpt>
      <trkpt lat="43.72397" lon="3.52962">
        <ele>407.1</ele>
        <time>2014-06-08T06:54:30Z</time>
      </trkpt>
      <trkpt lat="43.72392" lon="3.52973">
        <ele>407.6</ele>
        <time>2014-06-08T06:54:33Z</time>
      </trkpt>
      <trkpt lat="43.72388" lon="3.52986">
        <ele>407.6</ele>
        <time>2014-06-08T06:54:36Z</time>
      </trkpt>
      <trkpt lat="43.72386" lon="3.52998">
        <ele>408.4</ele>
        <time>2014-06-08T06:54:39Z</time>
      </trkpt>
      <trkpt lat="43.72385" lon="3.53011">
        <ele>409.4</ele>
        <time>2014-06-08T06:54:42Z</time>
      </trkpt>
      <trkpt lat="43.72384" lon="3.53023">
        <ele>410</ele>
        <time>2014-06-08T06:54:45Z</time>
      </trkpt>
      <trkpt lat="43.72384" lon="3.53038">
        <ele>410</ele>
        <time>2014-06-08T06:54:49Z</time>
      </trkpt>
      <trkpt lat="43.72393" lon="3.53065">
        <ele>411.8</ele>
        <time>2014-06-08T06:54:57Z</time>
      </trkpt>
      <trkpt lat="43.72401" lon="3.53073">
        <ele>412.8</ele>
        <time>2014-06-08T06:55:01Z</time>
      </trkpt>
      <trkpt lat="43.7241" lon="3.53079">
        <ele>412.7</ele>
        <time>2014-06-08T06:55:05Z</time>
      </trkpt>
      <trkpt lat="43.7242" lon="3.53084">
        <ele>413.6</ele>
        <time>2014-06-08T06:55:09Z</time>
      </trkpt>
      <trkpt lat="43.72428" lon="3.53089">
        <ele>414.5</ele>
        <time>2014-06-08T06:55:13Z</time>
      </trkpt>
      <trkpt lat="43.72439" lon="3.5309">
        <ele>416.4</ele>
        <time>2014-06-08T06:55:18Z</time>
      </trkpt>
      <trkpt lat="43.72442" lon="3.53078">
        <ele>417</ele>
        <time>2014-06-08T06:55:23Z</time>
      </trkpt>
      <trkpt lat="43.72435" lon="3.53066">
        <ele>417.6</ele>
        <time>2014-06-08T06:55:28Z</time>
      </trkpt>
      <trkpt lat="43.7243" lon="3.53054">
        <ele>418.5</ele>
        <time>2014-06-08T06:55:32Z</time>
      </trkpt>
      <trkpt lat="43.7243" lon="3.5304">
        <ele>419.7</ele>
        <time>2014-06-08T06:55:36Z</time>
      </trkpt>
      <trkpt lat="43.72434" lon="3.53026">
        <ele>420.7</ele>
        <time>2014-06-08T06:55:41Z</time>
      </trkpt>
      <trkpt lat="43.72439" lon="3.53014">
        <ele>421.7</ele>
        <time>2014-06-08T06:55:46Z</time>
      </trkpt>
      <trkpt lat="43.72446" lon="3.53005">
        <ele>422.7</ele>
        <time>2014-06-08T06:55:51Z</time>
      </trkpt>
      <trkpt lat="43.7246" lon="3.52985">
        <ele>424.8</ele>
        <time>2014-06-08T06:56:03Z</time>
      </trkpt>
      <trkpt lat="43.72464" lon="3.52972">
        <ele>424.9</ele>
        <time>2014-06-08T06:56:09Z</time>
      </trkpt>
      <trkpt lat="43.72466" lon="3.52959">
        <ele>426.6</ele>
        <time>2014-06-08T06:56:14Z</time>
      </trkpt>
      <trkpt lat="43.72471" lon="3.52947">
        <ele>427.7</ele>
        <time>2014-06-08T06:56:20Z</time>
      </trkpt>
      <trkpt lat="43.72477" lon="3.52957">
        <ele>429</ele>
        <time>2014-06-08T06:56:27Z</time>
      </trkpt>
      <trkpt lat="43.72479" lon="3.52969">
        <ele>429.5</ele>
        <time>2014-06-08T06:56:33Z</time>
      </trkpt>
      <trkpt lat="43.72482" lon="3.52982">
        <ele>430.7</ele>
        <time>2014-06-08T06:56:39Z</time>
      </trkpt>
      <trkpt lat="43.72486" lon="3.52995">
        <ele>430.8</ele>
        <time>2014-06-08T06:56:44Z</time>
      </trkpt>
      <trkpt lat="43.72494" lon="3.52988">
        <ele>432.9</ele>
        <time>2014-06-08T06:56:50Z</time>
      </trkpt>
      <trkpt lat="43.72494" lon="3.52975">
        <ele>434.2</ele>
        <time>2014-06-08T06:56:55Z</time>
      </trkpt>
      <trkpt lat="43.72499" lon="3.52947">
        <ele>435.6</ele>
        <time>2014-06-08T06:57:05Z</time>
      </trkpt>
      <trkpt lat="43.72501" lon="3.52933">
        <ele>436.5</ele>
        <time>2014-06-08T06:57:09Z</time>
      </trkpt>
      <trkpt lat="43.72504" lon="3.5292">
        <ele>437.3</ele>
        <time>2014-06-08T06:57:13Z</time>
      </trkpt>
      <trkpt lat="43.72506" lon="3.52907">
        <ele>437.4</ele>
        <time>2014-06-08T06:57:17Z</time>
      </trkpt>
      <trkpt lat="43.72508" lon="3.52893">
        <ele>438.1</ele>
        <time>2014-06-08T06:57:21Z</time>
      </trkpt>
      <trkpt lat="43.72509" lon="3.5288">
        <ele>438.4</ele>
        <time>2014-06-08T06:57:25Z</time>
      </trkpt>
      <trkpt lat="43.72511" lon="3.52866">
        <ele>439.1</ele>
        <time>2014-06-08T06:57:29Z</time>
      </trkpt>
      <trkpt lat="43.72512" lon="3.52853">
        <ele>440.5</ele>
        <time>2014-06-08T06:57:33Z</time>
      </trkpt>
      <trkpt lat="43.72514" lon="3.52838">
        <ele>441.1</ele>
        <time>2014-06-08T06:57:37Z</time>
      </trkpt>
      <trkpt lat="43.72515" lon="3.52825">
        <ele>442.5</ele>
        <time>2014-06-08T06:57:41Z</time>
      </trkpt>
      <trkpt lat="43.72518" lon="3.52812">
        <ele>442.8</ele>
        <time>2014-06-08T06:57:45Z</time>
      </trkpt>
      <trkpt lat="43.72522" lon="3.52799">
        <ele>443.9</ele>
        <time>2014-06-08T06:57:49Z</time>
      </trkpt>
      <trkpt lat="43.72528" lon="3.52788">
        <ele>444.1</ele>
        <time>2014-06-08T06:57:53Z</time>
      </trkpt>
      <trkpt lat="43.72531" lon="3.52775">
        <ele>445.3</ele>
        <time>2014-06-08T06:57:57Z</time>
      </trkpt>
      <trkpt lat="43.72526" lon="3.52748">
        <ele>447.5</ele>
        <time>2014-06-08T06:58:05Z</time>
      </trkpt>
      <trkpt lat="43.72523" lon="3.52736">
        <ele>448.1</ele>
        <time>2014-06-08T06:58:09Z</time>
      </trkpt>
      <trkpt lat="43.72522" lon="3.52721">
        <ele>448.9</ele>
        <time>2014-06-08T06:58:14Z</time>
      </trkpt>
      <trkpt lat="43.72526" lon="3.52707">
        <ele>450.7</ele>
        <time>2014-06-08T06:58:19Z</time>
      </trkpt>
      <trkpt lat="43.72529" lon="3.52693">
        <ele>451.3</ele>
        <time>2014-06-08T06:58:24Z</time>
      </trkpt>
      <trkpt lat="43.72533" lon="3.52679">
        <ele>451.7</ele>
        <time>2014-06-08T06:58:29Z</time>
      </trkpt>
      <trkpt lat="43.72536" lon="3.52667">
        <ele>453.5</ele>
        <time>2014-06-08T06:58:34Z</time>
      </trkpt>
      <trkpt lat="43.72541" lon="3.52656">
        <ele>454.9</ele>
        <time>2014-06-08T06:58:39Z</time>
      </trkpt>
      <trkpt lat="43.72548" lon="3.52645">
        <ele>456.3</ele>
        <time>2014-06-08T06:58:45Z</time>
      </trkpt>
      <trkpt lat="43.72554" lon="3.52636">
        <ele>457.9</ele>
        <time>2014-06-08T06:58:50Z</time>
      </trkpt>
      <trkpt lat="43.72563" lon="3.52626">
        <ele>458.8</ele>
        <time>2014-06-08T06:58:56Z</time>
      </trkpt>
      <trkpt lat="43.72571" lon="3.52618">
        <ele>459.3</ele>
        <time>2014-06-08T06:59:02Z</time>
      </trkpt>
      <trkpt lat="43.72587" lon="3.526">
        <ele>461.5</ele>
        <time>2014-06-08T06:59:14Z</time>
      </trkpt>
      <trkpt lat="43.72594" lon="3.5259">
        <ele>463.7</ele>
        <time>2014-06-08T06:59:20Z</time>
      </trkpt>
      <trkpt lat="43.72601" lon="3.52581">
        <ele>464.7</ele>
        <time>2014-06-08T06:59:25Z</time>
      </trkpt>
      <trkpt lat="43.72608" lon="3.52571">
        <ele>464.8</ele>
        <time>2014-06-08T06:59:31Z</time>
      </trkpt>
      <trkpt lat="43.72615" lon="3.52563">
        <ele>465.8</ele>
        <time>2014-06-08T06:59:36Z</time>
      </trkpt>
      <trkpt lat="43.72623" lon="3.52555">
        <ele>466.5</ele>
        <time>2014-06-08T06:59:41Z</time>
      </trkpt>
      <trkpt lat="43.72631" lon="3.52545">
        <ele>467.3</ele>
        <time>2014-06-08T06:59:47Z</time>
      </trkpt>
      <trkpt lat="43.72637" lon="3.52534">
        <ele>469</ele>
        <time>2014-06-08T06:59:52Z</time>
      </trkpt>
      <trkpt lat="43.72643" lon="3.52523">
        <ele>470.9</ele>
        <time>2014-06-08T06:59:57Z</time>
      </trkpt>
      <trkpt lat="43.72648" lon="3.52512">
        <ele>470.9</ele>
        <time>2014-06-08T07:00:02Z</time>
      </trkpt>
      <trkpt lat="43.72653" lon="3.52501">
        <ele>471.7</ele>
        <time>2014-06-08T07:00:07Z</time>
      </trkpt>
      <trkpt lat="43.72664" lon="3.52478">
        <ele>474.1</ele>
        <time>2014-06-08T07:00:17Z</time>
      </trkpt>
      <trkpt lat="43.72669" lon="3.52468">
        <ele>475.2</ele>
        <time>2014-06-08T07:00:22Z</time>
      </trkpt>
      <trkpt lat="43.72675" lon="3.52457">
        <ele>475.2</ele>
        <time>2014-06-08T07:00:27Z</time>
      </trkpt>
      <trkpt lat="43.72682" lon="3.52447">
        <ele>475.6</ele>
        <time>2014-06-08T07:00:32Z</time>
      </trkpt>
      <trkpt lat="43.7269" lon="3.52437">
        <ele>476.3</ele>
        <time>2014-06-08T07:00:38Z</time>
      </trkpt>
      <trkpt lat="43.72698" lon="3.5243">
        <ele>477</ele>
        <time>2014-06-08T07:00:43Z</time>
      </trkpt>
      <trkpt lat="43.72707" lon="3.52425">
        <ele>478.1</ele>
        <time>2014-06-08T07:00:48Z</time>
      </trkpt>
      <trkpt lat="43.72717" lon="3.5242">
        <ele>479.1</ele>
        <time>2014-06-08T07:00:53Z</time>
      </trkpt>
      <trkpt lat="43.72726" lon="3.52415">
        <ele>480.2</ele>
        <time>2014-06-08T07:00:58Z</time>
      </trkpt>
      <trkpt lat="43.72737" lon="3.52408">
        <ele>480</ele>
        <time>2014-06-08T07:01:03Z</time>
      </trkpt>
      <trkpt lat="43.72753" lon="3.52395">
        <ele>482</ele>
        <time>2014-06-08T07:01:11Z</time>
      </trkpt>
      <trkpt lat="43.7277" lon="3.52375">
        <ele>482</ele>
        <time>2014-06-08T07:01:19Z</time>
      </trkpt>
      <trkpt lat="43.72778" lon="3.52363">
        <ele>483</ele>
        <time>2014-06-08T07:01:23Z</time>
      </trkpt>
      <trkpt lat="43.72785" lon="3.52352">
        <ele>484</ele>
        <time>2014-06-08T07:01:27Z</time>
      </trkpt>
      <trkpt lat="43.72792" lon="3.52339">
        <ele>484</ele>
        <time>2014-06-08T07:01:31Z</time>
      </trkpt>
      <trkpt lat="43.72798" lon="3.52326">
        <ele>484.4</ele>
        <time>2014-06-08T07:01:35Z</time>
      </trkpt>
      <trkpt lat="43.72805" lon="3.52314">
        <ele>485.5</ele>
        <time>2014-06-08T07:01:39Z</time>
      </trkpt>
      <trkpt lat="43.72813" lon="3.52303">
        <ele>486.7</ele>
        <time>2014-06-08T07:01:43Z</time>
      </trkpt>
      <trkpt lat="43.72821" lon="3.52291">
        <ele>486.5</ele>
        <time>2014-06-08T07:01:47Z</time>
      </trkpt>
      <trkpt lat="43.72828" lon="3.5228">
        <ele>486.5</ele>
        <time>2014-06-08T07:01:51Z</time>
      </trkpt>
      <trkpt lat="43.72835" lon="3.52267">
        <ele>486.5</ele>
        <time>2014-06-08T07:01:55Z</time>
      </trkpt>
      <trkpt lat="43.72843" lon="3.52257">
        <ele>487.6</ele>
        <time>2014-06-08T07:01:59Z</time>
      </trkpt>
      <trkpt lat="43.72851" lon="3.5225">
        <ele>488.1</ele>
        <time>2014-06-08T07:02:04Z</time>
      </trkpt>
      <trkpt lat="43.7286" lon="3.52239">
        <ele>489.5</ele>
        <time>2014-06-08T07:02:09Z</time>
      </trkpt>
      <trkpt lat="43.72866" lon="3.52231">
        <ele>489.7</ele>
        <time>2014-06-08T07:02:13Z</time>
      </trkpt>
      <trkpt lat="43.72874" lon="3.52223">
        <ele>490.5</ele>
        <time>2014-06-08T07:02:18Z</time>
      </trkpt>
      <trkpt lat="43.72893" lon="3.52211">
        <ele>492.2</ele>
        <time>2014-06-08T07:02:29Z</time>
      </trkpt>
      <trkpt lat="43.72903" lon="3.5221">
        <ele>492.6</ele>
        <time>2014-06-08T07:02:34Z</time>
      </trkpt>
      <trkpt lat="43.72914" lon="3.52207">
        <ele>493.9</ele>
        <time>2014-06-08T07:02:39Z</time>
      </trkpt>
      <trkpt lat="43.72922" lon="3.52204">
        <ele>494.5</ele>
        <time>2014-06-08T07:02:43Z</time>
      </trkpt>
      <trkpt lat="43.72931" lon="3.52197">
        <ele>494.3</ele>
        <time>2014-06-08T07:02:47Z</time>
      </trkpt>
      <trkpt lat="43.72939" lon="3.5219">
        <ele>495.4</ele>
        <time>2014-06-08T07:02:51Z</time>
      </trkpt>
      <trkpt lat="43.72948" lon="3.52182">
        <ele>496.1</ele>
        <time>2014-06-08T07:02:55Z</time>
      </trkpt>
      <trkpt lat="43.72959" lon="3.52178">
        <ele>496.8</ele>
        <time>2014-06-08T07:03:00Z</time>
      </trkpt>
      <trkpt lat="43.72968" lon="3.52172">
        <ele>496.6</ele>
        <time>2014-06-08T07:03:04Z</time>
      </trkpt>
      <trkpt lat="43.72978" lon="3.52165">
        <ele>497.3</ele>
        <time>2014-06-08T07:03:08Z</time>
      </trkpt>
      <trkpt lat="43.72988" lon="3.52158">
        <ele>497.8</ele>
        <time>2014-06-08T07:03:12Z</time>
      </trkpt>
      <trkpt lat="43.72998" lon="3.52156">
        <ele>498</ele>
        <time>2014-06-08T07:03:16Z</time>
      </trkpt>
      <trkpt lat="43.73007" lon="3.52154">
        <ele>499.3</ele>
        <time>2014-06-08T07:03:20Z</time>
      </trkpt>
      <trkpt lat="43.73026" lon="3.52151">
        <ele>500.2</ele>
        <time>2014-06-08T07:03:28Z</time>
      </trkpt>
      <trkpt lat="43.73036" lon="3.52153">
        <ele>501.2</ele>
        <time>2014-06-08T07:03:33Z</time>
      </trkpt>
      <trkpt lat="43.73046" lon="3.5215">
        <ele>502.4</ele>
        <time>2014-06-08T07:03:39Z</time>
      </trkpt>
      <trkpt lat="43.73052" lon="3.52141">
        <ele>504.8</ele>
        <time>2014-06-08T07:03:45Z</time>
      </trkpt>
      <trkpt lat="43.7306" lon="3.52132">
        <ele>505.9</ele>
        <time>2014-06-08T07:03:53Z</time>
      </trkpt>
      <trkpt lat="43.73069" lon="3.5213">
        <ele>508.1</ele>
        <time>2014-06-08T07:04:00Z</time>
      </trkpt>
      <trkpt lat="43.73075" lon="3.5212">
        <ele>509.2</ele>
        <time>2014-06-08T07:04:07Z</time>
      </trkpt>
      <trkpt lat="43.73082" lon="3.52111">
        <ele>508.9</ele>
        <time>2014-06-08T07:04:13Z</time>
      </trkpt>
      <trkpt lat="43.73089" lon="3.521">
        <ele>510.7</ele>
        <time>2014-06-08T07:04:20Z</time>
      </trkpt>
      <trkpt lat="43.73097" lon="3.52093">
        <ele>511.2</ele>
        <time>2014-06-08T07:04:27Z</time>
      </trkpt>
      <trkpt lat="43.73115" lon="3.5208">
        <ele>513.2</ele>
        <time>2014-06-08T07:04:40Z</time>
      </trkpt>
      <trkpt lat="43.73123" lon="3.52073">
        <ele>514.9</ele>
        <time>2014-06-08T07:04:46Z</time>
      </trkpt>
      <trkpt lat="43.73131" lon="3.52066">
        <ele>515.8</ele>
        <time>2014-06-08T07:04:52Z</time>
      </trkpt>
      <trkpt lat="43.73139" lon="3.5206">
        <ele>516.3</ele>
        <time>2014-06-08T07:04:58Z</time>
      </trkpt>
      <trkpt lat="43.73146" lon="3.52051">
        <ele>517.5</ele>
        <time>2014-06-08T07:05:05Z</time>
      </trkpt>
      <trkpt lat="43.73153" lon="3.52041">
        <ele>518.7</ele>
        <time>2014-06-08T07:05:12Z</time>
      </trkpt>
      <trkpt lat="43.7316" lon="3.52031">
        <ele>519.4</ele>
        <time>2014-06-08T07:05:18Z</time>
      </trkpt>
      <trkpt lat="43.73163" lon="3.52019">
        <ele>520.8</ele>
        <time>2014-06-08T07:05:24Z</time>
      </trkpt>
      <trkpt lat="43.7317" lon="3.5201">
        <ele>521.6</ele>
        <time>2014-06-08T07:05:30Z</time>
      </trkpt>
      <trkpt lat="43.73185" lon="3.51995">
        <ele>523.6</ele>
        <time>2014-06-08T07:05:43Z</time>
      </trkpt>
      <trkpt lat="43.73193" lon="3.51987">
        <ele>524.6</ele>
        <time>2014-06-08T07:05:50Z</time>
      </trkpt>
      <trkpt lat="43.73202" lon="3.51979">
        <ele>525.5</ele>
        <time>2014-06-08T07:05:57Z</time>
      </trkpt>
      <trkpt lat="43.73211" lon="3.51972">
        <ele>526.3</ele>
        <time>2014-06-08T07:06:04Z</time>
      </trkpt>
      <trkpt lat="43.73219" lon="3.51967">
        <ele>527.9</ele>
        <time>2014-06-08T07:06:11Z</time>
      </trkpt>
      <trkpt lat="43.73228" lon="3.51962">
        <ele>529.8</ele>
        <time>2014-06-08T07:06:19Z</time>
      </trkpt>
      <trkpt lat="43.7322" lon="3.51955">
        <ele>531.3</ele>
        <time>2014-06-08T07:06:28Z</time>
      </trkpt>
      <trkpt lat="43.73212" lon="3.51948">
        <ele>531.8</ele>
        <time>2014-06-08T07:06:36Z</time>
      </trkpt>
      <trkpt lat="43.73232" lon="3.51943">
        <ele>533.1</ele>
        <time>2014-06-08T07:06:52Z</time>
      </trkpt>
      <trkpt lat="43.73241" lon="3.5194">
        <ele>533.8</ele>
        <time>2014-06-08T07:06:58Z</time>
      </trkpt>
      <trkpt lat="43.7325" lon="3.51937">
        <ele>535.2</ele>
        <time>2014-06-08T07:07:05Z</time>
      </trkpt>
      <trkpt lat="43.7326" lon="3.51939">
        <ele>536.9</ele>
        <time>2014-06-08T07:07:12Z</time>
      </trkpt>
      <trkpt lat="43.73265" lon="3.51949">
        <ele>538.2</ele>
        <time>2014-06-08T07:07:20Z</time>
      </trkpt>
      <trkpt lat="43.7327" lon="3.51959">
        <ele>540.3</ele>
        <time>2014-06-08T07:07:28Z</time>
      </trkpt>
      <trkpt lat="43.73279" lon="3.51954">
        <ele>541.5</ele>
        <time>2014-06-08T07:07:39Z</time>
      </trkpt>
      <trkpt lat="43.73295" lon="3.51952">
        <ele>545</ele>
        <time>2014-06-08T07:08:00Z</time>
      </trkpt>
      <trkpt lat="43.733" lon="3.51963">
        <ele>546.4</ele>
        <time>2014-06-08T07:08:08Z</time>
      </trkpt>
      <trkpt lat="43.73306" lon="3.51975">
        <ele>547</ele>
        <time>2014-06-08T07:08:15Z</time>
      </trkpt>
      <trkpt lat="43.73312" lon="3.51986">
        <ele>548.6</ele>
        <time>2014-06-08T07:08:23Z</time>
      </trkpt>
      <trkpt lat="43.73321" lon="3.51984">
        <ele>551.3</ele>
        <time>2014-06-08T07:08:36Z</time>
      </trkpt>
      <trkpt lat="43.73324" lon="3.51971">
        <ele>551.9</ele>
        <time>2014-06-08T07:08:43Z</time>
      </trkpt>
      <trkpt lat="43.73335" lon="3.51952">
        <ele>553.7</ele>
        <time>2014-06-08T07:08:56Z</time>
      </trkpt>
      <trkpt lat="43.73343" lon="3.51945">
        <ele>555.4</ele>
        <time>2014-06-08T07:09:02Z</time>
      </trkpt>
      <trkpt lat="43.73351" lon="3.51936">
        <ele>555.9</ele>
        <time>2014-06-08T07:09:08Z</time>
      </trkpt>
      <trkpt lat="43.7336" lon="3.51931">
        <ele>556.4</ele>
        <time>2014-06-08T07:09:13Z</time>
      </trkpt>
      <trkpt lat="43.73371" lon="3.51926">
        <ele>557</ele>
        <time>2014-06-08T07:09:18Z</time>
      </trkpt>
      <trkpt lat="43.7338" lon="3.51921">
        <ele>558</ele>
        <time>2014-06-08T07:09:23Z</time>
      </trkpt>
      <trkpt lat="43.7339" lon="3.51918">
        <ele>557.9</ele>
        <time>2014-06-08T07:09:28Z</time>
      </trkpt>
      <trkpt lat="43.734" lon="3.51917">
        <ele>557.8</ele>
        <time>2014-06-08T07:10:05Z</time>
      </trkpt>
      <trkpt lat="43.73419" lon="3.51919">
        <ele>555.8</ele>
        <time>2014-06-08T07:10:13Z</time>
      </trkpt>
      <trkpt lat="43.73423" lon="3.51908">
        <ele>554.2</ele>
        <time>2014-06-08T07:10:16Z</time>
      </trkpt>
      <trkpt lat="43.7343" lon="3.51895">
        <ele>552.4</ele>
        <time>2014-06-08T07:10:20Z</time>
      </trkpt>
      <trkpt lat="43.73436" lon="3.51886">
        <ele>550.4</ele>
        <time>2014-06-08T07:10:23Z</time>
      </trkpt>
      <trkpt lat="43.73444" lon="3.51877">
        <ele>548.7</ele>
        <time>2014-06-08T07:10:26Z</time>
      </trkpt>
      <trkpt lat="43.73454" lon="3.51866">
        <ele>547.4</ele>
        <time>2014-06-08T07:10:29Z</time>
      </trkpt>
      <trkpt lat="43.73464" lon="3.51862">
        <ele>546.2</ele>
        <time>2014-06-08T07:10:32Z</time>
      </trkpt>
      <trkpt lat="43.73474" lon="3.51863">
        <ele>545.3</ele>
        <time>2014-06-08T07:10:36Z</time>
      </trkpt>
      <trkpt lat="43.73482" lon="3.51872">
        <ele>544</ele>
        <time>2014-06-08T07:10:39Z</time>
      </trkpt>
      <trkpt lat="43.73491" lon="3.51882">
        <ele>542.1</ele>
        <time>2014-06-08T07:10:42Z</time>
      </trkpt>
      <trkpt lat="43.73499" lon="3.51896">
        <ele>540.8</ele>
        <time>2014-06-08T07:10:45Z</time>
      </trkpt>
      <trkpt lat="43.73504" lon="3.51907">
        <ele>539.3</ele>
        <time>2014-06-08T07:10:48Z</time>
      </trkpt>
      <trkpt lat="43.73509" lon="3.51893">
        <ele>535.2</ele>
        <time>2014-06-08T07:10:54Z</time>
      </trkpt>
      <trkpt lat="43.7351" lon="3.51879">
        <ele>533.6</ele>
        <time>2014-06-08T07:10:57Z</time>
      </trkpt>
      <trkpt lat="43.73511" lon="3.51865">
        <ele>531.7</ele>
        <time>2014-06-08T07:11:00Z</time>
      </trkpt>
      <trkpt lat="43.73509" lon="3.51851">
        <ele>530.3</ele>
        <time>2014-06-08T07:11:03Z</time>
      </trkpt>
      <trkpt lat="43.73504" lon="3.51837">
        <ele>526.9</ele>
        <time>2014-06-08T07:11:07Z</time>
      </trkpt>
      <trkpt lat="43.73516" lon="3.51813">
        <ele>520.9</ele>
        <time>2014-06-08T07:11:17Z</time>
      </trkpt>
      <trkpt lat="43.7352" lon="3.51802">
        <ele>518.9</ele>
        <time>2014-06-08T07:11:20Z</time>
      </trkpt>
      <trkpt lat="43.73524" lon="3.51789">
        <ele>516.8</ele>
        <time>2014-06-08T07:11:23Z</time>
      </trkpt>
      <trkpt lat="43.73527" lon="3.51774">
        <ele>515.4</ele>
        <time>2014-06-08T07:11:26Z</time>
      </trkpt>
      <trkpt lat="43.73529" lon="3.51761">
        <ele>514.3</ele>
        <time>2014-06-08T07:11:29Z</time>
      </trkpt>
      <trkpt lat="43.73531" lon="3.51748">
        <ele>511.5</ele>
        <time>2014-06-08T07:11:34Z</time>
      </trkpt>
      <trkpt lat="43.73535" lon="3.5176">
        <ele>509.6</ele>
        <time>2014-06-08T07:11:50Z</time>
      </trkpt>
      <trkpt lat="43.73534" lon="3.51772">
        <ele>510.9</ele>
        <time>2014-06-08T07:11:55Z</time>
      </trkpt>
      <trkpt lat="43.73537" lon="3.51786">
        <ele>511.6</ele>
        <time>2014-06-08T07:12:00Z</time>
      </trkpt>
      <trkpt lat="43.73547" lon="3.51787">
        <ele>512</ele>
        <time>2014-06-08T07:12:05Z</time>
      </trkpt>
      <trkpt lat="43.73555" lon="3.51777">
        <ele>512.5</ele>
        <time>2014-06-08T07:12:11Z</time>
      </trkpt>
      <trkpt lat="43.73568" lon="3.51755">
        <ele>515.1</ele>
        <time>2014-06-08T07:12:23Z</time>
      </trkpt>
      <trkpt lat="43.73572" lon="3.51768">
        <ele>515.7</ele>
        <time>2014-06-08T07:12:31Z</time>
      </trkpt>
      <trkpt lat="43.73567" lon="3.51778">
        <ele>515.4</ele>
        <time>2014-06-08T07:12:34Z</time>
      </trkpt>
      <trkpt lat="43.73563" lon="3.51792">
        <ele>515.5</ele>
        <time>2014-06-08T07:12:37Z</time>
      </trkpt>
      <trkpt lat="43.73561" lon="3.5181">
        <ele>514.8</ele>
        <time>2014-06-08T07:12:40Z</time>
      </trkpt>
      <trkpt lat="43.73559" lon="3.51824">
        <ele>514.4</ele>
        <time>2014-06-08T07:12:42Z</time>
      </trkpt>
      <trkpt lat="43.73558" lon="3.51836">
        <ele>514.4</ele>
        <time>2014-06-08T07:12:44Z</time>
      </trkpt>
      <trkpt lat="43.73557" lon="3.51849">
        <ele>514.9</ele>
        <time>2014-06-08T07:12:47Z</time>
      </trkpt>
      <trkpt lat="43.73556" lon="3.51862">
        <ele>515.2</ele>
        <time>2014-06-08T07:12:51Z</time>
      </trkpt>
      <trkpt lat="43.73554" lon="3.51876">
        <ele>516.1</ele>
        <time>2014-06-08T07:12:55Z</time>
      </trkpt>
      <trkpt lat="43.7355" lon="3.51891">
        <ele>516.7</ele>
        <time>2014-06-08T07:12:59Z</time>
      </trkpt>
      <trkpt lat="43.73546" lon="3.51903">
        <ele>516.7</ele>
        <time>2014-06-08T07:13:02Z</time>
      </trkpt>
      <trkpt lat="43.73543" lon="3.51918">
        <ele>516.7</ele>
        <time>2014-06-08T07:13:06Z</time>
      </trkpt>
      <trkpt lat="43.7354" lon="3.5193">
        <ele>517.2</ele>
        <time>2014-06-08T07:13:10Z</time>
      </trkpt>
      <trkpt lat="43.73538" lon="3.51945">
        <ele>518.6</ele>
        <time>2014-06-08T07:13:15Z</time>
      </trkpt>
      <trkpt lat="43.73533" lon="3.51974">
        <ele>521.2</ele>
        <time>2014-06-08T07:13:25Z</time>
      </trkpt>
      <trkpt lat="43.73531" lon="3.51988">
        <ele>521.4</ele>
        <time>2014-06-08T07:13:30Z</time>
      </trkpt>
      <trkpt lat="43.7353" lon="3.52001">
        <ele>522.4</ele>
        <time>2014-06-08T07:13:35Z</time>
      </trkpt>
      <trkpt lat="43.73529" lon="3.52015">
        <ele>523.4</ele>
        <time>2014-06-08T07:13:41Z</time>
      </trkpt>
      <trkpt lat="43.73527" lon="3.52029">
        <ele>524.1</ele>
        <time>2014-06-08T07:13:47Z</time>
      </trkpt>
      <trkpt lat="43.73525" lon="3.52042">
        <ele>525.7</ele>
        <time>2014-06-08T07:14:33Z</time>
      </trkpt>
      <trkpt lat="43.73535" lon="3.52016">
        <ele>522.1</ele>
        <time>2014-06-08T07:14:47Z</time>
      </trkpt>
      <trkpt lat="43.73534" lon="3.52001">
        <ele>520.9</ele>
        <time>2014-06-08T07:14:50Z</time>
      </trkpt>
      <trkpt lat="43.7354" lon="3.51986">
        <ele>517.7</ele>
        <time>2014-06-08T07:14:54Z</time>
      </trkpt>
      <trkpt lat="43.73544" lon="3.51968">
        <ele>516.3</ele>
        <time>2014-06-08T07:14:57Z</time>
      </trkpt>
      <trkpt lat="43.73546" lon="3.51954">
        <ele>515.5</ele>
        <time>2014-06-08T07:14:59Z</time>
      </trkpt>
      <trkpt lat="43.73549" lon="3.51938">
        <ele>514.3</ele>
        <time>2014-06-08T07:15:02Z</time>
      </trkpt>
      <trkpt lat="43.73553" lon="3.51923">
        <ele>511.9</ele>
        <time>2014-06-08T07:15:05Z</time>
      </trkpt>
      <trkpt lat="43.73557" lon="3.51907">
        <ele>510.5</ele>
        <time>2014-06-08T07:15:08Z</time>
      </trkpt>
      <trkpt lat="43.73566" lon="3.51895">
        <ele>508.3</ele>
        <time>2014-06-08T07:15:11Z</time>
      </trkpt>
      <trkpt lat="43.73572" lon="3.51885">
        <ele>506.8</ele>
        <time>2014-06-08T07:15:14Z</time>
      </trkpt>
      <trkpt lat="43.73574" lon="3.51869">
        <ele>504.3</ele>
        <time>2014-06-08T07:15:17Z</time>
      </trkpt>
      <trkpt lat="43.73577" lon="3.51855">
        <ele>502.1</ele>
        <time>2014-06-08T07:15:22Z</time>
      </trkpt>
      <trkpt lat="43.73581" lon="3.51841">
        <ele>500</ele>
        <time>2014-06-08T07:15:25Z</time>
      </trkpt>
      <trkpt lat="43.73585" lon="3.51826">
        <ele>498.7</ele>
        <time>2014-06-08T07:15:28Z</time>
      </trkpt>
      <trkpt lat="43.73589" lon="3.51811">
        <ele>496.1</ele>
        <time>2014-06-08T07:15:33Z</time>
      </trkpt>
      <trkpt lat="43.73595" lon="3.51799">
        <ele>494.5</ele>
        <time>2014-06-08T07:15:36Z</time>
      </trkpt>
      <trkpt lat="43.73609" lon="3.51781">
        <ele>492.8</ele>
        <time>2014-06-08T07:15:40Z</time>
      </trkpt>
      <trkpt lat="43.73619" lon="3.5177">
        <ele>491.4</ele>
        <time>2014-06-08T07:15:43Z</time>
      </trkpt>
      <trkpt lat="43.73629" lon="3.51767">
        <ele>489.7</ele>
        <time>2014-06-08T07:15:48Z</time>
      </trkpt>
      <trkpt lat="43.73638" lon="3.51759">
        <ele>486.2</ele>
        <time>2014-06-08T07:15:54Z</time>
      </trkpt>
      <trkpt lat="43.73647" lon="3.51758">
        <ele>483</ele>
        <time>2014-06-08T07:16:03Z</time>
      </trkpt>
      <trkpt lat="43.73657" lon="3.51754">
        <ele>482</ele>
        <time>2014-06-08T07:16:09Z</time>
      </trkpt>
      <trkpt lat="43.73664" lon="3.51746">
        <ele>479.8</ele>
        <time>2014-06-08T07:16:14Z</time>
      </trkpt>
      <trkpt lat="43.73674" lon="3.51742">
        <ele>477.9</ele>
        <time>2014-06-08T07:16:19Z</time>
      </trkpt>
      <trkpt lat="43.73684" lon="3.51742">
        <ele>475.4</ele>
        <time>2014-06-08T07:16:29Z</time>
      </trkpt>
      <trkpt lat="43.7369" lon="3.51733">
        <ele>473.8</ele>
        <time>2014-06-08T07:16:35Z</time>
      </trkpt>
      <trkpt lat="43.73699" lon="3.51728">
        <ele>470.8</ele>
        <time>2014-06-08T07:16:42Z</time>
      </trkpt>
      <trkpt lat="43.73709" lon="3.51708">
        <ele>467.9</ele>
        <time>2014-06-08T07:16:51Z</time>
      </trkpt>
      <trkpt lat="43.73714" lon="3.51695">
        <ele>468.2</ele>
        <time>2014-06-08T07:16:54Z</time>
      </trkpt>
      <trkpt lat="43.73724" lon="3.51685">
        <ele>467.4</ele>
        <time>2014-06-08T07:16:57Z</time>
      </trkpt>
      <trkpt lat="43.73733" lon="3.51679">
        <ele>465.2</ele>
        <time>2014-06-08T07:17:01Z</time>
      </trkpt>
      <trkpt lat="43.73739" lon="3.51669">
        <ele>463.7</ele>
        <time>2014-06-08T07:17:06Z</time>
      </trkpt>
      <trkpt lat="43.7374" lon="3.51656">
        <ele>461.7</ele>
        <time>2014-06-08T07:17:14Z</time>
      </trkpt>
      <trkpt lat="43.73745" lon="3.51646">
        <ele>460.4</ele>
        <time>2014-06-08T07:17:18Z</time>
      </trkpt>
      <trkpt lat="43.73749" lon="3.51634">
        <ele>457.8</ele>
        <time>2014-06-08T07:17:26Z</time>
      </trkpt>
      <trkpt lat="43.73758" lon="3.51633">
        <ele>456.6</ele>
        <time>2014-06-08T07:17:38Z</time>
      </trkpt>
      <trkpt lat="43.73755" lon="3.51621">
        <ele>454.4</ele>
        <time>2014-06-08T07:17:51Z</time>
      </trkpt>
      <trkpt lat="43.73776" lon="3.51626">
        <ele>451.6</ele>
        <time>2014-06-08T07:18:00Z</time>
      </trkpt>
      <trkpt lat="43.73784" lon="3.51636">
        <ele>448.3</ele>
        <time>2014-06-08T07:18:08Z</time>
      </trkpt>
      <trkpt lat="43.73792" lon="3.51647">
        <ele>446.8</ele>
        <time>2014-06-08T07:18:12Z</time>
      </trkpt>
      <trkpt lat="43.73796" lon="3.5166">
        <ele>444.8</ele>
        <time>2014-06-08T07:18:16Z</time>
      </trkpt>
      <trkpt lat="43.73793" lon="3.51673">
        <ele>442.2</ele>
        <time>2014-06-08T07:18:21Z</time>
      </trkpt>
      <trkpt lat="43.73784" lon="3.51681">
        <ele>440.2</ele>
        <time>2014-06-08T07:18:25Z</time>
      </trkpt>
      <trkpt lat="43.73773" lon="3.51689">
        <ele>439.2</ele>
        <time>2014-06-08T07:18:28Z</time>
      </trkpt>
      <trkpt lat="43.73768" lon="3.51704">
        <ele>437.6</ele>
        <time>2014-06-08T07:18:31Z</time>
      </trkpt>
      <trkpt lat="43.73767" lon="3.5172">
        <ele>436.7</ele>
        <time>2014-06-08T07:18:34Z</time>
      </trkpt>
      <trkpt lat="43.73766" lon="3.51734">
        <ele>434.6</ele>
        <time>2014-06-08T07:18:37Z</time>
      </trkpt>
      <trkpt lat="43.73758" lon="3.51745">
        <ele>432.2</ele>
        <time>2014-06-08T07:18:41Z</time>
      </trkpt>
      <trkpt lat="43.73769" lon="3.51744">
        <ele>426.5</ele>
        <time>2014-06-08T07:18:56Z</time>
      </trkpt>
      <trkpt lat="43.73781" lon="3.5172">
        <ele>424.9</ele>
        <time>2014-06-08T07:19:02Z</time>
      </trkpt>
      <trkpt lat="43.73781" lon="3.51736">
        <ele>422.3</ele>
        <time>2014-06-08T07:19:11Z</time>
      </trkpt>
      <trkpt lat="43.73777" lon="3.51752">
        <ele>421.2</ele>
        <time>2014-06-08T07:19:14Z</time>
      </trkpt>
      <trkpt lat="43.73776" lon="3.51766">
        <ele>419.5</ele>
        <time>2014-06-08T07:19:17Z</time>
      </trkpt>
      <trkpt lat="43.73769" lon="3.51778">
        <ele>417.5</ele>
        <time>2014-06-08T07:19:21Z</time>
      </trkpt>
      <trkpt lat="43.73761" lon="3.51788">
        <ele>415.1</ele>
        <time>2014-06-08T07:19:25Z</time>
      </trkpt>
      <trkpt lat="43.73755" lon="3.518">
        <ele>413.6</ele>
        <time>2014-06-08T07:19:28Z</time>
      </trkpt>
      <trkpt lat="43.73748" lon="3.51814">
        <ele>411.6</ele>
        <time>2014-06-08T07:19:31Z</time>
      </trkpt>
      <trkpt lat="43.73744" lon="3.5183">
        <ele>409.5</ele>
        <time>2014-06-08T07:19:34Z</time>
      </trkpt>
      <trkpt lat="43.73741" lon="3.51843">
        <ele>407.3</ele>
        <time>2014-06-08T07:19:37Z</time>
      </trkpt>
      <trkpt lat="43.73739" lon="3.51857">
        <ele>405.9</ele>
        <time>2014-06-08T07:19:39Z</time>
      </trkpt>
      <trkpt lat="43.7374" lon="3.5187">
        <ele>405.1</ele>
        <time>2014-06-08T07:19:41Z</time>
      </trkpt>
      <trkpt lat="43.73744" lon="3.51882">
        <ele>403.3</ele>
        <time>2014-06-08T07:19:44Z</time>
      </trkpt>
      <trkpt lat="43.73744" lon="3.51894">
        <ele>401</ele>
        <time>2014-06-08T07:19:48Z</time>
      </trkpt>
      <trkpt lat="43.73742" lon="3.51911">
        <ele>400.6</ele>
        <time>2014-06-08T07:19:52Z</time>
      </trkpt>
      <trkpt lat="43.7374" lon="3.51927">
        <ele>399.4</ele>
        <time>2014-06-08T07:19:55Z</time>
      </trkpt>
      <trkpt lat="43.73748" lon="3.51935">
        <ele>397</ele>
        <time>2014-06-08T07:20:01Z</time>
      </trkpt>
      <trkpt lat="43.73765" lon="3.51927">
        <ele>391.7</ele>
        <time>2014-06-08T07:20:11Z</time>
      </trkpt>
      <trkpt lat="43.73773" lon="3.51918">
        <ele>388.6</ele>
        <time>2014-06-08T07:20:17Z</time>
      </trkpt>
      <trkpt lat="43.7378" lon="3.5191">
        <ele>386.9</ele>
        <time>2014-06-08T07:20:21Z</time>
      </trkpt>
      <trkpt lat="43.73792" lon="3.51905">
        <ele>384.3</ele>
        <time>2014-06-08T07:20:26Z</time>
      </trkpt>
      <trkpt lat="43.73801" lon="3.51899">
        <ele>382.4</ele>
        <time>2014-06-08T07:20:29Z</time>
      </trkpt>
      <trkpt lat="43.7381" lon="3.51894">
        <ele>380.1</ele>
        <time>2014-06-08T07:20:34Z</time>
      </trkpt>
      <trkpt lat="43.73821" lon="3.51893">
        <ele>379.2</ele>
        <time>2014-06-08T07:20:40Z</time>
      </trkpt>
      <trkpt lat="43.73831" lon="3.519">
        <ele>378.4</ele>
        <time>2014-06-08T07:20:43Z</time>
      </trkpt>
      <trkpt lat="43.7384" lon="3.51909">
        <ele>377.9</ele>
        <time>2014-06-08T07:20:46Z</time>
      </trkpt>
      <trkpt lat="43.73852" lon="3.51908">
        <ele>376.6</ele>
        <time>2014-06-08T07:20:49Z</time>
      </trkpt>
      <trkpt lat="43.73864" lon="3.51908">
        <ele>375.4</ele>
        <time>2014-06-08T07:20:52Z</time>
      </trkpt>
      <trkpt lat="43.73877" lon="3.5191">
        <ele>371.9</ele>
        <time>2014-06-08T07:20:55Z</time>
      </trkpt>
      <trkpt lat="43.73888" lon="3.51914">
        <ele>370.5</ele>
        <time>2014-06-08T07:20:57Z</time>
      </trkpt>
      <trkpt lat="43.73897" lon="3.51917">
        <ele>369.3</ele>
        <time>2014-06-08T07:20:59Z</time>
      </trkpt>
      <trkpt lat="43.73906" lon="3.51922">
        <ele>367</ele>
        <time>2014-06-08T07:21:01Z</time>
      </trkpt>
      <trkpt lat="43.73915" lon="3.51928">
        <ele>364.2</ele>
        <time>2014-06-08T07:21:03Z</time>
      </trkpt>
      <trkpt lat="43.73931" lon="3.51941">
        <ele>359.9</ele>
        <time>2014-06-08T07:21:07Z</time>
      </trkpt>
      <trkpt lat="43.73942" lon="3.5195">
        <ele>357.5</ele>
        <time>2014-06-08T07:21:10Z</time>
      </trkpt>
      <trkpt lat="43.73953" lon="3.51962">
        <ele>355.6</ele>
        <time>2014-06-08T07:21:13Z</time>
      </trkpt>
      <trkpt lat="43.73956" lon="3.51979">
        <ele>352.4</ele>
        <time>2014-06-08T07:21:16Z</time>
      </trkpt>
      <trkpt lat="43.73952" lon="3.51996">
        <ele>350.2</ele>
        <time>2014-06-08T07:21:19Z</time>
      </trkpt>
      <trkpt lat="43.73947" lon="3.52006">
        <ele>348.7</ele>
        <time>2014-06-08T07:21:21Z</time>
      </trkpt>
      <trkpt lat="43.73945" lon="3.5202">
        <ele>347.5</ele>
        <time>2014-06-08T07:21:23Z</time>
      </trkpt>
      <trkpt lat="43.73941" lon="3.52036">
        <ele>346.2</ele>
        <time>2014-06-08T07:21:25Z</time>
      </trkpt>
      <trkpt lat="43.73939" lon="3.5205">
        <ele>345.1</ele>
        <time>2014-06-08T07:21:27Z</time>
      </trkpt>
      <trkpt lat="43.73939" lon="3.52064">
        <ele>343.6</ele>
        <time>2014-06-08T07:21:29Z</time>
      </trkpt>
      <trkpt lat="43.73936" lon="3.52082">
        <ele>341.9</ele>
        <time>2014-06-08T07:21:32Z</time>
      </trkpt>
      <trkpt lat="43.73934" lon="3.52095">
        <ele>340.6</ele>
        <time>2014-06-08T07:21:34Z</time>
      </trkpt>
      <trkpt lat="43.73934" lon="3.52108">
        <ele>339.8</ele>
        <time>2014-06-08T07:21:36Z</time>
      </trkpt>
      <trkpt lat="43.73937" lon="3.52122">
        <ele>338.6</ele>
        <time>2014-06-08T07:21:38Z</time>
      </trkpt>
      <trkpt lat="43.73941" lon="3.52137">
        <ele>337.2</ele>
        <time>2014-06-08T07:21:40Z</time>
      </trkpt>
      <trkpt lat="43.73944" lon="3.5215">
        <ele>336.2</ele>
        <time>2014-06-08T07:21:42Z</time>
      </trkpt>
      <trkpt lat="43.73946" lon="3.52162">
        <ele>334.6</ele>
        <time>2014-06-08T07:21:45Z</time>
      </trkpt>
      <trkpt lat="43.7395" lon="3.52176">
        <ele>331.3</ele>
        <time>2014-06-08T07:21:49Z</time>
      </trkpt>
      <trkpt lat="43.73949" lon="3.52189">
        <ele>329.3</ele>
        <time>2014-06-08T07:21:53Z</time>
      </trkpt>
      <trkpt lat="43.73946" lon="3.52201">
        <ele>327.8</ele>
        <time>2014-06-08T07:21:56Z</time>
      </trkpt>
      <trkpt lat="43.73941" lon="3.52217">
        <ele>325.2</ele>
        <time>2014-06-08T07:21:59Z</time>
      </trkpt>
      <trkpt lat="43.73935" lon="3.5223">
        <ele>323.4</ele>
        <time>2014-06-08T07:22:02Z</time>
      </trkpt>
      <trkpt lat="43.73933" lon="3.52244">
        <ele>321.4</ele>
        <time>2014-06-08T07:22:05Z</time>
      </trkpt>
      <trkpt lat="43.7393" lon="3.52269">
        <ele>318.4</ele>
        <time>2014-06-08T07:22:11Z</time>
      </trkpt>
      <trkpt lat="43.73926" lon="3.52281">
        <ele>316.5</ele>
        <time>2014-06-08T07:22:14Z</time>
      </trkpt>
      <trkpt lat="43.73925" lon="3.52296">
        <ele>314.9</ele>
        <time>2014-06-08T07:22:17Z</time>
      </trkpt>
      <trkpt lat="43.73923" lon="3.52309">
        <ele>313.1</ele>
        <time>2014-06-08T07:22:20Z</time>
      </trkpt>
      <trkpt lat="43.73921" lon="3.52324">
        <ele>311</ele>
        <time>2014-06-08T07:22:24Z</time>
      </trkpt>
      <trkpt lat="43.73922" lon="3.52337">
        <ele>308.6</ele>
        <time>2014-06-08T07:22:29Z</time>
      </trkpt>
      <trkpt lat="43.73928" lon="3.52322">
        <ele>308.2</ele>
        <time>2014-06-08T07:22:36Z</time>
      </trkpt>
      <trkpt lat="43.73932" lon="3.52311">
        <ele>308</ele>
        <time>2014-06-08T07:22:39Z</time>
      </trkpt>
      <trkpt lat="43.7394" lon="3.52297">
        <ele>307.2</ele>
        <time>2014-06-08T07:22:43Z</time>
      </trkpt>
      <trkpt lat="43.73947" lon="3.52284">
        <ele>305.7</ele>
        <time>2014-06-08T07:22:46Z</time>
      </trkpt>
      <trkpt lat="43.73956" lon="3.52272">
        <ele>305.7</ele>
        <time>2014-06-08T07:22:49Z</time>
      </trkpt>
      <trkpt lat="43.73964" lon="3.52259">
        <ele>304.9</ele>
        <time>2014-06-08T07:22:52Z</time>
      </trkpt>
      <trkpt lat="43.7397" lon="3.5225">
        <ele>304.5</ele>
        <time>2014-06-08T07:22:55Z</time>
      </trkpt>
      <trkpt lat="43.73975" lon="3.52237">
        <ele>304</ele>
        <time>2014-06-08T07:22:58Z</time>
      </trkpt>
      <trkpt lat="43.73979" lon="3.52221">
        <ele>304.1</ele>
        <time>2014-06-08T07:23:01Z</time>
      </trkpt>
      <trkpt lat="43.73982" lon="3.52203">
        <ele>304.4</ele>
        <time>2014-06-08T07:23:04Z</time>
      </trkpt>
      <trkpt lat="43.73985" lon="3.52186">
        <ele>304.8</ele>
        <time>2014-06-08T07:23:07Z</time>
      </trkpt>
      <trkpt lat="43.73991" lon="3.52158">
        <ele>305.6</ele>
        <time>2014-06-08T07:23:11Z</time>
      </trkpt>
      <trkpt lat="43.73993" lon="3.52141">
        <ele>306.1</ele>
        <time>2014-06-08T07:23:14Z</time>
      </trkpt>
      <trkpt lat="43.73996" lon="3.52127">
        <ele>305.2</ele>
        <time>2014-06-08T07:23:18Z</time>
      </trkpt>
      <trkpt lat="43.74" lon="3.52111">
        <ele>305.8</ele>
        <time>2014-06-08T07:23:22Z</time>
      </trkpt>
      <trkpt lat="43.74004" lon="3.52098">
        <ele>306.1</ele>
        <time>2014-06-08T07:23:25Z</time>
      </trkpt>
      <trkpt lat="43.7401" lon="3.52086">
        <ele>306.3</ele>
        <time>2014-06-08T07:23:28Z</time>
      </trkpt>
      <trkpt lat="43.74016" lon="3.52074">
        <ele>306.8</ele>
        <time>2014-06-08T07:23:31Z</time>
      </trkpt>
      <trkpt lat="43.74022" lon="3.52061">
        <ele>306.7</ele>
        <time>2014-06-08T07:23:34Z</time>
      </trkpt>
      <trkpt lat="43.74029" lon="3.52051">
        <ele>306.7</ele>
        <time>2014-06-08T07:23:37Z</time>
      </trkpt>
      <trkpt lat="43.74037" lon="3.52043">
        <ele>306.9</ele>
        <time>2014-06-08T07:23:40Z</time>
      </trkpt>
      <trkpt lat="43.74045" lon="3.52034">
        <ele>307.9</ele>
        <time>2014-06-08T07:23:44Z</time>
      </trkpt>
      <trkpt lat="43.74053" lon="3.52023">
        <ele>308.6</ele>
        <time>2014-06-08T07:23:48Z</time>
      </trkpt>
      <trkpt lat="43.7406" lon="3.52014">
        <ele>309.1</ele>
        <time>2014-06-08T07:23:51Z</time>
      </trkpt>
      <trkpt lat="43.74067" lon="3.52003">
        <ele>309.1</ele>
        <time>2014-06-08T07:23:55Z</time>
      </trkpt>
      <trkpt lat="43.74074" lon="3.51992">
        <ele>309.3</ele>
        <time>2014-06-08T07:23:58Z</time>
      </trkpt>
      <trkpt lat="43.74079" lon="3.51982">
        <ele>309.7</ele>
        <time>2014-06-08T07:24:01Z</time>
      </trkpt>
      <trkpt lat="43.74086" lon="3.51971">
        <ele>310.1</ele>
        <time>2014-06-08T07:24:04Z</time>
      </trkpt>
      <trkpt lat="43.74092" lon="3.51958">
        <ele>310.7</ele>
        <time>2014-06-08T07:24:07Z</time>
      </trkpt>
      <trkpt lat="43.74098" lon="3.51948">
        <ele>310.5</ele>
        <time>2014-06-08T07:24:10Z</time>
      </trkpt>
      <trkpt lat="43.74102" lon="3.51918">
        <ele>312.2</ele>
        <time>2014-06-08T07:24:18Z</time>
      </trkpt>
      <trkpt lat="43.74102" lon="3.51906">
        <ele>312.4</ele>
        <time>2014-06-08T07:24:21Z</time>
      </trkpt>
      <trkpt lat="43.741" lon="3.51894">
        <ele>313.5</ele>
        <time>2014-06-08T07:24:24Z</time>
      </trkpt>
      <trkpt lat="43.74097" lon="3.5188">
        <ele>314</ele>
        <time>2014-06-08T07:24:28Z</time>
      </trkpt>
      <trkpt lat="43.74088" lon="3.51872">
        <ele>313.9</ele>
        <time>2014-06-08T07:24:32Z</time>
      </trkpt>
      <trkpt lat="43.74079" lon="3.51864">
        <ele>314.4</ele>
        <time>2014-06-08T07:24:36Z</time>
      </trkpt>
      <trkpt lat="43.7408" lon="3.51851">
        <ele>314.9</ele>
        <time>2014-06-08T07:24:42Z</time>
      </trkpt>
      <trkpt lat="43.7408" lon="3.51837">
        <ele>316.8</ele>
        <time>2014-06-08T07:24:48Z</time>
      </trkpt>
      <trkpt lat="43.74082" lon="3.51824">
        <ele>317.7</ele>
        <time>2014-06-08T07:24:54Z</time>
      </trkpt>
      <trkpt lat="43.74087" lon="3.51812">
        <ele>317.7</ele>
        <time>2014-06-08T07:25:00Z</time>
      </trkpt>
      <trkpt lat="43.74091" lon="3.51799">
        <ele>318.1</ele>
        <time>2014-06-08T07:25:05Z</time>
      </trkpt>
      <trkpt lat="43.74097" lon="3.51787">
        <ele>319.6</ele>
        <time>2014-06-08T07:25:11Z</time>
      </trkpt>
      <trkpt lat="43.7411" lon="3.51765">
        <ele>322.4</ele>
        <time>2014-06-08T07:25:22Z</time>
      </trkpt>
      <trkpt lat="43.74115" lon="3.51752">
        <ele>324.7</ele>
        <time>2014-06-08T07:25:27Z</time>
      </trkpt>
      <trkpt lat="43.74122" lon="3.51738">
        <ele>324.4</ele>
        <time>2014-06-08T07:25:31Z</time>
      </trkpt>
      <trkpt lat="43.74127" lon="3.51725">
        <ele>323.9</ele>
        <time>2014-06-08T07:25:34Z</time>
      </trkpt>
      <trkpt lat="43.74132" lon="3.51715">
        <ele>324</ele>
        <time>2014-06-08T07:25:37Z</time>
      </trkpt>
      <trkpt lat="43.74138" lon="3.51702">
        <ele>323.7</ele>
        <time>2014-06-08T07:25:40Z</time>
      </trkpt>
      <trkpt lat="43.74144" lon="3.51692">
        <ele>324.6</ele>
        <time>2014-06-08T07:25:43Z</time>
      </trkpt>
      <trkpt lat="43.74152" lon="3.51684">
        <ele>324.7</ele>
        <time>2014-06-08T07:25:47Z</time>
      </trkpt>
      <trkpt lat="43.7416" lon="3.51675">
        <ele>324.9</ele>
        <time>2014-06-08T07:25:52Z</time>
      </trkpt>
      <trkpt lat="43.74165" lon="3.51663">
        <ele>325.5</ele>
        <time>2014-06-08T07:25:56Z</time>
      </trkpt>
      <trkpt lat="43.74171" lon="3.51651">
        <ele>325.1</ele>
        <time>2014-06-08T07:26:00Z</time>
      </trkpt>
      <trkpt lat="43.74176" lon="3.51641">
        <ele>325</ele>
        <time>2014-06-08T07:26:03Z</time>
      </trkpt>
      <trkpt lat="43.74181" lon="3.51626">
        <ele>325.3</ele>
        <time>2014-06-08T07:26:07Z</time>
      </trkpt>
      <trkpt lat="43.74185" lon="3.51612">
        <ele>325.3</ele>
        <time>2014-06-08T07:26:12Z</time>
      </trkpt>
      <trkpt lat="43.74189" lon="3.51586">
        <ele>328.4</ele>
        <time>2014-06-08T07:26:26Z</time>
      </trkpt>
      <trkpt lat="43.74194" lon="3.51574">
        <ele>330.3</ele>
        <time>2014-06-08T07:26:40Z</time>
      </trkpt>
      <trkpt lat="43.74204" lon="3.51574">
        <ele>330.1</ele>
        <time>2014-06-08T07:26:47Z</time>
      </trkpt>
      <trkpt lat="43.74213" lon="3.51579">
        <ele>329.6</ele>
        <time>2014-06-08T07:26:52Z</time>
      </trkpt>
      <trkpt lat="43.74223" lon="3.51578">
        <ele>327.6</ele>
        <time>2014-06-08T07:32:58Z</time>
      </trkpt>
      <trkpt lat="43.74243" lon="3.51583">
        <ele>329.1</ele>
        <time>2014-06-08T07:33:05Z</time>
      </trkpt>
      <trkpt lat="43.74253" lon="3.51588">
        <ele>329.2</ele>
        <time>2014-06-08T07:33:08Z</time>
      </trkpt>
      <trkpt lat="43.74262" lon="3.51595">
        <ele>329.3</ele>
        <time>2014-06-08T07:33:11Z</time>
      </trkpt>
      <trkpt lat="43.7427" lon="3.51602">
        <ele>329.7</ele>
        <time>2014-06-08T07:33:14Z</time>
      </trkpt>
      <trkpt lat="43.7428" lon="3.5161">
        <ele>330.2</ele>
        <time>2014-06-08T07:33:17Z</time>
      </trkpt>
      <trkpt lat="43.7429" lon="3.51618">
        <ele>331</ele>
        <time>2014-06-08T07:33:20Z</time>
      </trkpt>
      <trkpt lat="43.743" lon="3.51622">
        <ele>331.2</ele>
        <time>2014-06-08T07:33:23Z</time>
      </trkpt>
      <trkpt lat="43.74311" lon="3.51622">
        <ele>331</ele>
        <time>2014-06-08T07:33:27Z</time>
      </trkpt>
      <trkpt lat="43.74321" lon="3.51623">
        <ele>331.7</ele>
        <time>2014-06-08T07:33:34Z</time>
      </trkpt>
      <trkpt lat="43.74328" lon="3.51632">
        <ele>334</ele>
        <time>2014-06-08T07:33:40Z</time>
      </trkpt>
      <trkpt lat="43.74336" lon="3.5164">
        <ele>336.6</ele>
        <time>2014-06-08T07:33:47Z</time>
      </trkpt>
      <trkpt lat="43.74344" lon="3.51649">
        <ele>338.5</ele>
        <time>2014-06-08T07:33:55Z</time>
      </trkpt>
      <trkpt lat="43.74352" lon="3.51656">
        <ele>340.1</ele>
        <time>2014-06-08T07:34:03Z</time>
      </trkpt>
      <trkpt lat="43.74371" lon="3.51664">
        <ele>342.9</ele>
        <time>2014-06-08T07:34:19Z</time>
      </trkpt>
      <trkpt lat="43.7438" lon="3.51666">
        <ele>343.5</ele>
        <time>2014-06-08T07:34:25Z</time>
      </trkpt>
      <trkpt lat="43.7439" lon="3.51667">
        <ele>343.4</ele>
        <time>2014-06-08T07:34:32Z</time>
      </trkpt>
      <trkpt lat="43.744" lon="3.5167">
        <ele>344.5</ele>
        <time>2014-06-08T07:34:37Z</time>
      </trkpt>
      <trkpt lat="43.74409" lon="3.51673">
        <ele>344.2</ele>
        <time>2014-06-08T07:34:41Z</time>
      </trkpt>
      <trkpt lat="43.7442" lon="3.51678">
        <ele>344.1</ele>
        <time>2014-06-08T07:34:45Z</time>
      </trkpt>
      <trkpt lat="43.74429" lon="3.51681">
        <ele>344.3</ele>
        <time>2014-06-08T07:34:48Z</time>
      </trkpt>
      <trkpt lat="43.74438" lon="3.51681">
        <ele>344</ele>
        <time>2014-06-08T07:34:51Z</time>
      </trkpt>
      <trkpt lat="43.74449" lon="3.51681">
        <ele>344.5</ele>
        <time>2014-06-08T07:34:55Z</time>
      </trkpt>
      <trkpt lat="43.74461" lon="3.51683">
        <ele>345.3</ele>
        <time>2014-06-08T07:34:59Z</time>
      </trkpt>
      <trkpt lat="43.74471" lon="3.5169">
        <ele>346</ele>
        <time>2014-06-08T07:35:03Z</time>
      </trkpt>
      <trkpt lat="43.7448" lon="3.51694">
        <ele>347.4</ele>
        <time>2014-06-08T07:35:07Z</time>
      </trkpt>
      <trkpt lat="43.74498" lon="3.51699">
        <ele>350.5</ele>
        <time>2014-06-08T07:35:19Z</time>
      </trkpt>
      <trkpt lat="43.74508" lon="3.51701">
        <ele>351.9</ele>
        <time>2014-06-08T07:35:25Z</time>
      </trkpt>
      <trkpt lat="43.74519" lon="3.51702">
        <ele>353.3</ele>
        <time>2014-06-08T07:35:30Z</time>
      </trkpt>
      <trkpt lat="43.74529" lon="3.51702">
        <ele>353.9</ele>
        <time>2014-06-08T07:35:35Z</time>
      </trkpt>
      <trkpt lat="43.74539" lon="3.51702">
        <ele>353.5</ele>
        <time>2014-06-08T07:35:40Z</time>
      </trkpt>
      <trkpt lat="43.7455" lon="3.51702">
        <ele>355</ele>
        <time>2014-06-08T07:35:45Z</time>
      </trkpt>
      <trkpt lat="43.7456" lon="3.51698">
        <ele>355.7</ele>
        <time>2014-06-08T07:35:50Z</time>
      </trkpt>
      <trkpt lat="43.74569" lon="3.51694">
        <ele>356.3</ele>
        <time>2014-06-08T07:35:55Z</time>
      </trkpt>
      <trkpt lat="43.74579" lon="3.51693">
        <ele>356.5</ele>
        <time>2014-06-08T07:36:00Z</time>
      </trkpt>
      <trkpt lat="43.74589" lon="3.51698">
        <ele>357.8</ele>
        <time>2014-06-08T07:36:05Z</time>
      </trkpt>
      <trkpt lat="43.74598" lon="3.51705">
        <ele>359</ele>
        <time>2014-06-08T07:36:10Z</time>
      </trkpt>
      <trkpt lat="43.74613" lon="3.51721">
        <ele>359.3</ele>
        <time>2014-06-08T07:36:20Z</time>
      </trkpt>
      <trkpt lat="43.74621" lon="3.51729">
        <ele>359.9</ele>
        <time>2014-06-08T07:36:25Z</time>
      </trkpt>
      <trkpt lat="43.7463" lon="3.51735">
        <ele>360.9</ele>
        <time>2014-06-08T07:36:31Z</time>
      </trkpt>
      <trkpt lat="43.74639" lon="3.51738">
        <ele>361.6</ele>
        <time>2014-06-08T07:36:36Z</time>
      </trkpt>
      <trkpt lat="43.74649" lon="3.51743">
        <ele>361.5</ele>
        <time>2014-06-08T07:36:41Z</time>
      </trkpt>
      <trkpt lat="43.74658" lon="3.51751">
        <ele>362.3</ele>
        <time>2014-06-08T07:36:46Z</time>
      </trkpt>
      <trkpt lat="43.74666" lon="3.51758">
        <ele>362.7</ele>
        <time>2014-06-08T07:36:50Z</time>
      </trkpt>
      <trkpt lat="43.74674" lon="3.51764">
        <ele>362.7</ele>
        <time>2014-06-08T07:36:53Z</time>
      </trkpt>
      <trkpt lat="43.74681" lon="3.51772">
        <ele>363</ele>
        <time>2014-06-08T07:36:56Z</time>
      </trkpt>
      <trkpt lat="43.74691" lon="3.51782">
        <ele>363.1</ele>
        <time>2014-06-08T07:36:59Z</time>
      </trkpt>
      <trkpt lat="43.74701" lon="3.51792">
        <ele>363.3</ele>
        <time>2014-06-08T07:37:02Z</time>
      </trkpt>
      <trkpt lat="43.74711" lon="3.51801">
        <ele>364.4</ele>
        <time>2014-06-08T07:37:05Z</time>
      </trkpt>
      <trkpt lat="43.7472" lon="3.51809">
        <ele>365.2</ele>
        <time>2014-06-08T07:37:08Z</time>
      </trkpt>
      <trkpt lat="43.74731" lon="3.51817">
        <ele>365.6</ele>
        <time>2014-06-08T07:37:11Z</time>
      </trkpt>
      <trkpt lat="43.74749" lon="3.51839">
        <ele>366.4</ele>
        <time>2014-06-08T07:37:17Z</time>
      </trkpt>
      <trkpt lat="43.74759" lon="3.51849">
        <ele>366.8</ele>
        <time>2014-06-08T07:37:20Z</time>
      </trkpt>
      <trkpt lat="43.7477" lon="3.51857">
        <ele>367.5</ele>
        <time>2014-06-08T07:37:23Z</time>
      </trkpt>
      <trkpt lat="43.74782" lon="3.51862">
        <ele>368</ele>
        <time>2014-06-08T07:37:26Z</time>
      </trkpt>
      <trkpt lat="43.74792" lon="3.51866">
        <ele>368.6</ele>
        <time>2014-06-08T07:37:29Z</time>
      </trkpt>
      <trkpt lat="43.74802" lon="3.51872">
        <ele>369.4</ele>
        <time>2014-06-08T07:37:32Z</time>
      </trkpt>
      <trkpt lat="43.74811" lon="3.51881">
        <ele>370.3</ele>
        <time>2014-06-08T07:37:35Z</time>
      </trkpt>
      <trkpt lat="43.74819" lon="3.51891">
        <ele>370.4</ele>
        <time>2014-06-08T07:37:38Z</time>
      </trkpt>
      <trkpt lat="43.74825" lon="3.51902">
        <ele>370.7</ele>
        <time>2014-06-08T07:37:41Z</time>
      </trkpt>
      <trkpt lat="43.74832" lon="3.51913">
        <ele>371.2</ele>
        <time>2014-06-08T07:37:44Z</time>
      </trkpt>
      <trkpt lat="43.74839" lon="3.51924">
        <ele>371.4</ele>
        <time>2014-06-08T07:37:48Z</time>
      </trkpt>
      <trkpt lat="43.74845" lon="3.51934">
        <ele>371.9</ele>
        <time>2014-06-08T07:37:52Z</time>
      </trkpt>
      <trkpt lat="43.74851" lon="3.51944">
        <ele>373</ele>
        <time>2014-06-08T07:37:56Z</time>
      </trkpt>
      <trkpt lat="43.74857" lon="3.51954">
        <ele>374</ele>
        <time>2014-06-08T07:38:01Z</time>
      </trkpt>
      <trkpt lat="43.74864" lon="3.51965">
        <ele>375</ele>
        <time>2014-06-08T07:38:06Z</time>
      </trkpt>
      <trkpt lat="43.74866" lon="3.51978">
        <ele>376.5</ele>
        <time>2014-06-08T07:38:13Z</time>
      </trkpt>
      <trkpt lat="43.74863" lon="3.52004">
        <ele>379.3</ele>
        <time>2014-06-08T07:38:28Z</time>
      </trkpt>
      <trkpt lat="43.7486" lon="3.52017">
        <ele>380.5</ele>
        <time>2014-06-08T07:38:36Z</time>
      </trkpt>
      <trkpt lat="43.74862" lon="3.52031">
        <ele>382.6</ele>
        <time>2014-06-08T07:38:43Z</time>
      </trkpt>
      <trkpt lat="43.74865" lon="3.52044">
        <ele>383.4</ele>
        <time>2014-06-08T07:38:50Z</time>
      </trkpt>
      <trkpt lat="43.74865" lon="3.52059">
        <ele>383.6</ele>
        <time>2014-06-08T07:38:56Z</time>
      </trkpt>
      <trkpt lat="43.74861" lon="3.5207">
        <ele>384.9</ele>
        <time>2014-06-08T07:39:01Z</time>
      </trkpt>
      <trkpt lat="43.74852" lon="3.52078">
        <ele>385.9</ele>
        <time>2014-06-08T07:39:06Z</time>
      </trkpt>
      <trkpt lat="43.74844" lon="3.52085">
        <ele>386.4</ele>
        <time>2014-06-08T07:39:11Z</time>
      </trkpt>
      <trkpt lat="43.74837" lon="3.52094">
        <ele>387.3</ele>
        <time>2014-06-08T07:39:16Z</time>
      </trkpt>
      <trkpt lat="43.74839" lon="3.5212">
        <ele>388.6</ele>
        <time>2014-06-08T07:39:25Z</time>
      </trkpt>
      <trkpt lat="43.74841" lon="3.52134">
        <ele>388</ele>
        <time>2014-06-08T07:39:29Z</time>
      </trkpt>
      <trkpt lat="43.74842" lon="3.52148">
        <ele>389.2</ele>
        <time>2014-06-08T07:39:33Z</time>
      </trkpt>
      <trkpt lat="43.74843" lon="3.52164">
        <ele>389.9</ele>
        <time>2014-06-08T07:39:37Z</time>
      </trkpt>
      <trkpt lat="43.74844" lon="3.52179">
        <ele>389.8</ele>
        <time>2014-06-08T07:39:41Z</time>
      </trkpt>
      <trkpt lat="43.74845" lon="3.52192">
        <ele>390.3</ele>
        <time>2014-06-08T07:39:44Z</time>
      </trkpt>
      <trkpt lat="43.74845" lon="3.52206">
        <ele>390.8</ele>
        <time>2014-06-08T07:39:48Z</time>
      </trkpt>
      <trkpt lat="43.74853" lon="3.52214">
        <ele>392.1</ele>
        <time>2014-06-08T07:39:52Z</time>
      </trkpt>
      <trkpt lat="43.74863" lon="3.52218">
        <ele>392.8</ele>
        <time>2014-06-08T07:39:56Z</time>
      </trkpt>
      <trkpt lat="43.74869" lon="3.5223">
        <ele>394</ele>
        <time>2014-06-08T07:40:00Z</time>
      </trkpt>
      <trkpt lat="43.74872" lon="3.52244">
        <ele>393.9</ele>
        <time>2014-06-08T07:40:04Z</time>
      </trkpt>
      <trkpt lat="43.74872" lon="3.52259">
        <ele>394.8</ele>
        <time>2014-06-08T07:40:08Z</time>
      </trkpt>
      <trkpt lat="43.74871" lon="3.52274">
        <ele>394.9</ele>
        <time>2014-06-08T07:40:12Z</time>
      </trkpt>
      <trkpt lat="43.74868" lon="3.52287">
        <ele>394.8</ele>
        <time>2014-06-08T07:40:16Z</time>
      </trkpt>
      <trkpt lat="43.74864" lon="3.523">
        <ele>395.4</ele>
        <time>2014-06-08T07:40:20Z</time>
      </trkpt>
      <trkpt lat="43.74851" lon="3.52323">
        <ele>395.2</ele>
        <time>2014-06-08T07:40:28Z</time>
      </trkpt>
      <trkpt lat="43.74846" lon="3.52336">
        <ele>395.8</ele>
        <time>2014-06-08T07:40:32Z</time>
      </trkpt>
      <trkpt lat="43.74843" lon="3.5235">
        <ele>396.6</ele>
        <time>2014-06-08T07:40:36Z</time>
      </trkpt>
      <trkpt lat="43.74839" lon="3.52364">
        <ele>397.4</ele>
        <time>2014-06-08T07:40:40Z</time>
      </trkpt>
      <trkpt lat="43.74837" lon="3.52379">
        <ele>397.9</ele>
        <time>2014-06-08T07:40:44Z</time>
      </trkpt>
      <trkpt lat="43.74835" lon="3.52395">
        <ele>398.4</ele>
        <time>2014-06-08T07:40:48Z</time>
      </trkpt>
      <trkpt lat="43.74838" lon="3.52409">
        <ele>398.9</ele>
        <time>2014-06-08T07:40:52Z</time>
      </trkpt>
      <trkpt lat="43.74847" lon="3.52418">
        <ele>399.1</ele>
        <time>2014-06-08T07:40:56Z</time>
      </trkpt>
      <trkpt lat="43.74856" lon="3.5242">
        <ele>399.6</ele>
        <time>2014-06-08T07:40:59Z</time>
      </trkpt>
      <trkpt lat="43.74867" lon="3.52423">
        <ele>399.6</ele>
        <time>2014-06-08T07:41:03Z</time>
      </trkpt>
      <trkpt lat="43.74877" lon="3.52428">
        <ele>400.1</ele>
        <time>2014-06-08T07:41:06Z</time>
      </trkpt>
      <trkpt lat="43.74886" lon="3.52434">
        <ele>400.3</ele>
        <time>2014-06-08T07:41:09Z</time>
      </trkpt>
      <trkpt lat="43.74894" lon="3.52439">
        <ele>400.9</ele>
        <time>2014-06-08T07:41:12Z</time>
      </trkpt>
      <trkpt lat="43.74903" lon="3.52444">
        <ele>401.5</ele>
        <time>2014-06-08T07:41:15Z</time>
      </trkpt>
      <trkpt lat="43.7491" lon="3.52452">
        <ele>402.3</ele>
        <time>2014-06-08T07:41:18Z</time>
      </trkpt>
      <trkpt lat="43.74919" lon="3.5246">
        <ele>402</ele>
        <time>2014-06-08T07:41:21Z</time>
      </trkpt>
      <trkpt lat="43.74933" lon="3.52481">
        <ele>401.5</ele>
        <time>2014-06-08T07:41:27Z</time>
      </trkpt>
      <trkpt lat="43.7494" lon="3.52491">
        <ele>402.3</ele>
        <time>2014-06-08T07:41:30Z</time>
      </trkpt>
      <trkpt lat="43.7495" lon="3.525">
        <ele>402.6</ele>
        <time>2014-06-08T07:41:34Z</time>
      </trkpt>
      <trkpt lat="43.74956" lon="3.52511">
        <ele>402.8</ele>
        <time>2014-06-08T07:41:37Z</time>
      </trkpt>
      <trkpt lat="43.74957" lon="3.52525">
        <ele>403.3</ele>
        <time>2014-06-08T07:41:40Z</time>
      </trkpt>
      <trkpt lat="43.7496" lon="3.52537">
        <ele>404.4</ele>
        <time>2014-06-08T07:41:43Z</time>
      </trkpt>
      <trkpt lat="43.74966" lon="3.52547">
        <ele>404.9</ele>
        <time>2014-06-08T07:41:46Z</time>
      </trkpt>
      <trkpt lat="43.74969" lon="3.5256">
        <ele>405.2</ele>
        <time>2014-06-08T07:41:49Z</time>
      </trkpt>
      <trkpt lat="43.74974" lon="3.52573">
        <ele>405.5</ele>
        <time>2014-06-08T07:41:52Z</time>
      </trkpt>
      <trkpt lat="43.74979" lon="3.52585">
        <ele>405</ele>
        <time>2014-06-08T07:41:55Z</time>
      </trkpt>
      <trkpt lat="43.74984" lon="3.52596">
        <ele>404.9</ele>
        <time>2014-06-08T07:41:58Z</time>
      </trkpt>
      <trkpt lat="43.74992" lon="3.52608">
        <ele>405.5</ele>
        <time>2014-06-08T07:42:02Z</time>
      </trkpt>
      <trkpt lat="43.74999" lon="3.52619">
        <ele>405.9</ele>
        <time>2014-06-08T07:42:06Z</time>
      </trkpt>
      <trkpt lat="43.75006" lon="3.5263">
        <ele>406.9</ele>
        <time>2014-06-08T07:42:10Z</time>
      </trkpt>
      <trkpt lat="43.75014" lon="3.5264">
        <ele>407.1</ele>
        <time>2014-06-08T07:42:14Z</time>
      </trkpt>
      <trkpt lat="43.75024" lon="3.52646">
        <ele>406.9</ele>
        <time>2014-06-08T07:42:18Z</time>
      </trkpt>
      <trkpt lat="43.75034" lon="3.52649">
        <ele>408.2</ele>
        <time>2014-06-08T07:42:22Z</time>
      </trkpt>
      <trkpt lat="43.75053" lon="3.52656">
        <ele>409.6</ele>
        <time>2014-06-08T07:42:31Z</time>
      </trkpt>
      <trkpt lat="43.75062" lon="3.52655">
        <ele>410.2</ele>
        <time>2014-06-08T07:42:35Z</time>
      </trkpt>
      <trkpt lat="43.7507" lon="3.52645">
        <ele>409.2</ele>
        <time>2014-06-08T07:42:38Z</time>
      </trkpt>
      <trkpt lat="43.75075" lon="3.52635">
        <ele>409.5</ele>
        <time>2014-06-08T07:42:42Z</time>
      </trkpt>
      <trkpt lat="43.75082" lon="3.52626">
        <ele>411.5</ele>
        <time>2014-06-08T07:42:48Z</time>
      </trkpt>
      <trkpt lat="43.7509" lon="3.52617">
        <ele>413.5</ele>
        <time>2014-06-08T07:42:55Z</time>
      </trkpt>
      <trkpt lat="43.75099" lon="3.52614">
        <ele>413.4</ele>
        <time>2014-06-08T07:43:01Z</time>
      </trkpt>
      <trkpt lat="43.75109" lon="3.52616">
        <ele>413.7</ele>
        <time>2014-06-08T07:43:07Z</time>
      </trkpt>
      <trkpt lat="43.75119" lon="3.52616">
        <ele>415.3</ele>
        <time>2014-06-08T07:43:14Z</time>
      </trkpt>
      <trkpt lat="43.75128" lon="3.52612">
        <ele>416.5</ele>
        <time>2014-06-08T07:43:21Z</time>
      </trkpt>
      <trkpt lat="43.75137" lon="3.52605">
        <ele>417.4</ele>
        <time>2014-06-08T07:43:28Z</time>
      </trkpt>
      <trkpt lat="43.75151" lon="3.52586">
        <ele>418.7</ele>
        <time>2014-06-08T07:43:39Z</time>
      </trkpt>
      <trkpt lat="43.75157" lon="3.52574">
        <ele>420.3</ele>
        <time>2014-06-08T07:43:45Z</time>
      </trkpt>
      <trkpt lat="43.75161" lon="3.5256">
        <ele>421</ele>
        <time>2014-06-08T07:43:51Z</time>
      </trkpt>
      <trkpt lat="43.75164" lon="3.52548">
        <ele>422.2</ele>
        <time>2014-06-08T07:43:56Z</time>
      </trkpt>
      <trkpt lat="43.75169" lon="3.52537">
        <ele>423.4</ele>
        <time>2014-06-08T07:44:01Z</time>
      </trkpt>
      <trkpt lat="43.75176" lon="3.52527">
        <ele>424.1</ele>
        <time>2014-06-08T07:44:07Z</time>
      </trkpt>
      <trkpt lat="43.75186" lon="3.52523">
        <ele>426.2</ele>
        <time>2014-06-08T07:44:14Z</time>
      </trkpt>
      <trkpt lat="43.75195" lon="3.52529">
        <ele>427.2</ele>
        <time>2014-06-08T07:44:21Z</time>
      </trkpt>
      <trkpt lat="43.75203" lon="3.52537">
        <ele>428.3</ele>
        <time>2014-06-08T07:44:28Z</time>
      </trkpt>
      <trkpt lat="43.75211" lon="3.52544">
        <ele>429.3</ele>
        <time>2014-06-08T07:44:34Z</time>
      </trkpt>
      <trkpt lat="43.7523" lon="3.52541">
        <ele>431.2</ele>
        <time>2014-06-08T07:44:47Z</time>
      </trkpt>
      <trkpt lat="43.75237" lon="3.52534">
        <ele>432.1</ele>
        <time>2014-06-08T07:44:53Z</time>
      </trkpt>
      <trkpt lat="43.75242" lon="3.52522">
        <ele>432.5</ele>
        <time>2014-06-08T07:44:59Z</time>
      </trkpt>
      <trkpt lat="43.75245" lon="3.52508">
        <ele>432.8</ele>
        <time>2014-06-08T07:45:05Z</time>
      </trkpt>
      <trkpt lat="43.75255" lon="3.52497">
        <ele>433</ele>
        <time>2014-06-08T07:45:09Z</time>
      </trkpt>
      <trkpt lat="43.75264" lon="3.52492">
        <ele>432.5</ele>
        <time>2014-06-08T07:45:11Z</time>
      </trkpt>
      <trkpt lat="43.75275" lon="3.52487">
        <ele>432.3</ele>
        <time>2014-06-08T07:45:13Z</time>
      </trkpt>
      <trkpt lat="43.75287" lon="3.52485">
        <ele>431.4</ele>
        <time>2014-06-08T07:45:15Z</time>
      </trkpt>
      <trkpt lat="43.753" lon="3.52481">
        <ele>430.4</ele>
        <time>2014-06-08T07:45:17Z</time>
      </trkpt>
      <trkpt lat="43.75312" lon="3.52472">
        <ele>429.4</ele>
        <time>2014-06-08T07:45:19Z</time>
      </trkpt>
      <trkpt lat="43.75325" lon="3.52464">
        <ele>428.3</ele>
        <time>2014-06-08T07:45:21Z</time>
      </trkpt>
      <trkpt lat="43.75337" lon="3.52458">
        <ele>427.7</ele>
        <time>2014-06-08T07:45:23Z</time>
      </trkpt>
      <trkpt lat="43.75346" lon="3.52445">
        <ele>426.8</ele>
        <time>2014-06-08T07:45:25Z</time>
      </trkpt>
      <trkpt lat="43.75349" lon="3.52428">
        <ele>425</ele>
        <time>2014-06-08T07:45:27Z</time>
      </trkpt>
      <trkpt lat="43.7535" lon="3.5241">
        <ele>423.7</ele>
        <time>2014-06-08T07:45:29Z</time>
      </trkpt>
      <trkpt lat="43.75352" lon="3.52396">
        <ele>422.1</ele>
        <time>2014-06-08T07:45:31Z</time>
      </trkpt>
      <trkpt lat="43.7536" lon="3.52386">
        <ele>420.5</ele>
        <time>2014-06-08T07:45:33Z</time>
      </trkpt>
      <trkpt lat="43.75369" lon="3.52376">
        <ele>419.4</ele>
        <time>2014-06-08T07:45:35Z</time>
      </trkpt>
      <trkpt lat="43.75387" lon="3.52362">
        <ele>418.3</ele>
        <time>2014-06-08T07:45:39Z</time>
      </trkpt>
      <trkpt lat="43.75397" lon="3.52372">
        <ele>417.1</ele>
        <time>2014-06-08T07:45:42Z</time>
      </trkpt>
      <trkpt lat="43.75404" lon="3.52385">
        <ele>416</ele>
        <time>2014-06-08T07:45:44Z</time>
      </trkpt>
      <trkpt lat="43.75413" lon="3.52397">
        <ele>415</ele>
        <time>2014-06-08T07:45:46Z</time>
      </trkpt>
      <trkpt lat="43.75425" lon="3.52406">
        <ele>414.2</ele>
        <time>2014-06-08T07:45:48Z</time>
      </trkpt>
      <trkpt lat="43.75439" lon="3.52412">
        <ele>413</ele>
        <time>2014-06-08T07:45:50Z</time>
      </trkpt>
      <trkpt lat="43.75454" lon="3.52411">
        <ele>411.7</ele>
        <time>2014-06-08T07:45:52Z</time>
      </trkpt>
      <trkpt lat="43.75468" lon="3.52404">
        <ele>410.9</ele>
        <time>2014-06-08T07:45:54Z</time>
      </trkpt>
      <trkpt lat="43.75482" lon="3.52396">
        <ele>410.1</ele>
        <time>2014-06-08T07:45:56Z</time>
      </trkpt>
      <trkpt lat="43.75494" lon="3.52389">
        <ele>410.2</ele>
        <time>2014-06-08T07:45:58Z</time>
      </trkpt>
      <trkpt lat="43.75503" lon="3.52383">
        <ele>410.3</ele>
        <time>2014-06-08T07:46:00Z</time>
      </trkpt>
      <trkpt lat="43.75514" lon="3.52384">
        <ele>410.8</ele>
        <time>2014-06-08T07:46:03Z</time>
      </trkpt>
      <trkpt lat="43.75524" lon="3.5239">
        <ele>412.5</ele>
        <time>2014-06-08T07:46:07Z</time>
      </trkpt>
      <trkpt lat="43.75535" lon="3.52397">
        <ele>413.8</ele>
        <time>2014-06-08T07:46:11Z</time>
      </trkpt>
      <trkpt lat="43.75543" lon="3.52401">
        <ele>414.3</ele>
        <time>2014-06-08T07:46:14Z</time>
      </trkpt>
      <trkpt lat="43.75554" lon="3.52403">
        <ele>414.1</ele>
        <time>2014-06-08T07:46:17Z</time>
      </trkpt>
      <trkpt lat="43.75567" lon="3.52407">
        <ele>413.7</ele>
        <time>2014-06-08T07:46:20Z</time>
      </trkpt>
      <trkpt lat="43.75576" lon="3.52407">
        <ele>413</ele>
        <time>2014-06-08T07:46:22Z</time>
      </trkpt>
      <trkpt lat="43.75586" lon="3.52408">
        <ele>413.4</ele>
        <time>2014-06-08T07:46:24Z</time>
      </trkpt>
      <trkpt lat="43.75595" lon="3.52409">
        <ele>413.5</ele>
        <time>2014-06-08T07:46:26Z</time>
      </trkpt>
      <trkpt lat="43.75604" lon="3.5241">
        <ele>413.4</ele>
        <time>2014-06-08T07:46:28Z</time>
      </trkpt>
      <trkpt lat="43.75617" lon="3.52413">
        <ele>413.6</ele>
        <time>2014-06-08T07:46:31Z</time>
      </trkpt>
      <trkpt lat="43.7563" lon="3.52414">
        <ele>413.2</ele>
        <time>2014-06-08T07:46:34Z</time>
      </trkpt>
      <trkpt lat="43.75642" lon="3.52415">
        <ele>413.5</ele>
        <time>2014-06-08T07:46:37Z</time>
      </trkpt>
      <trkpt lat="43.75667" lon="3.52417">
        <ele>413.2</ele>
        <time>2014-06-08T07:46:43Z</time>
      </trkpt>
      <trkpt lat="43.7568" lon="3.52421">
        <ele>413.6</ele>
        <time>2014-06-08T07:46:46Z</time>
      </trkpt>
      <trkpt lat="43.7569" lon="3.52427">
        <ele>413.9</ele>
        <time>2014-06-08T07:46:49Z</time>
      </trkpt>
      <trkpt lat="43.757" lon="3.52436">
        <ele>414.7</ele>
        <time>2014-06-08T07:46:53Z</time>
      </trkpt>
      <trkpt lat="43.75707" lon="3.52444">
        <ele>414.7</ele>
        <time>2014-06-08T07:46:56Z</time>
      </trkpt>
      <trkpt lat="43.75716" lon="3.52456">
        <ele>415</ele>
        <time>2014-06-08T07:47:00Z</time>
      </trkpt>
      <trkpt lat="43.7572" lon="3.52467">
        <ele>416.3</ele>
        <time>2014-06-08T07:47:03Z</time>
      </trkpt>
      <trkpt lat="43.75722" lon="3.5248">
        <ele>416.7</ele>
        <time>2014-06-08T07:47:06Z</time>
      </trkpt>
      <trkpt lat="43.75722" lon="3.52495">
        <ele>416.2</ele>
        <time>2014-06-08T07:47:09Z</time>
      </trkpt>
      <trkpt lat="43.75719" lon="3.5251">
        <ele>415.9</ele>
        <time>2014-06-08T07:47:12Z</time>
      </trkpt>
      <trkpt lat="43.75715" lon="3.52525">
        <ele>416.5</ele>
        <time>2014-06-08T07:47:15Z</time>
      </trkpt>
      <trkpt lat="43.7571" lon="3.52539">
        <ele>416.4</ele>
        <time>2014-06-08T07:47:18Z</time>
      </trkpt>
      <trkpt lat="43.75707" lon="3.52553">
        <ele>416.3</ele>
        <time>2014-06-08T07:47:21Z</time>
      </trkpt>
      <trkpt lat="43.75704" lon="3.52568">
        <ele>416.6</ele>
        <time>2014-06-08T07:47:24Z</time>
      </trkpt>
      <trkpt lat="43.75702" lon="3.52584">
        <ele>416.7</ele>
        <time>2014-06-08T07:47:27Z</time>
      </trkpt>
      <trkpt lat="43.75702" lon="3.52601">
        <ele>416.8</ele>
        <time>2014-06-08T07:47:30Z</time>
      </trkpt>
      <trkpt lat="43.75705" lon="3.52617">
        <ele>417.1</ele>
        <time>2014-06-08T07:47:33Z</time>
      </trkpt>
      <trkpt lat="43.7571" lon="3.52631">
        <ele>417.6</ele>
        <time>2014-06-08T07:47:36Z</time>
      </trkpt>
      <trkpt lat="43.75717" lon="3.52641">
        <ele>417.6</ele>
        <time>2014-06-08T07:47:39Z</time>
      </trkpt>
      <trkpt lat="43.75734" lon="3.52657">
        <ele>417.8</ele>
        <time>2014-06-08T07:47:45Z</time>
      </trkpt>
      <trkpt lat="43.75744" lon="3.52664">
        <ele>417.7</ele>
        <time>2014-06-08T07:47:48Z</time>
      </trkpt>
      <trkpt lat="43.75754" lon="3.52669">
        <ele>418.9</ele>
        <time>2014-06-08T07:47:51Z</time>
      </trkpt>
      <trkpt lat="43.75765" lon="3.52673">
        <ele>419</ele>
        <time>2014-06-08T07:47:54Z</time>
      </trkpt>
      <trkpt lat="43.75774" lon="3.52679">
        <ele>419.3</ele>
        <time>2014-06-08T07:47:57Z</time>
      </trkpt>
      <trkpt lat="43.75783" lon="3.52687">
        <ele>419.3</ele>
        <time>2014-06-08T07:48:00Z</time>
      </trkpt>
      <trkpt lat="43.75793" lon="3.52694">
        <ele>419.9</ele>
        <time>2014-06-08T07:48:03Z</time>
      </trkpt>
      <trkpt lat="43.75802" lon="3.52703">
        <ele>419.6</ele>
        <time>2014-06-08T07:48:06Z</time>
      </trkpt>
      <trkpt lat="43.7581" lon="3.52713">
        <ele>419.7</ele>
        <time>2014-06-08T07:48:09Z</time>
      </trkpt>
      <trkpt lat="43.75818" lon="3.52723">
        <ele>419.7</ele>
        <time>2014-06-08T07:48:12Z</time>
      </trkpt>
      <trkpt lat="43.75826" lon="3.52733">
        <ele>420.2</ele>
        <time>2014-06-08T07:48:15Z</time>
      </trkpt>
      <trkpt lat="43.75833" lon="3.52744">
        <ele>420.2</ele>
        <time>2014-06-08T07:48:18Z</time>
      </trkpt>
      <trkpt lat="43.75838" lon="3.52756">
        <ele>420.3</ele>
        <time>2014-06-08T07:48:21Z</time>
      </trkpt>
      <trkpt lat="43.7584" lon="3.52771">
        <ele>421.2</ele>
        <time>2014-06-08T07:48:25Z</time>
      </trkpt>
      <trkpt lat="43.75843" lon="3.52786">
        <ele>421.6</ele>
        <time>2014-06-08T07:48:29Z</time>
      </trkpt>
      <trkpt lat="43.75845" lon="3.52798">
        <ele>422.5</ele>
        <time>2014-06-08T07:48:32Z</time>
      </trkpt>
      <trkpt lat="43.75843" lon="3.52815">
        <ele>422.8</ele>
        <time>2014-06-08T07:48:36Z</time>
      </trkpt>
      <trkpt lat="43.7584" lon="3.52831">
        <ele>423.3</ele>
        <time>2014-06-08T07:48:40Z</time>
      </trkpt>
      <trkpt lat="43.75837" lon="3.52856">
        <ele>424.1</ele>
        <time>2014-06-08T07:48:46Z</time>
      </trkpt>
      <trkpt lat="43.75838" lon="3.52872">
        <ele>424.6</ele>
        <time>2014-06-08T07:48:50Z</time>
      </trkpt>
      <trkpt lat="43.75842" lon="3.52887">
        <ele>425.2</ele>
        <time>2014-06-08T07:48:54Z</time>
      </trkpt>
      <trkpt lat="43.7585" lon="3.52893">
        <ele>425.9</ele>
        <time>2014-06-08T07:48:58Z</time>
      </trkpt>
      <trkpt lat="43.75859" lon="3.52899">
        <ele>426</ele>
        <time>2014-06-08T07:49:02Z</time>
      </trkpt>
      <trkpt lat="43.75862" lon="3.52912">
        <ele>426.3</ele>
        <time>2014-06-08T07:49:06Z</time>
      </trkpt>
      <trkpt lat="43.75858" lon="3.52926">
        <ele>426.9</ele>
        <time>2014-06-08T07:49:12Z</time>
      </trkpt>
      <trkpt lat="43.75853" lon="3.52937">
        <ele>429.1</ele>
        <time>2014-06-08T07:49:18Z</time>
      </trkpt>
      <trkpt lat="43.75848" lon="3.52948">
        <ele>428.5</ele>
        <time>2014-06-08T07:49:23Z</time>
      </trkpt>
      <trkpt lat="43.75844" lon="3.5296">
        <ele>429.4</ele>
        <time>2014-06-08T07:49:28Z</time>
      </trkpt>
      <trkpt lat="43.75849" lon="3.52971">
        <ele>430.4</ele>
        <time>2014-06-08T07:49:34Z</time>
      </trkpt>
      <trkpt lat="43.75858" lon="3.52964">
        <ele>432.2</ele>
        <time>2014-06-08T07:49:40Z</time>
      </trkpt>
      <trkpt lat="43.75865" lon="3.52955">
        <ele>434.5</ele>
        <time>2014-06-08T07:49:45Z</time>
      </trkpt>
      <trkpt lat="43.75882" lon="3.52944">
        <ele>437.1</ele>
        <time>2014-06-08T07:49:57Z</time>
      </trkpt>
      <trkpt lat="43.7589" lon="3.52937">
        <ele>438</ele>
        <time>2014-06-08T07:50:03Z</time>
      </trkpt>
      <trkpt lat="43.75897" lon="3.52927">
        <ele>438.9</ele>
        <time>2014-06-08T07:50:10Z</time>
      </trkpt>
      <trkpt lat="43.75901" lon="3.52915">
        <ele>440.3</ele>
        <time>2014-06-08T07:50:17Z</time>
      </trkpt>
      <trkpt lat="43.75902" lon="3.52902">
        <ele>441.5</ele>
        <time>2014-06-08T07:50:25Z</time>
      </trkpt>
      <trkpt lat="43.75907" lon="3.52891">
        <ele>443.1</ele>
        <time>2014-06-08T07:50:31Z</time>
      </trkpt>
      <trkpt lat="43.75917" lon="3.52887">
        <ele>444.7</ele>
        <time>2014-06-08T07:50:39Z</time>
      </trkpt>
      <trkpt lat="43.75927" lon="3.52888">
        <ele>446</ele>
        <time>2014-06-08T07:50:46Z</time>
      </trkpt>
      <trkpt lat="43.7594" lon="3.52904">
        <ele>448.2</ele>
        <time>2014-06-08T07:51:01Z</time>
      </trkpt>
      <trkpt lat="43.75943" lon="3.52916">
        <ele>449.7</ele>
        <time>2014-06-08T07:51:09Z</time>
      </trkpt>
      <trkpt lat="43.75946" lon="3.52929">
        <ele>451.8</ele>
        <time>2014-06-08T07:51:23Z</time>
      </trkpt>
      <trkpt lat="43.75948" lon="3.52942">
        <ele>452.5</ele>
        <time>2014-06-08T07:51:33Z</time>
      </trkpt>
      <trkpt lat="43.75945" lon="3.52955">
        <ele>455.2</ele>
        <time>2014-06-08T07:51:46Z</time>
      </trkpt>
      <trkpt lat="43.7594" lon="3.52966">
        <ele>457</ele>
        <time>2014-06-08T07:51:52Z</time>
      </trkpt>
      <trkpt lat="43.75921" lon="3.52973">
        <ele>457.5</ele>
        <time>2014-06-08T07:52:04Z</time>
      </trkpt>
      <trkpt lat="43.75914" lon="3.52982">
        <ele>457.9</ele>
        <time>2014-06-08T07:52:09Z</time>
      </trkpt>
      <trkpt lat="43.75913" lon="3.52995">
        <ele>458.3</ele>
        <time>2014-06-08T07:52:15Z</time>
      </trkpt>
      <trkpt lat="43.7592" lon="3.53004">
        <ele>460</ele>
        <time>2014-06-08T07:52:22Z</time>
      </trkpt>
      <trkpt lat="43.75929" lon="3.53007">
        <ele>460.9</ele>
        <time>2014-06-08T07:52:28Z</time>
      </trkpt>
      <trkpt lat="43.75936" lon="3.53017">
        <ele>461.6</ele>
        <time>2014-06-08T07:52:35Z</time>
      </trkpt>
      <trkpt lat="43.75941" lon="3.53028">
        <ele>462.4</ele>
        <time>2014-06-08T07:52:41Z</time>
      </trkpt>
      <trkpt lat="43.75944" lon="3.53039">
        <ele>463.6</ele>
        <time>2014-06-08T07:52:48Z</time>
      </trkpt>
      <trkpt lat="43.75948" lon="3.53053">
        <ele>465.4</ele>
        <time>2014-06-08T07:52:55Z</time>
      </trkpt>
      <trkpt lat="43.75956" lon="3.53077">
        <ele>467.8</ele>
        <time>2014-06-08T07:53:09Z</time>
      </trkpt>
      <trkpt lat="43.75959" lon="3.53089">
        <ele>469.4</ele>
        <time>2014-06-08T07:53:16Z</time>
      </trkpt>
      <trkpt lat="43.75963" lon="3.53102">
        <ele>470.9</ele>
        <time>2014-06-08T07:53:24Z</time>
      </trkpt>
      <trkpt lat="43.75965" lon="3.53115">
        <ele>471.5</ele>
        <time>2014-06-08T07:53:31Z</time>
      </trkpt>
      <trkpt lat="43.75968" lon="3.53128">
        <ele>472.1</ele>
        <time>2014-06-08T07:53:38Z</time>
      </trkpt>
      <trkpt lat="43.75972" lon="3.5314">
        <ele>473.5</ele>
        <time>2014-06-08T07:53:44Z</time>
      </trkpt>
      <trkpt lat="43.75976" lon="3.53153">
        <ele>474.2</ele>
        <time>2014-06-08T07:53:49Z</time>
      </trkpt>
      <trkpt lat="43.7598" lon="3.53164">
        <ele>474.4</ele>
        <time>2014-06-08T07:53:53Z</time>
      </trkpt>
      <trkpt lat="43.75985" lon="3.53176">
        <ele>475.1</ele>
        <time>2014-06-08T07:53:58Z</time>
      </trkpt>
      <trkpt lat="43.75996" lon="3.53197">
        <ele>476.7</ele>
        <time>2014-06-08T07:54:09Z</time>
      </trkpt>
      <trkpt lat="43.76003" lon="3.53206">
        <ele>478.1</ele>
        <time>2014-06-08T07:54:16Z</time>
      </trkpt>
      <trkpt lat="43.7601" lon="3.53216">
        <ele>480.2</ele>
        <time>2014-06-08T07:54:23Z</time>
      </trkpt>
      <trkpt lat="43.76016" lon="3.53226">
        <ele>481.3</ele>
        <time>2014-06-08T07:54:30Z</time>
      </trkpt>
      <trkpt lat="43.76022" lon="3.53235">
        <ele>483.1</ele>
        <time>2014-06-08T07:54:37Z</time>
      </trkpt>
      <trkpt lat="43.7603" lon="3.53243">
        <ele>484.3</ele>
        <time>2014-06-08T07:54:45Z</time>
      </trkpt>
      <trkpt lat="43.76038" lon="3.53249">
        <ele>485.4</ele>
        <time>2014-06-08T07:54:53Z</time>
      </trkpt>
      <trkpt lat="43.76047" lon="3.53255">
        <ele>486.8</ele>
        <time>2014-06-08T07:55:00Z</time>
      </trkpt>
      <trkpt lat="43.76064" lon="3.53265">
        <ele>489.4</ele>
        <time>2014-06-08T07:55:17Z</time>
      </trkpt>
      <trkpt lat="43.76073" lon="3.5327">
        <ele>491.2</ele>
        <time>2014-06-08T07:55:28Z</time>
      </trkpt>
      <trkpt lat="43.76082" lon="3.53276">
        <ele>492.2</ele>
        <time>2014-06-08T07:55:37Z</time>
      </trkpt>
      <trkpt lat="43.7609" lon="3.53282">
        <ele>493.7</ele>
        <time>2014-06-08T07:55:46Z</time>
      </trkpt>
      <trkpt lat="43.76098" lon="3.5329">
        <ele>496.5</ele>
        <time>2014-06-08T07:55:56Z</time>
      </trkpt>
      <trkpt lat="43.76104" lon="3.533">
        <ele>497.5</ele>
        <time>2014-06-08T07:56:04Z</time>
      </trkpt>
      <trkpt lat="43.7611" lon="3.53324">
        <ele>500.4</ele>
        <time>2014-06-08T07:56:22Z</time>
      </trkpt>
      <trkpt lat="43.76115" lon="3.53335">
        <ele>501</ele>
        <time>2014-06-08T07:56:31Z</time>
      </trkpt>
      <trkpt lat="43.76122" lon="3.53345">
        <ele>502.1</ele>
        <time>2014-06-08T07:56:40Z</time>
      </trkpt>
      <trkpt lat="43.76129" lon="3.53354">
        <ele>502.4</ele>
        <time>2014-06-08T07:56:45Z</time>
      </trkpt>
      <trkpt lat="43.76137" lon="3.53365">
        <ele>502.9</ele>
        <time>2014-06-08T07:56:49Z</time>
      </trkpt>
      <trkpt lat="43.76146" lon="3.53376">
        <ele>502.4</ele>
        <time>2014-06-08T07:56:52Z</time>
      </trkpt>
      <trkpt lat="43.76152" lon="3.5339">
        <ele>501.5</ele>
        <time>2014-06-08T07:56:55Z</time>
      </trkpt>
      <trkpt lat="43.76154" lon="3.53404">
        <ele>500.1</ele>
        <time>2014-06-08T07:56:58Z</time>
      </trkpt>
      <trkpt lat="43.76149" lon="3.53419">
        <ele>498.1</ele>
        <time>2014-06-08T07:57:02Z</time>
      </trkpt>
      <trkpt lat="43.76141" lon="3.53428">
        <ele>497.3</ele>
        <time>2014-06-08T07:57:05Z</time>
      </trkpt>
      <trkpt lat="43.76163" lon="3.53426">
        <ele>496</ele>
        <time>2014-06-08T07:57:13Z</time>
      </trkpt>
      <trkpt lat="43.76175" lon="3.53426">
        <ele>495.1</ele>
        <time>2014-06-08T07:57:15Z</time>
      </trkpt>
      <trkpt lat="43.76188" lon="3.53426">
        <ele>494.6</ele>
        <time>2014-06-08T07:57:17Z</time>
      </trkpt>
      <trkpt lat="43.76203" lon="3.53425">
        <ele>493.4</ele>
        <time>2014-06-08T07:57:19Z</time>
      </trkpt>
      <trkpt lat="43.76218" lon="3.53424">
        <ele>491.9</ele>
        <time>2014-06-08T07:57:21Z</time>
      </trkpt>
      <trkpt lat="43.76233" lon="3.53422">
        <ele>490.5</ele>
        <time>2014-06-08T07:57:23Z</time>
      </trkpt>
      <trkpt lat="43.76246" lon="3.53426">
        <ele>488.5</ele>
        <time>2014-06-08T07:57:25Z</time>
      </trkpt>
      <trkpt lat="43.76257" lon="3.53437">
        <ele>486.3</ele>
        <time>2014-06-08T07:57:27Z</time>
      </trkpt>
      <trkpt lat="43.76264" lon="3.53457">
        <ele>484.8</ele>
        <time>2014-06-08T07:57:29Z</time>
      </trkpt>
      <trkpt lat="43.76268" lon="3.5348">
        <ele>483.8</ele>
        <time>2014-06-08T07:57:31Z</time>
      </trkpt>
      <trkpt lat="43.76273" lon="3.53502">
        <ele>483</ele>
        <time>2014-06-08T07:57:33Z</time>
      </trkpt>
      <trkpt lat="43.76277" lon="3.53523">
        <ele>481.5</ele>
        <time>2014-06-08T07:57:35Z</time>
      </trkpt>
      <trkpt lat="43.76276" lon="3.53539">
        <ele>479.8</ele>
        <time>2014-06-08T07:57:37Z</time>
      </trkpt>
      <trkpt lat="43.76267" lon="3.53551">
        <ele>478.9</ele>
        <time>2014-06-08T07:57:39Z</time>
      </trkpt>
      <trkpt lat="43.76261" lon="3.53561">
        <ele>477.9</ele>
        <time>2014-06-08T07:57:41Z</time>
      </trkpt>
      <trkpt lat="43.76268" lon="3.53572">
        <ele>476</ele>
        <time>2014-06-08T07:57:44Z</time>
      </trkpt>
      <trkpt lat="43.76279" lon="3.53567">
        <ele>475.3</ele>
        <time>2014-06-08T07:57:46Z</time>
      </trkpt>
      <trkpt lat="43.76291" lon="3.53557">
        <ele>473.7</ele>
        <time>2014-06-08T07:57:48Z</time>
      </trkpt>
      <trkpt lat="43.76303" lon="3.53544">
        <ele>471.8</ele>
        <time>2014-06-08T07:57:50Z</time>
      </trkpt>
      <trkpt lat="43.76316" lon="3.53532">
        <ele>470.2</ele>
        <time>2014-06-08T07:57:52Z</time>
      </trkpt>
      <trkpt lat="43.7633" lon="3.53524">
        <ele>468.7</ele>
        <time>2014-06-08T07:57:54Z</time>
      </trkpt>
      <trkpt lat="43.76344" lon="3.53519">
        <ele>467.3</ele>
        <time>2014-06-08T07:57:56Z</time>
      </trkpt>
      <trkpt lat="43.76359" lon="3.53516">
        <ele>466.5</ele>
        <time>2014-06-08T07:57:58Z</time>
      </trkpt>
      <trkpt lat="43.76373" lon="3.53513">
        <ele>465</ele>
        <time>2014-06-08T07:58:00Z</time>
      </trkpt>
      <trkpt lat="43.76388" lon="3.53511">
        <ele>464.2</ele>
        <time>2014-06-08T07:58:02Z</time>
      </trkpt>
      <trkpt lat="43.76401" lon="3.5351">
        <ele>463.6</ele>
        <time>2014-06-08T07:58:04Z</time>
      </trkpt>
      <trkpt lat="43.76414" lon="3.53504">
        <ele>463.2</ele>
        <time>2014-06-08T07:58:06Z</time>
      </trkpt>
      <trkpt lat="43.76437" lon="3.53482">
        <ele>462.5</ele>
        <time>2014-06-08T07:58:10Z</time>
      </trkpt>
      <trkpt lat="43.76443" lon="3.53466">
        <ele>462.5</ele>
        <time>2014-06-08T07:58:12Z</time>
      </trkpt>
      <trkpt lat="43.76448" lon="3.53452">
        <ele>462.4</ele>
        <time>2014-06-08T07:58:14Z</time>
      </trkpt>
      <trkpt lat="43.76454" lon="3.53441">
        <ele>462.8</ele>
        <time>2014-06-08T07:58:16Z</time>
      </trkpt>
      <trkpt lat="43.7646" lon="3.53427">
        <ele>464.1</ele>
        <time>2014-06-08T07:58:19Z</time>
      </trkpt>
      <trkpt lat="43.76464" lon="3.53413">
        <ele>463.9</ele>
        <time>2014-06-08T07:58:22Z</time>
      </trkpt>
      <trkpt lat="43.76465" lon="3.53399">
        <ele>463.8</ele>
        <time>2014-06-08T07:58:25Z</time>
      </trkpt>
      <trkpt lat="43.76462" lon="3.53385">
        <ele>464.5</ele>
        <time>2014-06-08T07:58:28Z</time>
      </trkpt>
      <trkpt lat="43.76459" lon="3.53368">
        <ele>464.6</ele>
        <time>2014-06-08T07:58:31Z</time>
      </trkpt>
      <trkpt lat="43.76463" lon="3.53351">
        <ele>465.3</ele>
        <time>2014-06-08T07:58:34Z</time>
      </trkpt>
      <trkpt lat="43.7647" lon="3.53342">
        <ele>465.5</ele>
        <time>2014-06-08T07:58:36Z</time>
      </trkpt>
      <trkpt lat="43.76478" lon="3.53332">
        <ele>465.7</ele>
        <time>2014-06-08T07:58:38Z</time>
      </trkpt>
      <trkpt lat="43.76488" lon="3.53323">
        <ele>464.7</ele>
        <time>2014-06-08T07:58:40Z</time>
      </trkpt>
      <trkpt lat="43.76498" lon="3.53317">
        <ele>463.8</ele>
        <time>2014-06-08T07:58:42Z</time>
      </trkpt>
      <trkpt lat="43.76509" lon="3.53314">
        <ele>463.5</ele>
        <time>2014-06-08T07:58:44Z</time>
      </trkpt>
      <trkpt lat="43.76518" lon="3.53314">
        <ele>463.5</ele>
        <time>2014-06-08T07:58:46Z</time>
      </trkpt>
      <trkpt lat="43.7653" lon="3.53314">
        <ele>464</ele>
        <time>2014-06-08T07:58:49Z</time>
      </trkpt>
      <trkpt lat="43.7654" lon="3.5331">
        <ele>464.1</ele>
        <time>2014-06-08T07:58:52Z</time>
      </trkpt>
      <trkpt lat="43.7655" lon="3.53304">
        <ele>464.5</ele>
        <time>2014-06-08T07:58:55Z</time>
      </trkpt>
      <trkpt lat="43.76559" lon="3.53296">
        <ele>464.6</ele>
        <time>2014-06-08T07:58:58Z</time>
      </trkpt>
      <trkpt lat="43.76565" lon="3.53284">
        <ele>465.3</ele>
        <time>2014-06-08T07:59:01Z</time>
      </trkpt>
      <trkpt lat="43.76569" lon="3.53268">
        <ele>465.3</ele>
        <time>2014-06-08T07:59:04Z</time>
      </trkpt>
      <trkpt lat="43.76569" lon="3.53255">
        <ele>464.8</ele>
        <time>2014-06-08T07:59:06Z</time>
      </trkpt>
      <trkpt lat="43.76569" lon="3.53242">
        <ele>465.3</ele>
        <time>2014-06-08T07:59:08Z</time>
      </trkpt>
      <trkpt lat="43.76574" lon="3.53217">
        <ele>464.9</ele>
        <time>2014-06-08T07:59:12Z</time>
      </trkpt>
      <trkpt lat="43.76578" lon="3.53206">
        <ele>465</ele>
        <time>2014-06-08T07:59:14Z</time>
      </trkpt>
      <trkpt lat="43.76583" lon="3.53195">
        <ele>464.1</ele>
        <time>2014-06-08T07:59:16Z</time>
      </trkpt>
      <trkpt lat="43.76589" lon="3.53184">
        <ele>463.8</ele>
        <time>2014-06-08T07:59:18Z</time>
      </trkpt>
      <trkpt lat="43.76596" lon="3.53173">
        <ele>463.8</ele>
        <time>2014-06-08T07:59:20Z</time>
      </trkpt>
      <trkpt lat="43.76602" lon="3.53159">
        <ele>463.5</ele>
        <time>2014-06-08T07:59:22Z</time>
      </trkpt>
      <trkpt lat="43.76605" lon="3.53145">
        <ele>463.5</ele>
        <time>2014-06-08T07:59:24Z</time>
      </trkpt>
      <trkpt lat="43.76606" lon="3.5313">
        <ele>463.4</ele>
        <time>2014-06-08T07:59:26Z</time>
      </trkpt>
      <trkpt lat="43.76605" lon="3.53116">
        <ele>463.2</ele>
        <time>2014-06-08T07:59:28Z</time>
      </trkpt>
      <trkpt lat="43.76601" lon="3.53104">
        <ele>462.9</ele>
        <time>2014-06-08T07:59:30Z</time>
      </trkpt>
      <trkpt lat="43.76595" lon="3.53093">
        <ele>462.8</ele>
        <time>2014-06-08T07:59:32Z</time>
      </trkpt>
      <trkpt lat="43.76588" lon="3.53073">
        <ele>462</ele>
        <time>2014-06-08T07:59:35Z</time>
      </trkpt>
      <trkpt lat="43.76585" lon="3.53058">
        <ele>463</ele>
        <time>2014-06-08T07:59:39Z</time>
      </trkpt>
      <trkpt lat="43.76589" lon="3.53044">
        <ele>464</ele>
        <time>2014-06-08T07:59:43Z</time>
      </trkpt>
      <trkpt lat="43.76593" lon="3.5303">
        <ele>465</ele>
        <time>2014-06-08T07:59:47Z</time>
      </trkpt>
      <trkpt lat="43.76589" lon="3.53015">
        <ele>465</ele>
        <time>2014-06-08T07:59:51Z</time>
      </trkpt>
      <trkpt lat="43.76585" lon="3.53">
        <ele>465</ele>
        <time>2014-06-08T07:59:55Z</time>
      </trkpt>
      <trkpt lat="43.76585" lon="3.52984">
        <ele>466</ele>
        <time>2014-06-08T07:59:59Z</time>
      </trkpt>
      <trkpt lat="43.7659" lon="3.52969">
        <ele>467</ele>
        <time>2014-06-08T08:00:03Z</time>
      </trkpt>
      <trkpt lat="43.76599" lon="3.52957">
        <ele>468</ele>
        <time>2014-06-08T08:00:07Z</time>
      </trkpt>
      <trkpt lat="43.76617" lon="3.52946">
        <ele>469.9</ele>
        <time>2014-06-08T08:00:15Z</time>
      </trkpt>
      <trkpt lat="43.76628" lon="3.52943">
        <ele>470.6</ele>
        <time>2014-06-08T08:00:19Z</time>
      </trkpt>
      <trkpt lat="43.76639" lon="3.52942">
        <ele>470.8</ele>
        <time>2014-06-08T08:00:23Z</time>
      </trkpt>
      <trkpt lat="43.76649" lon="3.5294">
        <ele>471.6</ele>
        <time>2014-06-08T08:00:27Z</time>
      </trkpt>
      <trkpt lat="43.76661" lon="3.52936">
        <ele>472</ele>
        <time>2014-06-08T08:00:32Z</time>
      </trkpt>
      <trkpt lat="43.76676" lon="3.52922">
        <ele>473</ele>
        <time>2014-06-08T08:00:40Z</time>
      </trkpt>
      <trkpt lat="43.76685" lon="3.52908">
        <ele>474.8</ele>
        <time>2014-06-08T08:00:47Z</time>
      </trkpt>
      <trkpt lat="43.76693" lon="3.529">
        <ele>476</ele>
        <time>2014-06-08T08:00:52Z</time>
      </trkpt>
      <trkpt lat="43.76702" lon="3.52893">
        <ele>476.5</ele>
        <time>2014-06-08T08:00:57Z</time>
      </trkpt>
      <trkpt lat="43.76712" lon="3.52885">
        <ele>477.7</ele>
        <time>2014-06-08T08:01:02Z</time>
      </trkpt>
      <trkpt lat="43.7672" lon="3.52875">
        <ele>478.4</ele>
        <time>2014-06-08T08:01:07Z</time>
      </trkpt>
      <trkpt lat="43.76727" lon="3.52864">
        <ele>478.6</ele>
        <time>2014-06-08T08:01:12Z</time>
      </trkpt>
      <trkpt lat="43.76739" lon="3.52839">
        <ele>480.9</ele>
        <time>2014-06-08T08:01:22Z</time>
      </trkpt>
      <trkpt lat="43.76747" lon="3.52831">
        <ele>481.7</ele>
        <time>2014-06-08T08:01:27Z</time>
      </trkpt>
      <trkpt lat="43.76756" lon="3.5283">
        <ele>482.2</ele>
        <time>2014-06-08T08:01:31Z</time>
      </trkpt>
      <trkpt lat="43.76765" lon="3.52829">
        <ele>482.7</ele>
        <time>2014-06-08T08:01:35Z</time>
      </trkpt>
      <trkpt lat="43.76776" lon="3.52828">
        <ele>483.3</ele>
        <time>2014-06-08T08:01:40Z</time>
      </trkpt>
      <trkpt lat="43.76786" lon="3.52826">
        <ele>484.2</ele>
        <time>2014-06-08T08:01:45Z</time>
      </trkpt>
      <trkpt lat="43.76796" lon="3.52826">
        <ele>484.1</ele>
        <time>2014-06-08T08:01:50Z</time>
      </trkpt>
      <trkpt lat="43.76806" lon="3.52829">
        <ele>485.8</ele>
        <time>2014-06-08T08:01:55Z</time>
      </trkpt>
      <trkpt lat="43.76814" lon="3.52838">
        <ele>487.5</ele>
        <time>2014-06-08T08:02:00Z</time>
      </trkpt>
      <trkpt lat="43.76821" lon="3.52849">
        <ele>488.1</ele>
        <time>2014-06-08T08:02:05Z</time>
      </trkpt>
      <trkpt lat="43.7683" lon="3.52856">
        <ele>488.9</ele>
        <time>2014-06-08T08:02:10Z</time>
      </trkpt>
      <trkpt lat="43.76839" lon="3.52862">
        <ele>489.2</ele>
        <time>2014-06-08T08:02:15Z</time>
      </trkpt>
      <trkpt lat="43.76852" lon="3.52883">
        <ele>491.1</ele>
        <time>2014-06-08T08:02:23Z</time>
      </trkpt>
      <trkpt lat="43.76859" lon="3.52894">
        <ele>491.3</ele>
        <time>2014-06-08T08:02:26Z</time>
      </trkpt>
      <trkpt lat="43.76867" lon="3.52905">
        <ele>490.7</ele>
        <time>2014-06-08T08:02:29Z</time>
      </trkpt>
      <trkpt lat="43.76876" lon="3.52914">
        <ele>490.6</ele>
        <time>2014-06-08T08:02:32Z</time>
      </trkpt>
      <trkpt lat="43.76885" lon="3.52924">
        <ele>490.8</ele>
        <time>2014-06-08T08:02:35Z</time>
      </trkpt>
      <trkpt lat="43.76895" lon="3.52933">
        <ele>491.3</ele>
        <time>2014-06-08T08:02:38Z</time>
      </trkpt>
      <trkpt lat="43.76903" lon="3.52942">
        <ele>491.1</ele>
        <time>2014-06-08T08:02:41Z</time>
      </trkpt>
      <trkpt lat="43.76908" lon="3.52955">
        <ele>490.8</ele>
        <time>2014-06-08T08:02:45Z</time>
      </trkpt>
      <trkpt lat="43.76908" lon="3.52969">
        <ele>490.8</ele>
        <time>2014-06-08T08:02:50Z</time>
      </trkpt>
      <trkpt lat="43.76914" lon="3.52977">
        <ele>490.5</ele>
        <time>2014-06-08T08:02:53Z</time>
      </trkpt>
      <trkpt lat="43.76923" lon="3.52986">
        <ele>489.8</ele>
        <time>2014-06-08T08:02:56Z</time>
      </trkpt>
      <trkpt lat="43.76934" lon="3.52995">
        <ele>489.8</ele>
        <time>2014-06-08T08:02:59Z</time>
      </trkpt>
      <trkpt lat="43.76943" lon="3.53007">
        <ele>489.9</ele>
        <time>2014-06-08T08:03:02Z</time>
      </trkpt>
      <trkpt lat="43.76949" lon="3.5302">
        <ele>489.4</ele>
        <time>2014-06-08T08:03:05Z</time>
      </trkpt>
      <trkpt lat="43.76957" lon="3.53032">
        <ele>489.4</ele>
        <time>2014-06-08T08:03:08Z</time>
      </trkpt>
      <trkpt lat="43.76963" lon="3.53047">
        <ele>489.1</ele>
        <time>2014-06-08T08:03:11Z</time>
      </trkpt>
      <trkpt lat="43.76967" lon="3.53065">
        <ele>488.5</ele>
        <time>2014-06-08T08:03:14Z</time>
      </trkpt>
      <trkpt lat="43.76973" lon="3.53075">
        <ele>488.3</ele>
        <time>2014-06-08T08:03:16Z</time>
      </trkpt>
      <trkpt lat="43.7699" lon="3.53089">
        <ele>487.2</ele>
        <time>2014-06-08T08:03:20Z</time>
      </trkpt>
      <trkpt lat="43.77001" lon="3.53097">
        <ele>486.1</ele>
        <time>2014-06-08T08:03:23Z</time>
      </trkpt>
      <trkpt lat="43.77007" lon="3.53106">
        <ele>486.1</ele>
        <time>2014-06-08T08:03:26Z</time>
      </trkpt>
      <trkpt lat="43.77014" lon="3.53119">
        <ele>485.9</ele>
        <time>2014-06-08T08:03:29Z</time>
      </trkpt>
      <trkpt lat="43.7702" lon="3.53132">
        <ele>486</ele>
        <time>2014-06-08T08:03:32Z</time>
      </trkpt>
      <trkpt lat="43.77025" lon="3.53145">
        <ele>487</ele>
        <time>2014-06-08T08:03:35Z</time>
      </trkpt>
      <trkpt lat="43.77033" lon="3.53151">
        <ele>487.1</ele>
        <time>2014-06-08T08:03:38Z</time>
      </trkpt>
      <trkpt lat="43.77043" lon="3.53147">
        <ele>487.5</ele>
        <time>2014-06-08T08:03:42Z</time>
      </trkpt>
      <trkpt lat="43.77053" lon="3.53143">
        <ele>488.4</ele>
        <time>2014-06-08T08:03:46Z</time>
      </trkpt>
      <trkpt lat="43.77062" lon="3.53143">
        <ele>489.3</ele>
        <time>2014-06-08T08:03:50Z</time>
      </trkpt>
      <trkpt lat="43.77073" lon="3.5314">
        <ele>489.9</ele>
        <time>2014-06-08T08:03:55Z</time>
      </trkpt>
      <trkpt lat="43.77084" lon="3.53138">
        <ele>490.9</ele>
        <time>2014-06-08T08:04:00Z</time>
      </trkpt>
      <trkpt lat="43.77095" lon="3.53139">
        <ele>492</ele>
        <time>2014-06-08T08:04:05Z</time>
      </trkpt>
      <trkpt lat="43.77104" lon="3.53142">
        <ele>492.7</ele>
        <time>2014-06-08T08:04:10Z</time>
      </trkpt>
      <trkpt lat="43.77115" lon="3.53144">
        <ele>494.2</ele>
        <time>2014-06-08T08:04:16Z</time>
      </trkpt>
      <trkpt lat="43.77125" lon="3.53146">
        <ele>494.8</ele>
        <time>2014-06-08T08:04:21Z</time>
      </trkpt>
      <trkpt lat="43.77144" lon="3.53153">
        <ele>495.9</ele>
        <time>2014-06-08T08:04:31Z</time>
      </trkpt>
      <trkpt lat="43.77151" lon="3.53164">
        <ele>496.4</ele>
        <time>2014-06-08T08:04:36Z</time>
      </trkpt>
      <trkpt lat="43.77158" lon="3.53175">
        <ele>497.4</ele>
        <time>2014-06-08T08:04:41Z</time>
      </trkpt>
      <trkpt lat="43.77163" lon="3.53187">
        <ele>498.3</ele>
        <time>2014-06-08T08:04:46Z</time>
      </trkpt>
      <trkpt lat="43.77173" lon="3.53192">
        <ele>498.9</ele>
        <time>2014-06-08T08:04:52Z</time>
      </trkpt>
      <trkpt lat="43.77182" lon="3.53188">
        <ele>500.5</ele>
        <time>2014-06-08T08:04:58Z</time>
      </trkpt>
      <trkpt lat="43.77192" lon="3.53186">
        <ele>501.8</ele>
        <time>2014-06-08T08:05:04Z</time>
      </trkpt>
      <trkpt lat="43.77202" lon="3.53189">
        <ele>501.7</ele>
        <time>2014-06-08T08:05:10Z</time>
      </trkpt>
      <trkpt lat="43.77211" lon="3.5319">
        <ele>502.2</ele>
        <time>2014-06-08T08:05:16Z</time>
      </trkpt>
      <trkpt lat="43.77221" lon="3.53186">
        <ele>503.5</ele>
        <time>2014-06-08T08:05:22Z</time>
      </trkpt>
      <trkpt lat="43.77238" lon="3.53197">
        <ele>505.4</ele>
        <time>2014-06-08T08:05:32Z</time>
      </trkpt>
      <trkpt lat="43.77246" lon="3.53206">
        <ele>506.5</ele>
        <time>2014-06-08T08:05:37Z</time>
      </trkpt>
      <trkpt lat="43.77256" lon="3.53207">
        <ele>506.5</ele>
        <time>2014-06-08T08:05:42Z</time>
      </trkpt>
      <trkpt lat="43.77263" lon="3.53198">
        <ele>507.6</ele>
        <time>2014-06-08T08:05:47Z</time>
      </trkpt>
      <trkpt lat="43.77272" lon="3.53191">
        <ele>508.7</ele>
        <time>2014-06-08T08:05:53Z</time>
      </trkpt>
      <trkpt lat="43.77282" lon="3.53189">
        <ele>510</ele>
        <time>2014-06-08T08:05:59Z</time>
      </trkpt>
      <trkpt lat="43.77293" lon="3.53189">
        <ele>510.9</ele>
        <time>2014-06-08T08:06:05Z</time>
      </trkpt>
      <trkpt lat="43.77302" lon="3.53191">
        <ele>512</ele>
        <time>2014-06-08T08:06:11Z</time>
      </trkpt>
      <trkpt lat="43.77311" lon="3.53189">
        <ele>513.4</ele>
        <time>2014-06-08T08:06:18Z</time>
      </trkpt>
      <trkpt lat="43.7732" lon="3.53184">
        <ele>514.8</ele>
        <time>2014-06-08T08:06:25Z</time>
      </trkpt>
      <trkpt lat="43.77338" lon="3.53176">
        <ele>516.9</ele>
        <time>2014-06-08T08:06:41Z</time>
      </trkpt>
      <trkpt lat="43.77348" lon="3.53174">
        <ele>518.6</ele>
        <time>2014-06-08T08:06:49Z</time>
      </trkpt>
      <trkpt lat="43.77357" lon="3.53175">
        <ele>520</ele>
        <time>2014-06-08T08:06:58Z</time>
      </trkpt>
      <trkpt lat="43.77367" lon="3.53176">
        <ele>522.4</ele>
        <time>2014-06-08T08:07:07Z</time>
      </trkpt>
      <trkpt lat="43.77376" lon="3.53175">
        <ele>523.4</ele>
        <time>2014-06-08T08:07:15Z</time>
      </trkpt>
      <trkpt lat="43.77386" lon="3.53173">
        <ele>524.5</ele>
        <time>2014-06-08T08:07:23Z</time>
      </trkpt>
      <trkpt lat="43.77396" lon="3.5317">
        <ele>526.4</ele>
        <time>2014-06-08T08:07:32Z</time>
      </trkpt>
      <trkpt lat="43.77414" lon="3.53163">
        <ele>528.7</ele>
        <time>2014-06-08T08:07:48Z</time>
      </trkpt>
      <trkpt lat="43.77423" lon="3.53159">
        <ele>530.5</ele>
        <time>2014-06-08T08:07:56Z</time>
      </trkpt>
      <trkpt lat="43.77432" lon="3.53156">
        <ele>530.9</ele>
        <time>2014-06-08T08:08:03Z</time>
      </trkpt>
      <trkpt lat="43.77442" lon="3.53152">
        <ele>532.8</ele>
        <time>2014-06-08T08:08:11Z</time>
      </trkpt>
      <trkpt lat="43.7745" lon="3.53146">
        <ele>534</ele>
        <time>2014-06-08T08:08:19Z</time>
      </trkpt>
      <trkpt lat="43.77458" lon="3.53139">
        <ele>535.2</ele>
        <time>2014-06-08T08:08:26Z</time>
      </trkpt>
      <trkpt lat="43.77464" lon="3.53128">
        <ele>536</ele>
        <time>2014-06-08T08:08:34Z</time>
      </trkpt>
      <trkpt lat="43.77472" lon="3.53103">
        <ele>538.1</ele>
        <time>2014-06-08T08:08:49Z</time>
      </trkpt>
      <trkpt lat="43.77479" lon="3.53095">
        <ele>540.1</ele>
        <time>2014-06-08T08:08:57Z</time>
      </trkpt>
      <trkpt lat="43.77488" lon="3.53092">
        <ele>541.6</ele>
        <time>2014-06-08T08:09:05Z</time>
      </trkpt>
      <trkpt lat="43.77497" lon="3.53085">
        <ele>543.8</ele>
        <time>2014-06-08T08:09:14Z</time>
      </trkpt>
      <trkpt lat="43.77506" lon="3.5308">
        <ele>546.3</ele>
        <time>2014-06-08T08:09:24Z</time>
      </trkpt>
      <trkpt lat="43.77516" lon="3.53077">
        <ele>549.1</ele>
        <time>2014-06-08T08:09:33Z</time>
      </trkpt>
      <trkpt lat="43.77525" lon="3.53075">
        <ele>550.1</ele>
        <time>2014-06-08T08:09:41Z</time>
      </trkpt>
      <trkpt lat="43.7754" lon="3.53067">
        <ele>553.2</ele>
        <time>2014-06-08T08:09:58Z</time>
      </trkpt>
      <trkpt lat="43.7754" lon="3.53054">
        <ele>555.5</ele>
        <time>2014-06-08T08:10:33Z</time>
      </trkpt>
      <trkpt lat="43.77537" lon="3.53041">
        <ele>555.1</ele>
        <time>2014-06-08T08:10:57Z</time>
      </trkpt>
      <trkpt lat="43.77525" lon="3.53017">
        <ele>556.5</ele>
        <time>2014-06-08T08:11:07Z</time>
      </trkpt>
      <trkpt lat="43.77517" lon="3.53008">
        <ele>557.1</ele>
        <time>2014-06-08T08:11:12Z</time>
      </trkpt>
      <trkpt lat="43.77508" lon="3.52999">
        <ele>557.3</ele>
        <time>2014-06-08T08:11:17Z</time>
      </trkpt>
      <trkpt lat="43.77501" lon="3.52989">
        <ele>557.8</ele>
        <time>2014-06-08T08:11:22Z</time>
      </trkpt>
      <trkpt lat="43.77494" lon="3.5298">
        <ele>558.2</ele>
        <time>2014-06-08T08:11:27Z</time>
      </trkpt>
      <trkpt lat="43.77486" lon="3.52972">
        <ele>559.3</ele>
        <time>2014-06-08T08:11:32Z</time>
      </trkpt>
      <trkpt lat="43.77479" lon="3.52963">
        <ele>560.4</ele>
        <time>2014-06-08T08:11:37Z</time>
      </trkpt>
      <trkpt lat="43.77471" lon="3.52954">
        <ele>560.5</ele>
        <time>2014-06-08T08:11:42Z</time>
      </trkpt>
      <trkpt lat="43.77464" lon="3.52944">
        <ele>561.4</ele>
        <time>2014-06-08T08:11:48Z</time>
      </trkpt>
      <trkpt lat="43.77457" lon="3.52935">
        <ele>562.2</ele>
        <time>2014-06-08T08:11:53Z</time>
      </trkpt>
      <trkpt lat="43.7745" lon="3.52927">
        <ele>563</ele>
        <time>2014-06-08T08:11:58Z</time>
      </trkpt>
      <trkpt lat="43.77434" lon="3.52911">
        <ele>564.8</ele>
        <time>2014-06-08T08:12:08Z</time>
      </trkpt>
      <trkpt lat="43.77426" lon="3.52903">
        <ele>565.6</ele>
        <time>2014-06-08T08:12:13Z</time>
      </trkpt>
      <trkpt lat="43.77419" lon="3.52894">
        <ele>566.8</ele>
        <time>2014-06-08T08:12:18Z</time>
      </trkpt>
      <trkpt lat="43.77412" lon="3.52885">
        <ele>567.3</ele>
        <time>2014-06-08T08:12:23Z</time>
      </trkpt>
      <trkpt lat="43.77405" lon="3.52876">
        <ele>567.8</ele>
        <time>2014-06-08T08:12:28Z</time>
      </trkpt>
      <trkpt lat="43.77399" lon="3.52864">
        <ele>568.6</ele>
        <time>2014-06-08T08:12:34Z</time>
      </trkpt>
      <trkpt lat="43.77396" lon="3.52851">
        <ele>570.5</ele>
        <time>2014-06-08T08:12:41Z</time>
      </trkpt>
      <trkpt lat="43.77397" lon="3.52839">
        <ele>571.7</ele>
        <time>2014-06-08T08:12:49Z</time>
      </trkpt>
      <trkpt lat="43.77394" lon="3.52826">
        <ele>574.8</ele>
        <time>2014-06-08T08:12:58Z</time>
      </trkpt>
      <trkpt lat="43.77385" lon="3.5282">
        <ele>575.8</ele>
        <time>2014-06-08T08:13:05Z</time>
      </trkpt>
      <trkpt lat="43.77367" lon="3.52812">
        <ele>577.4</ele>
        <time>2014-06-08T08:13:17Z</time>
      </trkpt>
      <trkpt lat="43.77358" lon="3.52807">
        <ele>578.3</ele>
        <time>2014-06-08T08:13:23Z</time>
      </trkpt>
      <trkpt lat="43.77349" lon="3.52802">
        <ele>579</ele>
        <time>2014-06-08T08:13:29Z</time>
      </trkpt>
      <trkpt lat="43.7734" lon="3.52797">
        <ele>579.7</ele>
        <time>2014-06-08T08:13:35Z</time>
      </trkpt>
      <trkpt lat="43.77331" lon="3.52791">
        <ele>581</ele>
        <time>2014-06-08T08:13:41Z</time>
      </trkpt>
      <trkpt lat="43.77323" lon="3.52785">
        <ele>581.6</ele>
        <time>2014-06-08T08:13:46Z</time>
      </trkpt>
      <trkpt lat="43.77315" lon="3.52779">
        <ele>582.2</ele>
        <time>2014-06-08T08:13:51Z</time>
      </trkpt>
      <trkpt lat="43.77305" lon="3.52772">
        <ele>582.3</ele>
        <time>2014-06-08T08:13:56Z</time>
      </trkpt>
      <trkpt lat="43.77297" lon="3.52764">
        <ele>583.1</ele>
        <time>2014-06-08T08:14:01Z</time>
      </trkpt>
      <trkpt lat="43.77289" lon="3.52756">
        <ele>584.8</ele>
        <time>2014-06-08T08:14:06Z</time>
      </trkpt>
      <trkpt lat="43.77276" lon="3.52736">
        <ele>586</ele>
        <time>2014-06-08T08:14:17Z</time>
      </trkpt>
      <trkpt lat="43.7727" lon="3.52726">
        <ele>586.7</ele>
        <time>2014-06-08T08:14:23Z</time>
      </trkpt>
      <trkpt lat="43.77264" lon="3.52715">
        <ele>588.6</ele>
        <time>2014-06-08T08:14:29Z</time>
      </trkpt>
      <trkpt lat="43.77258" lon="3.52705">
        <ele>589.7</ele>
        <time>2014-06-08T08:14:35Z</time>
      </trkpt>
      <trkpt lat="43.7725" lon="3.52695">
        <ele>590.7</ele>
        <time>2014-06-08T08:14:41Z</time>
      </trkpt>
      <trkpt lat="43.77244" lon="3.52685">
        <ele>591.2</ele>
        <time>2014-06-08T08:14:46Z</time>
      </trkpt>
      <trkpt lat="43.7724" lon="3.52671">
        <ele>591.7</ele>
        <time>2014-06-08T08:14:52Z</time>
      </trkpt>
      <trkpt lat="43.77237" lon="3.52658">
        <ele>592.2</ele>
        <time>2014-06-08T08:14:59Z</time>
      </trkpt>
      <trkpt lat="43.77234" lon="3.52645">
        <ele>593.7</ele>
        <time>2014-06-08T08:15:04Z</time>
      </trkpt>
      <trkpt lat="43.77234" lon="3.5263">
        <ele>594.3</ele>
        <time>2014-06-08T08:15:09Z</time>
      </trkpt>
      <trkpt lat="43.77237" lon="3.52604">
        <ele>595.8</ele>
        <time>2014-06-08T08:15:18Z</time>
      </trkpt>
      <trkpt lat="43.77237" lon="3.52588">
        <ele>595.5</ele>
        <time>2014-06-08T08:15:22Z</time>
      </trkpt>
      <trkpt lat="43.77238" lon="3.52575">
        <ele>595.5</ele>
        <time>2014-06-08T08:15:25Z</time>
      </trkpt>
      <trkpt lat="43.77239" lon="3.52561">
        <ele>595.3</ele>
        <time>2014-06-08T08:15:29Z</time>
      </trkpt>
      <trkpt lat="43.77236" lon="3.52549">
        <ele>595.8</ele>
        <time>2014-06-08T08:15:34Z</time>
      </trkpt>
      <trkpt lat="43.77227" lon="3.52542">
        <ele>597.2</ele>
        <time>2014-06-08T08:15:40Z</time>
      </trkpt>
      <trkpt lat="43.77218" lon="3.52537">
        <ele>599.6</ele>
        <time>2014-06-08T08:15:47Z</time>
      </trkpt>
      <trkpt lat="43.7721" lon="3.5253">
        <ele>598.8</ele>
        <time>2014-06-08T08:15:53Z</time>
      </trkpt>
      <trkpt lat="43.77203" lon="3.5252">
        <ele>599.5</ele>
        <time>2014-06-08T08:15:59Z</time>
      </trkpt>
      <trkpt lat="43.77199" lon="3.52509">
        <ele>600.1</ele>
        <time>2014-06-08T08:16:05Z</time>
      </trkpt>
      <trkpt lat="43.77196" lon="3.52495">
        <ele>600.8</ele>
        <time>2014-06-08T08:16:11Z</time>
      </trkpt>
      <trkpt lat="43.77195" lon="3.52466">
        <ele>603</ele>
        <time>2014-06-08T08:16:23Z</time>
      </trkpt>
      <trkpt lat="43.7719" lon="3.52453">
        <ele>602.9</ele>
        <time>2014-06-08T08:16:29Z</time>
      </trkpt>
      <trkpt lat="43.77183" lon="3.52444">
        <ele>604.2</ele>
        <time>2014-06-08T08:16:35Z</time>
      </trkpt>
      <trkpt lat="43.77175" lon="3.52437">
        <ele>605.1</ele>
        <time>2014-06-08T08:16:42Z</time>
      </trkpt>
      <trkpt lat="43.77165" lon="3.52435">
        <ele>606.7</ele>
        <time>2014-06-08T08:16:49Z</time>
      </trkpt>
      <trkpt lat="43.77157" lon="3.5243">
        <ele>607.9</ele>
        <time>2014-06-08T08:16:56Z</time>
      </trkpt>
      <trkpt lat="43.77148" lon="3.52424">
        <ele>609.5</ele>
        <time>2014-06-08T08:17:03Z</time>
      </trkpt>
      <trkpt lat="43.7714" lon="3.52418">
        <ele>610.2</ele>
        <time>2014-06-08T08:17:10Z</time>
      </trkpt>
      <trkpt lat="43.77131" lon="3.52412">
        <ele>611.8</ele>
        <time>2014-06-08T08:17:17Z</time>
      </trkpt>
      <trkpt lat="43.77111" lon="3.52402">
        <ele>614.4</ele>
        <time>2014-06-08T08:17:31Z</time>
      </trkpt>
      <trkpt lat="43.77103" lon="3.52394">
        <ele>615.3</ele>
        <time>2014-06-08T08:17:38Z</time>
      </trkpt>
      <trkpt lat="43.77096" lon="3.52386">
        <ele>616.8</ele>
        <time>2014-06-08T08:17:45Z</time>
      </trkpt>
      <trkpt lat="43.77088" lon="3.52379">
        <ele>617.5</ele>
        <time>2014-06-08T08:17:51Z</time>
      </trkpt>
      <trkpt lat="43.77081" lon="3.5237">
        <ele>618</ele>
        <time>2014-06-08T08:17:57Z</time>
      </trkpt>
      <trkpt lat="43.77074" lon="3.52362">
        <ele>619.5</ele>
        <time>2014-06-08T08:18:03Z</time>
      </trkpt>
      <trkpt lat="43.77066" lon="3.52353">
        <ele>620.8</ele>
        <time>2014-06-08T08:18:09Z</time>
      </trkpt>
      <trkpt lat="43.77059" lon="3.52344">
        <ele>622.2</ele>
        <time>2014-06-08T08:18:14Z</time>
      </trkpt>
      <trkpt lat="43.77053" lon="3.52335">
        <ele>622.3</ele>
        <time>2014-06-08T08:18:19Z</time>
      </trkpt>
      <trkpt lat="43.77045" lon="3.52309">
        <ele>622.4</ele>
        <time>2014-06-08T08:18:27Z</time>
      </trkpt>
      <trkpt lat="43.77044" lon="3.52295">
        <ele>622.5</ele>
        <time>2014-06-08T08:18:31Z</time>
      </trkpt>
      <trkpt lat="43.77042" lon="3.52281">
        <ele>622.7</ele>
        <time>2014-06-08T08:18:35Z</time>
      </trkpt>
      <trkpt lat="43.77041" lon="3.52265">
        <ele>622.1</ele>
        <time>2014-06-08T08:18:38Z</time>
      </trkpt>
      <trkpt lat="43.77041" lon="3.52252">
        <ele>621.8</ele>
        <time>2014-06-08T08:18:40Z</time>
      </trkpt>
      <trkpt lat="43.77043" lon="3.52235">
        <ele>621.3</ele>
        <time>2014-06-08T08:18:43Z</time>
      </trkpt>
      <trkpt lat="43.77044" lon="3.52222">
        <ele>621</ele>
        <time>2014-06-08T08:18:46Z</time>
      </trkpt>
      <trkpt lat="43.77042" lon="3.52208">
        <ele>622</ele>
        <time>2014-06-08T08:18:49Z</time>
      </trkpt>
      <trkpt lat="43.77033" lon="3.52198">
        <ele>622.5</ele>
        <time>2014-06-08T08:18:52Z</time>
      </trkpt>
      <trkpt lat="43.77023" lon="3.52192">
        <ele>622.1</ele>
        <time>2014-06-08T08:18:55Z</time>
      </trkpt>
      <trkpt lat="43.77014" lon="3.52187">
        <ele>622</ele>
        <time>2014-06-08T08:18:58Z</time>
      </trkpt>
      <trkpt lat="43.77006" lon="3.52182">
        <ele>621.8</ele>
        <time>2014-06-08T08:19:02Z</time>
      </trkpt>
      <trkpt lat="43.76997" lon="3.52177">
        <ele>622.4</ele>
        <time>2014-06-08T08:19:07Z</time>
      </trkpt>
      <trkpt lat="43.76987" lon="3.52171">
        <ele>623</ele>
        <time>2014-06-08T08:19:13Z</time>
      </trkpt>
      <trkpt lat="43.76979" lon="3.52167">
        <ele>624.3</ele>
        <time>2014-06-08T08:19:18Z</time>
      </trkpt>
      <trkpt lat="43.76969" lon="3.52162">
        <ele>625.6</ele>
        <time>2014-06-08T08:19:24Z</time>
      </trkpt>
      <trkpt lat="43.7695" lon="3.52151">
        <ele>628.3</ele>
        <time>2014-06-08T08:19:35Z</time>
      </trkpt>
      <trkpt lat="43.76941" lon="3.52143">
        <ele>630</ele>
        <time>2014-06-08T08:19:41Z</time>
      </trkpt>
      <trkpt lat="43.76934" lon="3.52132">
        <ele>631.1</ele>
        <time>2014-06-08T08:19:47Z</time>
      </trkpt>
      <trkpt lat="43.76927" lon="3.52122">
        <ele>632.1</ele>
        <time>2014-06-08T08:19:53Z</time>
      </trkpt>
      <trkpt lat="43.76921" lon="3.52111">
        <ele>632.6</ele>
        <time>2014-06-08T08:20:00Z</time>
      </trkpt>
      <trkpt lat="43.76914" lon="3.521">
        <ele>633.6</ele>
        <time>2014-06-08T08:20:06Z</time>
      </trkpt>
      <trkpt lat="43.76909" lon="3.5209">
        <ele>633.2</ele>
        <time>2014-06-08T08:20:11Z</time>
      </trkpt>
      <trkpt lat="43.76904" lon="3.52079">
        <ele>633.7</ele>
        <time>2014-06-08T08:20:16Z</time>
      </trkpt>
      <trkpt lat="43.769" lon="3.52067">
        <ele>634.6</ele>
        <time>2014-06-08T08:20:22Z</time>
      </trkpt>
      <trkpt lat="43.76898" lon="3.52053">
        <ele>636.5</ele>
        <time>2014-06-08T08:20:31Z</time>
      </trkpt>
      <trkpt lat="43.76888" lon="3.52031">
        <ele>639.7</ele>
        <time>2014-06-08T08:20:47Z</time>
      </trkpt>
      <trkpt lat="43.76878" lon="3.52025">
        <ele>641.6</ele>
        <time>2014-06-08T08:20:55Z</time>
      </trkpt>
      <trkpt lat="43.76869" lon="3.52024">
        <ele>642.7</ele>
        <time>2014-06-08T08:21:02Z</time>
      </trkpt>
      <trkpt lat="43.7686" lon="3.52025">
        <ele>644.4</ele>
        <time>2014-06-08T08:21:09Z</time>
      </trkpt>
      <trkpt lat="43.76851" lon="3.52024">
        <ele>645</ele>
        <time>2014-06-08T08:21:16Z</time>
      </trkpt>
      <trkpt lat="43.76842" lon="3.52022">
        <ele>646.5</ele>
        <time>2014-06-08T08:21:23Z</time>
      </trkpt>
      <trkpt lat="43.76833" lon="3.52018">
        <ele>648.8</ele>
        <time>2014-06-08T08:21:31Z</time>
      </trkpt>
      <trkpt lat="43.76824" lon="3.52013">
        <ele>649.6</ele>
        <time>2014-06-08T08:21:39Z</time>
      </trkpt>
      <trkpt lat="43.76807" lon="3.52">
        <ele>652.8</ele>
        <time>2014-06-08T08:21:55Z</time>
      </trkpt>
      <trkpt lat="43.76799" lon="3.51993">
        <ele>654.6</ele>
        <time>2014-06-08T08:22:03Z</time>
      </trkpt>
      <trkpt lat="43.7679" lon="3.51989">
        <ele>654.9</ele>
        <time>2014-06-08T08:22:10Z</time>
      </trkpt>
      <trkpt lat="43.76781" lon="3.51985">
        <ele>655.8</ele>
        <time>2014-06-08T08:22:16Z</time>
      </trkpt>
      <trkpt lat="43.7677" lon="3.5198">
        <ele>656.4</ele>
        <time>2014-06-08T08:22:20Z</time>
      </trkpt>
      <trkpt lat="43.76762" lon="3.51976">
        <ele>656.5</ele>
        <time>2014-06-08T08:22:22Z</time>
      </trkpt>
      <trkpt lat="43.76752" lon="3.51969">
        <ele>655.9</ele>
        <time>2014-06-08T08:22:24Z</time>
      </trkpt>
      <trkpt lat="43.76742" lon="3.5196">
        <ele>655.2</ele>
        <time>2014-06-08T08:22:27Z</time>
      </trkpt>
      <trkpt lat="43.76734" lon="3.51951">
        <ele>655.9</ele>
        <time>2014-06-08T08:22:33Z</time>
      </trkpt>
      <trkpt lat="43.76725" lon="3.51943">
        <ele>657.8</ele>
        <time>2014-06-08T08:22:39Z</time>
      </trkpt>
      <trkpt lat="43.76717" lon="3.51936">
        <ele>658.8</ele>
        <time>2014-06-08T08:22:44Z</time>
      </trkpt>
      <trkpt lat="43.76698" lon="3.51925">
        <ele>660</ele>
        <time>2014-06-08T08:22:54Z</time>
      </trkpt>
      <trkpt lat="43.76687" lon="3.51919">
        <ele>659.7</ele>
        <time>2014-06-08T08:22:58Z</time>
      </trkpt>
      <trkpt lat="43.76679" lon="3.51913">
        <ele>659.6</ele>
        <time>2014-06-08T08:23:01Z</time>
      </trkpt>
      <trkpt lat="43.76668" lon="3.51907">
        <ele>659.7</ele>
        <time>2014-06-08T08:23:05Z</time>
      </trkpt>
      <trkpt lat="43.76659" lon="3.519">
        <ele>660.2</ele>
        <time>2014-06-08T08:23:08Z</time>
      </trkpt>
      <trkpt lat="43.7665" lon="3.51892">
        <ele>660.3</ele>
        <time>2014-06-08T08:23:11Z</time>
      </trkpt>
      <trkpt lat="43.76643" lon="3.51883">
        <ele>660.9</ele>
        <time>2014-06-08T08:23:14Z</time>
      </trkpt>
      <trkpt lat="43.76634" lon="3.51871">
        <ele>660.5</ele>
        <time>2014-06-08T08:23:18Z</time>
      </trkpt>
      <trkpt lat="43.76626" lon="3.51863">
        <ele>660.8</ele>
        <time>2014-06-08T08:23:21Z</time>
      </trkpt>
      <trkpt lat="43.76619" lon="3.51855">
        <ele>660.6</ele>
        <time>2014-06-08T08:23:23Z</time>
      </trkpt>
      <trkpt lat="43.76611" lon="3.51846">
        <ele>660.5</ele>
        <time>2014-06-08T08:23:25Z</time>
      </trkpt>
      <trkpt lat="43.76603" lon="3.51835">
        <ele>660.1</ele>
        <time>2014-06-08T08:23:27Z</time>
      </trkpt>
      <trkpt lat="43.76595" lon="3.51824">
        <ele>659.2</ele>
        <time>2014-06-08T08:23:29Z</time>
      </trkpt>
      <trkpt lat="43.76586" lon="3.51812">
        <ele>658.6</ele>
        <time>2014-06-08T08:23:31Z</time>
      </trkpt>
      <trkpt lat="43.76581" lon="3.51795">
        <ele>658.2</ele>
        <time>2014-06-08T08:23:33Z</time>
      </trkpt>
      <trkpt lat="43.7658" lon="3.51778">
        <ele>658</ele>
        <time>2014-06-08T08:23:35Z</time>
      </trkpt>
      <trkpt lat="43.76578" lon="3.51764">
        <ele>657.3</ele>
        <time>2014-06-08T08:23:37Z</time>
      </trkpt>
      <trkpt lat="43.76571" lon="3.51753">
        <ele>656.8</ele>
        <time>2014-06-08T08:23:39Z</time>
      </trkpt>
      <trkpt lat="43.76563" lon="3.51744">
        <ele>657</ele>
        <time>2014-06-08T08:23:41Z</time>
      </trkpt>
      <trkpt lat="43.76553" lon="3.51735">
        <ele>658.3</ele>
        <time>2014-06-08T08:23:44Z</time>
      </trkpt>
      <trkpt lat="43.76545" lon="3.51728">
        <ele>658.7</ele>
        <time>2014-06-08T08:23:47Z</time>
      </trkpt>
      <trkpt lat="43.76529" lon="3.51706">
        <ele>658.8</ele>
        <time>2014-06-08T08:23:53Z</time>
      </trkpt>
      <trkpt lat="43.76522" lon="3.51694">
        <ele>658.8</ele>
        <time>2014-06-08T08:23:56Z</time>
      </trkpt>
      <trkpt lat="43.76516" lon="3.51685">
        <ele>658.7</ele>
        <time>2014-06-08T08:23:58Z</time>
      </trkpt>
      <trkpt lat="43.76508" lon="3.51675">
        <ele>658.2</ele>
        <time>2014-06-08T08:24:00Z</time>
      </trkpt>
      <trkpt lat="43.765" lon="3.51665">
        <ele>657.9</ele>
        <time>2014-06-08T08:24:02Z</time>
      </trkpt>
      <trkpt lat="43.76491" lon="3.51655">
        <ele>657.9</ele>
        <time>2014-06-08T08:24:04Z</time>
      </trkpt>
      <trkpt lat="43.76483" lon="3.51644">
        <ele>657.2</ele>
        <time>2014-06-08T08:24:06Z</time>
      </trkpt>
      <trkpt lat="43.76477" lon="3.51633">
        <ele>657.6</ele>
        <time>2014-06-08T08:24:08Z</time>
      </trkpt>
      <trkpt lat="43.76472" lon="3.51616">
        <ele>657.8</ele>
        <time>2014-06-08T08:24:11Z</time>
      </trkpt>
      <trkpt lat="43.76469" lon="3.51602">
        <ele>658.3</ele>
        <time>2014-06-08T08:24:15Z</time>
      </trkpt>
      <trkpt lat="43.76466" lon="3.5159">
        <ele>659</ele>
        <time>2014-06-08T08:24:19Z</time>
      </trkpt>
      <trkpt lat="43.76465" lon="3.51574">
        <ele>660</ele>
        <time>2014-06-08T08:24:24Z</time>
      </trkpt>
      <trkpt lat="43.76465" lon="3.51562">
        <ele>661</ele>
        <time>2014-06-08T08:24:28Z</time>
      </trkpt>
      <trkpt lat="43.76466" lon="3.51549">
        <ele>661.7</ele>
        <time>2014-06-08T08:24:32Z</time>
      </trkpt>
      <trkpt lat="43.76468" lon="3.51537">
        <ele>662.1</ele>
        <time>2014-06-08T08:24:36Z</time>
      </trkpt>
      <trkpt lat="43.76472" lon="3.51525">
        <ele>662.4</ele>
        <time>2014-06-08T08:24:40Z</time>
      </trkpt>
      <trkpt lat="43.76477" lon="3.51512">
        <ele>664.1</ele>
        <time>2014-06-08T08:24:45Z</time>
      </trkpt>
      <trkpt lat="43.76478" lon="3.51498">
        <ele>665.1</ele>
        <time>2014-06-08T08:24:50Z</time>
      </trkpt>
      <trkpt lat="43.76464" lon="3.51481">
        <ele>667.9</ele>
        <time>2014-06-08T08:25:00Z</time>
      </trkpt>
      <trkpt lat="43.76456" lon="3.51472">
        <ele>668.8</ele>
        <time>2014-06-08T08:25:06Z</time>
      </trkpt>
      <trkpt lat="43.76449" lon="3.51463">
        <ele>670.3</ele>
        <time>2014-06-08T08:25:12Z</time>
      </trkpt>
      <trkpt lat="43.76443" lon="3.51451">
        <ele>671.7</ele>
        <time>2014-06-08T08:25:19Z</time>
      </trkpt>
      <trkpt lat="43.7644" lon="3.51438">
        <ele>673.4</ele>
        <time>2014-06-08T08:25:26Z</time>
      </trkpt>
      <trkpt lat="43.76438" lon="3.51425">
        <ele>674.4</ele>
        <time>2014-06-08T08:25:32Z</time>
      </trkpt>
      <trkpt lat="43.76436" lon="3.51413">
        <ele>674.8</ele>
        <time>2014-06-08T08:25:37Z</time>
      </trkpt>
      <trkpt lat="43.76434" lon="3.514">
        <ele>674.3</ele>
        <time>2014-06-08T08:25:41Z</time>
      </trkpt>
      <trkpt lat="43.76431" lon="3.51384">
        <ele>674.2</ele>
        <time>2014-06-08T08:25:44Z</time>
      </trkpt>
      <trkpt lat="43.76428" lon="3.5137">
        <ele>674</ele>
        <time>2014-06-08T08:25:47Z</time>
      </trkpt>
      <trkpt lat="43.76424" lon="3.51358">
        <ele>675</ele>
        <time>2014-06-08T08:25:53Z</time>
      </trkpt>
      <trkpt lat="43.76416" lon="3.51333">
        <ele>678.5</ele>
        <time>2014-06-08T08:26:07Z</time>
      </trkpt>
      <trkpt lat="43.76413" lon="3.5132">
        <ele>679.1</ele>
        <time>2014-06-08T08:26:14Z</time>
      </trkpt>
      <trkpt lat="43.7641" lon="3.51308">
        <ele>680.5</ele>
        <time>2014-06-08T08:26:20Z</time>
      </trkpt>
      <trkpt lat="43.76406" lon="3.51296">
        <ele>681</ele>
        <time>2014-06-08T08:26:26Z</time>
      </trkpt>
      <trkpt lat="43.764" lon="3.51286">
        <ele>681.4</ele>
        <time>2014-06-08T08:26:32Z</time>
      </trkpt>
      <trkpt lat="43.76393" lon="3.51275">
        <ele>683</ele>
        <time>2014-06-08T08:26:39Z</time>
      </trkpt>
      <trkpt lat="43.76388" lon="3.51263">
        <ele>683.5</ele>
        <time>2014-06-08T08:26:46Z</time>
      </trkpt>
      <trkpt lat="43.76384" lon="3.5125">
        <ele>682.7</ele>
        <time>2014-06-08T08:26:53Z</time>
      </trkpt>
      <trkpt lat="43.76378" lon="3.51239">
        <ele>685.3</ele>
        <time>2014-06-08T08:27:07Z</time>
      </trkpt>
      <trkpt lat="43.76363" lon="3.51223">
        <ele>690.2</ele>
        <time>2014-06-08T08:27:26Z</time>
      </trkpt>
      <trkpt lat="43.76355" lon="3.51216">
        <ele>692.2</ele>
        <time>2014-06-08T08:27:35Z</time>
      </trkpt>
      <trkpt lat="43.76345" lon="3.51212">
        <ele>694.4</ele>
        <time>2014-06-08T08:27:44Z</time>
      </trkpt>
      <trkpt lat="43.76336" lon="3.51207">
        <ele>694.6</ele>
        <time>2014-06-08T08:27:53Z</time>
      </trkpt>
      <trkpt lat="43.76327" lon="3.51204">
        <ele>695.8</ele>
        <time>2014-06-08T08:27:57Z</time>
      </trkpt>
      <trkpt lat="43.76316" lon="3.512">
        <ele>695.6</ele>
        <time>2014-06-08T08:28:01Z</time>
      </trkpt>
      <trkpt lat="43.76307" lon="3.51198">
        <ele>695.9</ele>
        <time>2014-06-08T08:28:04Z</time>
      </trkpt>
      <trkpt lat="43.76297" lon="3.51196">
        <ele>696</ele>
        <time>2014-06-08T08:28:07Z</time>
      </trkpt>
      <trkpt lat="43.76288" lon="3.51194">
        <ele>696.4</ele>
        <time>2014-06-08T08:28:10Z</time>
      </trkpt>
      <trkpt lat="43.76269" lon="3.51192">
        <ele>697.5</ele>
        <time>2014-06-08T08:28:16Z</time>
      </trkpt>
      <trkpt lat="43.7626" lon="3.51189">
        <ele>697.4</ele>
        <time>2014-06-08T08:28:19Z</time>
      </trkpt>
      <trkpt lat="43.76251" lon="3.51185">
        <ele>697.9</ele>
        <time>2014-06-08T08:28:22Z</time>
      </trkpt>
      <trkpt lat="43.76242" lon="3.5118">
        <ele>698.6</ele>
        <time>2014-06-08T08:28:25Z</time>
      </trkpt>
      <trkpt lat="43.76235" lon="3.51172">
        <ele>699.6</ele>
        <time>2014-06-08T08:28:28Z</time>
      </trkpt>
      <trkpt lat="43.76229" lon="3.51162">
        <ele>700</ele>
        <time>2014-06-08T08:28:31Z</time>
      </trkpt>
      <trkpt lat="43.76225" lon="3.5115">
        <ele>700.1</ele>
        <time>2014-06-08T08:28:34Z</time>
      </trkpt>
      <trkpt lat="43.76224" lon="3.51136">
        <ele>700.2</ele>
        <time>2014-06-08T08:28:37Z</time>
      </trkpt>
      <trkpt lat="43.76224" lon="3.51121">
        <ele>700.5</ele>
        <time>2014-06-08T08:28:40Z</time>
      </trkpt>
      <trkpt lat="43.76225" lon="3.51103">
        <ele>700</ele>
        <time>2014-06-08T08:28:43Z</time>
      </trkpt>
      <trkpt lat="43.76226" lon="3.5109">
        <ele>700</ele>
        <time>2014-06-08T08:28:45Z</time>
      </trkpt>
      <trkpt lat="43.76226" lon="3.51077">
        <ele>700.2</ele>
        <time>2014-06-08T08:28:47Z</time>
      </trkpt>
      <trkpt lat="43.76227" lon="3.51063">
        <ele>700.3</ele>
        <time>2014-06-08T08:28:49Z</time>
      </trkpt>
      <trkpt lat="43.76227" lon="3.51049">
        <ele>700.1</ele>
        <time>2014-06-08T08:28:51Z</time>
      </trkpt>
      <trkpt lat="43.76225" lon="3.51036">
        <ele>701.7</ele>
        <time>2014-06-08T08:28:56Z</time>
      </trkpt>
      <trkpt lat="43.76223" lon="3.51023">
        <ele>704.1</ele>
        <time>2014-06-08T08:29:02Z</time>
      </trkpt>
      <trkpt lat="43.76219" lon="3.51009">
        <ele>705.6</ele>
        <time>2014-06-08T08:29:08Z</time>
      </trkpt>
      <trkpt lat="43.76216" lon="3.50997">
        <ele>706.3</ele>
        <time>2014-06-08T08:29:14Z</time>
      </trkpt>
      <trkpt lat="43.76212" lon="3.50971">
        <ele>708.9</ele>
        <time>2014-06-08T08:29:28Z</time>
      </trkpt>
      <trkpt lat="43.76211" lon="3.50959">
        <ele>711.2</ele>
        <time>2014-06-08T08:29:35Z</time>
      </trkpt>
      <trkpt lat="43.7621" lon="3.50945">
        <ele>712.5</ele>
        <time>2014-06-08T08:29:43Z</time>
      </trkpt>
      <trkpt lat="43.76208" lon="3.50933">
        <ele>714.1</ele>
        <time>2014-06-08T08:29:50Z</time>
      </trkpt>
      <trkpt lat="43.76204" lon="3.50921">
        <ele>715.1</ele>
        <time>2014-06-08T08:29:57Z</time>
      </trkpt>
      <trkpt lat="43.76197" lon="3.5091">
        <ele>715.9</ele>
        <time>2014-06-08T08:30:04Z</time>
      </trkpt>
      <trkpt lat="43.76191" lon="3.50899">
        <ele>717</ele>
        <time>2014-06-08T08:30:10Z</time>
      </trkpt>
      <trkpt lat="43.76185" lon="3.50888">
        <ele>717.9</ele>
        <time>2014-06-08T08:30:17Z</time>
      </trkpt>
      <trkpt lat="43.76183" lon="3.50862">
        <ele>720.1</ele>
        <time>2014-06-08T08:30:29Z</time>
      </trkpt>
      <trkpt lat="43.76183" lon="3.50848">
        <ele>720.6</ele>
        <time>2014-06-08T08:30:35Z</time>
      </trkpt>
      <trkpt lat="43.76183" lon="3.50834">
        <ele>721.3</ele>
        <time>2014-06-08T08:30:40Z</time>
      </trkpt>
      <trkpt lat="43.76182" lon="3.50819">
        <ele>721.8</ele>
        <time>2014-06-08T08:30:45Z</time>
      </trkpt>
      <trkpt lat="43.7618" lon="3.50804">
        <ele>722.4</ele>
        <time>2014-06-08T08:30:50Z</time>
      </trkpt>
      <trkpt lat="43.76177" lon="3.50789">
        <ele>722.3</ele>
        <time>2014-06-08T08:30:55Z</time>
      </trkpt>
      <trkpt lat="43.76175" lon="3.50777">
        <ele>723.5</ele>
        <time>2014-06-08T08:30:59Z</time>
      </trkpt>
      <trkpt lat="43.76171" lon="3.50763">
        <ele>724.2</ele>
        <time>2014-06-08T08:31:04Z</time>
      </trkpt>
      <trkpt lat="43.76167" lon="3.5075">
        <ele>723.9</ele>
        <time>2014-06-08T08:31:09Z</time>
      </trkpt>
      <trkpt lat="43.76163" lon="3.50737">
        <ele>725.1</ele>
        <time>2014-06-08T08:31:15Z</time>
      </trkpt>
      <trkpt lat="43.76159" lon="3.50725">
        <ele>726.4</ele>
        <time>2014-06-08T08:31:22Z</time>
      </trkpt>
      <trkpt lat="43.76149" lon="3.50701">
        <ele>728.7</ele>
        <time>2014-06-08T08:31:36Z</time>
      </trkpt>
      <trkpt lat="43.76143" lon="3.5069">
        <ele>729.6</ele>
        <time>2014-06-08T08:31:43Z</time>
      </trkpt>
      <trkpt lat="43.76137" lon="3.50679">
        <ele>730.8</ele>
        <time>2014-06-08T08:31:50Z</time>
      </trkpt>
      <trkpt lat="43.7613" lon="3.50671">
        <ele>731.3</ele>
        <time>2014-06-08T08:31:56Z</time>
      </trkpt>
      <trkpt lat="43.76123" lon="3.50661">
        <ele>731.9</ele>
        <time>2014-06-08T08:32:03Z</time>
      </trkpt>
      <trkpt lat="43.76116" lon="3.50652">
        <ele>732.8</ele>
        <time>2014-06-08T08:32:10Z</time>
      </trkpt>
      <trkpt lat="43.76108" lon="3.50644">
        <ele>734.1</ele>
        <time>2014-06-08T08:32:17Z</time>
      </trkpt>
      <trkpt lat="43.76101" lon="3.50636">
        <ele>735.2</ele>
        <time>2014-06-08T08:32:24Z</time>
      </trkpt>
      <trkpt lat="43.76084" lon="3.50623">
        <ele>737</ele>
        <time>2014-06-08T08:32:38Z</time>
      </trkpt>
      <trkpt lat="43.76076" lon="3.50615">
        <ele>738</ele>
        <time>2014-06-08T08:32:45Z</time>
      </trkpt>
      <trkpt lat="43.76068" lon="3.50608">
        <ele>739.6</ele>
        <time>2014-06-08T08:32:51Z</time>
      </trkpt>
      <trkpt lat="43.76061" lon="3.50599">
        <ele>740.2</ele>
        <time>2014-06-08T08:32:57Z</time>
      </trkpt>
      <trkpt lat="43.76054" lon="3.50591">
        <ele>740.1</ele>
        <time>2014-06-08T08:33:03Z</time>
      </trkpt>
      <trkpt lat="43.76047" lon="3.50581">
        <ele>741.3</ele>
        <time>2014-06-08T08:33:09Z</time>
      </trkpt>
      <trkpt lat="43.76041" lon="3.50572">
        <ele>741.9</ele>
        <time>2014-06-08T08:33:15Z</time>
      </trkpt>
      <trkpt lat="43.76035" lon="3.5056">
        <ele>742.5</ele>
        <time>2014-06-08T08:33:22Z</time>
      </trkpt>
      <trkpt lat="43.7603" lon="3.50549">
        <ele>743.7</ele>
        <time>2014-06-08T08:33:29Z</time>
      </trkpt>
      <trkpt lat="43.7602" lon="3.50525">
        <ele>745.7</ele>
        <time>2014-06-08T08:33:43Z</time>
      </trkpt>
      <trkpt lat="43.76016" lon="3.50513">
        <ele>747.2</ele>
        <time>2014-06-08T08:33:50Z</time>
      </trkpt>
      <trkpt lat="43.76013" lon="3.50499">
        <ele>748.6</ele>
        <time>2014-06-08T08:33:57Z</time>
      </trkpt>
      <trkpt lat="43.76009" lon="3.50487">
        <ele>750.1</ele>
        <time>2014-06-08T08:34:04Z</time>
      </trkpt>
      <trkpt lat="43.76006" lon="3.50474">
        <ele>750.9</ele>
        <time>2014-06-08T08:34:11Z</time>
      </trkpt>
      <trkpt lat="43.76003" lon="3.5046">
        <ele>752.3</ele>
        <time>2014-06-08T08:34:18Z</time>
      </trkpt>
      <trkpt lat="43.75999" lon="3.50448">
        <ele>752.9</ele>
        <time>2014-06-08T08:34:24Z</time>
      </trkpt>
      <trkpt lat="43.75993" lon="3.50436">
        <ele>753.1</ele>
        <time>2014-06-08T08:34:29Z</time>
      </trkpt>
      <trkpt lat="43.75984" lon="3.50424">
        <ele>753.5</ele>
        <time>2014-06-08T08:34:33Z</time>
      </trkpt>
      <trkpt lat="43.75967" lon="3.50406">
        <ele>751.9</ele>
        <time>2014-06-08T08:34:37Z</time>
      </trkpt>
      <trkpt lat="43.75956" lon="3.50398">
        <ele>752.2</ele>
        <time>2014-06-08T08:34:39Z</time>
      </trkpt>
      <trkpt lat="43.75947" lon="3.50389">
        <ele>751.5</ele>
        <time>2014-06-08T08:34:41Z</time>
      </trkpt>
      <trkpt lat="43.7594" lon="3.5038">
        <ele>750.5</ele>
        <time>2014-06-08T08:34:43Z</time>
      </trkpt>
      <trkpt lat="43.75933" lon="3.50368">
        <ele>750.3</ele>
        <time>2014-06-08T08:34:46Z</time>
      </trkpt>
      <trkpt lat="43.75929" lon="3.50355">
        <ele>750.8</ele>
        <time>2014-06-08T08:34:50Z</time>
      </trkpt>
      <trkpt lat="43.75928" lon="3.50341">
        <ele>752</ele>
        <time>2014-06-08T08:34:54Z</time>
      </trkpt>
      <trkpt lat="43.75926" lon="3.50328">
        <ele>753.5</ele>
        <time>2014-06-08T08:34:58Z</time>
      </trkpt>
      <trkpt lat="43.75922" lon="3.50317">
        <ele>754.5</ele>
        <time>2014-06-08T08:35:02Z</time>
      </trkpt>
      <trkpt lat="43.75916" lon="3.50307">
        <ele>756.1</ele>
        <time>2014-06-08T08:35:06Z</time>
      </trkpt>
      <trkpt lat="43.7591" lon="3.50295">
        <ele>756.5</ele>
        <time>2014-06-08T08:35:10Z</time>
      </trkpt>
      <trkpt lat="43.75903" lon="3.50282">
        <ele>756.3</ele>
        <time>2014-06-08T08:35:14Z</time>
      </trkpt>
      <trkpt lat="43.75896" lon="3.50274">
        <ele>755.8</ele>
        <time>2014-06-08T08:35:17Z</time>
      </trkpt>
      <trkpt lat="43.75885" lon="3.50265">
        <ele>756</ele>
        <time>2014-06-08T08:35:20Z</time>
      </trkpt>
      <trkpt lat="43.75875" lon="3.50265">
        <ele>756.1</ele>
        <time>2014-06-08T08:35:22Z</time>
      </trkpt>
      <trkpt lat="43.75864" lon="3.50263">
        <ele>754.7</ele>
        <time>2014-06-08T08:35:24Z</time>
      </trkpt>
      <trkpt lat="43.75853" lon="3.50254">
        <ele>753.9</ele>
        <time>2014-06-08T08:35:26Z</time>
      </trkpt>
      <trkpt lat="43.75842" lon="3.50248">
        <ele>752.7</ele>
        <time>2014-06-08T08:35:28Z</time>
      </trkpt>
      <trkpt lat="43.75836" lon="3.50239">
        <ele>751.7</ele>
        <time>2014-06-08T08:35:30Z</time>
      </trkpt>
      <trkpt lat="43.75827" lon="3.50233">
        <ele>751.3</ele>
        <time>2014-06-08T08:35:32Z</time>
      </trkpt>
      <trkpt lat="43.75817" lon="3.50233">
        <ele>750</ele>
        <time>2014-06-08T08:35:34Z</time>
      </trkpt>
      <trkpt lat="43.75794" lon="3.50222">
        <ele>747.6</ele>
        <time>2014-06-08T08:35:38Z</time>
      </trkpt>
      <trkpt lat="43.75782" lon="3.50224">
        <ele>746.2</ele>
        <time>2014-06-08T08:35:40Z</time>
      </trkpt>
      <trkpt lat="43.75773" lon="3.50219">
        <ele>745</ele>
        <time>2014-06-08T08:35:42Z</time>
      </trkpt>
      <trkpt lat="43.75768" lon="3.50206">
        <ele>744</ele>
        <time>2014-06-08T08:35:44Z</time>
      </trkpt>
      <trkpt lat="43.7576" lon="3.50197">
        <ele>742.5</ele>
        <time>2014-06-08T08:35:46Z</time>
      </trkpt>
      <trkpt lat="43.75748" lon="3.50193">
        <ele>740.9</ele>
        <time>2014-06-08T08:35:48Z</time>
      </trkpt>
      <trkpt lat="43.75735" lon="3.50189">
        <ele>739.8</ele>
        <time>2014-06-08T08:35:50Z</time>
      </trkpt>
      <trkpt lat="43.75721" lon="3.50187">
        <ele>739.4</ele>
        <time>2014-06-08T08:35:52Z</time>
      </trkpt>
      <trkpt lat="43.75707" lon="3.50188">
        <ele>738.9</ele>
        <time>2014-06-08T08:35:54Z</time>
      </trkpt>
      <trkpt lat="43.75696" lon="3.5019">
        <ele>738.3</ele>
        <time>2014-06-08T08:35:56Z</time>
      </trkpt>
      <trkpt lat="43.75686" lon="3.5019">
        <ele>737.8</ele>
        <time>2014-06-08T08:35:58Z</time>
      </trkpt>
      <trkpt lat="43.75677" lon="3.5019">
        <ele>738.3</ele>
        <time>2014-06-08T08:36:00Z</time>
      </trkpt>
      <trkpt lat="43.75668" lon="3.5019">
        <ele>738.7</ele>
        <time>2014-06-08T08:36:02Z</time>
      </trkpt>
      <trkpt lat="43.75659" lon="3.50191">
        <ele>738.9</ele>
        <time>2014-06-08T08:36:04Z</time>
      </trkpt>
      <trkpt lat="43.75649" lon="3.50194">
        <ele>738.9</ele>
        <time>2014-06-08T08:36:06Z</time>
      </trkpt>
      <trkpt lat="43.75637" lon="3.5019">
        <ele>738.4</ele>
        <time>2014-06-08T08:36:09Z</time>
      </trkpt>
      <trkpt lat="43.75637" lon="3.50171">
        <ele>736.9</ele>
        <time>2014-06-08T08:36:12Z</time>
      </trkpt>
      <trkpt lat="43.75637" lon="3.50157">
        <ele>736.7</ele>
        <time>2014-06-08T08:36:14Z</time>
      </trkpt>
      <trkpt lat="43.75637" lon="3.50141">
        <ele>736</ele>
        <time>2014-06-08T08:36:16Z</time>
      </trkpt>
      <trkpt lat="43.75637" lon="3.50124">
        <ele>735.4</ele>
        <time>2014-06-08T08:36:18Z</time>
      </trkpt>
      <trkpt lat="43.7564" lon="3.50109">
        <ele>734.9</ele>
        <time>2014-06-08T08:36:20Z</time>
      </trkpt>
      <trkpt lat="43.75645" lon="3.50093">
        <ele>734.2</ele>
        <time>2014-06-08T08:36:22Z</time>
      </trkpt>
      <trkpt lat="43.75648" lon="3.50081">
        <ele>733.4</ele>
        <time>2014-06-08T08:36:24Z</time>
      </trkpt>
      <trkpt lat="43.7564" lon="3.50074">
        <ele>731.6</ele>
        <time>2014-06-08T08:36:27Z</time>
      </trkpt>
      <trkpt lat="43.75628" lon="3.50079">
        <ele>730.8</ele>
        <time>2014-06-08T08:36:30Z</time>
      </trkpt>
      <trkpt lat="43.75619" lon="3.50081">
        <ele>730.6</ele>
        <time>2014-06-08T08:36:32Z</time>
      </trkpt>
      <trkpt lat="43.7561" lon="3.50083">
        <ele>730.3</ele>
        <time>2014-06-08T08:36:34Z</time>
      </trkpt>
      <trkpt lat="43.75599" lon="3.50084">
        <ele>730.2</ele>
        <time>2014-06-08T08:36:36Z</time>
      </trkpt>
      <trkpt lat="43.75576" lon="3.50086">
        <ele>728.4</ele>
        <time>2014-06-08T08:36:40Z</time>
      </trkpt>
      <trkpt lat="43.75566" lon="3.50086">
        <ele>727.3</ele>
        <time>2014-06-08T08:36:42Z</time>
      </trkpt>
      <trkpt lat="43.75556" lon="3.50079">
        <ele>725.8</ele>
        <time>2014-06-08T08:36:44Z</time>
      </trkpt>
      <trkpt lat="43.75544" lon="3.5007">
        <ele>724.4</ele>
        <time>2014-06-08T08:36:46Z</time>
      </trkpt>
      <trkpt lat="43.75532" lon="3.50056">
        <ele>723.3</ele>
        <time>2014-06-08T08:36:48Z</time>
      </trkpt>
      <trkpt lat="43.7552" lon="3.50046">
        <ele>722.1</ele>
        <time>2014-06-08T08:36:50Z</time>
      </trkpt>
      <trkpt lat="43.75509" lon="3.50039">
        <ele>721.6</ele>
        <time>2014-06-08T08:36:52Z</time>
      </trkpt>
      <trkpt lat="43.75499" lon="3.50031">
        <ele>721</ele>
        <time>2014-06-08T08:36:54Z</time>
      </trkpt>
      <trkpt lat="43.75491" lon="3.50022">
        <ele>721</ele>
        <time>2014-06-08T08:36:56Z</time>
      </trkpt>
      <trkpt lat="43.75482" lon="3.50014">
        <ele>720.9</ele>
        <time>2014-06-08T08:36:58Z</time>
      </trkpt>
      <trkpt lat="43.75471" lon="3.50007">
        <ele>720.4</ele>
        <time>2014-06-08T08:37:00Z</time>
      </trkpt>
      <trkpt lat="43.75461" lon="3.5">
        <ele>720</ele>
        <time>2014-06-08T08:37:02Z</time>
      </trkpt>
      <trkpt lat="43.7545" lon="3.49993">
        <ele>721.4</ele>
        <time>2014-06-08T08:37:05Z</time>
      </trkpt>
      <trkpt lat="43.75441" lon="3.4999">
        <ele>722.3</ele>
        <time>2014-06-08T08:37:08Z</time>
      </trkpt>
      <trkpt lat="43.75431" lon="3.49995">
        <ele>723.9</ele>
        <time>2014-06-08T08:37:12Z</time>
      </trkpt>
      <trkpt lat="43.75421" lon="3.49996">
        <ele>724.1</ele>
        <time>2014-06-08T08:37:17Z</time>
      </trkpt>
      <trkpt lat="43.75411" lon="3.49992">
        <ele>724.8</ele>
        <time>2014-06-08T08:37:22Z</time>
      </trkpt>
      <trkpt lat="43.75402" lon="3.49987">
        <ele>726.2</ele>
        <time>2014-06-08T08:37:28Z</time>
      </trkpt>
      <trkpt lat="43.75392" lon="3.49981">
        <ele>727.3</ele>
        <time>2014-06-08T08:37:34Z</time>
      </trkpt>
      <trkpt lat="43.75383" lon="3.49973">
        <ele>727.7</ele>
        <time>2014-06-08T08:37:40Z</time>
      </trkpt>
      <trkpt lat="43.75366" lon="3.49962">
        <ele>728.9</ele>
        <time>2014-06-08T08:37:52Z</time>
      </trkpt>
      <trkpt lat="43.75357" lon="3.4996">
        <ele>730.4</ele>
        <time>2014-06-08T08:37:58Z</time>
      </trkpt>
      <trkpt lat="43.75347" lon="3.49957">
        <ele>731.4</ele>
        <time>2014-06-08T08:38:05Z</time>
      </trkpt>
      <trkpt lat="43.75338" lon="3.49954">
        <ele>731.6</ele>
        <time>2014-06-08T08:38:12Z</time>
      </trkpt>
      <trkpt lat="43.75328" lon="3.49958">
        <ele>731.7</ele>
        <time>2014-06-08T08:38:18Z</time>
      </trkpt>
      <trkpt lat="43.75322" lon="3.49968">
        <ele>733.2</ele>
        <time>2014-06-08T08:38:25Z</time>
      </trkpt>
      <trkpt lat="43.75313" lon="3.49975">
        <ele>735.1</ele>
        <time>2014-06-08T08:38:31Z</time>
      </trkpt>
      <trkpt lat="43.75303" lon="3.49977">
        <ele>735.1</ele>
        <time>2014-06-08T08:38:38Z</time>
      </trkpt>
      <trkpt lat="43.75294" lon="3.49981">
        <ele>737.1</ele>
        <time>2014-06-08T08:38:46Z</time>
      </trkpt>
      <trkpt lat="43.75275" lon="3.49977">
        <ele>738.9</ele>
        <time>2014-06-08T08:39:04Z</time>
      </trkpt>
      <trkpt lat="43.75266" lon="3.49982">
        <ele>740</ele>
        <time>2014-06-08T08:39:11Z</time>
      </trkpt>
      <trkpt lat="43.75259" lon="3.49992">
        <ele>740.9</ele>
        <time>2014-06-08T08:39:17Z</time>
      </trkpt>
      <trkpt lat="43.75254" lon="3.50003">
        <ele>740.7</ele>
        <time>2014-06-08T08:39:21Z</time>
      </trkpt>
      <trkpt lat="43.75246" lon="3.50011">
        <ele>741.3</ele>
        <time>2014-06-08T08:39:25Z</time>
      </trkpt>
      <trkpt lat="43.75236" lon="3.50008">
        <ele>741.5</ele>
        <time>2014-06-08T08:39:29Z</time>
      </trkpt>
      <trkpt lat="43.75227" lon="3.50001">
        <ele>741.5</ele>
        <time>2014-06-08T08:39:33Z</time>
      </trkpt>
      <trkpt lat="43.75219" lon="3.49994">
        <ele>741.9</ele>
        <time>2014-06-08T08:39:37Z</time>
      </trkpt>
      <trkpt lat="43.7521" lon="3.49988">
        <ele>743.1</ele>
        <time>2014-06-08T08:39:41Z</time>
      </trkpt>
      <trkpt lat="43.75201" lon="3.49985">
        <ele>743.3</ele>
        <time>2014-06-08T08:39:45Z</time>
      </trkpt>
      <trkpt lat="43.75191" lon="3.4998">
        <ele>743.7</ele>
        <time>2014-06-08T08:39:50Z</time>
      </trkpt>
      <trkpt lat="43.75174" lon="3.49967">
        <ele>744.8</ele>
        <time>2014-06-08T08:40:01Z</time>
      </trkpt>
      <trkpt lat="43.75166" lon="3.4996">
        <ele>746</ele>
        <time>2014-06-08T08:40:07Z</time>
      </trkpt>
      <trkpt lat="43.75155" lon="3.49954">
        <ele>746.6</ele>
        <time>2014-06-08T08:40:12Z</time>
      </trkpt>
      <trkpt lat="43.75144" lon="3.49954">
        <ele>747.3</ele>
        <time>2014-06-08T08:40:16Z</time>
      </trkpt>
      <trkpt lat="43.75133" lon="3.49951">
        <ele>747.1</ele>
        <time>2014-06-08T08:40:20Z</time>
      </trkpt>
      <trkpt lat="43.75124" lon="3.49943">
        <ele>747.7</ele>
        <time>2014-06-08T08:40:24Z</time>
      </trkpt>
      <trkpt lat="43.75114" lon="3.49936">
        <ele>747.8</ele>
        <time>2014-06-08T08:40:28Z</time>
      </trkpt>
      <trkpt lat="43.75105" lon="3.49943">
        <ele>748.2</ele>
        <time>2014-06-08T08:40:32Z</time>
      </trkpt>
      <trkpt lat="43.75094" lon="3.49949">
        <ele>748.4</ele>
        <time>2014-06-08T08:40:36Z</time>
      </trkpt>
      <trkpt lat="43.75083" lon="3.49944">
        <ele>749.5</ele>
        <time>2014-06-08T08:40:40Z</time>
      </trkpt>
      <trkpt lat="43.75072" lon="3.49948">
        <ele>749.3</ele>
        <time>2014-06-08T08:40:44Z</time>
      </trkpt>
      <trkpt lat="43.75064" lon="3.49958">
        <ele>749.9</ele>
        <time>2014-06-08T08:40:48Z</time>
      </trkpt>
      <trkpt lat="43.75058" lon="3.4997">
        <ele>749.8</ele>
        <time>2014-06-08T08:40:52Z</time>
      </trkpt>
      <trkpt lat="43.75036" lon="3.49977">
        <ele>751.2</ele>
        <time>2014-06-08T08:41:00Z</time>
      </trkpt>
      <trkpt lat="43.75025" lon="3.49974">
        <ele>751.2</ele>
        <time>2014-06-08T08:41:04Z</time>
      </trkpt>
      <trkpt lat="43.75014" lon="3.4997">
        <ele>751.5</ele>
        <time>2014-06-08T08:41:08Z</time>
      </trkpt>
      <trkpt lat="43.75004" lon="3.49966">
        <ele>752.6</ele>
        <time>2014-06-08T08:41:12Z</time>
      </trkpt>
      <trkpt lat="43.74996" lon="3.49959">
        <ele>752.2</ele>
        <time>2014-06-08T08:41:16Z</time>
      </trkpt>
      <trkpt lat="43.74989" lon="3.49949">
        <ele>753</ele>
        <time>2014-06-08T08:41:20Z</time>
      </trkpt>
      <trkpt lat="43.74982" lon="3.49939">
        <ele>753.2</ele>
        <time>2014-06-08T08:41:24Z</time>
      </trkpt>
      <trkpt lat="43.74975" lon="3.4993">
        <ele>753.1</ele>
        <time>2014-06-08T08:41:28Z</time>
      </trkpt>
      <trkpt lat="43.7497" lon="3.4992">
        <ele>754.4</ele>
        <time>2014-06-08T08:41:32Z</time>
      </trkpt>
      <trkpt lat="43.74963" lon="3.49908">
        <ele>755.3</ele>
        <time>2014-06-08T08:41:37Z</time>
      </trkpt>
      <trkpt lat="43.74954" lon="3.499">
        <ele>756.4</ele>
        <time>2014-06-08T08:41:42Z</time>
      </trkpt>
      <trkpt lat="43.74946" lon="3.49892">
        <ele>756.5</ele>
        <time>2014-06-08T08:41:47Z</time>
      </trkpt>
      <trkpt lat="43.74939" lon="3.49883">
        <ele>756.1</ele>
        <time>2014-06-08T08:41:52Z</time>
      </trkpt>
      <trkpt lat="43.74933" lon="3.49872">
        <ele>758.3</ele>
        <time>2014-06-08T08:41:58Z</time>
      </trkpt>
      <trkpt lat="43.7492" lon="3.49851">
        <ele>761.1</ele>
        <time>2014-06-08T08:42:11Z</time>
      </trkpt>
      <trkpt lat="43.74914" lon="3.49842">
        <ele>761.5</ele>
        <time>2014-06-08T08:42:18Z</time>
      </trkpt>
      <trkpt lat="43.74908" lon="3.49831">
        <ele>763.1</ele>
        <time>2014-06-08T08:42:26Z</time>
      </trkpt>
      <trkpt lat="43.74902" lon="3.4982">
        <ele>765.1</ele>
        <time>2014-06-08T08:42:34Z</time>
      </trkpt>
      <trkpt lat="43.74898" lon="3.49808">
        <ele>766.6</ele>
        <time>2014-06-08T08:42:43Z</time>
      </trkpt>
      <trkpt lat="43.74891" lon="3.49797">
        <ele>767</ele>
        <time>2014-06-08T08:42:51Z</time>
      </trkpt>
      <trkpt lat="43.74884" lon="3.49788">
        <ele>768.3</ele>
        <time>2014-06-08T08:42:58Z</time>
      </trkpt>
      <trkpt lat="43.74879" lon="3.49777">
        <ele>769.9</ele>
        <time>2014-06-08T08:43:05Z</time>
      </trkpt>
      <trkpt lat="43.74871" lon="3.49753">
        <ele>772.5</ele>
        <time>2014-06-08T08:43:18Z</time>
      </trkpt>
      <trkpt lat="43.74865" lon="3.4974">
        <ele>772.3</ele>
        <time>2014-06-08T08:43:23Z</time>
      </trkpt>
      <trkpt lat="43.74859" lon="3.49727">
        <ele>772.5</ele>
        <time>2014-06-08T08:43:28Z</time>
      </trkpt>
      <trkpt lat="43.74855" lon="3.49714">
        <ele>773.2</ele>
        <time>2014-06-08T08:44:26Z</time>
      </trkpt>
      <trkpt lat="43.74842" lon="3.49687">
        <ele>772.3</ele>
        <time>2014-06-08T08:44:32Z</time>
      </trkpt>
      <trkpt lat="43.74835" lon="3.49676">
        <ele>772.1</ele>
        <time>2014-06-08T08:44:34Z</time>
      </trkpt>
      <trkpt lat="43.74827" lon="3.49665">
        <ele>771.5</ele>
        <time>2014-06-08T08:44:36Z</time>
      </trkpt>
      <trkpt lat="43.74818" lon="3.49655">
        <ele>770.6</ele>
        <time>2014-06-08T08:44:38Z</time>
      </trkpt>
      <trkpt lat="43.7481" lon="3.49643">
        <ele>770.4</ele>
        <time>2014-06-08T08:44:40Z</time>
      </trkpt>
      <trkpt lat="43.74805" lon="3.49628">
        <ele>770.2</ele>
        <time>2014-06-08T08:44:42Z</time>
      </trkpt>
      <trkpt lat="43.74802" lon="3.49612">
        <ele>769.3</ele>
        <time>2014-06-08T08:44:44Z</time>
      </trkpt>
      <trkpt lat="43.74799" lon="3.49594">
        <ele>768.9</ele>
        <time>2014-06-08T08:44:46Z</time>
      </trkpt>
      <trkpt lat="43.74796" lon="3.49577">
        <ele>768.7</ele>
        <time>2014-06-08T08:44:48Z</time>
      </trkpt>
      <trkpt lat="43.74792" lon="3.49561">
        <ele>768.7</ele>
        <time>2014-06-08T08:44:50Z</time>
      </trkpt>
      <trkpt lat="43.74791" lon="3.49546">
        <ele>768.8</ele>
        <time>2014-06-08T08:44:52Z</time>
      </trkpt>
      <trkpt lat="43.74794" lon="3.49533">
        <ele>768.9</ele>
        <time>2014-06-08T08:44:54Z</time>
      </trkpt>
      <trkpt lat="43.74798" lon="3.49521">
        <ele>770.1</ele>
        <time>2014-06-08T08:44:56Z</time>
      </trkpt>
      <trkpt lat="43.74802" lon="3.49509">
        <ele>771</ele>
        <time>2014-06-08T08:44:58Z</time>
      </trkpt>
      <trkpt lat="43.74802" lon="3.49491">
        <ele>771.3</ele>
        <time>2014-06-08T08:45:01Z</time>
      </trkpt>
      <trkpt lat="43.74795" lon="3.49477">
        <ele>771.9</ele>
        <time>2014-06-08T08:45:04Z</time>
      </trkpt>
      <trkpt lat="43.74787" lon="3.49466">
        <ele>772.7</ele>
        <time>2014-06-08T08:45:07Z</time>
      </trkpt>
      <trkpt lat="43.7478" lon="3.49454">
        <ele>773.5</ele>
        <time>2014-06-08T08:45:10Z</time>
      </trkpt>
      <trkpt lat="43.74772" lon="3.49443">
        <ele>773.5</ele>
        <time>2014-06-08T08:45:13Z</time>
      </trkpt>
      <trkpt lat="43.74767" lon="3.49431">
        <ele>774.7</ele>
        <time>2014-06-08T08:45:16Z</time>
      </trkpt>
      <trkpt lat="43.7476" lon="3.4942">
        <ele>774.6</ele>
        <time>2014-06-08T08:45:19Z</time>
      </trkpt>
      <trkpt lat="43.74753" lon="3.49411">
        <ele>775</ele>
        <time>2014-06-08T08:45:22Z</time>
      </trkpt>
      <trkpt lat="43.74746" lon="3.49398">
        <ele>774.9</ele>
        <time>2014-06-08T08:45:26Z</time>
      </trkpt>
      <trkpt lat="43.74741" lon="3.49384">
        <ele>776</ele>
        <time>2014-06-08T08:45:30Z</time>
      </trkpt>
      <trkpt lat="43.74726" lon="3.49367">
        <ele>776.8</ele>
        <time>2014-06-08T08:45:37Z</time>
      </trkpt>
      <trkpt lat="43.74718" lon="3.49358">
        <ele>777</ele>
        <time>2014-06-08T08:45:42Z</time>
      </trkpt>
      <trkpt lat="43.74712" lon="3.49348">
        <ele>778.1</ele>
        <time>2014-06-08T08:45:47Z</time>
      </trkpt>
      <trkpt lat="43.74708" lon="3.49337">
        <ele>779.2</ele>
        <time>2014-06-08T08:45:52Z</time>
      </trkpt>
      <trkpt lat="43.74706" lon="3.49324">
        <ele>780.4</ele>
        <time>2014-06-08T08:45:57Z</time>
      </trkpt>
      <trkpt lat="43.74706" lon="3.4931">
        <ele>780.1</ele>
        <time>2014-06-08T08:46:01Z</time>
      </trkpt>
      <trkpt lat="43.74706" lon="3.49295">
        <ele>781</ele>
        <time>2014-06-08T08:46:05Z</time>
      </trkpt>
      <trkpt lat="43.74704" lon="3.49279">
        <ele>781.5</ele>
        <time>2014-06-08T08:46:09Z</time>
      </trkpt>
      <trkpt lat="43.74701" lon="3.49267">
        <ele>781.2</ele>
        <time>2014-06-08T08:46:11Z</time>
      </trkpt>
      <trkpt lat="43.74693" lon="3.49254">
        <ele>780.7</ele>
        <time>2014-06-08T08:46:13Z</time>
      </trkpt>
      <trkpt lat="43.74681" lon="3.49242">
        <ele>779.7</ele>
        <time>2014-06-08T08:46:15Z</time>
      </trkpt>
      <trkpt lat="43.74669" lon="3.49232">
        <ele>778.7</ele>
        <time>2014-06-08T08:46:17Z</time>
      </trkpt>
      <trkpt lat="43.74656" lon="3.49222">
        <ele>778.2</ele>
        <time>2014-06-08T08:46:19Z</time>
      </trkpt>
      <trkpt lat="43.74645" lon="3.49212">
        <ele>777.7</ele>
        <time>2014-06-08T08:46:21Z</time>
      </trkpt>
      <trkpt lat="43.74633" lon="3.492">
        <ele>777</ele>
        <time>2014-06-08T08:46:23Z</time>
      </trkpt>
      <trkpt lat="43.74621" lon="3.49189">
        <ele>776.1</ele>
        <time>2014-06-08T08:46:25Z</time>
      </trkpt>
      <trkpt lat="43.74611" lon="3.49176">
        <ele>775.5</ele>
        <time>2014-06-08T08:46:27Z</time>
      </trkpt>
      <trkpt lat="43.746" lon="3.49162">
        <ele>773.4</ele>
        <time>2014-06-08T08:46:29Z</time>
      </trkpt>
      <trkpt lat="43.74588" lon="3.49152">
        <ele>773</ele>
        <time>2014-06-08T08:46:31Z</time>
      </trkpt>
      <trkpt lat="43.74567" lon="3.49151">
        <ele>772.7</ele>
        <time>2014-06-08T08:46:35Z</time>
      </trkpt>
      <trkpt lat="43.74556" lon="3.49152">
        <ele>773.1</ele>
        <time>2014-06-08T08:46:38Z</time>
      </trkpt>
      <trkpt lat="43.74545" lon="3.49148">
        <ele>773.8</ele>
        <time>2014-06-08T08:46:41Z</time>
      </trkpt>
      <trkpt lat="43.74536" lon="3.49145">
        <ele>774.4</ele>
        <time>2014-06-08T08:46:44Z</time>
      </trkpt>
      <trkpt lat="43.74527" lon="3.49141">
        <ele>776.1</ele>
        <time>2014-06-08T08:47:02Z</time>
      </trkpt>
      <trkpt lat="43.74516" lon="3.49137">
        <ele>776.1</ele>
        <time>2014-06-08T08:47:07Z</time>
      </trkpt>
      <trkpt lat="43.74506" lon="3.49134">
        <ele>777</ele>
        <time>2014-06-08T08:47:11Z</time>
      </trkpt>
      <trkpt lat="43.74495" lon="3.4913">
        <ele>777.2</ele>
        <time>2014-06-08T08:47:15Z</time>
      </trkpt>
      <trkpt lat="43.74487" lon="3.49124">
        <ele>777.4</ele>
        <time>2014-06-08T08:47:18Z</time>
      </trkpt>
      <trkpt lat="43.7448" lon="3.49114">
        <ele>778.1</ele>
        <time>2014-06-08T08:47:21Z</time>
      </trkpt>
      <trkpt lat="43.74475" lon="3.49103">
        <ele>777.6</ele>
        <time>2014-06-08T08:47:24Z</time>
      </trkpt>
      <trkpt lat="43.7447" lon="3.4909">
        <ele>778.1</ele>
        <time>2014-06-08T08:47:28Z</time>
      </trkpt>
      <trkpt lat="43.74465" lon="3.49077">
        <ele>778.4</ele>
        <time>2014-06-08T08:47:32Z</time>
      </trkpt>
      <trkpt lat="43.74456" lon="3.49051">
        <ele>780.4</ele>
        <time>2014-06-08T08:47:43Z</time>
      </trkpt>
      <trkpt lat="43.74451" lon="3.49038">
        <ele>781.7</ele>
        <time>2014-06-08T08:47:49Z</time>
      </trkpt>
      <trkpt lat="43.74446" lon="3.49027">
        <ele>782.4</ele>
        <time>2014-06-08T08:47:54Z</time>
      </trkpt>
      <trkpt lat="43.74442" lon="3.49016">
        <ele>782.3</ele>
        <time>2014-06-08T08:47:59Z</time>
      </trkpt>
      <trkpt lat="43.74436" lon="3.49003">
        <ele>783.2</ele>
        <time>2014-06-08T08:48:05Z</time>
      </trkpt>
      <trkpt lat="43.74429" lon="3.48994">
        <ele>783.9</ele>
        <time>2014-06-08T08:48:11Z</time>
      </trkpt>
      <trkpt lat="43.74421" lon="3.48986">
        <ele>785.5</ele>
        <time>2014-06-08T08:48:19Z</time>
      </trkpt>
      <trkpt lat="43.74414" lon="3.48978">
        <ele>787.9</ele>
        <time>2014-06-08T08:48:27Z</time>
      </trkpt>
      <trkpt lat="43.74408" lon="3.48968">
        <ele>789</ele>
        <time>2014-06-08T08:48:35Z</time>
      </trkpt>
      <trkpt lat="43.74398" lon="3.48946">
        <ele>792.6</ele>
        <time>2014-06-08T08:48:49Z</time>
      </trkpt>
      <trkpt lat="43.74393" lon="3.48935">
        <ele>794.2</ele>
        <time>2014-06-08T08:48:56Z</time>
      </trkpt>
      <trkpt lat="43.74387" lon="3.48925">
        <ele>795.1</ele>
        <time>2014-06-08T08:49:03Z</time>
      </trkpt>
      <trkpt lat="43.74381" lon="3.48915">
        <ele>797.3</ele>
        <time>2014-06-08T08:49:11Z</time>
      </trkpt>
      <trkpt lat="43.74374" lon="3.48905">
        <ele>798.2</ele>
        <time>2014-06-08T08:49:19Z</time>
      </trkpt>
      <trkpt lat="43.74367" lon="3.48895">
        <ele>799.8</ele>
        <time>2014-06-08T08:49:27Z</time>
      </trkpt>
      <trkpt lat="43.74361" lon="3.48884">
        <ele>801.1</ele>
        <time>2014-06-08T08:49:35Z</time>
      </trkpt>
      <trkpt lat="43.74357" lon="3.48872">
        <ele>801.6</ele>
        <time>2014-06-08T08:50:05Z</time>
      </trkpt>
      <trkpt lat="43.74361" lon="3.48843">
        <ele>800.8</ele>
        <time>2014-06-08T08:50:12Z</time>
      </trkpt>
      <trkpt lat="43.74369" lon="3.48832">
        <ele>799.9</ele>
        <time>2014-06-08T08:50:14Z</time>
      </trkpt>
      <trkpt lat="43.7438" lon="3.48825">
        <ele>799.6</ele>
        <time>2014-06-08T08:50:16Z</time>
      </trkpt>
      <trkpt lat="43.74393" lon="3.4882">
        <ele>799.2</ele>
        <time>2014-06-08T08:50:18Z</time>
      </trkpt>
      <trkpt lat="43.74405" lon="3.48814">
        <ele>798.5</ele>
        <time>2014-06-08T08:50:20Z</time>
      </trkpt>
      <trkpt lat="43.74415" lon="3.4881">
        <ele>797.9</ele>
        <time>2014-06-08T08:50:22Z</time>
      </trkpt>
      <trkpt lat="43.74423" lon="3.48802">
        <ele>797.9</ele>
        <time>2014-06-08T08:50:24Z</time>
      </trkpt>
      <trkpt lat="43.7443" lon="3.48794">
        <ele>798.6</ele>
        <time>2014-06-08T08:50:26Z</time>
      </trkpt>
      <trkpt lat="43.7444" lon="3.48786">
        <ele>799.9</ele>
        <time>2014-06-08T08:50:29Z</time>
      </trkpt>
      <trkpt lat="43.74449" lon="3.48785">
        <ele>800.5</ele>
        <time>2014-06-08T08:50:32Z</time>
      </trkpt>
      <trkpt lat="43.74461" lon="3.48783">
        <ele>802.2</ele>
        <time>2014-06-08T08:50:36Z</time>
      </trkpt>
      <trkpt lat="43.74472" lon="3.48781">
        <ele>803.5</ele>
        <time>2014-06-08T08:50:40Z</time>
      </trkpt>
      <trkpt lat="43.74481" lon="3.4878">
        <ele>804.2</ele>
        <time>2014-06-08T08:50:43Z</time>
      </trkpt>
      <trkpt lat="43.74493" lon="3.48778">
        <ele>804.4</ele>
        <time>2014-06-08T08:50:47Z</time>
      </trkpt>
      <trkpt lat="43.74501" lon="3.48769">
        <ele>804.2</ele>
        <time>2014-06-08T08:50:50Z</time>
      </trkpt>
      <trkpt lat="43.74507" lon="3.48754">
        <ele>804.2</ele>
        <time>2014-06-08T08:50:53Z</time>
      </trkpt>
      <trkpt lat="43.74513" lon="3.48738">
        <ele>804.7</ele>
        <time>2014-06-08T08:50:56Z</time>
      </trkpt>
      <trkpt lat="43.74515" lon="3.48726">
        <ele>804.5</ele>
        <time>2014-06-08T08:50:58Z</time>
      </trkpt>
      <trkpt lat="43.74516" lon="3.48713">
        <ele>804.3</ele>
        <time>2014-06-08T08:51:00Z</time>
      </trkpt>
      <trkpt lat="43.74514" lon="3.48695">
        <ele>804.4</ele>
        <time>2014-06-08T08:51:03Z</time>
      </trkpt>
      <trkpt lat="43.7451" lon="3.48682">
        <ele>805.2</ele>
        <time>2014-06-08T08:51:06Z</time>
      </trkpt>
      <trkpt lat="43.74504" lon="3.48672">
        <ele>805.4</ele>
        <time>2014-06-08T08:51:10Z</time>
      </trkpt>
      <trkpt lat="43.7449" lon="3.48652">
        <ele>807.6</ele>
        <time>2014-06-08T08:51:18Z</time>
      </trkpt>
      <trkpt lat="43.74481" lon="3.48646">
        <ele>808.9</ele>
        <time>2014-06-08T08:51:22Z</time>
      </trkpt>
      <trkpt lat="43.74472" lon="3.48641">
        <ele>809.5</ele>
        <time>2014-06-08T08:51:26Z</time>
      </trkpt>
      <trkpt lat="43.74463" lon="3.48637">
        <ele>810.5</ele>
        <time>2014-06-08T08:51:30Z</time>
      </trkpt>
      <trkpt lat="43.74456" lon="3.48626">
        <ele>810.7</ele>
        <time>2014-06-08T08:51:35Z</time>
      </trkpt>
      <trkpt lat="43.7446" lon="3.48615">
        <ele>811.8</ele>
        <time>2014-06-08T08:54:23Z</time>
      </trkpt>
      <trkpt lat="43.74451" lon="3.48582">
        <ele>816.2</ele>
        <time>2014-06-08T08:59:50Z</time>
      </trkpt>
      <trkpt lat="43.74447" lon="3.48568">
        <ele>815.4</ele>
        <time>2014-06-08T08:59:54Z</time>
      </trkpt>
      <trkpt lat="43.74453" lon="3.48558">
        <ele>814.7</ele>
        <time>2014-06-08T08:59:57Z</time>
      </trkpt>
      <trkpt lat="43.74461" lon="3.48543">
        <ele>814.5</ele>
        <time>2014-06-08T09:00:00Z</time>
      </trkpt>
      <trkpt lat="43.74469" lon="3.48534">
        <ele>814.2</ele>
        <time>2014-06-08T09:00:02Z</time>
      </trkpt>
      <trkpt lat="43.74479" lon="3.48528">
        <ele>813.4</ele>
        <time>2014-06-08T09:00:04Z</time>
      </trkpt>
      <trkpt lat="43.74491" lon="3.4853">
        <ele>812.2</ele>
        <time>2014-06-08T09:00:06Z</time>
      </trkpt>
      <trkpt lat="43.74504" lon="3.48537">
        <ele>811.1</ele>
        <time>2014-06-08T09:00:08Z</time>
      </trkpt>
      <trkpt lat="43.74519" lon="3.48548">
        <ele>810.1</ele>
        <time>2014-06-08T09:00:10Z</time>
      </trkpt>
      <trkpt lat="43.74533" lon="3.48557">
        <ele>809.3</ele>
        <time>2014-06-08T09:00:12Z</time>
      </trkpt>
      <trkpt lat="43.74545" lon="3.48563">
        <ele>808.1</ele>
        <time>2014-06-08T09:00:14Z</time>
      </trkpt>
      <trkpt lat="43.74556" lon="3.48567">
        <ele>806.1</ele>
        <time>2014-06-08T09:00:17Z</time>
      </trkpt>
      <trkpt lat="43.74554" lon="3.48552">
        <ele>802.2</ele>
        <time>2014-06-08T09:00:23Z</time>
      </trkpt>
      <trkpt lat="43.74548" lon="3.4854">
        <ele>800.9</ele>
        <time>2014-06-08T09:00:26Z</time>
      </trkpt>
      <trkpt lat="43.74552" lon="3.48527">
        <ele>799.7</ele>
        <time>2014-06-08T09:00:31Z</time>
      </trkpt>
      <trkpt lat="43.74561" lon="3.48525">
        <ele>798</ele>
        <time>2014-06-08T09:00:35Z</time>
      </trkpt>
      <trkpt lat="43.7457" lon="3.48523">
        <ele>796.4</ele>
        <time>2014-06-08T09:00:38Z</time>
      </trkpt>
      <trkpt lat="43.74591" lon="3.48533">
        <ele>792.7</ele>
        <time>2014-06-08T09:00:44Z</time>
      </trkpt>
      <trkpt lat="43.74599" lon="3.48538">
        <ele>791.7</ele>
        <time>2014-06-08T09:00:46Z</time>
      </trkpt>
      <trkpt lat="43.74609" lon="3.48542">
        <ele>790.5</ele>
        <time>2014-06-08T09:00:48Z</time>
      </trkpt>
      <trkpt lat="43.74619" lon="3.48545">
        <ele>789.6</ele>
        <time>2014-06-08T09:00:50Z</time>
      </trkpt>
      <trkpt lat="43.74628" lon="3.48546">
        <ele>788.6</ele>
        <time>2014-06-08T09:00:52Z</time>
      </trkpt>
      <trkpt lat="43.74638" lon="3.48547">
        <ele>786.8</ele>
        <time>2014-06-08T09:00:54Z</time>
      </trkpt>
      <trkpt lat="43.7465" lon="3.4855">
        <ele>784.7</ele>
        <time>2014-06-08T09:00:57Z</time>
      </trkpt>
      <trkpt lat="43.74652" lon="3.48536">
        <ele>781.2</ele>
        <time>2014-06-08T09:01:03Z</time>
      </trkpt>
      <trkpt lat="43.74645" lon="3.48523">
        <ele>780.1</ele>
        <time>2014-06-08T09:01:06Z</time>
      </trkpt>
      <trkpt lat="43.7465" lon="3.48512">
        <ele>778</ele>
        <time>2014-06-08T09:01:11Z</time>
      </trkpt>
      <trkpt lat="43.74659" lon="3.48508">
        <ele>775.7</ele>
        <time>2014-06-08T09:01:14Z</time>
      </trkpt>
      <trkpt lat="43.74669" lon="3.48503">
        <ele>772.3</ele>
        <time>2014-06-08T09:01:18Z</time>
      </trkpt>
      <trkpt lat="43.74664" lon="3.48491">
        <ele>769.3</ele>
        <time>2014-06-08T09:01:22Z</time>
      </trkpt>
      <trkpt lat="43.7466" lon="3.48477">
        <ele>767.7</ele>
        <time>2014-06-08T09:01:26Z</time>
      </trkpt>
      <trkpt lat="43.74665" lon="3.48466">
        <ele>763.2</ele>
        <time>2014-06-08T09:01:32Z</time>
      </trkpt>
      <trkpt lat="43.74675" lon="3.48468">
        <ele>762.2</ele>
        <time>2014-06-08T09:01:35Z</time>
      </trkpt>
      <trkpt lat="43.74689" lon="3.4847">
        <ele>761.1</ele>
        <time>2014-06-08T09:01:38Z</time>
      </trkpt>
      <trkpt lat="43.74701" lon="3.48472">
        <ele>759.6</ele>
        <time>2014-06-08T09:01:40Z</time>
      </trkpt>
      <trkpt lat="43.74723" lon="3.48475">
        <ele>756.3</ele>
        <time>2014-06-08T09:01:45Z</time>
      </trkpt>
      <trkpt lat="43.7472" lon="3.48461">
        <ele>753.7</ele>
        <time>2014-06-08T09:01:50Z</time>
      </trkpt>
      <trkpt lat="43.7471" lon="3.48449">
        <ele>752.2</ele>
        <time>2014-06-08T09:01:53Z</time>
      </trkpt>
      <trkpt lat="43.74704" lon="3.48439">
        <ele>751.2</ele>
        <time>2014-06-08T09:01:57Z</time>
      </trkpt>
      <trkpt lat="43.74712" lon="3.48433">
        <ele>749.2</ele>
        <time>2014-06-08T09:02:01Z</time>
      </trkpt>
      <trkpt lat="43.74721" lon="3.48424">
        <ele>747.9</ele>
        <time>2014-06-08T09:02:04Z</time>
      </trkpt>
      <trkpt lat="43.74733" lon="3.48416">
        <ele>746.4</ele>
        <time>2014-06-08T09:02:07Z</time>
      </trkpt>
      <trkpt lat="43.74743" lon="3.48413">
        <ele>745.1</ele>
        <time>2014-06-08T09:02:09Z</time>
      </trkpt>
      <trkpt lat="43.74756" lon="3.4841">
        <ele>743.4</ele>
        <time>2014-06-08T09:02:11Z</time>
      </trkpt>
      <trkpt lat="43.74768" lon="3.48411">
        <ele>741.1</ele>
        <time>2014-06-08T09:02:13Z</time>
      </trkpt>
      <trkpt lat="43.74779" lon="3.48413">
        <ele>739.6</ele>
        <time>2014-06-08T09:02:15Z</time>
      </trkpt>
      <trkpt lat="43.74792" lon="3.48412">
        <ele>737.3</ele>
        <time>2014-06-08T09:02:18Z</time>
      </trkpt>
      <trkpt lat="43.74801" lon="3.4841">
        <ele>735.1</ele>
        <time>2014-06-08T09:02:21Z</time>
      </trkpt>
      <trkpt lat="43.74811" lon="3.48404">
        <ele>733</ele>
        <time>2014-06-08T09:02:24Z</time>
      </trkpt>
      <trkpt lat="43.74819" lon="3.48397">
        <ele>730.1</ele>
        <time>2014-06-08T09:02:27Z</time>
      </trkpt>
      <trkpt lat="43.74829" lon="3.48394">
        <ele>727.7</ele>
        <time>2014-06-08T09:02:30Z</time>
      </trkpt>
      <trkpt lat="43.74839" lon="3.48388">
        <ele>725.9</ele>
        <time>2014-06-08T09:02:33Z</time>
      </trkpt>
      <trkpt lat="43.74846" lon="3.4838">
        <ele>723.9</ele>
        <time>2014-06-08T09:02:35Z</time>
      </trkpt>
      <trkpt lat="43.74854" lon="3.4837">
        <ele>722</ele>
        <time>2014-06-08T09:02:37Z</time>
      </trkpt>
      <trkpt lat="43.74861" lon="3.48361">
        <ele>720.4</ele>
        <time>2014-06-08T09:02:39Z</time>
      </trkpt>
      <trkpt lat="43.74869" lon="3.48352">
        <ele>719</ele>
        <time>2014-06-08T09:02:41Z</time>
      </trkpt>
      <trkpt lat="43.74879" lon="3.48345">
        <ele>717.6</ele>
        <time>2014-06-08T09:02:43Z</time>
      </trkpt>
      <trkpt lat="43.74897" lon="3.48327">
        <ele>713.8</ele>
        <time>2014-06-08T09:02:47Z</time>
      </trkpt>
      <trkpt lat="43.74906" lon="3.48315">
        <ele>712.1</ele>
        <time>2014-06-08T09:02:49Z</time>
      </trkpt>
      <trkpt lat="43.74917" lon="3.48305">
        <ele>710.6</ele>
        <time>2014-06-08T09:02:51Z</time>
      </trkpt>
      <trkpt lat="43.74927" lon="3.48295">
        <ele>709.1</ele>
        <time>2014-06-08T09:02:53Z</time>
      </trkpt>
      <trkpt lat="43.74938" lon="3.48284">
        <ele>707.1</ele>
        <time>2014-06-08T09:02:55Z</time>
      </trkpt>
      <trkpt lat="43.74946" lon="3.48272">
        <ele>705.6</ele>
        <time>2014-06-08T09:02:57Z</time>
      </trkpt>
      <trkpt lat="43.74954" lon="3.48259">
        <ele>704.8</ele>
        <time>2014-06-08T09:02:59Z</time>
      </trkpt>
      <trkpt lat="43.74963" lon="3.48246">
        <ele>703.2</ele>
        <time>2014-06-08T09:03:01Z</time>
      </trkpt>
      <trkpt lat="43.74973" lon="3.48233">
        <ele>702.3</ele>
        <time>2014-06-08T09:03:03Z</time>
      </trkpt>
      <trkpt lat="43.74982" lon="3.48222">
        <ele>700.6</ele>
        <time>2014-06-08T09:03:05Z</time>
      </trkpt>
      <trkpt lat="43.74992" lon="3.48211">
        <ele>699.3</ele>
        <time>2014-06-08T09:03:07Z</time>
      </trkpt>
      <trkpt lat="43.75003" lon="3.48201">
        <ele>698</ele>
        <time>2014-06-08T09:03:09Z</time>
      </trkpt>
      <trkpt lat="43.75011" lon="3.48193">
        <ele>696.9</ele>
        <time>2014-06-08T09:03:11Z</time>
      </trkpt>
      <trkpt lat="43.75005" lon="3.48182">
        <ele>695.4</ele>
        <time>2014-06-08T09:03:18Z</time>
      </trkpt>
      <trkpt lat="43.74995" lon="3.48185">
        <ele>695.2</ele>
        <time>2014-06-08T09:03:22Z</time>
      </trkpt>
      <trkpt lat="43.74984" lon="3.48185">
        <ele>696.1</ele>
        <time>2014-06-08T09:03:26Z</time>
      </trkpt>
      <trkpt lat="43.74975" lon="3.48186">
        <ele>697</ele>
        <time>2014-06-08T09:03:29Z</time>
      </trkpt>
      <trkpt lat="43.74964" lon="3.48192">
        <ele>697.9</ele>
        <time>2014-06-08T09:03:33Z</time>
      </trkpt>
      <trkpt lat="43.74954" lon="3.48198">
        <ele>698.6</ele>
        <time>2014-06-08T09:03:37Z</time>
      </trkpt>
      <trkpt lat="43.74944" lon="3.482">
        <ele>699</ele>
        <time>2014-06-08T09:03:41Z</time>
      </trkpt>
      <trkpt lat="43.74935" lon="3.48204">
        <ele>700</ele>
        <time>2014-06-08T09:03:46Z</time>
      </trkpt>
      <trkpt lat="43.74916" lon="3.48214">
        <ele>702.1</ele>
        <time>2014-06-08T09:03:56Z</time>
      </trkpt>
      <trkpt lat="43.74908" lon="3.48223">
        <ele>702.6</ele>
        <time>2014-06-08T09:04:03Z</time>
      </trkpt>
      <trkpt lat="43.74899" lon="3.48224">
        <ele>704.6</ele>
        <time>2014-06-08T09:04:09Z</time>
      </trkpt>
      <trkpt lat="43.7489" lon="3.48222">
        <ele>705.3</ele>
        <time>2014-06-08T09:04:14Z</time>
      </trkpt>
      <trkpt lat="43.74879" lon="3.48222">
        <ele>706</ele>
        <time>2014-06-08T09:04:20Z</time>
      </trkpt>
      <trkpt lat="43.7487" lon="3.48222">
        <ele>706.7</ele>
        <time>2014-06-08T09:04:25Z</time>
      </trkpt>
      <trkpt lat="43.74861" lon="3.48224">
        <ele>706.8</ele>
        <time>2014-06-08T09:04:30Z</time>
      </trkpt>
      <trkpt lat="43.74851" lon="3.4823">
        <ele>708</ele>
        <time>2014-06-08T09:04:36Z</time>
      </trkpt>
      <trkpt lat="43.74843" lon="3.48236">
        <ele>709.1</ele>
        <time>2014-06-08T09:04:42Z</time>
      </trkpt>
      <trkpt lat="43.74835" lon="3.48244">
        <ele>710.1</ele>
        <time>2014-06-08T09:04:49Z</time>
      </trkpt>
      <trkpt lat="43.7482" lon="3.48259">
        <ele>712.4</ele>
        <time>2014-06-08T09:05:03Z</time>
      </trkpt>
      <trkpt lat="43.74812" lon="3.48267">
        <ele>714.5</ele>
        <time>2014-06-08T09:05:11Z</time>
      </trkpt>
      <trkpt lat="43.74804" lon="3.48274">
        <ele>716.7</ele>
        <time>2014-06-08T09:05:18Z</time>
      </trkpt>
      <trkpt lat="43.74797" lon="3.48281">
        <ele>717.2</ele>
        <time>2014-06-08T09:05:26Z</time>
      </trkpt>
      <trkpt lat="43.74789" lon="3.4829">
        <ele>718.9</ele>
        <time>2014-06-08T09:05:33Z</time>
      </trkpt>
      <trkpt lat="43.74782" lon="3.48297">
        <ele>720.5</ele>
        <time>2014-06-08T09:05:40Z</time>
      </trkpt>
      <trkpt lat="43.74774" lon="3.48304">
        <ele>722</ele>
        <time>2014-06-08T09:05:48Z</time>
      </trkpt>
      <trkpt lat="43.74766" lon="3.48312">
        <ele>722.5</ele>
        <time>2014-06-08T09:05:56Z</time>
      </trkpt>
      <trkpt lat="43.74752" lon="3.48332">
        <ele>725.5</ele>
        <time>2014-06-08T09:06:17Z</time>
      </trkpt>
      <trkpt lat="43.74745" lon="3.48341">
        <ele>727</ele>
        <time>2014-06-08T09:06:26Z</time>
      </trkpt>
      <trkpt lat="43.74736" lon="3.48346">
        <ele>727.2</ele>
        <time>2014-06-08T09:06:34Z</time>
      </trkpt>
      <trkpt lat="43.74726" lon="3.48352">
        <ele>727.9</ele>
        <time>2014-06-08T09:06:39Z</time>
      </trkpt>
      <trkpt lat="43.74717" lon="3.48357">
        <ele>728.4</ele>
        <time>2014-06-08T09:06:44Z</time>
      </trkpt>
      <trkpt lat="43.74707" lon="3.48354">
        <ele>729.2</ele>
        <time>2014-06-08T09:06:50Z</time>
      </trkpt>
      <trkpt lat="43.74699" lon="3.48347">
        <ele>729.5</ele>
        <time>2014-06-08T09:06:55Z</time>
      </trkpt>
      <trkpt lat="43.7469" lon="3.48339">
        <ele>730.7</ele>
        <time>2014-06-08T09:07:00Z</time>
      </trkpt>
      <trkpt lat="43.7467" lon="3.48337">
        <ele>733.4</ele>
        <time>2014-06-08T09:07:11Z</time>
      </trkpt>
      <trkpt lat="43.74661" lon="3.48337">
        <ele>733.8</ele>
        <time>2014-06-08T09:07:17Z</time>
      </trkpt>
      <trkpt lat="43.74651" lon="3.48337">
        <ele>733.9</ele>
        <time>2014-06-08T09:07:23Z</time>
      </trkpt>
      <trkpt lat="43.74642" lon="3.48338">
        <ele>734.3</ele>
        <time>2014-06-08T09:07:28Z</time>
      </trkpt>
      <trkpt lat="43.74632" lon="3.48339">
        <ele>735.2</ele>
        <time>2014-06-08T09:07:33Z</time>
      </trkpt>
      <trkpt lat="43.74623" lon="3.48334">
        <ele>735.1</ele>
        <time>2014-06-08T09:07:38Z</time>
      </trkpt>
      <trkpt lat="43.74615" lon="3.48328">
        <ele>735.5</ele>
        <time>2014-06-08T09:07:42Z</time>
      </trkpt>
      <trkpt lat="43.74607" lon="3.48319">
        <ele>735.9</ele>
        <time>2014-06-08T09:07:47Z</time>
      </trkpt>
      <trkpt lat="43.74601" lon="3.48306">
        <ele>736.2</ele>
        <time>2014-06-08T09:07:52Z</time>
      </trkpt>
      <trkpt lat="43.74596" lon="3.48293">
        <ele>737.5</ele>
        <time>2014-06-08T09:07:57Z</time>
      </trkpt>
      <trkpt lat="43.74591" lon="3.48281">
        <ele>737.8</ele>
        <time>2014-06-08T09:08:01Z</time>
      </trkpt>
      <trkpt lat="43.74587" lon="3.48269">
        <ele>738.5</ele>
        <time>2014-06-08T09:08:05Z</time>
      </trkpt>
      <trkpt lat="43.74575" lon="3.48248">
        <ele>739.5</ele>
        <time>2014-06-08T09:08:14Z</time>
      </trkpt>
      <trkpt lat="43.74565" lon="3.48241">
        <ele>738.9</ele>
        <time>2014-06-08T09:08:19Z</time>
      </trkpt>
      <trkpt lat="43.74554" lon="3.48237">
        <ele>740.4</ele>
        <time>2014-06-08T09:08:24Z</time>
      </trkpt>
      <trkpt lat="43.74545" lon="3.48235">
        <ele>741.5</ele>
        <time>2014-06-08T09:08:28Z</time>
      </trkpt>
      <trkpt lat="43.74536" lon="3.48235">
        <ele>741.8</ele>
        <time>2014-06-08T09:08:32Z</time>
      </trkpt>
      <trkpt lat="43.74526" lon="3.48238">
        <ele>743.6</ele>
        <time>2014-06-08T09:08:37Z</time>
      </trkpt>
      <trkpt lat="43.74516" lon="3.48241">
        <ele>744.3</ele>
        <time>2014-06-08T09:08:42Z</time>
      </trkpt>
      <trkpt lat="43.74507" lon="3.48247">
        <ele>744.4</ele>
        <time>2014-06-08T09:08:47Z</time>
      </trkpt>
      <trkpt lat="43.74499" lon="3.48257">
        <ele>745.6</ele>
        <time>2014-06-08T09:08:53Z</time>
      </trkpt>
      <trkpt lat="43.74492" lon="3.48266">
        <ele>746.6</ele>
        <time>2014-06-08T09:09:29Z</time>
      </trkpt>
      <trkpt lat="43.74478" lon="3.48288">
        <ele>746.8</ele>
        <time>2014-06-08T09:09:37Z</time>
      </trkpt>
      <trkpt lat="43.74474" lon="3.48301">
        <ele>746.8</ele>
        <time>2014-06-08T09:09:45Z</time>
      </trkpt>
      <trkpt lat="43.74467" lon="3.48312">
        <ele>748.2</ele>
        <time>2014-06-08T09:09:55Z</time>
      </trkpt>
      <trkpt lat="43.7446" lon="3.48323">
        <ele>748.6</ele>
        <time>2014-06-08T09:09:59Z</time>
      </trkpt>
      <trkpt lat="43.74451" lon="3.48331">
        <ele>747.3</ele>
        <time>2014-06-08T09:10:03Z</time>
      </trkpt>
      <trkpt lat="43.74444" lon="3.4834">
        <ele>746.6</ele>
        <time>2014-06-08T09:10:06Z</time>
      </trkpt>
      <trkpt lat="43.74438" lon="3.48351">
        <ele>748.2</ele>
        <time>2014-06-08T09:10:17Z</time>
      </trkpt>
      <trkpt lat="43.7443" lon="3.4836">
        <ele>750.4</ele>
        <time>2014-06-08T09:10:27Z</time>
      </trkpt>
      <trkpt lat="43.74424" lon="3.48369">
        <ele>751.6</ele>
        <time>2014-06-08T09:10:36Z</time>
      </trkpt>
      <trkpt lat="43.74411" lon="3.48387">
        <ele>754.2</ele>
        <time>2014-06-08T09:10:53Z</time>
      </trkpt>
      <trkpt lat="43.74404" lon="3.48395">
        <ele>755.2</ele>
        <time>2014-06-08T09:11:00Z</time>
      </trkpt>
      <trkpt lat="43.74396" lon="3.48402">
        <ele>755.2</ele>
        <time>2014-06-08T09:11:08Z</time>
      </trkpt>
      <trkpt lat="43.74389" lon="3.48411">
        <ele>756.5</ele>
        <time>2014-06-08T09:11:15Z</time>
      </trkpt>
      <trkpt lat="43.74379" lon="3.48416">
        <ele>757.3</ele>
        <time>2014-06-08T09:11:25Z</time>
      </trkpt>
      <trkpt lat="43.74369" lon="3.48413">
        <ele>757.5</ele>
        <time>2014-06-08T09:11:30Z</time>
      </trkpt>
      <trkpt lat="43.74362" lon="3.48403">
        <ele>757.5</ele>
        <time>2014-06-08T09:11:35Z</time>
      </trkpt>
      <trkpt lat="43.74359" lon="3.4839">
        <ele>757.7</ele>
        <time>2014-06-08T09:11:39Z</time>
      </trkpt>
      <trkpt lat="43.74351" lon="3.48363">
        <ele>756.1</ele>
        <time>2014-06-08T09:11:45Z</time>
      </trkpt>
      <trkpt lat="43.74344" lon="3.48347">
        <ele>756.1</ele>
        <time>2014-06-08T09:11:48Z</time>
      </trkpt>
      <trkpt lat="43.74336" lon="3.48336">
        <ele>755</ele>
        <time>2014-06-08T09:11:51Z</time>
      </trkpt>
      <trkpt lat="43.74326" lon="3.48327">
        <ele>755.1</ele>
        <time>2014-06-08T09:11:55Z</time>
      </trkpt>
      <trkpt lat="43.74317" lon="3.48324">
        <ele>755.1</ele>
        <time>2014-06-08T09:12:06Z</time>
      </trkpt>
      <trkpt lat="43.74307" lon="3.48321">
        <ele>755.3</ele>
        <time>2014-06-08T09:12:14Z</time>
      </trkpt>
      <trkpt lat="43.74298" lon="3.48319">
        <ele>756.5</ele>
        <time>2014-06-08T09:12:56Z</time>
      </trkpt>
      <trkpt lat="43.7428" lon="3.48317">
        <ele>754.9</ele>
        <time>2014-06-08T09:13:08Z</time>
      </trkpt>
      <trkpt lat="43.74269" lon="3.48316">
        <ele>755.3</ele>
        <time>2014-06-08T09:13:13Z</time>
      </trkpt>
      <trkpt lat="43.74257" lon="3.48318">
        <ele>755.7</ele>
        <time>2014-06-08T09:13:17Z</time>
      </trkpt>
      <trkpt lat="43.74248" lon="3.48319">
        <ele>756.6</ele>
        <time>2014-06-08T09:13:21Z</time>
      </trkpt>
      <trkpt lat="43.74237" lon="3.48318">
        <ele>756.9</ele>
        <time>2014-06-08T09:13:26Z</time>
      </trkpt>
      <trkpt lat="43.74228" lon="3.48317">
        <ele>756.8</ele>
        <time>2014-06-08T09:13:31Z</time>
      </trkpt>
      <trkpt lat="43.74219" lon="3.48317">
        <ele>758.3</ele>
        <time>2014-06-08T09:13:37Z</time>
      </trkpt>
      <trkpt lat="43.74208" lon="3.48315">
        <ele>759.2</ele>
        <time>2014-06-08T09:13:42Z</time>
      </trkpt>
      <trkpt lat="43.74199" lon="3.48313">
        <ele>759.2</ele>
        <time>2014-06-08T09:13:47Z</time>
      </trkpt>
      <trkpt lat="43.74189" lon="3.4831">
        <ele>760</ele>
        <time>2014-06-08T09:13:52Z</time>
      </trkpt>
      <trkpt lat="43.74179" lon="3.48308">
        <ele>760.5</ele>
        <time>2014-06-08T09:13:57Z</time>
      </trkpt>
      <trkpt lat="43.74168" lon="3.48305">
        <ele>761.4</ele>
        <time>2014-06-08T09:14:02Z</time>
      </trkpt>
      <trkpt lat="43.74147" lon="3.48298">
        <ele>761.4</ele>
        <time>2014-06-08T09:14:10Z</time>
      </trkpt>
      <trkpt lat="43.74136" lon="3.48292">
        <ele>761.4</ele>
        <time>2014-06-08T09:14:13Z</time>
      </trkpt>
      <trkpt lat="43.74126" lon="3.48289">
        <ele>760.9</ele>
        <time>2014-06-08T09:14:16Z</time>
      </trkpt>
      <trkpt lat="43.74115" lon="3.48284">
        <ele>760.2</ele>
        <time>2014-06-08T09:14:19Z</time>
      </trkpt>
      <trkpt lat="43.74104" lon="3.48278">
        <ele>760.2</ele>
        <time>2014-06-08T09:14:22Z</time>
      </trkpt>
      <trkpt lat="43.74092" lon="3.48271">
        <ele>760.6</ele>
        <time>2014-06-08T09:14:25Z</time>
      </trkpt>
      <trkpt lat="43.74081" lon="3.48264">
        <ele>760.4</ele>
        <time>2014-06-08T09:14:28Z</time>
      </trkpt>
      <trkpt lat="43.74072" lon="3.48257">
        <ele>760.2</ele>
        <time>2014-06-08T09:14:31Z</time>
      </trkpt>
      <trkpt lat="43.7406" lon="3.48244">
        <ele>762</ele>
        <time>2014-06-08T09:14:36Z</time>
      </trkpt>
      <trkpt lat="43.74052" lon="3.48236">
        <ele>762.4</ele>
        <time>2014-06-08T09:14:40Z</time>
      </trkpt>
      <trkpt lat="43.74042" lon="3.48228">
        <ele>762.8</ele>
        <time>2014-06-08T09:14:44Z</time>
      </trkpt>
      <trkpt lat="43.74033" lon="3.4822">
        <ele>763.9</ele>
        <time>2014-06-08T09:14:48Z</time>
      </trkpt>
      <trkpt lat="43.74023" lon="3.48215">
        <ele>764.1</ele>
        <time>2014-06-08T09:14:52Z</time>
      </trkpt>
      <trkpt lat="43.74013" lon="3.48217">
        <ele>764.6</ele>
        <time>2014-06-08T09:14:56Z</time>
      </trkpt>
      <trkpt lat="43.74003" lon="3.48226">
        <ele>763.6</ele>
        <time>2014-06-08T09:15:38Z</time>
      </trkpt>
      <trkpt lat="43.73994" lon="3.48256">
        <ele>761</ele>
        <time>2014-06-08T09:15:43Z</time>
      </trkpt>
      <trkpt lat="43.73993" lon="3.48269">
        <ele>759.4</ele>
        <time>2014-06-08T09:15:45Z</time>
      </trkpt>
      <trkpt lat="43.73992" lon="3.48283">
        <ele>757.6</ele>
        <time>2014-06-08T09:15:47Z</time>
      </trkpt>
      <trkpt lat="43.73992" lon="3.483">
        <ele>756.5</ele>
        <time>2014-06-08T09:15:49Z</time>
      </trkpt>
      <trkpt lat="43.73994" lon="3.48318">
        <ele>755.2</ele>
        <time>2014-06-08T09:15:51Z</time>
      </trkpt>
      <trkpt lat="43.73996" lon="3.48337">
        <ele>753.8</ele>
        <time>2014-06-08T09:15:53Z</time>
      </trkpt>
      <trkpt lat="43.74" lon="3.48357">
        <ele>752.9</ele>
        <time>2014-06-08T09:15:55Z</time>
      </trkpt>
      <trkpt lat="43.74005" lon="3.48376">
        <ele>751.5</ele>
        <time>2014-06-08T09:15:57Z</time>
      </trkpt>
      <trkpt lat="43.74012" lon="3.48393">
        <ele>749.5</ele>
        <time>2014-06-08T09:15:59Z</time>
      </trkpt>
      <trkpt lat="43.74019" lon="3.4841">
        <ele>747.8</ele>
        <time>2014-06-08T09:16:01Z</time>
      </trkpt>
      <trkpt lat="43.74026" lon="3.48425">
        <ele>746.6</ele>
        <time>2014-06-08T09:16:03Z</time>
      </trkpt>
      <trkpt lat="43.74033" lon="3.48438">
        <ele>745.2</ele>
        <time>2014-06-08T09:16:05Z</time>
      </trkpt>
      <trkpt lat="43.74039" lon="3.48451">
        <ele>743.7</ele>
        <time>2014-06-08T09:16:07Z</time>
      </trkpt>
      <trkpt lat="43.74045" lon="3.48464">
        <ele>742.6</ele>
        <time>2014-06-08T09:16:09Z</time>
      </trkpt>
      <trkpt lat="43.74051" lon="3.48475">
        <ele>741.5</ele>
        <time>2014-06-08T09:16:11Z</time>
      </trkpt>
      <trkpt lat="43.74055" lon="3.48488">
        <ele>739.6</ele>
        <time>2014-06-08T09:16:15Z</time>
      </trkpt>
      <trkpt lat="43.74044" lon="3.48487">
        <ele>734.4</ele>
        <time>2014-06-08T09:16:28Z</time>
      </trkpt>
      <trkpt lat="43.74033" lon="3.48476">
        <ele>733.4</ele>
        <time>2014-06-08T09:16:31Z</time>
      </trkpt>
      <trkpt lat="43.74024" lon="3.48469">
        <ele>733.1</ele>
        <time>2014-06-08T09:16:33Z</time>
      </trkpt>
      <trkpt lat="43.74015" lon="3.48461">
        <ele>731.9</ele>
        <time>2014-06-08T09:16:35Z</time>
      </trkpt>
      <trkpt lat="43.74006" lon="3.48456">
        <ele>730</ele>
        <time>2014-06-08T09:16:37Z</time>
      </trkpt>
      <trkpt lat="43.73995" lon="3.48448">
        <ele>727.4</ele>
        <time>2014-06-08T09:16:40Z</time>
      </trkpt>
      <trkpt lat="43.73978" lon="3.48435">
        <ele>725.5</ele>
        <time>2014-06-08T09:16:44Z</time>
      </trkpt>
      <trkpt lat="43.7397" lon="3.48427">
        <ele>724.3</ele>
        <time>2014-06-08T09:16:46Z</time>
      </trkpt>
      <trkpt lat="43.73959" lon="3.48419">
        <ele>722.9</ele>
        <time>2014-06-08T09:16:48Z</time>
      </trkpt>
      <trkpt lat="43.73949" lon="3.48408">
        <ele>721.4</ele>
        <time>2014-06-08T09:16:50Z</time>
      </trkpt>
      <trkpt lat="43.73939" lon="3.48396">
        <ele>720</ele>
        <time>2014-06-08T09:16:52Z</time>
      </trkpt>
      <trkpt lat="43.73931" lon="3.48385">
        <ele>718.3</ele>
        <time>2014-06-08T09:16:54Z</time>
      </trkpt>
      <trkpt lat="43.73922" lon="3.48373">
        <ele>717.3</ele>
        <time>2014-06-08T09:16:56Z</time>
      </trkpt>
      <trkpt lat="43.73913" lon="3.48362">
        <ele>715.6</ele>
        <time>2014-06-08T09:16:58Z</time>
      </trkpt>
      <trkpt lat="43.73905" lon="3.48352">
        <ele>714.1</ele>
        <time>2014-06-08T09:17:00Z</time>
      </trkpt>
      <trkpt lat="43.73897" lon="3.48342">
        <ele>712.5</ele>
        <time>2014-06-08T09:17:02Z</time>
      </trkpt>
      <trkpt lat="43.73889" lon="3.4833">
        <ele>710.7</ele>
        <time>2014-06-08T09:17:04Z</time>
      </trkpt>
      <trkpt lat="43.73878" lon="3.48319">
        <ele>709.2</ele>
        <time>2014-06-08T09:17:06Z</time>
      </trkpt>
      <trkpt lat="43.73868" lon="3.48309">
        <ele>707.6</ele>
        <time>2014-06-08T09:17:08Z</time>
      </trkpt>
      <trkpt lat="43.7386" lon="3.48297">
        <ele>706.1</ele>
        <time>2014-06-08T09:17:10Z</time>
      </trkpt>
      <trkpt lat="43.73854" lon="3.48288">
        <ele>704.8</ele>
        <time>2014-06-08T09:17:12Z</time>
      </trkpt>
      <trkpt lat="43.73847" lon="3.4828">
        <ele>703.2</ele>
        <time>2014-06-08T09:17:14Z</time>
      </trkpt>
      <trkpt lat="43.73839" lon="3.48272">
        <ele>701.7</ele>
        <time>2014-06-08T09:17:16Z</time>
      </trkpt>
      <trkpt lat="43.73832" lon="3.48265">
        <ele>700.8</ele>
        <time>2014-06-08T09:17:18Z</time>
      </trkpt>
      <trkpt lat="43.73824" lon="3.48257">
        <ele>699.4</ele>
        <time>2014-06-08T09:17:20Z</time>
      </trkpt>
      <trkpt lat="43.73814" lon="3.48249">
        <ele>696.9</ele>
        <time>2014-06-08T09:17:23Z</time>
      </trkpt>
      <trkpt lat="43.73806" lon="3.48243">
        <ele>695.6</ele>
        <time>2014-06-08T09:17:25Z</time>
      </trkpt>
      <trkpt lat="43.73797" lon="3.48235">
        <ele>693.9</ele>
        <time>2014-06-08T09:17:27Z</time>
      </trkpt>
      <trkpt lat="43.73788" lon="3.48228">
        <ele>691.8</ele>
        <time>2014-06-08T09:17:29Z</time>
      </trkpt>
      <trkpt lat="43.73777" lon="3.48218">
        <ele>690</ele>
        <time>2014-06-08T09:17:32Z</time>
      </trkpt>
      <trkpt lat="43.73768" lon="3.48212">
        <ele>687.8</ele>
        <time>2014-06-08T09:17:35Z</time>
      </trkpt>
      <trkpt lat="43.73759" lon="3.48202">
        <ele>685.9</ele>
        <time>2014-06-08T09:17:38Z</time>
      </trkpt>
      <trkpt lat="43.73749" lon="3.48194">
        <ele>683.4</ele>
        <time>2014-06-08T09:17:42Z</time>
      </trkpt>
      <trkpt lat="43.7373" lon="3.4818">
        <ele>681.3</ele>
        <time>2014-06-08T09:17:47Z</time>
      </trkpt>
      <trkpt lat="43.7372" lon="3.48174">
        <ele>681.2</ele>
        <time>2014-06-08T09:17:49Z</time>
      </trkpt>
      <trkpt lat="43.73711" lon="3.48169">
        <ele>679.3</ele>
        <time>2014-06-08T09:17:51Z</time>
      </trkpt>
      <trkpt lat="43.73701" lon="3.48165">
        <ele>678.1</ele>
        <time>2014-06-08T09:17:53Z</time>
      </trkpt>
      <trkpt lat="43.73692" lon="3.48158">
        <ele>676.8</ele>
        <time>2014-06-08T09:17:55Z</time>
      </trkpt>
      <trkpt lat="43.73681" lon="3.48151">
        <ele>675.3</ele>
        <time>2014-06-08T09:17:57Z</time>
      </trkpt>
      <trkpt lat="43.7367" lon="3.48145">
        <ele>673.3</ele>
        <time>2014-06-08T09:17:59Z</time>
      </trkpt>
      <trkpt lat="43.73659" lon="3.48136">
        <ele>671.8</ele>
        <time>2014-06-08T09:18:01Z</time>
      </trkpt>
      <trkpt lat="43.73649" lon="3.48127">
        <ele>671</ele>
        <time>2014-06-08T09:18:03Z</time>
      </trkpt>
      <trkpt lat="43.73641" lon="3.48119">
        <ele>670.5</ele>
        <time>2014-06-08T09:18:05Z</time>
      </trkpt>
      <trkpt lat="43.73632" lon="3.48113">
        <ele>667.4</ele>
        <time>2014-06-08T09:18:08Z</time>
      </trkpt>
      <trkpt lat="43.73623" lon="3.48112">
        <ele>666.2</ele>
        <time>2014-06-08T09:18:13Z</time>
      </trkpt>
      <trkpt lat="43.73623" lon="3.48129">
        <ele>665.3</ele>
        <time>2014-06-08T09:18:17Z</time>
      </trkpt>
      <trkpt lat="43.73627" lon="3.48143">
        <ele>663.4</ele>
        <time>2014-06-08T09:18:20Z</time>
      </trkpt>
      <trkpt lat="43.7363" lon="3.48159">
        <ele>661.6</ele>
        <time>2014-06-08T09:18:23Z</time>
      </trkpt>
      <trkpt lat="43.73633" lon="3.48171">
        <ele>660.5</ele>
        <time>2014-06-08T09:18:25Z</time>
      </trkpt>
      <trkpt lat="43.73637" lon="3.48183">
        <ele>659.5</ele>
        <time>2014-06-08T09:18:27Z</time>
      </trkpt>
      <trkpt lat="43.73641" lon="3.48197">
        <ele>658.8</ele>
        <time>2014-06-08T09:18:29Z</time>
      </trkpt>
      <trkpt lat="43.73646" lon="3.4821">
        <ele>657.7</ele>
        <time>2014-06-08T09:18:31Z</time>
      </trkpt>
      <trkpt lat="43.73651" lon="3.48224">
        <ele>656.6</ele>
        <time>2014-06-08T09:18:33Z</time>
      </trkpt>
      <trkpt lat="43.73655" lon="3.48237">
        <ele>655.6</ele>
        <time>2014-06-08T09:18:35Z</time>
      </trkpt>
      <trkpt lat="43.7366" lon="3.4825">
        <ele>654.7</ele>
        <time>2014-06-08T09:18:37Z</time>
      </trkpt>
      <trkpt lat="43.73666" lon="3.48262">
        <ele>653.4</ele>
        <time>2014-06-08T09:18:39Z</time>
      </trkpt>
      <trkpt lat="43.73673" lon="3.48272">
        <ele>652.1</ele>
        <time>2014-06-08T09:18:41Z</time>
      </trkpt>
      <trkpt lat="43.7368" lon="3.48281">
        <ele>651.1</ele>
        <time>2014-06-08T09:18:43Z</time>
      </trkpt>
      <trkpt lat="43.73698" lon="3.483">
        <ele>649.5</ele>
        <time>2014-06-08T09:18:47Z</time>
      </trkpt>
      <trkpt lat="43.73707" lon="3.48311">
        <ele>647.9</ele>
        <time>2014-06-08T09:18:49Z</time>
      </trkpt>
      <trkpt lat="43.73714" lon="3.48325">
        <ele>646.4</ele>
        <time>2014-06-08T09:18:51Z</time>
      </trkpt>
      <trkpt lat="43.7372" lon="3.48338">
        <ele>645.5</ele>
        <time>2014-06-08T09:18:53Z</time>
      </trkpt>
      <trkpt lat="43.73726" lon="3.48353">
        <ele>643.8</ele>
        <time>2014-06-08T09:18:56Z</time>
      </trkpt>
      <trkpt lat="43.73732" lon="3.48369">
        <ele>642.4</ele>
        <time>2014-06-08T09:18:59Z</time>
      </trkpt>
      <trkpt lat="43.73736" lon="3.48382">
        <ele>641.3</ele>
        <time>2014-06-08T09:19:01Z</time>
      </trkpt>
      <trkpt lat="43.73741" lon="3.48394">
        <ele>639.8</ele>
        <time>2014-06-08T09:19:03Z</time>
      </trkpt>
      <trkpt lat="43.73746" lon="3.48407">
        <ele>638.6</ele>
        <time>2014-06-08T09:19:05Z</time>
      </trkpt>
      <trkpt lat="43.7375" lon="3.48421">
        <ele>638</ele>
        <time>2014-06-08T09:19:07Z</time>
      </trkpt>
      <trkpt lat="43.73754" lon="3.48433">
        <ele>636.8</ele>
        <time>2014-06-08T09:19:09Z</time>
      </trkpt>
      <trkpt lat="43.73757" lon="3.48445">
        <ele>635.3</ele>
        <time>2014-06-08T09:19:11Z</time>
      </trkpt>
      <trkpt lat="43.7376" lon="3.48459">
        <ele>634.3</ele>
        <time>2014-06-08T09:19:13Z</time>
      </trkpt>
      <trkpt lat="43.73762" lon="3.48473">
        <ele>633.1</ele>
        <time>2014-06-08T09:19:15Z</time>
      </trkpt>
      <trkpt lat="43.73764" lon="3.48489">
        <ele>631.6</ele>
        <time>2014-06-08T09:19:17Z</time>
      </trkpt>
      <trkpt lat="43.73766" lon="3.48503">
        <ele>630.4</ele>
        <time>2014-06-08T09:19:19Z</time>
      </trkpt>
      <trkpt lat="43.73769" lon="3.48515">
        <ele>629.2</ele>
        <time>2014-06-08T09:19:21Z</time>
      </trkpt>
      <trkpt lat="43.73771" lon="3.48528">
        <ele>627.6</ele>
        <time>2014-06-08T09:19:23Z</time>
      </trkpt>
      <trkpt lat="43.73774" lon="3.48546">
        <ele>626.3</ele>
        <time>2014-06-08T09:19:26Z</time>
      </trkpt>
      <trkpt lat="43.73777" lon="3.48558">
        <ele>625</ele>
        <time>2014-06-08T09:19:28Z</time>
      </trkpt>
      <trkpt lat="43.73779" lon="3.48572">
        <ele>623.6</ele>
        <time>2014-06-08T09:19:30Z</time>
      </trkpt>
      <trkpt lat="43.7378" lon="3.48586">
        <ele>622.4</ele>
        <time>2014-06-08T09:19:32Z</time>
      </trkpt>
      <trkpt lat="43.73782" lon="3.48605">
        <ele>621.2</ele>
        <time>2014-06-08T09:19:35Z</time>
      </trkpt>
      <trkpt lat="43.73784" lon="3.48617">
        <ele>619.9</ele>
        <time>2014-06-08T09:19:37Z</time>
      </trkpt>
      <trkpt lat="43.73788" lon="3.4863">
        <ele>618.8</ele>
        <time>2014-06-08T09:19:39Z</time>
      </trkpt>
      <trkpt lat="43.73793" lon="3.48643">
        <ele>617.6</ele>
        <time>2014-06-08T09:19:41Z</time>
      </trkpt>
      <trkpt lat="43.73799" lon="3.48655">
        <ele>616.5</ele>
        <time>2014-06-08T09:19:43Z</time>
      </trkpt>
      <trkpt lat="43.73807" lon="3.48667">
        <ele>615.2</ele>
        <time>2014-06-08T09:19:46Z</time>
      </trkpt>
      <trkpt lat="43.73785" lon="3.48667">
        <ele>610.9</ele>
        <time>2014-06-08T09:19:55Z</time>
      </trkpt>
      <trkpt lat="43.73774" lon="3.48656">
        <ele>609.3</ele>
        <time>2014-06-08T09:19:58Z</time>
      </trkpt>
      <trkpt lat="43.73767" lon="3.48648">
        <ele>608.5</ele>
        <time>2014-06-08T09:20:00Z</time>
      </trkpt>
      <trkpt lat="43.73759" lon="3.48638">
        <ele>607.7</ele>
        <time>2014-06-08T09:20:02Z</time>
      </trkpt>
      <trkpt lat="43.73752" lon="3.48626">
        <ele>606.9</ele>
        <time>2014-06-08T09:20:04Z</time>
      </trkpt>
      <trkpt lat="43.73746" lon="3.48616">
        <ele>606.1</ele>
        <time>2014-06-08T09:20:06Z</time>
      </trkpt>
      <trkpt lat="43.7374" lon="3.48606">
        <ele>604.3</ele>
        <time>2014-06-08T09:20:08Z</time>
      </trkpt>
      <trkpt lat="43.73734" lon="3.48593">
        <ele>602.1</ele>
        <time>2014-06-08T09:20:11Z</time>
      </trkpt>
      <trkpt lat="43.73729" lon="3.48603">
        <ele>600.7</ele>
        <time>2014-06-08T09:20:16Z</time>
      </trkpt>
      <trkpt lat="43.73726" lon="3.48621">
        <ele>598.7</ele>
        <time>2014-06-08T09:20:19Z</time>
      </trkpt>
      <trkpt lat="43.73725" lon="3.4864">
        <ele>596.5</ele>
        <time>2014-06-08T09:20:22Z</time>
      </trkpt>
      <trkpt lat="43.73726" lon="3.48656">
        <ele>595.4</ele>
        <time>2014-06-08T09:20:24Z</time>
      </trkpt>
      <trkpt lat="43.7373" lon="3.48672">
        <ele>594</ele>
        <time>2014-06-08T09:20:26Z</time>
      </trkpt>
      <trkpt lat="43.73736" lon="3.48688">
        <ele>592.8</ele>
        <time>2014-06-08T09:20:28Z</time>
      </trkpt>
      <trkpt lat="43.73743" lon="3.48704">
        <ele>592</ele>
        <time>2014-06-08T09:20:30Z</time>
      </trkpt>
      <trkpt lat="43.73749" lon="3.48715">
        <ele>590.5</ele>
        <time>2014-06-08T09:20:32Z</time>
      </trkpt>
      <trkpt lat="43.73755" lon="3.48726">
        <ele>589</ele>
        <time>2014-06-08T09:20:34Z</time>
      </trkpt>
      <trkpt lat="43.73761" lon="3.48737">
        <ele>587.7</ele>
        <time>2014-06-08T09:20:36Z</time>
      </trkpt>
      <trkpt lat="43.73769" lon="3.48748">
        <ele>586.3</ele>
        <time>2014-06-08T09:20:38Z</time>
      </trkpt>
      <trkpt lat="43.73776" lon="3.48761">
        <ele>584.5</ele>
        <time>2014-06-08T09:20:40Z</time>
      </trkpt>
      <trkpt lat="43.7378" lon="3.48772">
        <ele>582.9</ele>
        <time>2014-06-08T09:20:42Z</time>
      </trkpt>
      <trkpt lat="43.73784" lon="3.48785">
        <ele>582</ele>
        <time>2014-06-08T09:20:44Z</time>
      </trkpt>
      <trkpt lat="43.73788" lon="3.48798">
        <ele>581.1</ele>
        <time>2014-06-08T09:20:46Z</time>
      </trkpt>
      <trkpt lat="43.73788" lon="3.48815">
        <ele>579.7</ele>
        <time>2014-06-08T09:20:49Z</time>
      </trkpt>
      <trkpt lat="43.73772" lon="3.48834">
        <ele>576.8</ele>
        <time>2014-06-08T09:20:53Z</time>
      </trkpt>
      <trkpt lat="43.73762" lon="3.48845">
        <ele>575.9</ele>
        <time>2014-06-08T09:20:55Z</time>
      </trkpt>
      <trkpt lat="43.73751" lon="3.48857">
        <ele>574.2</ele>
        <time>2014-06-08T09:20:57Z</time>
      </trkpt>
      <trkpt lat="43.7374" lon="3.48871">
        <ele>571.8</ele>
        <time>2014-06-08T09:20:59Z</time>
      </trkpt>
      <trkpt lat="43.73731" lon="3.48883">
        <ele>569.8</ele>
        <time>2014-06-08T09:21:01Z</time>
      </trkpt>
      <trkpt lat="43.73722" lon="3.48896">
        <ele>568.2</ele>
        <time>2014-06-08T09:21:03Z</time>
      </trkpt>
      <trkpt lat="43.73714" lon="3.48908">
        <ele>566.4</ele>
        <time>2014-06-08T09:21:05Z</time>
      </trkpt>
      <trkpt lat="43.73707" lon="3.4892">
        <ele>564.8</ele>
        <time>2014-06-08T09:21:07Z</time>
      </trkpt>
      <trkpt lat="43.73704" lon="3.48932">
        <ele>563.1</ele>
        <time>2014-06-08T09:21:09Z</time>
      </trkpt>
      <trkpt lat="43.73702" lon="3.48948">
        <ele>561</ele>
        <time>2014-06-08T09:21:11Z</time>
      </trkpt>
      <trkpt lat="43.73701" lon="3.48964">
        <ele>559.4</ele>
        <time>2014-06-08T09:21:13Z</time>
      </trkpt>
      <trkpt lat="43.737" lon="3.48978">
        <ele>558.7</ele>
        <time>2014-06-08T09:21:15Z</time>
      </trkpt>
      <trkpt lat="43.73701" lon="3.48992">
        <ele>557.1</ele>
        <time>2014-06-08T09:21:17Z</time>
      </trkpt>
      <trkpt lat="43.73702" lon="3.49006">
        <ele>555.3</ele>
        <time>2014-06-08T09:21:19Z</time>
      </trkpt>
      <trkpt lat="43.73704" lon="3.49021">
        <ele>554.1</ele>
        <time>2014-06-08T09:21:21Z</time>
      </trkpt>
      <trkpt lat="43.73706" lon="3.49037">
        <ele>552.7</ele>
        <time>2014-06-08T09:21:23Z</time>
      </trkpt>
      <trkpt lat="43.73708" lon="3.49051">
        <ele>551.3</ele>
        <time>2014-06-08T09:21:25Z</time>
      </trkpt>
      <trkpt lat="43.73711" lon="3.49067">
        <ele>549.3</ele>
        <time>2014-06-08T09:21:28Z</time>
      </trkpt>
      <trkpt lat="43.737" lon="3.49062">
        <ele>545.3</ele>
        <time>2014-06-08T09:21:34Z</time>
      </trkpt>
      <trkpt lat="43.73693" lon="3.49052">
        <ele>544.8</ele>
        <time>2014-06-08T09:21:36Z</time>
      </trkpt>
      <trkpt lat="43.73686" lon="3.4904">
        <ele>543.3</ele>
        <time>2014-06-08T09:21:38Z</time>
      </trkpt>
      <trkpt lat="43.73678" lon="3.49027">
        <ele>542.4</ele>
        <time>2014-06-08T09:21:40Z</time>
      </trkpt>
      <trkpt lat="43.7367" lon="3.49013">
        <ele>541.7</ele>
        <time>2014-06-08T09:21:42Z</time>
      </trkpt>
      <trkpt lat="43.73664" lon="3.49002">
        <ele>540.8</ele>
        <time>2014-06-08T09:21:44Z</time>
      </trkpt>
      <trkpt lat="43.73658" lon="3.48992">
        <ele>540</ele>
        <time>2014-06-08T09:21:46Z</time>
      </trkpt>
      <trkpt lat="43.73654" lon="3.4898">
        <ele>539.3</ele>
        <time>2014-06-08T09:21:48Z</time>
      </trkpt>
      <trkpt lat="43.73649" lon="3.48967">
        <ele>538</ele>
        <time>2014-06-08T09:21:50Z</time>
      </trkpt>
      <trkpt lat="43.73637" lon="3.48968">
        <ele>533.9</ele>
        <time>2014-06-08T09:21:58Z</time>
      </trkpt>
      <trkpt lat="43.73635" lon="3.48983">
        <ele>532.4</ele>
        <time>2014-06-08T09:22:01Z</time>
      </trkpt>
      <trkpt lat="43.73634" lon="3.48999">
        <ele>529.8</ele>
        <time>2014-06-08T09:22:04Z</time>
      </trkpt>
      <trkpt lat="43.73632" lon="3.49016">
        <ele>527.9</ele>
        <time>2014-06-08T09:22:07Z</time>
      </trkpt>
      <trkpt lat="43.73634" lon="3.49033">
        <ele>526.3</ele>
        <time>2014-06-08T09:22:10Z</time>
      </trkpt>
      <trkpt lat="43.73636" lon="3.49045">
        <ele>524.2</ele>
        <time>2014-06-08T09:22:12Z</time>
      </trkpt>
      <trkpt lat="43.73639" lon="3.49059">
        <ele>521.7</ele>
        <time>2014-06-08T09:22:14Z</time>
      </trkpt>
      <trkpt lat="43.73645" lon="3.49071">
        <ele>518.6</ele>
        <time>2014-06-08T09:22:16Z</time>
      </trkpt>
      <trkpt lat="43.7365" lon="3.49082">
        <ele>516.6</ele>
        <time>2014-06-08T09:22:18Z</time>
      </trkpt>
      <trkpt lat="43.73653" lon="3.49098">
        <ele>514.4</ele>
        <time>2014-06-08T09:22:21Z</time>
      </trkpt>
      <trkpt lat="43.73655" lon="3.49117">
        <ele>511.9</ele>
        <time>2014-06-08T09:22:24Z</time>
      </trkpt>
      <trkpt lat="43.73658" lon="3.49132">
        <ele>510.8</ele>
        <time>2014-06-08T09:22:26Z</time>
      </trkpt>
      <trkpt lat="43.7366" lon="3.49148">
        <ele>508.5</ele>
        <time>2014-06-08T09:22:28Z</time>
      </trkpt>
      <trkpt lat="43.73664" lon="3.49165">
        <ele>507</ele>
        <time>2014-06-08T09:22:30Z</time>
      </trkpt>
      <trkpt lat="43.73668" lon="3.49181">
        <ele>505.3</ele>
        <time>2014-06-08T09:22:32Z</time>
      </trkpt>
      <trkpt lat="43.73672" lon="3.49196">
        <ele>503.6</ele>
        <time>2014-06-08T09:22:34Z</time>
      </trkpt>
      <trkpt lat="43.73675" lon="3.49212">
        <ele>502.5</ele>
        <time>2014-06-08T09:22:36Z</time>
      </trkpt>
      <trkpt lat="43.73679" lon="3.49228">
        <ele>500.8</ele>
        <time>2014-06-08T09:22:38Z</time>
      </trkpt>
      <trkpt lat="43.73682" lon="3.49242">
        <ele>499.4</ele>
        <time>2014-06-08T09:22:40Z</time>
      </trkpt>
      <trkpt lat="43.73685" lon="3.49256">
        <ele>497.2</ele>
        <time>2014-06-08T09:22:42Z</time>
      </trkpt>
      <trkpt lat="43.73689" lon="3.49271">
        <ele>495.7</ele>
        <time>2014-06-08T09:22:44Z</time>
      </trkpt>
      <trkpt lat="43.73693" lon="3.49285">
        <ele>494.3</ele>
        <time>2014-06-08T09:22:46Z</time>
      </trkpt>
      <trkpt lat="43.73699" lon="3.49299">
        <ele>493.3</ele>
        <time>2014-06-08T09:22:48Z</time>
      </trkpt>
      <trkpt lat="43.73707" lon="3.49312">
        <ele>492.5</ele>
        <time>2014-06-08T09:22:50Z</time>
      </trkpt>
      <trkpt lat="43.73715" lon="3.49324">
        <ele>491.3</ele>
        <time>2014-06-08T09:22:52Z</time>
      </trkpt>
      <trkpt lat="43.7373" lon="3.49352">
        <ele>488.3</ele>
        <time>2014-06-08T09:22:56Z</time>
      </trkpt>
      <trkpt lat="43.73739" lon="3.49366">
        <ele>487.4</ele>
        <time>2014-06-08T09:22:58Z</time>
      </trkpt>
      <trkpt lat="43.73747" lon="3.49377">
        <ele>485.6</ele>
        <time>2014-06-08T09:23:01Z</time>
      </trkpt>
      <trkpt lat="43.73738" lon="3.49379">
        <ele>483.5</ele>
        <time>2014-06-08T09:23:06Z</time>
      </trkpt>
      <trkpt lat="43.73727" lon="3.49374">
        <ele>482.4</ele>
        <time>2014-06-08T09:23:08Z</time>
      </trkpt>
      <trkpt lat="43.73716" lon="3.49368">
        <ele>480.6</ele>
        <time>2014-06-08T09:23:10Z</time>
      </trkpt>
      <trkpt lat="43.73705" lon="3.49363">
        <ele>478.7</ele>
        <time>2014-06-08T09:23:12Z</time>
      </trkpt>
      <trkpt lat="43.73693" lon="3.49359">
        <ele>477.2</ele>
        <time>2014-06-08T09:23:14Z</time>
      </trkpt>
      <trkpt lat="43.73682" lon="3.49354">
        <ele>475.8</ele>
        <time>2014-06-08T09:23:16Z</time>
      </trkpt>
      <trkpt lat="43.73675" lon="3.49345">
        <ele>474</ele>
        <time>2014-06-08T09:23:18Z</time>
      </trkpt>
      <trkpt lat="43.73669" lon="3.49334">
        <ele>472.8</ele>
        <time>2014-06-08T09:23:20Z</time>
      </trkpt>
      <trkpt lat="43.73664" lon="3.49323">
        <ele>471.8</ele>
        <time>2014-06-08T09:23:22Z</time>
      </trkpt>
      <trkpt lat="43.73658" lon="3.49311">
        <ele>470.5</ele>
        <time>2014-06-08T09:23:25Z</time>
      </trkpt>
      <trkpt lat="43.73652" lon="3.49297">
        <ele>469.2</ele>
        <time>2014-06-08T09:23:28Z</time>
      </trkpt>
      <trkpt lat="43.73644" lon="3.49287">
        <ele>467.9</ele>
        <time>2014-06-08T09:23:31Z</time>
      </trkpt>
      <trkpt lat="43.73637" lon="3.49279">
        <ele>467</ele>
        <time>2014-06-08T09:23:33Z</time>
      </trkpt>
      <trkpt lat="43.73629" lon="3.49271">
        <ele>466.7</ele>
        <time>2014-06-08T09:23:35Z</time>
      </trkpt>
      <trkpt lat="43.73619" lon="3.49259">
        <ele>465.2</ele>
        <time>2014-06-08T09:23:38Z</time>
      </trkpt>
      <trkpt lat="43.73612" lon="3.4925">
        <ele>464.9</ele>
        <time>2014-06-08T09:23:40Z</time>
      </trkpt>
      <trkpt lat="43.73604" lon="3.49242">
        <ele>464</ele>
        <time>2014-06-08T09:23:42Z</time>
      </trkpt>
      <trkpt lat="43.73596" lon="3.49232">
        <ele>462.8</ele>
        <time>2014-06-08T09:23:44Z</time>
      </trkpt>
      <trkpt lat="43.73587" lon="3.49219">
        <ele>461.6</ele>
        <time>2014-06-08T09:23:46Z</time>
      </trkpt>
      <trkpt lat="43.73579" lon="3.49205">
        <ele>460</ele>
        <time>2014-06-08T09:23:48Z</time>
      </trkpt>
      <trkpt lat="43.7357" lon="3.49191">
        <ele>458.4</ele>
        <time>2014-06-08T09:23:50Z</time>
      </trkpt>
      <trkpt lat="43.73559" lon="3.4918">
        <ele>457.3</ele>
        <time>2014-06-08T09:23:52Z</time>
      </trkpt>
      <trkpt lat="43.73548" lon="3.49166">
        <ele>455.7</ele>
        <time>2014-06-08T09:23:54Z</time>
      </trkpt>
      <trkpt lat="43.73527" lon="3.49138">
        <ele>452.7</ele>
        <time>2014-06-08T09:23:58Z</time>
      </trkpt>
      <trkpt lat="43.73519" lon="3.49128">
        <ele>451.5</ele>
        <time>2014-06-08T09:24:00Z</time>
      </trkpt>
      <trkpt lat="43.73511" lon="3.49118">
        <ele>450.4</ele>
        <time>2014-06-08T09:24:02Z</time>
      </trkpt>
      <trkpt lat="43.73503" lon="3.49107">
        <ele>449.8</ele>
        <time>2014-06-08T09:24:04Z</time>
      </trkpt>
      <trkpt lat="43.73496" lon="3.49096">
        <ele>449.2</ele>
        <time>2014-06-08T09:24:06Z</time>
      </trkpt>
      <trkpt lat="43.73491" lon="3.49084">
        <ele>445.8</ele>
        <time>2014-06-08T09:24:10Z</time>
      </trkpt>
      <trkpt lat="43.73484" lon="3.49072">
        <ele>444.4</ele>
        <time>2014-06-08T09:24:13Z</time>
      </trkpt>
      <trkpt lat="43.73479" lon="3.4906">
        <ele>443.3</ele>
        <time>2014-06-08T09:24:16Z</time>
      </trkpt>
      <trkpt lat="43.73472" lon="3.49044">
        <ele>443.1</ele>
        <time>2014-06-08T09:24:19Z</time>
      </trkpt>
      <trkpt lat="43.73467" lon="3.49033">
        <ele>442.5</ele>
        <time>2014-06-08T09:24:21Z</time>
      </trkpt>
      <trkpt lat="43.73462" lon="3.4902">
        <ele>441.9</ele>
        <time>2014-06-08T09:24:23Z</time>
      </trkpt>
      <trkpt lat="43.73457" lon="3.49007">
        <ele>441.6</ele>
        <time>2014-06-08T09:24:25Z</time>
      </trkpt>
      <trkpt lat="43.73449" lon="3.48996">
        <ele>440.1</ele>
        <time>2014-06-08T09:24:29Z</time>
      </trkpt>
      <trkpt lat="43.73439" lon="3.49002">
        <ele>437.5</ele>
        <time>2014-06-08T09:24:33Z</time>
      </trkpt>
      <trkpt lat="43.73439" lon="3.49015">
        <ele>436.1</ele>
        <time>2014-06-08T09:24:35Z</time>
      </trkpt>
      <trkpt lat="43.7344" lon="3.4903">
        <ele>435.1</ele>
        <time>2014-06-08T09:24:37Z</time>
      </trkpt>
      <trkpt lat="43.73441" lon="3.49048">
        <ele>433.7</ele>
        <time>2014-06-08T09:24:39Z</time>
      </trkpt>
      <trkpt lat="43.73445" lon="3.49067">
        <ele>432.5</ele>
        <time>2014-06-08T09:24:41Z</time>
      </trkpt>
      <trkpt lat="43.73452" lon="3.49084">
        <ele>430.7</ele>
        <time>2014-06-08T09:24:43Z</time>
      </trkpt>
      <trkpt lat="43.73459" lon="3.49101">
        <ele>429.5</ele>
        <time>2014-06-08T09:24:45Z</time>
      </trkpt>
      <trkpt lat="43.73464" lon="3.49119">
        <ele>428.3</ele>
        <time>2014-06-08T09:24:47Z</time>
      </trkpt>
      <trkpt lat="43.73469" lon="3.49139">
        <ele>427.2</ele>
        <time>2014-06-08T09:24:49Z</time>
      </trkpt>
      <trkpt lat="43.73475" lon="3.49159">
        <ele>426.1</ele>
        <time>2014-06-08T09:24:51Z</time>
      </trkpt>
      <trkpt lat="43.73481" lon="3.49177">
        <ele>425.3</ele>
        <time>2014-06-08T09:24:53Z</time>
      </trkpt>
      <trkpt lat="43.73487" lon="3.49194">
        <ele>424.4</ele>
        <time>2014-06-08T09:24:55Z</time>
      </trkpt>
      <trkpt lat="43.73491" lon="3.49224">
        <ele>422</ele>
        <time>2014-06-08T09:25:00Z</time>
      </trkpt>
      <trkpt lat="43.73482" lon="3.49222">
        <ele>419.7</ele>
        <time>2014-06-08T09:25:07Z</time>
      </trkpt>
      <trkpt lat="43.73473" lon="3.49208">
        <ele>418.9</ele>
        <time>2014-06-08T09:25:10Z</time>
      </trkpt>
      <trkpt lat="43.73466" lon="3.49197">
        <ele>418</ele>
        <time>2014-06-08T09:25:12Z</time>
      </trkpt>
      <trkpt lat="43.7346" lon="3.49186">
        <ele>417</ele>
        <time>2014-06-08T09:25:15Z</time>
      </trkpt>
      <trkpt lat="43.73453" lon="3.49173">
        <ele>416.9</ele>
        <time>2014-06-08T09:25:18Z</time>
      </trkpt>
      <trkpt lat="43.73443" lon="3.4916">
        <ele>416.1</ele>
        <time>2014-06-08T09:25:21Z</time>
      </trkpt>
      <trkpt lat="43.73436" lon="3.4915">
        <ele>415.2</ele>
        <time>2014-06-08T09:25:23Z</time>
      </trkpt>
      <trkpt lat="43.73429" lon="3.49142">
        <ele>413.7</ele>
        <time>2014-06-08T09:25:25Z</time>
      </trkpt>
      <trkpt lat="43.73419" lon="3.49136">
        <ele>412.4</ele>
        <time>2014-06-08T09:25:27Z</time>
      </trkpt>
      <trkpt lat="43.73408" lon="3.49128">
        <ele>411.5</ele>
        <time>2014-06-08T09:25:29Z</time>
      </trkpt>
      <trkpt lat="43.73396" lon="3.49121">
        <ele>410.6</ele>
        <time>2014-06-08T09:25:31Z</time>
      </trkpt>
      <trkpt lat="43.73384" lon="3.49112">
        <ele>409.5</ele>
        <time>2014-06-08T09:25:33Z</time>
      </trkpt>
      <trkpt lat="43.73371" lon="3.49103">
        <ele>408.3</ele>
        <time>2014-06-08T09:25:35Z</time>
      </trkpt>
      <trkpt lat="43.73359" lon="3.49097">
        <ele>406.8</ele>
        <time>2014-06-08T09:25:37Z</time>
      </trkpt>
      <trkpt lat="43.73348" lon="3.49092">
        <ele>405.8</ele>
        <time>2014-06-08T09:25:39Z</time>
      </trkpt>
      <trkpt lat="43.73339" lon="3.49085">
        <ele>405.5</ele>
        <time>2014-06-08T09:25:41Z</time>
      </trkpt>
      <trkpt lat="43.73329" lon="3.49074">
        <ele>404.6</ele>
        <time>2014-06-08T09:25:43Z</time>
      </trkpt>
      <trkpt lat="43.73317" lon="3.4906">
        <ele>402.9</ele>
        <time>2014-06-08T09:25:45Z</time>
      </trkpt>
      <trkpt lat="43.73304" lon="3.49044">
        <ele>401.2</ele>
        <time>2014-06-08T09:25:47Z</time>
      </trkpt>
      <trkpt lat="43.73297" lon="3.49034">
        <ele>400.3</ele>
        <time>2014-06-08T09:25:48Z</time>
      </trkpt>
      <trkpt lat="43.73291" lon="3.49025">
        <ele>399.4</ele>
        <time>2014-06-08T09:25:49Z</time>
      </trkpt>
      <trkpt lat="43.73279" lon="3.49008">
        <ele>397.9</ele>
        <time>2014-06-08T09:25:51Z</time>
      </trkpt>
      <trkpt lat="43.73271" lon="3.48995">
        <ele>396.7</ele>
        <time>2014-06-08T09:25:53Z</time>
      </trkpt>
      <trkpt lat="43.7326" lon="3.49">
        <ele>394.3</ele>
        <time>2014-06-08T09:25:56Z</time>
      </trkpt>
      <trkpt lat="43.73261" lon="3.49032">
        <ele>392.2</ele>
        <time>2014-06-08T09:26:00Z</time>
      </trkpt>
      <trkpt lat="43.73263" lon="3.49051">
        <ele>390.7</ele>
        <time>2014-06-08T09:26:02Z</time>
      </trkpt>
      <trkpt lat="43.73265" lon="3.49072">
        <ele>389.7</ele>
        <time>2014-06-08T09:26:04Z</time>
      </trkpt>
      <trkpt lat="43.73268" lon="3.49092">
        <ele>389.1</ele>
        <time>2014-06-08T09:26:06Z</time>
      </trkpt>
      <trkpt lat="43.73271" lon="3.49112">
        <ele>388.6</ele>
        <time>2014-06-08T09:26:08Z</time>
      </trkpt>
      <trkpt lat="43.73277" lon="3.4913">
        <ele>388.2</ele>
        <time>2014-06-08T09:26:10Z</time>
      </trkpt>
      <trkpt lat="43.73284" lon="3.49149">
        <ele>387.9</ele>
        <time>2014-06-08T09:26:12Z</time>
      </trkpt>
      <trkpt lat="43.73289" lon="3.4917">
        <ele>387</ele>
        <time>2014-06-08T09:26:14Z</time>
      </trkpt>
      <trkpt lat="43.7329" lon="3.49192">
        <ele>386</ele>
        <time>2014-06-08T09:26:16Z</time>
      </trkpt>
      <trkpt lat="43.73289" lon="3.49214">
        <ele>384.7</ele>
        <time>2014-06-08T09:26:18Z</time>
      </trkpt>
      <trkpt lat="43.73283" lon="3.49233">
        <ele>383.8</ele>
        <time>2014-06-08T09:26:20Z</time>
      </trkpt>
      <trkpt lat="43.73273" lon="3.49243">
        <ele>382.9</ele>
        <time>2014-06-08T09:26:22Z</time>
      </trkpt>
      <trkpt lat="43.73262" lon="3.49251">
        <ele>382.3</ele>
        <time>2014-06-08T09:26:24Z</time>
      </trkpt>
      <trkpt lat="43.73255" lon="3.4926">
        <ele>384.1</ele>
        <time>2014-06-08T09:26:32Z</time>
      </trkpt>
      <trkpt lat="43.73248" lon="3.49268">
        <ele>385.3</ele>
        <time>2014-06-08T09:26:39Z</time>
      </trkpt>
      <trkpt lat="43.73239" lon="3.49275">
        <ele>386.5</ele>
        <time>2014-06-08T09:26:46Z</time>
      </trkpt>
      <trkpt lat="43.7323" lon="3.49279">
        <ele>388.7</ele>
        <time>2014-06-08T09:26:56Z</time>
      </trkpt>
      <trkpt lat="43.73221" lon="3.49281">
        <ele>390.6</ele>
        <time>2014-06-08T09:27:07Z</time>
      </trkpt>
      <trkpt lat="43.73203" lon="3.49276">
        <ele>396.2</ele>
        <time>2014-06-08T09:27:39Z</time>
      </trkpt>
      <trkpt lat="43.73194" lon="3.49271">
        <ele>396.8</ele>
        <time>2014-06-08T09:27:51Z</time>
      </trkpt>
      <trkpt lat="43.73186" lon="3.49264">
        <ele>397.6</ele>
        <time>2014-06-08T09:27:56Z</time>
      </trkpt>
      <trkpt lat="43.73177" lon="3.49264">
        <ele>398.3</ele>
        <time>2014-06-08T09:28:04Z</time>
      </trkpt>
      <trkpt lat="43.73171" lon="3.49273">
        <ele>400</ele>
        <time>2014-06-08T09:28:16Z</time>
      </trkpt>
      <trkpt lat="43.73158" lon="3.49287">
        <ele>406.2</ele>
        <time>2014-06-08T09:28:48Z</time>
      </trkpt>
      <trkpt lat="43.73149" lon="3.49286">
        <ele>408.1</ele>
        <time>2014-06-08T09:28:58Z</time>
      </trkpt>
      <trkpt lat="43.73139" lon="3.49281">
        <ele>408.4</ele>
        <time>2014-06-08T09:29:07Z</time>
      </trkpt>
      <trkpt lat="43.73132" lon="3.49272">
        <ele>408.4</ele>
        <time>2014-06-08T09:29:15Z</time>
      </trkpt>
      <trkpt lat="43.73122" lon="3.49271">
        <ele>409.5</ele>
        <time>2014-06-08T09:29:23Z</time>
      </trkpt>
      <trkpt lat="43.73112" lon="3.49292">
        <ele>412.8</ele>
        <time>2014-06-08T09:29:42Z</time>
      </trkpt>
      <trkpt lat="43.73103" lon="3.49295">
        <ele>415</ele>
        <time>2014-06-08T09:29:54Z</time>
      </trkpt>
      <trkpt lat="43.73093" lon="3.493">
        <ele>415.3</ele>
        <time>2014-06-08T09:30:04Z</time>
      </trkpt>
      <trkpt lat="43.73083" lon="3.49303">
        <ele>414.9</ele>
        <time>2014-06-08T09:30:12Z</time>
      </trkpt>
      <trkpt lat="43.73076" lon="3.49311">
        <ele>415.1</ele>
        <time>2014-06-08T09:30:19Z</time>
      </trkpt>
      <trkpt lat="43.7308" lon="3.49322">
        <ele>415.7</ele>
        <time>2014-06-08T09:30:33Z</time>
      </trkpt>
      <trkpt lat="43.73099" lon="3.49313">
        <ele>417.1</ele>
        <time>2014-06-08T09:30:46Z</time>
      </trkpt>
      <trkpt lat="43.73108" lon="3.49314">
        <ele>417.7</ele>
        <time>2014-06-08T09:30:50Z</time>
      </trkpt>
      <trkpt lat="43.73115" lon="3.49322">
        <ele>418.5</ele>
        <time>2014-06-08T09:30:54Z</time>
      </trkpt>
      <trkpt lat="43.73123" lon="3.4933">
        <ele>419.2</ele>
        <time>2014-06-08T09:30:58Z</time>
      </trkpt>
      <trkpt lat="43.73133" lon="3.49335">
        <ele>419.6</ele>
        <time>2014-06-08T09:31:02Z</time>
      </trkpt>
      <trkpt lat="43.73144" lon="3.49337">
        <ele>420.4</ele>
        <time>2014-06-08T09:31:06Z</time>
      </trkpt>
      <trkpt lat="43.73154" lon="3.49342">
        <ele>419.8</ele>
        <time>2014-06-08T09:31:10Z</time>
      </trkpt>
      <trkpt lat="43.73163" lon="3.49347">
        <ele>420</ele>
        <time>2014-06-08T09:31:14Z</time>
      </trkpt>
      <trkpt lat="43.73172" lon="3.49351">
        <ele>420.3</ele>
        <time>2014-06-08T09:31:18Z</time>
      </trkpt>
      <trkpt lat="43.73182" lon="3.49357">
        <ele>421.3</ele>
        <time>2014-06-08T09:31:23Z</time>
      </trkpt>
      <trkpt lat="43.73192" lon="3.49362">
        <ele>421.9</ele>
        <time>2014-06-08T09:31:28Z</time>
      </trkpt>
      <trkpt lat="43.732" lon="3.49368">
        <ele>423</ele>
        <time>2014-06-08T09:31:33Z</time>
      </trkpt>
      <trkpt lat="43.73209" lon="3.49373">
        <ele>423.3</ele>
        <time>2014-06-08T09:31:38Z</time>
      </trkpt>
      <trkpt lat="43.73226" lon="3.49386">
        <ele>426.3</ele>
        <time>2014-06-08T09:31:48Z</time>
      </trkpt>
      <trkpt lat="43.73234" lon="3.49393">
        <ele>426.5</ele>
        <time>2014-06-08T09:31:53Z</time>
      </trkpt>
      <trkpt lat="43.73243" lon="3.49399">
        <ele>427.6</ele>
        <time>2014-06-08T09:31:58Z</time>
      </trkpt>
      <trkpt lat="43.73252" lon="3.49405">
        <ele>428.5</ele>
        <time>2014-06-08T09:32:03Z</time>
      </trkpt>
      <trkpt lat="43.73262" lon="3.4941">
        <ele>428.6</ele>
        <time>2014-06-08T09:32:08Z</time>
      </trkpt>
      <trkpt lat="43.73271" lon="3.49412">
        <ele>430.1</ele>
        <time>2014-06-08T09:32:13Z</time>
      </trkpt>
      <trkpt lat="43.73281" lon="3.49416">
        <ele>430.7</ele>
        <time>2014-06-08T09:32:18Z</time>
      </trkpt>
      <trkpt lat="43.7329" lon="3.49422">
        <ele>431.6</ele>
        <time>2014-06-08T09:32:23Z</time>
      </trkpt>
      <trkpt lat="43.73299" lon="3.49428">
        <ele>431.9</ele>
        <time>2014-06-08T09:32:28Z</time>
      </trkpt>
      <trkpt lat="43.73308" lon="3.49435">
        <ele>432.6</ele>
        <time>2014-06-08T09:32:33Z</time>
      </trkpt>
      <trkpt lat="43.73316" lon="3.49443">
        <ele>433</ele>
        <time>2014-06-08T09:32:38Z</time>
      </trkpt>
      <trkpt lat="43.73324" lon="3.49454">
        <ele>433.2</ele>
        <time>2014-06-08T09:32:43Z</time>
      </trkpt>
      <trkpt lat="43.73338" lon="3.49476">
        <ele>434.2</ele>
        <time>2014-06-08T09:32:53Z</time>
      </trkpt>
      <trkpt lat="43.73344" lon="3.49488">
        <ele>435</ele>
        <time>2014-06-08T09:32:58Z</time>
      </trkpt>
      <trkpt lat="43.7335" lon="3.495">
        <ele>436.3</ele>
        <time>2014-06-08T09:33:03Z</time>
      </trkpt>
      <trkpt lat="43.73355" lon="3.49513">
        <ele>436.4</ele>
        <time>2014-06-08T09:33:08Z</time>
      </trkpt>
      <trkpt lat="43.73362" lon="3.49524">
        <ele>436.7</ele>
        <time>2014-06-08T09:33:12Z</time>
      </trkpt>
      <trkpt lat="43.7337" lon="3.49533">
        <ele>437.9</ele>
        <time>2014-06-08T09:33:17Z</time>
      </trkpt>
      <trkpt lat="43.73378" lon="3.4954">
        <ele>438.5</ele>
        <time>2014-06-08T09:33:21Z</time>
      </trkpt>
      <trkpt lat="43.73386" lon="3.49546">
        <ele>438.2</ele>
        <time>2014-06-08T09:33:25Z</time>
      </trkpt>
      <trkpt lat="43.73394" lon="3.49551">
        <ele>439.1</ele>
        <time>2014-06-08T09:33:29Z</time>
      </trkpt>
      <trkpt lat="43.73404" lon="3.49555">
        <ele>439.9</ele>
        <time>2014-06-08T09:33:34Z</time>
      </trkpt>
      <trkpt lat="43.73414" lon="3.4956">
        <ele>439.9</ele>
        <time>2014-06-08T09:33:39Z</time>
      </trkpt>
      <trkpt lat="43.73423" lon="3.49566">
        <ele>440.6</ele>
        <time>2014-06-08T09:33:44Z</time>
      </trkpt>
      <trkpt lat="43.73443" lon="3.49579">
        <ele>441.9</ele>
        <time>2014-06-08T09:33:54Z</time>
      </trkpt>
      <trkpt lat="43.73453" lon="3.49585">
        <ele>442</ele>
        <time>2014-06-08T09:33:59Z</time>
      </trkpt>
      <trkpt lat="43.73463" lon="3.49588">
        <ele>443</ele>
        <time>2014-06-08T09:34:04Z</time>
      </trkpt>
      <trkpt lat="43.73473" lon="3.49592">
        <ele>443.5</ele>
        <time>2014-06-08T09:34:09Z</time>
      </trkpt>
      <trkpt lat="43.73481" lon="3.49595">
        <ele>444.5</ele>
        <time>2014-06-08T09:34:13Z</time>
      </trkpt>
      <trkpt lat="43.73491" lon="3.49601">
        <ele>445.1</ele>
        <time>2014-06-08T09:34:18Z</time>
      </trkpt>
      <trkpt lat="43.73499" lon="3.49606">
        <ele>445.7</ele>
        <time>2014-06-08T09:34:23Z</time>
      </trkpt>
      <trkpt lat="43.73507" lon="3.49614">
        <ele>445.2</ele>
        <time>2014-06-08T09:34:28Z</time>
      </trkpt>
      <trkpt lat="43.73515" lon="3.49623">
        <ele>446.5</ele>
        <time>2014-06-08T09:34:34Z</time>
      </trkpt>
      <trkpt lat="43.73523" lon="3.49633">
        <ele>446.5</ele>
        <time>2014-06-08T09:34:40Z</time>
      </trkpt>
      <trkpt lat="43.7353" lon="3.49643">
        <ele>447.6</ele>
        <time>2014-06-08T09:34:45Z</time>
      </trkpt>
      <trkpt lat="43.73546" lon="3.49662">
        <ele>448.4</ele>
        <time>2014-06-08T09:34:55Z</time>
      </trkpt>
      <trkpt lat="43.73555" lon="3.4967">
        <ele>449.6</ele>
        <time>2014-06-08T09:35:00Z</time>
      </trkpt>
      <trkpt lat="43.73562" lon="3.49677">
        <ele>450.2</ele>
        <time>2014-06-08T09:35:04Z</time>
      </trkpt>
      <trkpt lat="43.73571" lon="3.49684">
        <ele>450.2</ele>
        <time>2014-06-08T09:35:08Z</time>
      </trkpt>
      <trkpt lat="43.7358" lon="3.4969">
        <ele>451.6</ele>
        <time>2014-06-08T09:35:13Z</time>
      </trkpt>
      <trkpt lat="43.73589" lon="3.49695">
        <ele>451.4</ele>
        <time>2014-06-08T09:35:17Z</time>
      </trkpt>
      <trkpt lat="43.73598" lon="3.49697">
        <ele>451.7</ele>
        <time>2014-06-08T09:35:21Z</time>
      </trkpt>
      <trkpt lat="43.73609" lon="3.49697">
        <ele>452.4</ele>
        <time>2014-06-08T09:35:26Z</time>
      </trkpt>
      <trkpt lat="43.73619" lon="3.49697">
        <ele>453.1</ele>
        <time>2014-06-08T09:35:30Z</time>
      </trkpt>
      <trkpt lat="43.73628" lon="3.49693">
        <ele>453.3</ele>
        <time>2014-06-08T09:35:34Z</time>
      </trkpt>
      <trkpt lat="43.73637" lon="3.49685">
        <ele>453.1</ele>
        <time>2014-06-08T09:35:38Z</time>
      </trkpt>
      <trkpt lat="43.73646" lon="3.49675">
        <ele>453.8</ele>
        <time>2014-06-08T09:35:42Z</time>
      </trkpt>
      <trkpt lat="43.73657" lon="3.49673">
        <ele>454.1</ele>
        <time>2014-06-08T09:35:46Z</time>
      </trkpt>
      <trkpt lat="43.73676" lon="3.49683">
        <ele>455.5</ele>
        <time>2014-06-08T09:35:54Z</time>
      </trkpt>
      <trkpt lat="43.73685" lon="3.49692">
        <ele>455.1</ele>
        <time>2014-06-08T09:35:58Z</time>
      </trkpt>
      <trkpt lat="43.73693" lon="3.49701">
        <ele>456.1</ele>
        <time>2014-06-08T09:36:02Z</time>
      </trkpt>
      <trkpt lat="43.737" lon="3.4971">
        <ele>456.9</ele>
        <time>2014-06-08T09:36:06Z</time>
      </trkpt>
      <trkpt lat="43.73707" lon="3.49721">
        <ele>457.1</ele>
        <time>2014-06-08T09:36:10Z</time>
      </trkpt>
      <trkpt lat="43.73714" lon="3.4973">
        <ele>457.5</ele>
        <time>2014-06-08T09:36:14Z</time>
      </trkpt>
      <trkpt lat="43.73721" lon="3.4974">
        <ele>458.1</ele>
        <time>2014-06-08T09:36:18Z</time>
      </trkpt>
      <trkpt lat="43.73731" lon="3.49749">
        <ele>458.3</ele>
        <time>2014-06-08T09:36:22Z</time>
      </trkpt>
      <trkpt lat="43.73739" lon="3.49758">
        <ele>459.2</ele>
        <time>2014-06-08T09:36:26Z</time>
      </trkpt>
      <trkpt lat="43.73746" lon="3.49768">
        <ele>459.9</ele>
        <time>2014-06-08T09:36:30Z</time>
      </trkpt>
      <trkpt lat="43.73753" lon="3.4978">
        <ele>460.2</ele>
        <time>2014-06-08T09:36:35Z</time>
      </trkpt>
      <trkpt lat="43.73759" lon="3.49792">
        <ele>460.6</ele>
        <time>2014-06-08T09:36:40Z</time>
      </trkpt>
      <trkpt lat="43.73765" lon="3.49802">
        <ele>460.5</ele>
        <time>2014-06-08T09:36:44Z</time>
      </trkpt>
      <trkpt lat="43.73773" lon="3.49809">
        <ele>462.1</ele>
        <time>2014-06-08T09:36:48Z</time>
      </trkpt>
      <trkpt lat="43.73794" lon="3.49815">
        <ele>462.8</ele>
        <time>2014-06-08T09:36:58Z</time>
      </trkpt>
      <trkpt lat="43.73802" lon="3.49819">
        <ele>463.5</ele>
        <time>2014-06-08T09:37:02Z</time>
      </trkpt>
      <trkpt lat="43.73812" lon="3.49824">
        <ele>463.4</ele>
        <time>2014-06-08T09:37:07Z</time>
      </trkpt>
      <trkpt lat="43.73823" lon="3.4983">
        <ele>464.2</ele>
        <time>2014-06-08T09:37:12Z</time>
      </trkpt>
      <trkpt lat="43.73833" lon="3.49837">
        <ele>464.7</ele>
        <time>2014-06-08T09:37:17Z</time>
      </trkpt>
      <trkpt lat="43.73841" lon="3.49847">
        <ele>464.1</ele>
        <time>2014-06-08T09:37:22Z</time>
      </trkpt>
      <trkpt lat="43.7385" lon="3.49857">
        <ele>464.8</ele>
        <time>2014-06-08T09:37:27Z</time>
      </trkpt>
      <trkpt lat="43.73856" lon="3.49868">
        <ele>466</ele>
        <time>2014-06-08T09:37:32Z</time>
      </trkpt>
      <trkpt lat="43.73859" lon="3.49881">
        <ele>466.5</ele>
        <time>2014-06-08T09:37:37Z</time>
      </trkpt>
      <trkpt lat="43.73855" lon="3.49892">
        <ele>466.6</ele>
        <time>2014-06-08T09:37:42Z</time>
      </trkpt>
      <trkpt lat="43.73845" lon="3.49899">
        <ele>466.6</ele>
        <time>2014-06-08T09:38:06Z</time>
      </trkpt>
      <trkpt lat="43.73829" lon="3.49921">
        <ele>466.8</ele>
        <time>2014-06-08T09:38:13Z</time>
      </trkpt>
      <trkpt lat="43.73823" lon="3.49931">
        <ele>466.4</ele>
        <time>2014-06-08T09:38:15Z</time>
      </trkpt>
      <trkpt lat="43.73817" lon="3.49943">
        <ele>465</ele>
        <time>2014-06-08T09:38:17Z</time>
      </trkpt>
      <trkpt lat="43.73811" lon="3.49956">
        <ele>464.2</ele>
        <time>2014-06-08T09:38:19Z</time>
      </trkpt>
      <trkpt lat="43.73807" lon="3.4997">
        <ele>463.4</ele>
        <time>2014-06-08T09:38:21Z</time>
      </trkpt>
      <trkpt lat="43.73806" lon="3.49987">
        <ele>462.9</ele>
        <time>2014-06-08T09:38:23Z</time>
      </trkpt>
      <trkpt lat="43.73806" lon="3.50005">
        <ele>462.7</ele>
        <time>2014-06-08T09:38:25Z</time>
      </trkpt>
      <trkpt lat="43.73805" lon="3.50022">
        <ele>462.4</ele>
        <time>2014-06-08T09:38:27Z</time>
      </trkpt>
      <trkpt lat="43.73802" lon="3.5004">
        <ele>460.8</ele>
        <time>2014-06-08T09:38:29Z</time>
      </trkpt>
      <trkpt lat="43.738" lon="3.50059">
        <ele>460</ele>
        <time>2014-06-08T09:38:31Z</time>
      </trkpt>
      <trkpt lat="43.73798" lon="3.50079">
        <ele>459.3</ele>
        <time>2014-06-08T09:38:33Z</time>
      </trkpt>
      <trkpt lat="43.73797" lon="3.50099">
        <ele>457.8</ele>
        <time>2014-06-08T09:38:35Z</time>
      </trkpt>
      <trkpt lat="43.73795" lon="3.50119">
        <ele>456.3</ele>
        <time>2014-06-08T09:38:37Z</time>
      </trkpt>
      <trkpt lat="43.73795" lon="3.5014">
        <ele>455.1</ele>
        <time>2014-06-08T09:38:39Z</time>
      </trkpt>
      <trkpt lat="43.73794" lon="3.50161">
        <ele>453.8</ele>
        <time>2014-06-08T09:38:41Z</time>
      </trkpt>
      <trkpt lat="43.73791" lon="3.50181">
        <ele>452.6</ele>
        <time>2014-06-08T09:38:43Z</time>
      </trkpt>
      <trkpt lat="43.73788" lon="3.50201">
        <ele>451.9</ele>
        <time>2014-06-08T09:38:45Z</time>
      </trkpt>
      <trkpt lat="43.73785" lon="3.50221">
        <ele>450.9</ele>
        <time>2014-06-08T09:38:47Z</time>
      </trkpt>
      <trkpt lat="43.73784" lon="3.50242">
        <ele>449.9</ele>
        <time>2014-06-08T09:38:49Z</time>
      </trkpt>
      <trkpt lat="43.73783" lon="3.50262">
        <ele>448.3</ele>
        <time>2014-06-08T09:38:51Z</time>
      </trkpt>
      <trkpt lat="43.7378" lon="3.50284">
        <ele>446.7</ele>
        <time>2014-06-08T09:38:53Z</time>
      </trkpt>
      <trkpt lat="43.73778" lon="3.50305">
        <ele>445.9</ele>
        <time>2014-06-08T09:38:55Z</time>
      </trkpt>
      <trkpt lat="43.73778" lon="3.50327">
        <ele>444.8</ele>
        <time>2014-06-08T09:38:57Z</time>
      </trkpt>
      <trkpt lat="43.73783" lon="3.50349">
        <ele>443.2</ele>
        <time>2014-06-08T09:38:59Z</time>
      </trkpt>
      <trkpt lat="43.73786" lon="3.50371">
        <ele>441.9</ele>
        <time>2014-06-08T09:39:01Z</time>
      </trkpt>
      <trkpt lat="43.73789" lon="3.50395">
        <ele>440.5</ele>
        <time>2014-06-08T09:39:03Z</time>
      </trkpt>
      <trkpt lat="43.7379" lon="3.50419">
        <ele>438.7</ele>
        <time>2014-06-08T09:39:05Z</time>
      </trkpt>
      <trkpt lat="43.73791" lon="3.50443">
        <ele>437.8</ele>
        <time>2014-06-08T09:39:07Z</time>
      </trkpt>
      <trkpt lat="43.7379" lon="3.50492">
        <ele>434.5</ele>
        <time>2014-06-08T09:39:11Z</time>
      </trkpt>
      <trkpt lat="43.73787" lon="3.50516">
        <ele>432.6</ele>
        <time>2014-06-08T09:39:13Z</time>
      </trkpt>
      <trkpt lat="43.73785" lon="3.50528">
        <ele>431.9</ele>
        <time>2014-06-08T09:39:14Z</time>
      </trkpt>
      <trkpt lat="43.73783" lon="3.50541">
        <ele>431.3</ele>
        <time>2014-06-08T09:39:15Z</time>
      </trkpt>
      <trkpt lat="43.73779" lon="3.50564">
        <ele>429.3</ele>
        <time>2014-06-08T09:39:17Z</time>
      </trkpt>
      <trkpt lat="43.73773" lon="3.50586">
        <ele>427.4</ele>
        <time>2014-06-08T09:39:19Z</time>
      </trkpt>
      <trkpt lat="43.73766" lon="3.50604">
        <ele>425.2</ele>
        <time>2014-06-08T09:39:21Z</time>
      </trkpt>
      <trkpt lat="43.73757" lon="3.50618">
        <ele>423.4</ele>
        <time>2014-06-08T09:39:23Z</time>
      </trkpt>
      <trkpt lat="43.73746" lon="3.50627">
        <ele>422.2</ele>
        <time>2014-06-08T09:39:25Z</time>
      </trkpt>
      <trkpt lat="43.73734" lon="3.50632">
        <ele>421.6</ele>
        <time>2014-06-08T09:39:27Z</time>
      </trkpt>
      <trkpt lat="43.73721" lon="3.50636">
        <ele>420.2</ele>
        <time>2014-06-08T09:39:29Z</time>
      </trkpt>
      <trkpt lat="43.73707" lon="3.50638">
        <ele>419</ele>
        <time>2014-06-08T09:39:31Z</time>
      </trkpt>
      <trkpt lat="43.73692" lon="3.50641">
        <ele>417.9</ele>
        <time>2014-06-08T09:39:33Z</time>
      </trkpt>
      <trkpt lat="43.73678" lon="3.50647">
        <ele>416.7</ele>
        <time>2014-06-08T09:39:35Z</time>
      </trkpt>
      <trkpt lat="43.73664" lon="3.50658">
        <ele>415.3</ele>
        <time>2014-06-08T09:39:37Z</time>
      </trkpt>
      <trkpt lat="43.73651" lon="3.50671">
        <ele>414.1</ele>
        <time>2014-06-08T09:39:39Z</time>
      </trkpt>
      <trkpt lat="43.73637" lon="3.50686">
        <ele>413.3</ele>
        <time>2014-06-08T09:39:41Z</time>
      </trkpt>
      <trkpt lat="43.73623" lon="3.507">
        <ele>411.9</ele>
        <time>2014-06-08T09:39:43Z</time>
      </trkpt>
      <trkpt lat="43.73609" lon="3.50714">
        <ele>410.5</ele>
        <time>2014-06-08T09:39:45Z</time>
      </trkpt>
      <trkpt lat="43.73594" lon="3.50727">
        <ele>409.4</ele>
        <time>2014-06-08T09:39:47Z</time>
      </trkpt>
      <trkpt lat="43.73578" lon="3.50735">
        <ele>408.2</ele>
        <time>2014-06-08T09:39:49Z</time>
      </trkpt>
      <trkpt lat="43.73562" lon="3.50741">
        <ele>406.6</ele>
        <time>2014-06-08T09:39:51Z</time>
      </trkpt>
      <trkpt lat="43.73546" lon="3.50743">
        <ele>405.4</ele>
        <time>2014-06-08T09:39:53Z</time>
      </trkpt>
      <trkpt lat="43.7353" lon="3.5074">
        <ele>404.2</ele>
        <time>2014-06-08T09:39:55Z</time>
      </trkpt>
      <trkpt lat="43.73514" lon="3.50734">
        <ele>403.7</ele>
        <time>2014-06-08T09:39:57Z</time>
      </trkpt>
      <trkpt lat="43.73498" lon="3.50727">
        <ele>402</ele>
        <time>2014-06-08T09:39:59Z</time>
      </trkpt>
      <trkpt lat="43.73481" lon="3.50722">
        <ele>400.7</ele>
        <time>2014-06-08T09:40:01Z</time>
      </trkpt>
      <trkpt lat="43.73464" lon="3.5072">
        <ele>399.5</ele>
        <time>2014-06-08T09:40:03Z</time>
      </trkpt>
      <trkpt lat="43.73448" lon="3.50716">
        <ele>398.8</ele>
        <time>2014-06-08T09:40:05Z</time>
      </trkpt>
      <trkpt lat="43.73433" lon="3.50708">
        <ele>398.4</ele>
        <time>2014-06-08T09:40:07Z</time>
      </trkpt>
      <trkpt lat="43.7342" lon="3.50702">
        <ele>398</ele>
        <time>2014-06-08T09:40:09Z</time>
      </trkpt>
      <trkpt lat="43.73391" lon="3.50703">
        <ele>397.8</ele>
        <time>2014-06-08T09:40:13Z</time>
      </trkpt>
      <trkpt lat="43.73375" lon="3.507">
        <ele>396.8</ele>
        <time>2014-06-08T09:40:15Z</time>
      </trkpt>
      <trkpt lat="43.73358" lon="3.50696">
        <ele>394.7</ele>
        <time>2014-06-08T09:40:17Z</time>
      </trkpt>
      <trkpt lat="43.73341" lon="3.50688">
        <ele>392.8</ele>
        <time>2014-06-08T09:40:19Z</time>
      </trkpt>
      <trkpt lat="43.73332" lon="3.50683">
        <ele>391.9</ele>
        <time>2014-06-08T09:40:20Z</time>
      </trkpt>
      <trkpt lat="43.73324" lon="3.50679">
        <ele>391.3</ele>
        <time>2014-06-08T09:40:21Z</time>
      </trkpt>
      <trkpt lat="43.73307" lon="3.50672">
        <ele>389.5</ele>
        <time>2014-06-08T09:40:23Z</time>
      </trkpt>
      <trkpt lat="43.73291" lon="3.50663">
        <ele>387.7</ele>
        <time>2014-06-08T09:40:25Z</time>
      </trkpt>
      <trkpt lat="43.73277" lon="3.50653">
        <ele>385.9</ele>
        <time>2014-06-08T09:40:27Z</time>
      </trkpt>
      <trkpt lat="43.73263" lon="3.50647">
        <ele>384.2</ele>
        <time>2014-06-08T09:40:29Z</time>
      </trkpt>
      <trkpt lat="43.73249" lon="3.50651">
        <ele>382.7</ele>
        <time>2014-06-08T09:40:31Z</time>
      </trkpt>
      <trkpt lat="43.73237" lon="3.50655">
        <ele>381.3</ele>
        <time>2014-06-08T09:40:33Z</time>
      </trkpt>
      <trkpt lat="43.73223" lon="3.50656">
        <ele>379.7</ele>
        <time>2014-06-08T09:40:35Z</time>
      </trkpt>
      <trkpt lat="43.73207" lon="3.50655">
        <ele>378.3</ele>
        <time>2014-06-08T09:40:37Z</time>
      </trkpt>
      <trkpt lat="43.7319" lon="3.50652">
        <ele>376.9</ele>
        <time>2014-06-08T09:40:39Z</time>
      </trkpt>
      <trkpt lat="43.73181" lon="3.50649">
        <ele>376.3</ele>
        <time>2014-06-08T09:40:40Z</time>
      </trkpt>
      <trkpt lat="43.73172" lon="3.50647">
        <ele>375.3</ele>
        <time>2014-06-08T09:40:41Z</time>
      </trkpt>
      <trkpt lat="43.73156" lon="3.50642">
        <ele>373.6</ele>
        <time>2014-06-08T09:40:43Z</time>
      </trkpt>
      <trkpt lat="43.73141" lon="3.50635">
        <ele>372.3</ele>
        <time>2014-06-08T09:40:45Z</time>
      </trkpt>
      <trkpt lat="43.73127" lon="3.50628">
        <ele>370</ele>
        <time>2014-06-08T09:40:47Z</time>
      </trkpt>
      <trkpt lat="43.73113" lon="3.50621">
        <ele>368.9</ele>
        <time>2014-06-08T09:40:49Z</time>
      </trkpt>
      <trkpt lat="43.73098" lon="3.50616">
        <ele>367.9</ele>
        <time>2014-06-08T09:40:51Z</time>
      </trkpt>
      <trkpt lat="43.73084" lon="3.50611">
        <ele>366.3</ele>
        <time>2014-06-08T09:40:53Z</time>
      </trkpt>
      <trkpt lat="43.73072" lon="3.50607">
        <ele>364.6</ele>
        <time>2014-06-08T09:40:55Z</time>
      </trkpt>
      <trkpt lat="43.73062" lon="3.506">
        <ele>363.3</ele>
        <time>2014-06-08T09:40:57Z</time>
      </trkpt>
      <trkpt lat="43.73054" lon="3.50588">
        <ele>361.8</ele>
        <time>2014-06-08T09:40:59Z</time>
      </trkpt>
      <trkpt lat="43.7305" lon="3.50572">
        <ele>359.9</ele>
        <time>2014-06-08T09:41:01Z</time>
      </trkpt>
      <trkpt lat="43.73046" lon="3.50555">
        <ele>358.3</ele>
        <time>2014-06-08T09:41:03Z</time>
      </trkpt>
      <trkpt lat="43.73044" lon="3.50538">
        <ele>357.4</ele>
        <time>2014-06-08T09:41:05Z</time>
      </trkpt>
      <trkpt lat="43.73042" lon="3.50524">
        <ele>356.8</ele>
        <time>2014-06-08T09:41:07Z</time>
      </trkpt>
      <trkpt lat="43.73035" lon="3.50515">
        <ele>356.3</ele>
        <time>2014-06-08T09:41:09Z</time>
      </trkpt>
      <trkpt lat="43.73025" lon="3.50516">
        <ele>355.2</ele>
        <time>2014-06-08T09:41:11Z</time>
      </trkpt>
      <trkpt lat="43.7301" lon="3.50534">
        <ele>352.1</ele>
        <time>2014-06-08T09:41:15Z</time>
      </trkpt>
      <trkpt lat="43.72998" lon="3.5054">
        <ele>350.7</ele>
        <time>2014-06-08T09:41:17Z</time>
      </trkpt>
      <trkpt lat="43.72986" lon="3.50544">
        <ele>349.5</ele>
        <time>2014-06-08T09:41:19Z</time>
      </trkpt>
      <trkpt lat="43.72975" lon="3.50552">
        <ele>348.3</ele>
        <time>2014-06-08T09:41:21Z</time>
      </trkpt>
      <trkpt lat="43.72963" lon="3.50557">
        <ele>347</ele>
        <time>2014-06-08T09:41:23Z</time>
      </trkpt>
      <trkpt lat="43.72951" lon="3.50559">
        <ele>345.2</ele>
        <time>2014-06-08T09:41:25Z</time>
      </trkpt>
      <trkpt lat="43.72941" lon="3.50562">
        <ele>344.2</ele>
        <time>2014-06-08T09:41:27Z</time>
      </trkpt>
      <trkpt lat="43.72932" lon="3.50563">
        <ele>342.9</ele>
        <time>2014-06-08T09:41:29Z</time>
      </trkpt>
      <trkpt lat="43.72921" lon="3.50566">
        <ele>340.5</ele>
        <time>2014-06-08T09:41:32Z</time>
      </trkpt>
      <trkpt lat="43.72912" lon="3.50573">
        <ele>338.8</ele>
        <time>2014-06-08T09:41:36Z</time>
      </trkpt>
      <trkpt lat="43.72901" lon="3.50575">
        <ele>336.1</ele>
        <time>2014-06-08T09:41:41Z</time>
      </trkpt>
      <trkpt lat="43.72892" lon="3.50579">
        <ele>333.7</ele>
        <time>2014-06-08T09:41:47Z</time>
      </trkpt>
      <trkpt lat="43.72881" lon="3.50582">
        <ele>330.4</ele>
        <time>2014-06-08T09:41:54Z</time>
      </trkpt>
      <trkpt lat="43.72872" lon="3.50585">
        <ele>329.7</ele>
        <time>2014-06-08T09:41:57Z</time>
      </trkpt>
      <trkpt lat="43.72863" lon="3.50584">
        <ele>328.5</ele>
        <time>2014-06-08T09:42:01Z</time>
      </trkpt>
      <trkpt lat="43.72853" lon="3.50583">
        <ele>327.1</ele>
        <time>2014-06-08T09:42:05Z</time>
      </trkpt>
      <trkpt lat="43.72844" lon="3.50578">
        <ele>325.5</ele>
        <time>2014-06-08T09:42:15Z</time>
      </trkpt>
      <trkpt lat="43.72826" lon="3.50567">
        <ele>325.7</ele>
        <time>2014-06-08T09:42:33Z</time>
      </trkpt>
      <trkpt lat="43.72816" lon="3.50564">
        <ele>324.5</ele>
        <time>2014-06-08T09:42:41Z</time>
      </trkpt>
      <trkpt lat="43.72807" lon="3.5056">
        <ele>323.4</ele>
        <time>2014-06-08T09:42:47Z</time>
      </trkpt>
      <trkpt lat="43.72801" lon="3.50551">
        <ele>323</ele>
        <time>2014-06-08T09:42:55Z</time>
      </trkpt>
      <trkpt lat="43.72797" lon="3.5054">
        <ele>322.7</ele>
        <time>2014-06-08T09:43:03Z</time>
      </trkpt>
      <trkpt lat="43.7279" lon="3.5053">
        <ele>323.4</ele>
        <time>2014-06-08T09:43:13Z</time>
      </trkpt>
      <trkpt lat="43.72784" lon="3.5052">
        <ele>322.9</ele>
        <time>2014-06-08T09:43:21Z</time>
      </trkpt>
      <trkpt lat="43.72769" lon="3.50515">
        <ele>320.2</ele>
        <time>2014-06-08T09:43:41Z</time>
      </trkpt>
      <trkpt lat="43.72758" lon="3.50508">
        <ele>318.2</ele>
        <time>2014-06-08T09:43:50Z</time>
      </trkpt>
      <trkpt lat="43.72749" lon="3.50504">
        <ele>317.8</ele>
        <time>2014-06-08T09:43:55Z</time>
      </trkpt>
      <trkpt lat="43.7274" lon="3.50501">
        <ele>317.7</ele>
        <time>2014-06-08T09:44:00Z</time>
      </trkpt>
      <trkpt lat="43.72733" lon="3.50492">
        <ele>318.2</ele>
        <time>2014-06-08T09:44:04Z</time>
      </trkpt>
      <trkpt lat="43.72726" lon="3.50483">
        <ele>318.7</ele>
        <time>2014-06-08T09:44:08Z</time>
      </trkpt>
      <trkpt lat="43.72718" lon="3.50471">
        <ele>318.6</ele>
        <time>2014-06-08T09:44:12Z</time>
      </trkpt>
      <trkpt lat="43.7271" lon="3.50462">
        <ele>318.3</ele>
        <time>2014-06-08T09:44:15Z</time>
      </trkpt>
      <trkpt lat="43.727" lon="3.50455">
        <ele>317.7</ele>
        <time>2014-06-08T09:44:18Z</time>
      </trkpt>
      <trkpt lat="43.72691" lon="3.50448">
        <ele>316.8</ele>
        <time>2014-06-08T09:44:21Z</time>
      </trkpt>
      <trkpt lat="43.72683" lon="3.50438">
        <ele>317</ele>
        <time>2014-06-08T09:44:24Z</time>
      </trkpt>
      <trkpt lat="43.72667" lon="3.50422">
        <ele>314.9</ele>
        <time>2014-06-08T09:44:31Z</time>
      </trkpt>
      <trkpt lat="43.72661" lon="3.50412">
        <ele>314.2</ele>
        <time>2014-06-08T09:44:38Z</time>
      </trkpt>
      <trkpt lat="43.72652" lon="3.50404">
        <ele>314.7</ele>
        <time>2014-06-08T09:44:43Z</time>
      </trkpt>
      <trkpt lat="43.72645" lon="3.50396">
        <ele>314.4</ele>
        <time>2014-06-08T09:44:50Z</time>
      </trkpt>
      <trkpt lat="43.72641" lon="3.50382">
        <ele>313.5</ele>
        <time>2014-06-08T09:45:00Z</time>
      </trkpt>
      <trkpt lat="43.72634" lon="3.50373">
        <ele>312.9</ele>
        <time>2014-06-08T09:45:28Z</time>
      </trkpt>
      <trkpt lat="43.72616" lon="3.50367">
        <ele>310.3</ele>
        <time>2014-06-08T09:45:49Z</time>
      </trkpt>
      <trkpt lat="43.72608" lon="3.5036">
        <ele>309</ele>
        <time>2014-06-08T09:45:58Z</time>
      </trkpt>
      <trkpt lat="43.72599" lon="3.50354">
        <ele>309.2</ele>
        <time>2014-06-08T09:46:08Z</time>
      </trkpt>
      <trkpt lat="43.7259" lon="3.50351">
        <ele>308.8</ele>
        <time>2014-06-08T09:46:29Z</time>
      </trkpt>
      <trkpt lat="43.72576" lon="3.50332">
        <ele>308.9</ele>
        <time>2014-06-08T09:46:45Z</time>
      </trkpt>
      <trkpt lat="43.72569" lon="3.5032">
        <ele>309</ele>
        <time>2014-06-08T09:46:49Z</time>
      </trkpt>
      <trkpt lat="43.72563" lon="3.50309">
        <ele>308.6</ele>
        <time>2014-06-08T09:46:53Z</time>
      </trkpt>
      <trkpt lat="43.72555" lon="3.50301">
        <ele>307</ele>
        <time>2014-06-08T09:47:04Z</time>
      </trkpt>
      <trkpt lat="43.72547" lon="3.50293">
        <ele>306.5</ele>
        <time>2014-06-08T09:47:12Z</time>
      </trkpt>
      <trkpt lat="43.72544" lon="3.50281">
        <ele>306.9</ele>
        <time>2014-06-08T09:47:22Z</time>
      </trkpt>
      <trkpt lat="43.7254" lon="3.50269">
        <ele>305.3</ele>
        <time>2014-06-08T09:47:35Z</time>
      </trkpt>
      <trkpt lat="43.72531" lon="3.50246">
        <ele>304.7</ele>
        <time>2014-06-08T09:47:52Z</time>
      </trkpt>
      <trkpt lat="43.72523" lon="3.50237">
        <ele>303.1</ele>
        <time>2014-06-08T09:48:01Z</time>
      </trkpt>
      <trkpt lat="43.72514" lon="3.50237">
        <ele>303.8</ele>
        <time>2014-06-08T09:48:09Z</time>
      </trkpt>
      <trkpt lat="43.72504" lon="3.50236">
        <ele>303.8</ele>
        <time>2014-06-08T09:48:17Z</time>
      </trkpt>
      <trkpt lat="43.72495" lon="3.50232">
        <ele>303.1</ele>
        <time>2014-06-08T09:48:23Z</time>
      </trkpt>
      <trkpt lat="43.72484" lon="3.50233">
        <ele>303.2</ele>
        <time>2014-06-08T09:48:28Z</time>
      </trkpt>
      <trkpt lat="43.72475" lon="3.50236">
        <ele>301.8</ele>
        <time>2014-06-08T09:48:34Z</time>
      </trkpt>
      <trkpt lat="43.72465" lon="3.50236">
        <ele>300.4</ele>
        <time>2014-06-08T09:48:42Z</time>
      </trkpt>
      <trkpt lat="43.72446" lon="3.50239">
        <ele>300.3</ele>
        <time>2014-06-08T09:48:53Z</time>
      </trkpt>
      <trkpt lat="43.72436" lon="3.5024">
        <ele>299.9</ele>
        <time>2014-06-08T09:49:02Z</time>
      </trkpt>
      <trkpt lat="43.72426" lon="3.50241">
        <ele>298.6</ele>
        <time>2014-06-08T09:49:11Z</time>
      </trkpt>
      <trkpt lat="43.72415" lon="3.50241">
        <ele>298</ele>
        <time>2014-06-08T09:49:15Z</time>
      </trkpt>
      <trkpt lat="43.72406" lon="3.50232">
        <ele>298.4</ele>
        <time>2014-06-08T09:49:19Z</time>
      </trkpt>
      <trkpt lat="43.72397" lon="3.50226">
        <ele>298.6</ele>
        <time>2014-06-08T09:49:22Z</time>
      </trkpt>
      <trkpt lat="43.72386" lon="3.5022">
        <ele>297.4</ele>
        <time>2014-06-08T09:49:25Z</time>
      </trkpt>
      <trkpt lat="43.72375" lon="3.50215">
        <ele>296.4</ele>
        <time>2014-06-08T09:49:28Z</time>
      </trkpt>
      <trkpt lat="43.72364" lon="3.50212">
        <ele>296.2</ele>
        <time>2014-06-08T09:49:32Z</time>
      </trkpt>
      <trkpt lat="43.72354" lon="3.50208">
        <ele>295.5</ele>
        <time>2014-06-08T09:49:36Z</time>
      </trkpt>
      <trkpt lat="43.72343" lon="3.50203">
        <ele>294.7</ele>
        <time>2014-06-08T09:49:40Z</time>
      </trkpt>
      <trkpt lat="43.72333" lon="3.50201">
        <ele>294.6</ele>
        <time>2014-06-08T09:49:44Z</time>
      </trkpt>
      <trkpt lat="43.7231" lon="3.50198">
        <ele>293.8</ele>
        <time>2014-06-08T09:49:52Z</time>
      </trkpt>
      <trkpt lat="43.72301" lon="3.50195">
        <ele>293.5</ele>
        <time>2014-06-08T09:49:55Z</time>
      </trkpt>
      <trkpt lat="43.72292" lon="3.50194">
        <ele>292.7</ele>
        <time>2014-06-08T09:55:07Z</time>
      </trkpt>
      <trkpt lat="43.7227" lon="3.50177">
        <ele>292.5</ele>
        <time>2014-06-08T09:58:35Z</time>
      </trkpt>
      <trkpt lat="43.72261" lon="3.50171">
        <ele>292.5</ele>
        <time>2014-06-08T09:58:38Z</time>
      </trkpt>
      <trkpt lat="43.72249" lon="3.50167">
        <ele>291.6</ele>
        <time>2014-06-08T09:58:41Z</time>
      </trkpt>
      <trkpt lat="43.72239" lon="3.50167">
        <ele>291.9</ele>
        <time>2014-06-08T09:58:43Z</time>
      </trkpt>
      <trkpt lat="43.72228" lon="3.50167">
        <ele>292.2</ele>
        <time>2014-06-08T09:58:45Z</time>
      </trkpt>
      <trkpt lat="43.72218" lon="3.50163">
        <ele>292.5</ele>
        <time>2014-06-08T09:58:47Z</time>
      </trkpt>
      <trkpt lat="43.72209" lon="3.50153">
        <ele>291.5</ele>
        <time>2014-06-08T09:58:50Z</time>
      </trkpt>
      <trkpt lat="43.72202" lon="3.50142">
        <ele>290.9</ele>
        <time>2014-06-08T09:58:53Z</time>
      </trkpt>
      <trkpt lat="43.72193" lon="3.50134">
        <ele>290.9</ele>
        <time>2014-06-08T09:58:56Z</time>
      </trkpt>
      <trkpt lat="43.72186" lon="3.50124">
        <ele>290.2</ele>
        <time>2014-06-08T09:58:59Z</time>
      </trkpt>
      <trkpt lat="43.72172" lon="3.501">
        <ele>289</ele>
        <time>2014-06-08T09:59:07Z</time>
      </trkpt>
      <trkpt lat="43.72165" lon="3.50089">
        <ele>288.5</ele>
        <time>2014-06-08T09:59:19Z</time>
      </trkpt>
      <trkpt lat="43.72161" lon="3.50078">
        <ele>288.6</ele>
        <time>2014-06-08T09:59:32Z</time>
      </trkpt>
      <trkpt lat="43.72157" lon="3.50066">
        <ele>285.7</ele>
        <time>2014-06-08T09:59:42Z</time>
      </trkpt>
      <trkpt lat="43.72151" lon="3.50051">
        <ele>284</ele>
        <time>2014-06-08T09:59:50Z</time>
      </trkpt>
      <trkpt lat="43.72143" lon="3.50037">
        <ele>284</ele>
        <time>2014-06-08T09:59:54Z</time>
      </trkpt>
      <trkpt lat="43.72133" lon="3.50018">
        <ele>285</ele>
        <time>2014-06-08T09:59:58Z</time>
      </trkpt>
      <trkpt lat="43.72118" lon="3.49981">
        <ele>283.5</ele>
        <time>2014-06-08T10:00:05Z</time>
      </trkpt>
      <trkpt lat="43.7211" lon="3.49975">
        <ele>283.2</ele>
        <time>2014-06-08T10:00:07Z</time>
      </trkpt>
      <trkpt lat="43.72098" lon="3.49972">
        <ele>283.5</ele>
        <time>2014-06-08T10:00:10Z</time>
      </trkpt>
      <trkpt lat="43.72088" lon="3.4997">
        <ele>283.5</ele>
        <time>2014-06-08T10:00:14Z</time>
      </trkpt>
      <trkpt lat="43.72077" lon="3.49974">
        <ele>282.7</ele>
        <time>2014-06-08T10:00:18Z</time>
      </trkpt>
      <trkpt lat="43.72066" lon="3.49977">
        <ele>282.5</ele>
        <time>2014-06-08T10:00:21Z</time>
      </trkpt>
      <trkpt lat="43.72055" lon="3.49982">
        <ele>282.5</ele>
        <time>2014-06-08T10:00:24Z</time>
      </trkpt>
      <trkpt lat="43.72043" lon="3.49977">
        <ele>281.9</ele>
        <time>2014-06-08T10:00:27Z</time>
      </trkpt>
      <trkpt lat="43.72032" lon="3.49969">
        <ele>281.6</ele>
        <time>2014-06-08T10:00:30Z</time>
      </trkpt>
      <trkpt lat="43.72023" lon="3.49962">
        <ele>280.5</ele>
        <time>2014-06-08T10:00:34Z</time>
      </trkpt>
      <trkpt lat="43.72012" lon="3.49955">
        <ele>280.8</ele>
        <time>2014-06-08T10:00:38Z</time>
      </trkpt>
      <trkpt lat="43.72003" lon="3.49951">
        <ele>280.7</ele>
        <time>2014-06-08T10:00:42Z</time>
      </trkpt>
      <trkpt lat="43.71994" lon="3.49946">
        <ele>280.1</ele>
        <time>2014-06-08T10:00:46Z</time>
      </trkpt>
      <trkpt lat="43.71984" lon="3.49942">
        <ele>279.9</ele>
        <time>2014-06-08T10:00:49Z</time>
      </trkpt>
      <trkpt lat="43.71974" lon="3.49948">
        <ele>279.9</ele>
        <time>2014-06-08T10:00:52Z</time>
      </trkpt>
      <trkpt lat="43.71963" lon="3.49954">
        <ele>279</ele>
        <time>2014-06-08T10:00:55Z</time>
      </trkpt>
      <trkpt lat="43.71954" lon="3.49965">
        <ele>278.7</ele>
        <time>2014-06-08T10:00:58Z</time>
      </trkpt>
      <trkpt lat="43.71946" lon="3.49978">
        <ele>278.2</ele>
        <time>2014-06-08T10:01:01Z</time>
      </trkpt>
      <trkpt lat="43.71939" lon="3.49993">
        <ele>277.5</ele>
        <time>2014-06-08T10:01:04Z</time>
      </trkpt>
      <trkpt lat="43.71927" lon="3.50011">
        <ele>277.1</ele>
        <time>2014-06-08T10:01:11Z</time>
      </trkpt>
      <trkpt lat="43.71921" lon="3.50025">
        <ele>276.6</ele>
        <time>2014-06-08T10:01:16Z</time>
      </trkpt>
      <trkpt lat="43.71918" lon="3.50039">
        <ele>276.8</ele>
        <time>2014-06-08T10:01:19Z</time>
      </trkpt>
      <trkpt lat="43.71917" lon="3.50055">
        <ele>276.6</ele>
        <time>2014-06-08T10:01:22Z</time>
      </trkpt>
      <trkpt lat="43.71915" lon="3.50071">
        <ele>276.8</ele>
        <time>2014-06-08T10:01:25Z</time>
      </trkpt>
      <trkpt lat="43.7191" lon="3.50083">
        <ele>276.2</ele>
        <time>2014-06-08T10:01:28Z</time>
      </trkpt>
      <trkpt lat="43.71902" lon="3.50089">
        <ele>276.4</ele>
        <time>2014-06-08T10:01:31Z</time>
      </trkpt>
      <trkpt lat="43.71893" lon="3.50097">
        <ele>276</ele>
        <time>2014-06-08T10:01:34Z</time>
      </trkpt>
      <trkpt lat="43.71882" lon="3.50099">
        <ele>275.9</ele>
        <time>2014-06-08T10:01:37Z</time>
      </trkpt>
      <trkpt lat="43.71874" lon="3.50105">
        <ele>275.5</ele>
        <time>2014-06-08T10:01:39Z</time>
      </trkpt>
      <trkpt lat="43.71864" lon="3.50112">
        <ele>275.4</ele>
        <time>2014-06-08T10:01:41Z</time>
      </trkpt>
      <trkpt lat="43.71857" lon="3.50121">
        <ele>275.6</ele>
        <time>2014-06-08T10:01:43Z</time>
      </trkpt>
      <trkpt lat="43.71847" lon="3.50132">
        <ele>274.7</ele>
        <time>2014-06-08T10:01:46Z</time>
      </trkpt>
      <trkpt lat="43.71839" lon="3.50147">
        <ele>274.5</ele>
        <time>2014-06-08T10:01:49Z</time>
      </trkpt>
      <trkpt lat="43.71832" lon="3.50156">
        <ele>274.1</ele>
        <time>2014-06-08T10:01:51Z</time>
      </trkpt>
      <trkpt lat="43.71823" lon="3.50162">
        <ele>273.4</ele>
        <time>2014-06-08T10:01:53Z</time>
      </trkpt>
      <trkpt lat="43.71816" lon="3.50171">
        <ele>273</ele>
        <time>2014-06-08T10:01:55Z</time>
      </trkpt>
      <trkpt lat="43.7181" lon="3.50181">
        <ele>272.8</ele>
        <time>2014-06-08T10:01:57Z</time>
      </trkpt>
      <trkpt lat="43.71803" lon="3.50189">
        <ele>272.7</ele>
        <time>2014-06-08T10:01:59Z</time>
      </trkpt>
      <trkpt lat="43.71791" lon="3.50197">
        <ele>271.4</ele>
        <time>2014-06-08T10:02:02Z</time>
      </trkpt>
      <trkpt lat="43.71779" lon="3.50201">
        <ele>271.1</ele>
        <time>2014-06-08T10:02:05Z</time>
      </trkpt>
      <trkpt lat="43.71753" lon="3.50197">
        <ele>271.2</ele>
        <time>2014-06-08T10:02:11Z</time>
      </trkpt>
      <trkpt lat="43.71741" lon="3.5019">
        <ele>270.6</ele>
        <time>2014-06-08T10:02:14Z</time>
      </trkpt>
      <trkpt lat="43.71733" lon="3.50187">
        <ele>269.9</ele>
        <time>2014-06-08T10:02:16Z</time>
      </trkpt>
      <trkpt lat="43.71724" lon="3.50182">
        <ele>269.7</ele>
        <time>2014-06-08T10:02:18Z</time>
      </trkpt>
      <trkpt lat="43.71713" lon="3.50173">
        <ele>269.7</ele>
        <time>2014-06-08T10:02:21Z</time>
      </trkpt>
      <trkpt lat="43.71701" lon="3.50164">
        <ele>269.4</ele>
        <time>2014-06-08T10:02:24Z</time>
      </trkpt>
      <trkpt lat="43.71688" lon="3.50159">
        <ele>269.7</ele>
        <time>2014-06-08T10:02:27Z</time>
      </trkpt>
      <trkpt lat="43.71675" lon="3.50156">
        <ele>269.1</ele>
        <time>2014-06-08T10:02:30Z</time>
      </trkpt>
      <trkpt lat="43.71663" lon="3.50153">
        <ele>268.3</ele>
        <time>2014-06-08T10:02:33Z</time>
      </trkpt>
      <trkpt lat="43.71652" lon="3.50153">
        <ele>267.9</ele>
        <time>2014-06-08T10:02:36Z</time>
      </trkpt>
      <trkpt lat="43.71641" lon="3.50152">
        <ele>267.9</ele>
        <time>2014-06-08T10:02:39Z</time>
      </trkpt>
      <trkpt lat="43.7163" lon="3.50149">
        <ele>267.6</ele>
        <time>2014-06-08T10:02:42Z</time>
      </trkpt>
      <trkpt lat="43.71618" lon="3.50147">
        <ele>267.8</ele>
        <time>2014-06-08T10:02:45Z</time>
      </trkpt>
      <trkpt lat="43.71605" lon="3.50147">
        <ele>267.4</ele>
        <time>2014-06-08T10:02:48Z</time>
      </trkpt>
      <trkpt lat="43.71592" lon="3.50142">
        <ele>266.5</ele>
        <time>2014-06-08T10:02:51Z</time>
      </trkpt>
      <trkpt lat="43.71583" lon="3.50144">
        <ele>266.2</ele>
        <time>2014-06-08T10:02:53Z</time>
      </trkpt>
      <trkpt lat="43.71574" lon="3.50142">
        <ele>266.3</ele>
        <time>2014-06-08T10:02:55Z</time>
      </trkpt>
      <trkpt lat="43.71565" lon="3.50139">
        <ele>266.3</ele>
        <time>2014-06-08T10:02:57Z</time>
      </trkpt>
      <trkpt lat="43.71552" lon="3.50138">
        <ele>266.4</ele>
        <time>2014-06-08T10:03:00Z</time>
      </trkpt>
      <trkpt lat="43.71539" lon="3.50137">
        <ele>266.4</ele>
        <time>2014-06-08T10:03:03Z</time>
      </trkpt>
      <trkpt lat="43.71526" lon="3.50134">
        <ele>266.4</ele>
        <time>2014-06-08T10:03:06Z</time>
      </trkpt>
      <trkpt lat="43.71502" lon="3.50121">
        <ele>265.4</ele>
        <time>2014-06-08T10:03:12Z</time>
      </trkpt>
      <trkpt lat="43.71494" lon="3.50117">
        <ele>265.3</ele>
        <time>2014-06-08T10:03:14Z</time>
      </trkpt>
      <trkpt lat="43.71486" lon="3.50111">
        <ele>265.2</ele>
        <time>2014-06-08T10:03:16Z</time>
      </trkpt>
      <trkpt lat="43.71473" lon="3.50104">
        <ele>264.9</ele>
        <time>2014-06-08T10:03:19Z</time>
      </trkpt>
      <trkpt lat="43.71461" lon="3.50098">
        <ele>264.8</ele>
        <time>2014-06-08T10:03:22Z</time>
      </trkpt>
      <trkpt lat="43.71449" lon="3.50089">
        <ele>265.5</ele>
        <time>2014-06-08T10:03:25Z</time>
      </trkpt>
      <trkpt lat="43.71437" lon="3.50082">
        <ele>264.8</ele>
        <time>2014-06-08T10:03:28Z</time>
      </trkpt>
      <trkpt lat="43.71426" lon="3.50077">
        <ele>264.2</ele>
        <time>2014-06-08T10:03:31Z</time>
      </trkpt>
      <trkpt lat="43.71416" lon="3.50065">
        <ele>263.8</ele>
        <time>2014-06-08T10:03:34Z</time>
      </trkpt>
      <trkpt lat="43.71407" lon="3.50053">
        <ele>263.7</ele>
        <time>2014-06-08T10:03:37Z</time>
      </trkpt>
      <trkpt lat="43.71398" lon="3.50048">
        <ele>263.6</ele>
        <time>2014-06-08T10:03:40Z</time>
      </trkpt>
      <trkpt lat="43.71393" lon="3.50034">
        <ele>263.5</ele>
        <time>2014-06-08T10:03:44Z</time>
      </trkpt>
      <trkpt lat="43.71385" lon="3.50025">
        <ele>263</ele>
        <time>2014-06-08T10:03:47Z</time>
      </trkpt>
      <trkpt lat="43.71375" lon="3.50021">
        <ele>262.9</ele>
        <time>2014-06-08T10:03:50Z</time>
      </trkpt>
      <trkpt lat="43.71364" lon="3.50019">
        <ele>262.7</ele>
        <time>2014-06-08T10:03:53Z</time>
      </trkpt>
      <trkpt lat="43.71352" lon="3.50017">
        <ele>262.4</ele>
        <time>2014-06-08T10:03:56Z</time>
      </trkpt>
      <trkpt lat="43.71343" lon="3.50023">
        <ele>262.2</ele>
        <time>2014-06-08T10:03:59Z</time>
      </trkpt>
      <trkpt lat="43.71331" lon="3.50021">
        <ele>262.7</ele>
        <time>2014-06-08T10:04:03Z</time>
      </trkpt>
      <trkpt lat="43.71322" lon="3.50014">
        <ele>263</ele>
        <time>2014-06-08T10:04:06Z</time>
      </trkpt>
      <trkpt lat="43.71313" lon="3.50009">
        <ele>263.5</ele>
        <time>2014-06-08T10:04:09Z</time>
      </trkpt>
      <trkpt lat="43.71293" lon="3.50006">
        <ele>264.2</ele>
        <time>2014-06-08T10:04:15Z</time>
      </trkpt>
      <trkpt lat="43.71282" lon="3.50006">
        <ele>264.4</ele>
        <time>2014-06-08T10:04:18Z</time>
      </trkpt>
      <trkpt lat="43.71272" lon="3.50007">
        <ele>263.8</ele>
        <time>2014-06-08T10:04:21Z</time>
      </trkpt>
      <trkpt lat="43.71263" lon="3.50009">
        <ele>263.9</ele>
        <time>2014-06-08T10:04:24Z</time>
      </trkpt>
      <trkpt lat="43.71254" lon="3.50012">
        <ele>265.2</ele>
        <time>2014-06-08T10:04:27Z</time>
      </trkpt>
      <trkpt lat="43.71243" lon="3.50015">
        <ele>265.2</ele>
        <time>2014-06-08T10:04:31Z</time>
      </trkpt>
      <trkpt lat="43.71234" lon="3.50018">
        <ele>265.4</ele>
        <time>2014-06-08T10:04:36Z</time>
      </trkpt>
      <trkpt lat="43.71225" lon="3.50022">
        <ele>266.4</ele>
        <time>2014-06-08T10:04:41Z</time>
      </trkpt>
      <trkpt lat="43.71215" lon="3.50023">
        <ele>267</ele>
        <time>2014-06-08T10:04:46Z</time>
      </trkpt>
      <trkpt lat="43.71205" lon="3.50024">
        <ele>268.4</ele>
        <time>2014-06-08T10:04:51Z</time>
      </trkpt>
      <trkpt lat="43.71196" lon="3.50028">
        <ele>269.9</ele>
        <time>2014-06-08T10:04:56Z</time>
      </trkpt>
      <trkpt lat="43.71187" lon="3.50034">
        <ele>271.5</ele>
        <time>2014-06-08T10:05:01Z</time>
      </trkpt>
      <trkpt lat="43.71179" lon="3.50038">
        <ele>273.1</ele>
        <time>2014-06-08T10:05:10Z</time>
      </trkpt>
      <trkpt lat="43.71165" lon="3.50056">
        <ele>276.1</ele>
        <time>2014-06-08T10:05:31Z</time>
      </trkpt>
      <trkpt lat="43.7116" lon="3.50067">
        <ele>277.8</ele>
        <time>2014-06-08T10:05:42Z</time>
      </trkpt>
      <trkpt lat="43.71154" lon="3.50078">
        <ele>279.1</ele>
        <time>2014-06-08T10:05:50Z</time>
      </trkpt>
      <trkpt lat="43.71146" lon="3.5009">
        <ele>278.9</ele>
        <time>2014-06-08T10:05:54Z</time>
      </trkpt>
      <trkpt lat="43.71142" lon="3.50102">
        <ele>278.1</ele>
        <time>2014-06-08T10:05:57Z</time>
      </trkpt>
      <trkpt lat="43.71136" lon="3.50113">
        <ele>278.2</ele>
        <time>2014-06-08T10:06:00Z</time>
      </trkpt>
      <trkpt lat="43.7113" lon="3.50104">
        <ele>280.1</ele>
        <time>2014-06-08T10:06:09Z</time>
      </trkpt>
      <trkpt lat="43.71134" lon="3.50091">
        <ele>280.3</ele>
        <time>2014-06-08T10:06:14Z</time>
      </trkpt>
      <trkpt lat="43.71144" lon="3.50067">
        <ele>281.9</ele>
        <time>2014-06-08T10:06:25Z</time>
      </trkpt>
      <trkpt lat="43.71134" lon="3.50067">
        <ele>283.1</ele>
        <time>2014-06-08T10:06:32Z</time>
      </trkpt>
      <trkpt lat="43.71126" lon="3.50071">
        <ele>285.1</ele>
        <time>2014-06-08T10:06:39Z</time>
      </trkpt>
      <trkpt lat="43.71116" lon="3.5007">
        <ele>286.7</ele>
        <time>2014-06-08T10:06:46Z</time>
      </trkpt>
      <trkpt lat="43.71108" lon="3.50074">
        <ele>289.1</ele>
        <time>2014-06-08T10:06:53Z</time>
      </trkpt>
      <trkpt lat="43.71098" lon="3.5008">
        <ele>290.4</ele>
        <time>2014-06-08T10:07:00Z</time>
      </trkpt>
      <trkpt lat="43.71091" lon="3.50088">
        <ele>292.3</ele>
        <time>2014-06-08T10:07:07Z</time>
      </trkpt>
      <trkpt lat="43.71087" lon="3.50102">
        <ele>293.1</ele>
        <time>2014-06-08T10:07:13Z</time>
      </trkpt>
      <trkpt lat="43.71083" lon="3.50114">
        <ele>293.9</ele>
        <time>2014-06-08T10:07:20Z</time>
      </trkpt>
      <trkpt lat="43.71076" lon="3.50141">
        <ele>295.8</ele>
        <time>2014-06-08T10:07:32Z</time>
      </trkpt>
      <trkpt lat="43.71072" lon="3.50152">
        <ele>296.1</ele>
        <time>2014-06-08T10:07:37Z</time>
      </trkpt>
      <trkpt lat="43.71066" lon="3.50163">
        <ele>297.7</ele>
        <time>2014-06-08T10:07:44Z</time>
      </trkpt>
      <trkpt lat="43.71061" lon="3.50174">
        <ele>298.7</ele>
        <time>2014-06-08T10:07:51Z</time>
      </trkpt>
      <trkpt lat="43.71055" lon="3.50185">
        <ele>301.2</ele>
        <time>2014-06-08T10:07:59Z</time>
      </trkpt>
      <trkpt lat="43.7105" lon="3.50197">
        <ele>302.2</ele>
        <time>2014-06-08T10:08:06Z</time>
      </trkpt>
      <trkpt lat="43.71046" lon="3.50208">
        <ele>303.1</ele>
        <time>2014-06-08T10:08:12Z</time>
      </trkpt>
      <trkpt lat="43.7104" lon="3.50219">
        <ele>304.5</ele>
        <time>2014-06-08T10:08:19Z</time>
      </trkpt>
      <trkpt lat="43.71034" lon="3.50231">
        <ele>305.6</ele>
        <time>2014-06-08T10:08:27Z</time>
      </trkpt>
      <trkpt lat="43.71024" lon="3.50253">
        <ele>307.7</ele>
        <time>2014-06-08T10:08:42Z</time>
      </trkpt>
      <trkpt lat="43.71019" lon="3.50265">
        <ele>308.7</ele>
        <time>2014-06-08T10:08:49Z</time>
      </trkpt>
      <trkpt lat="43.71013" lon="3.50276">
        <ele>310</ele>
        <time>2014-06-08T10:08:57Z</time>
      </trkpt>
      <trkpt lat="43.71008" lon="3.50287">
        <ele>311.8</ele>
        <time>2014-06-08T10:09:04Z</time>
      </trkpt>
      <trkpt lat="43.71004" lon="3.50298">
        <ele>313</ele>
        <time>2014-06-08T10:09:11Z</time>
      </trkpt>
      <trkpt lat="43.70999" lon="3.5031">
        <ele>315.9</ele>
        <time>2014-06-08T10:09:19Z</time>
      </trkpt>
      <trkpt lat="43.70995" lon="3.50322">
        <ele>316.8</ele>
        <time>2014-06-08T10:09:27Z</time>
      </trkpt>
      <trkpt lat="43.7099" lon="3.50334">
        <ele>317.8</ele>
        <time>2014-06-08T10:09:35Z</time>
      </trkpt>
      <trkpt lat="43.70975" lon="3.50351">
        <ele>320.5</ele>
        <time>2014-06-08T10:09:51Z</time>
      </trkpt>
      <trkpt lat="43.70966" lon="3.50354">
        <ele>322.5</ele>
        <time>2014-06-08T10:09:59Z</time>
      </trkpt>
      <trkpt lat="43.70957" lon="3.50358">
        <ele>323.6</ele>
        <time>2014-06-08T10:10:07Z</time>
      </trkpt>
      <trkpt lat="43.70949" lon="3.50366">
        <ele>324</ele>
        <time>2014-06-08T10:10:14Z</time>
      </trkpt>
      <trkpt lat="43.70941" lon="3.50373">
        <ele>324.5</ele>
        <time>2014-06-08T10:10:21Z</time>
      </trkpt>
      <trkpt lat="43.70933" lon="3.50379">
        <ele>325.1</ele>
        <time>2014-06-08T10:10:27Z</time>
      </trkpt>
      <trkpt lat="43.70927" lon="3.50389">
        <ele>324.8</ele>
        <time>2014-06-08T10:10:32Z</time>
      </trkpt>
      <trkpt lat="43.70927" lon="3.50402">
        <ele>324.8</ele>
        <time>2014-06-08T10:10:37Z</time>
      </trkpt>
      <trkpt lat="43.70922" lon="3.50442">
        <ele>327.7</ele>
        <time>2014-06-08T10:14:26Z</time>
      </trkpt>
      <trkpt lat="43.70919" lon="3.50454">
        <ele>329.2</ele>
        <time>2014-06-08T10:14:33Z</time>
      </trkpt>
      <trkpt lat="43.70914" lon="3.50466">
        <ele>330.9</ele>
        <time>2014-06-08T10:14:41Z</time>
      </trkpt>
      <trkpt lat="43.7091" lon="3.50478">
        <ele>331.6</ele>
        <time>2014-06-08T10:14:49Z</time>
      </trkpt>
      <trkpt lat="43.70907" lon="3.5049">
        <ele>333.4</ele>
        <time>2014-06-08T10:14:56Z</time>
      </trkpt>
      <trkpt lat="43.70904" lon="3.50503">
        <ele>333.8</ele>
        <time>2014-06-08T10:15:03Z</time>
      </trkpt>
      <trkpt lat="43.70901" lon="3.50517">
        <ele>334.4</ele>
        <time>2014-06-08T10:15:09Z</time>
      </trkpt>
      <trkpt lat="43.70897" lon="3.50542">
        <ele>336.3</ele>
        <time>2014-06-08T10:15:19Z</time>
      </trkpt>
      <trkpt lat="43.70898" lon="3.50556">
        <ele>337.9</ele>
        <time>2014-06-08T10:15:25Z</time>
      </trkpt>
      <trkpt lat="43.70901" lon="3.5057">
        <ele>338</ele>
        <time>2014-06-08T10:15:31Z</time>
      </trkpt>
      <trkpt lat="43.70905" lon="3.50583">
        <ele>339</ele>
        <time>2014-06-08T10:15:37Z</time>
      </trkpt>
      <trkpt lat="43.7091" lon="3.50594">
        <ele>339.6</ele>
        <time>2014-06-08T10:15:42Z</time>
      </trkpt>
      <trkpt lat="43.70917" lon="3.50604">
        <ele>340.8</ele>
        <time>2014-06-08T10:15:47Z</time>
      </trkpt>
      <trkpt lat="43.70923" lon="3.50614">
        <ele>341.4</ele>
        <time>2014-06-08T10:15:53Z</time>
      </trkpt>
      <trkpt lat="43.7093" lon="3.50625">
        <ele>343.1</ele>
        <time>2014-06-08T10:15:59Z</time>
      </trkpt>
      <trkpt lat="43.70937" lon="3.50635">
        <ele>343.6</ele>
        <time>2014-06-08T10:16:04Z</time>
      </trkpt>
      <trkpt lat="43.70944" lon="3.50645">
        <ele>345.5</ele>
        <time>2014-06-08T10:16:10Z</time>
      </trkpt>
      <trkpt lat="43.70958" lon="3.50665">
        <ele>347</ele>
        <time>2014-06-08T10:16:20Z</time>
      </trkpt>
      <trkpt lat="43.70964" lon="3.50675">
        <ele>347.1</ele>
        <time>2014-06-08T10:16:25Z</time>
      </trkpt>
      <trkpt lat="43.70971" lon="3.50684">
        <ele>348.4</ele>
        <time>2014-06-08T10:16:30Z</time>
      </trkpt>
      <trkpt lat="43.70979" lon="3.50693">
        <ele>348.8</ele>
        <time>2014-06-08T10:16:35Z</time>
      </trkpt>
      <trkpt lat="43.70987" lon="3.50701">
        <ele>349.2</ele>
        <time>2014-06-08T10:16:40Z</time>
      </trkpt>
      <trkpt lat="43.70996" lon="3.50712">
        <ele>350.5</ele>
        <time>2014-06-08T10:16:45Z</time>
      </trkpt>
      <trkpt lat="43.71001" lon="3.50723">
        <ele>350.8</ele>
        <time>2014-06-08T10:16:49Z</time>
      </trkpt>
      <trkpt lat="43.71008" lon="3.50735">
        <ele>350.8</ele>
        <time>2014-06-08T10:16:53Z</time>
      </trkpt>
      <trkpt lat="43.71015" lon="3.50747">
        <ele>351</ele>
        <time>2014-06-08T10:16:57Z</time>
      </trkpt>
      <trkpt lat="43.71022" lon="3.5076">
        <ele>352.4</ele>
        <time>2014-06-08T10:17:01Z</time>
      </trkpt>
      <trkpt lat="43.71029" lon="3.50773">
        <ele>352.8</ele>
        <time>2014-06-08T10:17:05Z</time>
      </trkpt>
      <trkpt lat="43.71035" lon="3.50786">
        <ele>352.3</ele>
        <time>2014-06-08T10:17:09Z</time>
      </trkpt>
      <trkpt lat="43.71041" lon="3.508">
        <ele>353.1</ele>
        <time>2014-06-08T10:17:13Z</time>
      </trkpt>
      <trkpt lat="43.71053" lon="3.50824">
        <ele>353.7</ele>
        <time>2014-06-08T10:17:20Z</time>
      </trkpt>
      <trkpt lat="43.71058" lon="3.50836">
        <ele>354.2</ele>
        <time>2014-06-08T10:17:24Z</time>
      </trkpt>
      <trkpt lat="43.71062" lon="3.50848">
        <ele>355.4</ele>
        <time>2014-06-08T10:17:30Z</time>
      </trkpt>
      <trkpt lat="43.71061" lon="3.50861">
        <ele>357.2</ele>
        <time>2014-06-08T10:17:36Z</time>
      </trkpt>
      <trkpt lat="43.71056" lon="3.50873">
        <ele>358.1</ele>
        <time>2014-06-08T10:17:43Z</time>
      </trkpt>
      <trkpt lat="43.71052" lon="3.50886">
        <ele>359.6</ele>
        <time>2014-06-08T10:17:49Z</time>
      </trkpt>
      <trkpt lat="43.71051" lon="3.50899">
        <ele>359.9</ele>
        <time>2014-06-08T10:17:55Z</time>
      </trkpt>
      <trkpt lat="43.71051" lon="3.50912">
        <ele>361</ele>
        <time>2014-06-08T10:18:01Z</time>
      </trkpt>
      <trkpt lat="43.71051" lon="3.50924">
        <ele>361.1</ele>
        <time>2014-06-08T10:18:07Z</time>
      </trkpt>
      <trkpt lat="43.71051" lon="3.50937">
        <ele>362.2</ele>
        <time>2014-06-08T10:18:13Z</time>
      </trkpt>
      <trkpt lat="43.71053" lon="3.5095">
        <ele>363.2</ele>
        <time>2014-06-08T10:18:19Z</time>
      </trkpt>
      <trkpt lat="43.71059" lon="3.50974">
        <ele>365</ele>
        <time>2014-06-08T10:18:31Z</time>
      </trkpt>
      <trkpt lat="43.71064" lon="3.50986">
        <ele>365.9</ele>
        <time>2014-06-08T10:18:37Z</time>
      </trkpt>
      <trkpt lat="43.71066" lon="3.50998">
        <ele>366.4</ele>
        <time>2014-06-08T10:18:43Z</time>
      </trkpt>
      <trkpt lat="43.71067" lon="3.51011">
        <ele>368.5</ele>
        <time>2014-06-08T10:18:49Z</time>
      </trkpt>
      <trkpt lat="43.71067" lon="3.51024">
        <ele>369.2</ele>
        <time>2014-06-08T10:18:55Z</time>
      </trkpt>
      <trkpt lat="43.71068" lon="3.51037">
        <ele>370.2</ele>
        <time>2014-06-08T10:19:01Z</time>
      </trkpt>
      <trkpt lat="43.71071" lon="3.51049">
        <ele>372</ele>
        <time>2014-06-08T10:19:07Z</time>
      </trkpt>
      <trkpt lat="43.71075" lon="3.51061">
        <ele>372.6</ele>
        <time>2014-06-08T10:19:14Z</time>
      </trkpt>
      <trkpt lat="43.71081" lon="3.51071">
        <ele>373.8</ele>
        <time>2014-06-08T10:19:21Z</time>
      </trkpt>
      <trkpt lat="43.71093" lon="3.51094">
        <ele>377.6</ele>
        <time>2014-06-08T10:19:37Z</time>
      </trkpt>
      <trkpt lat="43.71097" lon="3.51105">
        <ele>379.3</ele>
        <time>2014-06-08T10:19:44Z</time>
      </trkpt>
      <trkpt lat="43.71102" lon="3.51117">
        <ele>380.6</ele>
        <time>2014-06-08T10:19:52Z</time>
      </trkpt>
      <trkpt lat="43.71108" lon="3.51129">
        <ele>381.6</ele>
        <time>2014-06-08T10:20:00Z</time>
      </trkpt>
      <trkpt lat="43.71114" lon="3.51138">
        <ele>382.9</ele>
        <time>2014-06-08T10:20:07Z</time>
      </trkpt>
      <trkpt lat="43.7112" lon="3.51149">
        <ele>383.6</ele>
        <time>2014-06-08T10:20:14Z</time>
      </trkpt>
      <trkpt lat="43.71127" lon="3.51158">
        <ele>384.8</ele>
        <time>2014-06-08T10:20:20Z</time>
      </trkpt>
      <trkpt lat="43.71134" lon="3.51168">
        <ele>385.8</ele>
        <time>2014-06-08T10:20:26Z</time>
      </trkpt>
      <trkpt lat="43.71146" lon="3.51187">
        <ele>387.7</ele>
        <time>2014-06-08T10:20:38Z</time>
      </trkpt>
      <trkpt lat="43.71151" lon="3.51197">
        <ele>386.9</ele>
        <time>2014-06-08T10:20:44Z</time>
      </trkpt>
      <trkpt lat="43.71156" lon="3.51208">
        <ele>389.3</ele>
        <time>2014-06-08T10:20:50Z</time>
      </trkpt>
      <trkpt lat="43.71161" lon="3.51219">
        <ele>389.8</ele>
        <time>2014-06-08T10:20:56Z</time>
      </trkpt>
      <trkpt lat="43.71166" lon="3.5123">
        <ele>390</ele>
        <time>2014-06-08T10:21:02Z</time>
      </trkpt>
      <trkpt lat="43.71172" lon="3.51241">
        <ele>391.2</ele>
        <time>2014-06-08T10:21:08Z</time>
      </trkpt>
      <trkpt lat="43.71177" lon="3.51254">
        <ele>391.4</ele>
        <time>2014-06-08T10:21:14Z</time>
      </trkpt>
      <trkpt lat="43.71181" lon="3.51266">
        <ele>391.7</ele>
        <time>2014-06-08T10:21:20Z</time>
      </trkpt>
      <trkpt lat="43.71183" lon="3.5128">
        <ele>393</ele>
        <time>2014-06-08T10:21:26Z</time>
      </trkpt>
      <trkpt lat="43.71185" lon="3.51293">
        <ele>393.4</ele>
        <time>2014-06-08T10:21:32Z</time>
      </trkpt>
      <trkpt lat="43.71196" lon="3.51316">
        <ele>395.2</ele>
        <time>2014-06-08T10:21:44Z</time>
      </trkpt>
      <trkpt lat="43.71203" lon="3.51325">
        <ele>396.5</ele>
        <time>2014-06-08T10:21:50Z</time>
      </trkpt>
      <trkpt lat="43.7121" lon="3.51334">
        <ele>396.6</ele>
        <time>2014-06-08T10:21:56Z</time>
      </trkpt>
      <trkpt lat="43.71216" lon="3.51345">
        <ele>398</ele>
        <time>2014-06-08T10:22:02Z</time>
      </trkpt>
      <trkpt lat="43.71223" lon="3.51355">
        <ele>398.2</ele>
        <time>2014-06-08T10:22:08Z</time>
      </trkpt>
      <trkpt lat="43.7123" lon="3.51362">
        <ele>398.8</ele>
        <time>2014-06-08T10:22:14Z</time>
      </trkpt>
      <trkpt lat="43.71236" lon="3.51351">
        <ele>399.8</ele>
        <time>2014-06-08T10:22:23Z</time>
      </trkpt>
      <trkpt lat="43.71235" lon="3.51336">
        <ele>402.1</ele>
        <time>2014-06-08T10:22:30Z</time>
      </trkpt>
      <trkpt lat="43.71234" lon="3.51323">
        <ele>402.4</ele>
        <time>2014-06-08T10:22:36Z</time>
      </trkpt>
      <trkpt lat="43.7123" lon="3.51297">
        <ele>403.8</ele>
        <time>2014-06-08T10:22:45Z</time>
      </trkpt>
      <trkpt lat="43.71229" lon="3.51284">
        <ele>404.1</ele>
        <time>2014-06-08T10:22:49Z</time>
      </trkpt>
      <trkpt lat="43.71228" lon="3.51269">
        <ele>403.8</ele>
        <time>2014-06-08T10:22:53Z</time>
      </trkpt>
      <trkpt lat="43.71225" lon="3.51253">
        <ele>403.5</ele>
        <time>2014-06-08T10:22:56Z</time>
      </trkpt>
      <trkpt lat="43.7122" lon="3.51239">
        <ele>402.9</ele>
        <time>2014-06-08T10:22:58Z</time>
      </trkpt>
      <trkpt lat="43.71214" lon="3.51226">
        <ele>402.1</ele>
        <time>2014-06-08T10:23:00Z</time>
      </trkpt>
      <trkpt lat="43.71211" lon="3.51213">
        <ele>401.7</ele>
        <time>2014-06-08T10:23:02Z</time>
      </trkpt>
      <trkpt lat="43.7121" lon="3.51198">
        <ele>401.3</ele>
        <time>2014-06-08T10:23:05Z</time>
      </trkpt>
      <trkpt lat="43.71211" lon="3.51185">
        <ele>402.1</ele>
        <time>2014-06-08T10:23:08Z</time>
      </trkpt>
      <trkpt lat="43.71213" lon="3.51169">
        <ele>402.8</ele>
        <time>2014-06-08T10:23:12Z</time>
      </trkpt>
      <trkpt lat="43.71217" lon="3.51153">
        <ele>402.8</ele>
        <time>2014-06-08T10:23:16Z</time>
      </trkpt>
      <trkpt lat="43.71222" lon="3.51141">
        <ele>403.1</ele>
        <time>2014-06-08T10:23:19Z</time>
      </trkpt>
      <trkpt lat="43.71228" lon="3.5113">
        <ele>402.9</ele>
        <time>2014-06-08T10:23:22Z</time>
      </trkpt>
      <trkpt lat="43.71236" lon="3.51125">
        <ele>403.8</ele>
        <time>2014-06-08T10:23:26Z</time>
      </trkpt>
      <trkpt lat="43.71246" lon="3.51128">
        <ele>405.2</ele>
        <time>2014-06-08T10:23:34Z</time>
      </trkpt>
      <trkpt lat="43.71252" lon="3.51137">
        <ele>406.8</ele>
        <time>2014-06-08T10:23:42Z</time>
      </trkpt>
      <trkpt lat="43.71249" lon="3.51164">
        <ele>409.9</ele>
        <time>2014-06-08T10:23:56Z</time>
      </trkpt>
      <trkpt lat="43.71247" lon="3.51177">
        <ele>409.8</ele>
        <time>2014-06-08T10:24:02Z</time>
      </trkpt>
      <trkpt lat="43.71251" lon="3.51189">
        <ele>410.7</ele>
        <time>2014-06-08T10:24:09Z</time>
      </trkpt>
      <trkpt lat="43.71256" lon="3.51201">
        <ele>412.4</ele>
        <time>2014-06-08T10:24:16Z</time>
      </trkpt>
      <trkpt lat="43.71264" lon="3.5121">
        <ele>413.4</ele>
        <time>2014-06-08T10:24:23Z</time>
      </trkpt>
      <trkpt lat="43.71271" lon="3.5122">
        <ele>414.3</ele>
        <time>2014-06-08T10:24:30Z</time>
      </trkpt>
      <trkpt lat="43.71274" lon="3.51233">
        <ele>414.5</ele>
        <time>2014-06-08T10:24:36Z</time>
      </trkpt>
      <trkpt lat="43.71284" lon="3.5123">
        <ele>416.2</ele>
        <time>2014-06-08T10:24:44Z</time>
      </trkpt>
      <trkpt lat="43.71291" lon="3.51207">
        <ele>417.6</ele>
        <time>2014-06-08T10:24:56Z</time>
      </trkpt>
      <trkpt lat="43.71296" lon="3.51196">
        <ele>419.5</ele>
        <time>2014-06-08T10:25:05Z</time>
      </trkpt>
      <trkpt lat="43.71305" lon="3.51196">
        <ele>422.1</ele>
        <time>2014-06-08T10:25:18Z</time>
      </trkpt>
      <trkpt lat="43.71314" lon="3.51199">
        <ele>423.9</ele>
        <time>2014-06-08T10:25:31Z</time>
      </trkpt>
      <trkpt lat="43.71323" lon="3.51202">
        <ele>425.8</ele>
        <time>2014-06-08T10:25:43Z</time>
      </trkpt>
      <trkpt lat="43.71332" lon="3.51197">
        <ele>428.4</ele>
        <time>2014-06-08T10:25:56Z</time>
      </trkpt>
      <trkpt lat="43.7135" lon="3.51192">
        <ele>431.9</ele>
        <time>2014-06-08T10:26:20Z</time>
      </trkpt>
      <trkpt lat="43.71359" lon="3.51189">
        <ele>433</ele>
        <time>2014-06-08T10:26:31Z</time>
      </trkpt>
      <trkpt lat="43.71368" lon="3.51194">
        <ele>434.9</ele>
        <time>2014-06-08T10:26:44Z</time>
      </trkpt>
      <trkpt lat="43.71376" lon="3.51201">
        <ele>437.5</ele>
        <time>2014-06-08T10:26:57Z</time>
      </trkpt>
      <trkpt lat="43.7139" lon="3.51218">
        <ele>439.4</ele>
        <time>2014-06-08T10:27:20Z</time>
      </trkpt>
      <trkpt lat="43.71396" lon="3.51227">
        <ele>440.7</ele>
        <time>2014-06-08T10:27:30Z</time>
      </trkpt>
      <trkpt lat="43.71403" lon="3.51237">
        <ele>442.2</ele>
        <time>2014-06-08T10:27:40Z</time>
      </trkpt>
      <trkpt lat="43.7141" lon="3.51246">
        <ele>443</ele>
        <time>2014-06-08T10:27:50Z</time>
      </trkpt>
      <trkpt lat="43.71417" lon="3.51255">
        <ele>445</ele>
        <time>2014-06-08T10:27:59Z</time>
      </trkpt>
      <trkpt lat="43.71433" lon="3.51269">
        <ele>447.3</ele>
        <time>2014-06-08T10:28:17Z</time>
      </trkpt>
      <trkpt lat="43.71441" lon="3.51276">
        <ele>449.4</ele>
        <time>2014-06-08T10:28:26Z</time>
      </trkpt>
      <trkpt lat="43.71449" lon="3.51284">
        <ele>451.2</ele>
        <time>2014-06-08T10:28:34Z</time>
      </trkpt>
      <trkpt lat="43.71456" lon="3.51291">
        <ele>452.1</ele>
        <time>2014-06-08T10:28:43Z</time>
      </trkpt>
      <trkpt lat="43.71463" lon="3.51299">
        <ele>452.8</ele>
        <time>2014-06-08T10:28:51Z</time>
      </trkpt>
      <trkpt lat="43.71471" lon="3.51306">
        <ele>454.4</ele>
        <time>2014-06-08T10:28:59Z</time>
      </trkpt>
      <trkpt lat="43.71479" lon="3.51313">
        <ele>455.1</ele>
        <time>2014-06-08T10:29:07Z</time>
      </trkpt>
      <trkpt lat="43.71495" lon="3.51327">
        <ele>457.7</ele>
        <time>2014-06-08T10:29:25Z</time>
      </trkpt>
      <trkpt lat="43.71504" lon="3.51332">
        <ele>457.8</ele>
        <time>2014-06-08T10:29:30Z</time>
      </trkpt>
      <trkpt lat="43.71514" lon="3.51337">
        <ele>458.8</ele>
        <time>2014-06-08T10:29:35Z</time>
      </trkpt>
      <trkpt lat="43.71523" lon="3.51341">
        <ele>459.3</ele>
        <time>2014-06-08T10:29:39Z</time>
      </trkpt>
      <trkpt lat="43.71533" lon="3.51345">
        <ele>459</ele>
        <time>2014-06-08T10:29:43Z</time>
      </trkpt>
      <trkpt lat="43.71543" lon="3.51349">
        <ele>460.2</ele>
        <time>2014-06-08T10:29:47Z</time>
      </trkpt>
      <trkpt lat="43.71553" lon="3.51353">
        <ele>459.6</ele>
        <time>2014-06-08T10:29:51Z</time>
      </trkpt>
      <trkpt lat="43.71565" lon="3.51353">
        <ele>459.5</ele>
        <time>2014-06-08T10:29:55Z</time>
      </trkpt>
      <trkpt lat="43.71576" lon="3.51351">
        <ele>459.8</ele>
        <time>2014-06-08T10:29:59Z</time>
      </trkpt>
      <trkpt lat="43.71585" lon="3.51349">
        <ele>459.4</ele>
        <time>2014-06-08T10:30:02Z</time>
      </trkpt>
      <trkpt lat="43.71595" lon="3.51346">
        <ele>458.8</ele>
        <time>2014-06-08T10:30:05Z</time>
      </trkpt>
      <trkpt lat="43.71605" lon="3.51342">
        <ele>458.7</ele>
        <time>2014-06-08T10:30:08Z</time>
      </trkpt>
      <trkpt lat="43.71627" lon="3.51333">
        <ele>459.5</ele>
        <time>2014-06-08T10:30:14Z</time>
      </trkpt>
      <trkpt lat="43.71639" lon="3.51335">
        <ele>459.2</ele>
        <time>2014-06-08T10:30:17Z</time>
      </trkpt>
      <trkpt lat="43.7165" lon="3.51342">
        <ele>458.8</ele>
        <time>2014-06-08T10:30:20Z</time>
      </trkpt>
      <trkpt lat="43.71658" lon="3.51349">
        <ele>458.5</ele>
        <time>2014-06-08T10:30:22Z</time>
      </trkpt>
      <trkpt lat="43.71666" lon="3.51357">
        <ele>458.2</ele>
        <time>2014-06-08T10:30:24Z</time>
      </trkpt>
      <trkpt lat="43.71671" lon="3.51369">
        <ele>458.1</ele>
        <time>2014-06-08T10:30:26Z</time>
      </trkpt>
      <trkpt lat="43.71674" lon="3.51384">
        <ele>458</ele>
        <time>2014-06-08T10:30:28Z</time>
      </trkpt>
      <trkpt lat="43.71676" lon="3.514">
        <ele>456.6</ele>
        <time>2014-06-08T10:30:30Z</time>
      </trkpt>
      <trkpt lat="43.7168" lon="3.51414">
        <ele>455.8</ele>
        <time>2014-06-08T10:30:32Z</time>
      </trkpt>
      <trkpt lat="43.71686" lon="3.51427">
        <ele>454.4</ele>
        <time>2014-06-08T10:30:34Z</time>
      </trkpt>
      <trkpt lat="43.71691" lon="3.51444">
        <ele>453.3</ele>
        <time>2014-06-08T10:30:36Z</time>
      </trkpt>
      <trkpt lat="43.71695" lon="3.51464">
        <ele>452</ele>
        <time>2014-06-08T10:30:38Z</time>
      </trkpt>
      <trkpt lat="43.71699" lon="3.51485">
        <ele>451</ele>
        <time>2014-06-08T10:30:40Z</time>
      </trkpt>
      <trkpt lat="43.71705" lon="3.51503">
        <ele>448.5</ele>
        <time>2014-06-08T10:30:42Z</time>
      </trkpt>
      <trkpt lat="43.71715" lon="3.51515">
        <ele>446.7</ele>
        <time>2014-06-08T10:30:44Z</time>
      </trkpt>
      <trkpt lat="43.71718" lon="3.51528">
        <ele>446.5</ele>
        <time>2014-06-08T10:30:46Z</time>
      </trkpt>
      <trkpt lat="43.71712" lon="3.51539">
        <ele>446</ele>
        <time>2014-06-08T10:30:49Z</time>
      </trkpt>
      <trkpt lat="43.71701" lon="3.51543">
        <ele>445.6</ele>
        <time>2014-06-08T10:30:52Z</time>
      </trkpt>
      <trkpt lat="43.71689" lon="3.51546">
        <ele>445.9</ele>
        <time>2014-06-08T10:30:55Z</time>
      </trkpt>
      <trkpt lat="43.71676" lon="3.5155">
        <ele>445.9</ele>
        <time>2014-06-08T10:30:58Z</time>
      </trkpt>
      <trkpt lat="43.71667" lon="3.51554">
        <ele>446.1</ele>
        <time>2014-06-08T10:31:00Z</time>
      </trkpt>
      <trkpt lat="43.71659" lon="3.5156">
        <ele>445.9</ele>
        <time>2014-06-08T10:31:02Z</time>
      </trkpt>
      <trkpt lat="43.71651" lon="3.51568">
        <ele>445.5</ele>
        <time>2014-06-08T10:31:04Z</time>
      </trkpt>
      <trkpt lat="43.71644" lon="3.51577">
        <ele>445.1</ele>
        <time>2014-06-08T10:31:06Z</time>
      </trkpt>
      <trkpt lat="43.71637" lon="3.51587">
        <ele>444.9</ele>
        <time>2014-06-08T10:31:08Z</time>
      </trkpt>
      <trkpt lat="43.71632" lon="3.516">
        <ele>444.4</ele>
        <time>2014-06-08T10:31:10Z</time>
      </trkpt>
      <trkpt lat="43.71622" lon="3.51631">
        <ele>443.2</ele>
        <time>2014-06-08T10:31:14Z</time>
      </trkpt>
      <trkpt lat="43.71615" lon="3.51647">
        <ele>441.9</ele>
        <time>2014-06-08T10:31:16Z</time>
      </trkpt>
      <trkpt lat="43.71608" lon="3.51665">
        <ele>440.8</ele>
        <time>2014-06-08T10:31:18Z</time>
      </trkpt>
      <trkpt lat="43.71599" lon="3.51683">
        <ele>439.4</ele>
        <time>2014-06-08T10:31:20Z</time>
      </trkpt>
      <trkpt lat="43.7159" lon="3.51701">
        <ele>438.2</ele>
        <time>2014-06-08T10:31:22Z</time>
      </trkpt>
      <trkpt lat="43.71581" lon="3.51721">
        <ele>436.7</ele>
        <time>2014-06-08T10:31:24Z</time>
      </trkpt>
      <trkpt lat="43.71576" lon="3.51741">
        <ele>435</ele>
        <time>2014-06-08T10:31:26Z</time>
      </trkpt>
      <trkpt lat="43.71575" lon="3.51763">
        <ele>432.8</ele>
        <time>2014-06-08T10:31:28Z</time>
      </trkpt>
      <trkpt lat="43.71579" lon="3.5178">
        <ele>430.7</ele>
        <time>2014-06-08T10:31:30Z</time>
      </trkpt>
      <trkpt lat="43.71587" lon="3.51796">
        <ele>429.3</ele>
        <time>2014-06-08T10:31:32Z</time>
      </trkpt>
      <trkpt lat="43.71597" lon="3.51812">
        <ele>427.8</ele>
        <time>2014-06-08T10:31:34Z</time>
      </trkpt>
      <trkpt lat="43.71609" lon="3.51827">
        <ele>426.5</ele>
        <time>2014-06-08T10:31:36Z</time>
      </trkpt>
      <trkpt lat="43.71623" lon="3.51841">
        <ele>424.9</ele>
        <time>2014-06-08T10:31:38Z</time>
      </trkpt>
      <trkpt lat="43.71637" lon="3.51855">
        <ele>423.4</ele>
        <time>2014-06-08T10:31:40Z</time>
      </trkpt>
      <trkpt lat="43.71653" lon="3.51869">
        <ele>421.7</ele>
        <time>2014-06-08T10:31:42Z</time>
      </trkpt>
      <trkpt lat="43.71661" lon="3.51875">
        <ele>421</ele>
        <time>2014-06-08T10:31:43Z</time>
      </trkpt>
      <trkpt lat="43.71669" lon="3.51882">
        <ele>420.5</ele>
        <time>2014-06-08T10:31:44Z</time>
      </trkpt>
      <trkpt lat="43.71677" lon="3.51889">
        <ele>419.6</ele>
        <time>2014-06-08T10:31:45Z</time>
      </trkpt>
      <trkpt lat="43.71685" lon="3.51897">
        <ele>418.8</ele>
        <time>2014-06-08T10:31:46Z</time>
      </trkpt>
      <trkpt lat="43.71698" lon="3.51912">
        <ele>417.1</ele>
        <time>2014-06-08T10:31:48Z</time>
      </trkpt>
      <trkpt lat="43.71705" lon="3.51928">
        <ele>415.7</ele>
        <time>2014-06-08T10:31:50Z</time>
      </trkpt>
      <trkpt lat="43.71704" lon="3.51943">
        <ele>415.1</ele>
        <time>2014-06-08T10:31:52Z</time>
      </trkpt>
      <trkpt lat="43.717" lon="3.51958">
        <ele>414.7</ele>
        <time>2014-06-08T10:31:54Z</time>
      </trkpt>
      <trkpt lat="43.71694" lon="3.51973">
        <ele>414.2</ele>
        <time>2014-06-08T10:31:56Z</time>
      </trkpt>
      <trkpt lat="43.71686" lon="3.51989">
        <ele>413.4</ele>
        <time>2014-06-08T10:31:58Z</time>
      </trkpt>
      <trkpt lat="43.71681" lon="3.52008">
        <ele>411.7</ele>
        <time>2014-06-08T10:32:00Z</time>
      </trkpt>
      <trkpt lat="43.71677" lon="3.52028">
        <ele>409.4</ele>
        <time>2014-06-08T10:32:02Z</time>
      </trkpt>
      <trkpt lat="43.71669" lon="3.52046">
        <ele>408</ele>
        <time>2014-06-08T10:32:04Z</time>
      </trkpt>
      <trkpt lat="43.71659" lon="3.52063">
        <ele>406.9</ele>
        <time>2014-06-08T10:32:06Z</time>
      </trkpt>
      <trkpt lat="43.71646" lon="3.52076">
        <ele>405.4</ele>
        <time>2014-06-08T10:32:08Z</time>
      </trkpt>
      <trkpt lat="43.71633" lon="3.52088">
        <ele>404</ele>
        <time>2014-06-08T10:32:10Z</time>
      </trkpt>
      <trkpt lat="43.71617" lon="3.52097">
        <ele>403</ele>
        <time>2014-06-08T10:32:12Z</time>
      </trkpt>
      <trkpt lat="43.71593" lon="3.5211">
        <ele>399.4</ele>
        <time>2014-06-08T10:32:15Z</time>
      </trkpt>
      <trkpt lat="43.71584" lon="3.52115">
        <ele>398.3</ele>
        <time>2014-06-08T10:32:16Z</time>
      </trkpt>
      <trkpt lat="43.71575" lon="3.5212">
        <ele>397.4</ele>
        <time>2014-06-08T10:32:17Z</time>
      </trkpt>
      <trkpt lat="43.71566" lon="3.52125">
        <ele>396.4</ele>
        <time>2014-06-08T10:32:18Z</time>
      </trkpt>
      <trkpt lat="43.71558" lon="3.52129">
        <ele>395.7</ele>
        <time>2014-06-08T10:32:19Z</time>
      </trkpt>
      <trkpt lat="43.71549" lon="3.52134">
        <ele>394.4</ele>
        <time>2014-06-08T10:32:20Z</time>
      </trkpt>
      <trkpt lat="43.71541" lon="3.52139">
        <ele>393.4</ele>
        <time>2014-06-08T10:32:21Z</time>
      </trkpt>
      <trkpt lat="43.71524" lon="3.52148">
        <ele>391.4</ele>
        <time>2014-06-08T10:32:23Z</time>
      </trkpt>
      <trkpt lat="43.7151" lon="3.52155">
        <ele>389.4</ele>
        <time>2014-06-08T10:32:25Z</time>
      </trkpt>
      <trkpt lat="43.71498" lon="3.52169">
        <ele>387.4</ele>
        <time>2014-06-08T10:32:27Z</time>
      </trkpt>
      <trkpt lat="43.71487" lon="3.52185">
        <ele>386</ele>
        <time>2014-06-08T10:32:29Z</time>
      </trkpt>
      <trkpt lat="43.71473" lon="3.52199">
        <ele>383.8</ele>
        <time>2014-06-08T10:32:31Z</time>
      </trkpt>
      <trkpt lat="43.71456" lon="3.52208">
        <ele>381.8</ele>
        <time>2014-06-08T10:32:33Z</time>
      </trkpt>
      <trkpt lat="43.71441" lon="3.52213">
        <ele>380</ele>
        <time>2014-06-08T10:32:35Z</time>
      </trkpt>
      <trkpt lat="43.7143" lon="3.52219">
        <ele>378.5</ele>
        <time>2014-06-08T10:32:37Z</time>
      </trkpt>
      <trkpt lat="43.71423" lon="3.52229">
        <ele>377</ele>
        <time>2014-06-08T10:32:39Z</time>
      </trkpt>
      <trkpt lat="43.71423" lon="3.52243">
        <ele>376.2</ele>
        <time>2014-06-08T10:32:41Z</time>
      </trkpt>
      <trkpt lat="43.71424" lon="3.52257">
        <ele>374.8</ele>
        <time>2014-06-08T10:32:43Z</time>
      </trkpt>
      <trkpt lat="43.71421" lon="3.52272">
        <ele>372.4</ele>
        <time>2014-06-08T10:32:45Z</time>
      </trkpt>
      <trkpt lat="43.71416" lon="3.52286">
        <ele>372.4</ele>
        <time>2014-06-08T10:32:47Z</time>
      </trkpt>
      <trkpt lat="43.7141" lon="3.52299">
        <ele>372.1</ele>
        <time>2014-06-08T10:32:49Z</time>
      </trkpt>
      <trkpt lat="43.71404" lon="3.52313">
        <ele>371.5</ele>
        <time>2014-06-08T10:32:51Z</time>
      </trkpt>
      <trkpt lat="43.71399" lon="3.52325">
        <ele>370.5</ele>
        <time>2014-06-08T10:32:53Z</time>
      </trkpt>
      <trkpt lat="43.71392" lon="3.52335">
        <ele>369.4</ele>
        <time>2014-06-08T10:32:55Z</time>
      </trkpt>
      <trkpt lat="43.71382" lon="3.52338">
        <ele>367.7</ele>
        <time>2014-06-08T10:32:58Z</time>
      </trkpt>
      <trkpt lat="43.71375" lon="3.52331">
        <ele>366.9</ele>
        <time>2014-06-08T10:33:01Z</time>
      </trkpt>
      <trkpt lat="43.71364" lon="3.52337">
        <ele>365.8</ele>
        <time>2014-06-08T10:33:04Z</time>
      </trkpt>
      <trkpt lat="43.71354" lon="3.52338">
        <ele>363.3</ele>
        <time>2014-06-08T10:33:07Z</time>
      </trkpt>
      <trkpt lat="43.71344" lon="3.52341">
        <ele>361.4</ele>
        <time>2014-06-08T10:33:10Z</time>
      </trkpt>
      <trkpt lat="43.71334" lon="3.5235">
        <ele>359.4</ele>
        <time>2014-06-08T10:33:13Z</time>
      </trkpt>
      <trkpt lat="43.71313" lon="3.52364">
        <ele>356.8</ele>
        <time>2014-06-08T10:33:19Z</time>
      </trkpt>
      <trkpt lat="43.71304" lon="3.5236">
        <ele>355.3</ele>
        <time>2014-06-08T10:33:23Z</time>
      </trkpt>
      <trkpt lat="43.71295" lon="3.52359">
        <ele>352.5</ele>
        <time>2014-06-08T10:33:28Z</time>
      </trkpt>
      <trkpt lat="43.71284" lon="3.52354">
        <ele>349.7</ele>
        <time>2014-06-08T10:33:33Z</time>
      </trkpt>
      <trkpt lat="43.71274" lon="3.52346">
        <ele>346.8</ele>
        <time>2014-06-08T10:33:37Z</time>
      </trkpt>
      <trkpt lat="43.71266" lon="3.52335">
        <ele>342.4</ele>
        <time>2014-06-08T10:33:41Z</time>
      </trkpt>
      <trkpt lat="43.71256" lon="3.52332">
        <ele>338.8</ele>
        <time>2014-06-08T10:33:46Z</time>
      </trkpt>
      <trkpt lat="43.71246" lon="3.52329">
        <ele>336.7</ele>
        <time>2014-06-08T10:33:49Z</time>
      </trkpt>
      <trkpt lat="43.71234" lon="3.52327">
        <ele>334.2</ele>
        <time>2014-06-08T10:33:52Z</time>
      </trkpt>
      <trkpt lat="43.71222" lon="3.52326">
        <ele>330.6</ele>
        <time>2014-06-08T10:33:55Z</time>
      </trkpt>
      <trkpt lat="43.71209" lon="3.52322">
        <ele>327.8</ele>
        <time>2014-06-08T10:33:58Z</time>
      </trkpt>
      <trkpt lat="43.71198" lon="3.52322">
        <ele>326.2</ele>
        <time>2014-06-08T10:34:00Z</time>
      </trkpt>
      <trkpt lat="43.71188" lon="3.52322">
        <ele>324.1</ele>
        <time>2014-06-08T10:34:02Z</time>
      </trkpt>
      <trkpt lat="43.71179" lon="3.52326">
        <ele>322.2</ele>
        <time>2014-06-08T10:34:04Z</time>
      </trkpt>
      <trkpt lat="43.71169" lon="3.52333">
        <ele>319.5</ele>
        <time>2014-06-08T10:34:07Z</time>
      </trkpt>
      <trkpt lat="43.71157" lon="3.52333">
        <ele>317.2</ele>
        <time>2014-06-08T10:34:11Z</time>
      </trkpt>
      <trkpt lat="43.71148" lon="3.52335">
        <ele>315.7</ele>
        <time>2014-06-08T10:34:14Z</time>
      </trkpt>
      <trkpt lat="43.71127" lon="3.52338">
        <ele>312.8</ele>
        <time>2014-06-08T10:34:20Z</time>
      </trkpt>
      <trkpt lat="43.71117" lon="3.5234">
        <ele>311.4</ele>
        <time>2014-06-08T10:34:23Z</time>
      </trkpt>
      <trkpt lat="43.71107" lon="3.52341">
        <ele>309.6</ele>
        <time>2014-06-08T10:34:26Z</time>
      </trkpt>
      <trkpt lat="43.71095" lon="3.5234">
        <ele>308.1</ele>
        <time>2014-06-08T10:34:29Z</time>
      </trkpt>
      <trkpt lat="43.71083" lon="3.52336">
        <ele>306.1</ele>
        <time>2014-06-08T10:34:32Z</time>
      </trkpt>
      <trkpt lat="43.71071" lon="3.52334">
        <ele>304.2</ele>
        <time>2014-06-08T10:34:35Z</time>
      </trkpt>
      <trkpt lat="43.71059" lon="3.52334">
        <ele>302.7</ele>
        <time>2014-06-08T10:34:38Z</time>
      </trkpt>
      <trkpt lat="43.71049" lon="3.52333">
        <ele>301.5</ele>
        <time>2014-06-08T10:34:40Z</time>
      </trkpt>
      <trkpt lat="43.7104" lon="3.52333">
        <ele>300.5</ele>
        <time>2014-06-08T10:34:42Z</time>
      </trkpt>
      <trkpt lat="43.71027" lon="3.52336">
        <ele>298</ele>
        <time>2014-06-08T10:34:45Z</time>
      </trkpt>
      <trkpt lat="43.71017" lon="3.52335">
        <ele>295.9</ele>
        <time>2014-06-08T10:34:48Z</time>
      </trkpt>
      <trkpt lat="43.71008" lon="3.52335">
        <ele>293.6</ele>
        <time>2014-06-08T10:34:51Z</time>
      </trkpt>
      <trkpt lat="43.70997" lon="3.52336">
        <ele>290.2</ele>
        <time>2014-06-08T10:34:54Z</time>
      </trkpt>
      <trkpt lat="43.70985" lon="3.52335">
        <ele>287.7</ele>
        <time>2014-06-08T10:34:57Z</time>
      </trkpt>
      <trkpt lat="43.70974" lon="3.52331">
        <ele>285.1</ele>
        <time>2014-06-08T10:35:00Z</time>
      </trkpt>
      <trkpt lat="43.70963" lon="3.52322">
        <ele>283</ele>
        <time>2014-06-08T10:35:03Z</time>
      </trkpt>
      <trkpt lat="43.70952" lon="3.52316">
        <ele>280.4</ele>
        <time>2014-06-08T10:35:06Z</time>
      </trkpt>
      <trkpt lat="43.70944" lon="3.5231">
        <ele>278.9</ele>
        <time>2014-06-08T10:35:09Z</time>
      </trkpt>
      <trkpt lat="43.70935" lon="3.52303">
        <ele>277.1</ele>
        <time>2014-06-08T10:35:12Z</time>
      </trkpt>
      <trkpt lat="43.70923" lon="3.523">
        <ele>275.3</ele>
        <time>2014-06-08T10:35:15Z</time>
      </trkpt>
      <trkpt lat="43.70899" lon="3.523">
        <ele>271.5</ele>
        <time>2014-06-08T10:35:21Z</time>
      </trkpt>
      <trkpt lat="43.70888" lon="3.52303">
        <ele>268.5</ele>
        <time>2014-06-08T10:35:24Z</time>
      </trkpt>
      <trkpt lat="43.70878" lon="3.52305">
        <ele>266.8</ele>
        <time>2014-06-08T10:35:27Z</time>
      </trkpt>
      <trkpt lat="43.70866" lon="3.52309">
        <ele>264.4</ele>
        <time>2014-06-08T10:35:31Z</time>
      </trkpt>
      <trkpt lat="43.70853" lon="3.52312">
        <ele>262.7</ele>
        <time>2014-06-08T10:35:34Z</time>
      </trkpt>
      <trkpt lat="43.70841" lon="3.52317">
        <ele>261.3</ele>
        <time>2014-06-08T10:35:37Z</time>
      </trkpt>
      <trkpt lat="43.7083" lon="3.5232">
        <ele>260.7</ele>
        <time>2014-06-08T10:35:39Z</time>
      </trkpt>
      <trkpt lat="43.7082" lon="3.52324">
        <ele>259.5</ele>
        <time>2014-06-08T10:35:41Z</time>
      </trkpt>
      <trkpt lat="43.70811" lon="3.52327">
        <ele>257.5</ele>
        <time>2014-06-08T10:35:43Z</time>
      </trkpt>
      <trkpt lat="43.70799" lon="3.52332">
        <ele>256.4</ele>
        <time>2014-06-08T10:35:46Z</time>
      </trkpt>
      <trkpt lat="43.70788" lon="3.52336">
        <ele>254.5</ele>
        <time>2014-06-08T10:35:49Z</time>
      </trkpt>
      <trkpt lat="43.70779" lon="3.52341">
        <ele>252.2</ele>
        <time>2014-06-08T10:35:52Z</time>
      </trkpt>
      <trkpt lat="43.70769" lon="3.52349">
        <ele>251</ele>
        <time>2014-06-08T10:35:55Z</time>
      </trkpt>
      <trkpt lat="43.70757" lon="3.52358">
        <ele>249.2</ele>
        <time>2014-06-08T10:35:58Z</time>
      </trkpt>
      <trkpt lat="43.70747" lon="3.52365">
        <ele>248.1</ele>
        <time>2014-06-08T10:36:00Z</time>
      </trkpt>
      <trkpt lat="43.70738" lon="3.52373">
        <ele>247</ele>
        <time>2014-06-08T10:36:02Z</time>
      </trkpt>
      <trkpt lat="43.7073" lon="3.5238">
        <ele>245.5</ele>
        <time>2014-06-08T10:36:04Z</time>
      </trkpt>
      <trkpt lat="43.70719" lon="3.52386">
        <ele>243.4</ele>
        <time>2014-06-08T10:36:07Z</time>
      </trkpt>
      <trkpt lat="43.70709" lon="3.52393">
        <ele>242.4</ele>
        <time>2014-06-08T10:36:10Z</time>
      </trkpt>
      <trkpt lat="43.707" lon="3.52399">
        <ele>242</ele>
        <time>2014-06-08T10:36:12Z</time>
      </trkpt>
      <trkpt lat="43.70689" lon="3.52406">
        <ele>240</ele>
        <time>2014-06-08T10:36:14Z</time>
      </trkpt>
      <trkpt lat="43.70658" lon="3.52439">
        <ele>236</ele>
        <time>2014-06-08T10:36:22Z</time>
      </trkpt>
      <trkpt lat="43.70641" lon="3.52452">
        <ele>234</ele>
        <time>2014-06-08T10:36:26Z</time>
      </trkpt>
      <trkpt lat="43.70633" lon="3.5246">
        <ele>232.5</ele>
        <time>2014-06-08T10:36:29Z</time>
      </trkpt>
      <trkpt lat="43.70622" lon="3.52456">
        <ele>231.2</ele>
        <time>2014-06-08T10:36:33Z</time>
      </trkpt>
      <trkpt lat="43.7061" lon="3.5245">
        <ele>229.8</ele>
        <time>2014-06-08T10:36:36Z</time>
      </trkpt>
      <trkpt lat="43.70602" lon="3.52444">
        <ele>229</ele>
        <time>2014-06-08T10:36:38Z</time>
      </trkpt>
      <trkpt lat="43.70594" lon="3.52437">
        <ele>227.5</ele>
        <time>2014-06-08T10:36:40Z</time>
      </trkpt>
      <trkpt lat="43.70586" lon="3.5243">
        <ele>226.4</ele>
        <time>2014-06-08T10:36:42Z</time>
      </trkpt>
      <trkpt lat="43.70575" lon="3.52423">
        <ele>225.6</ele>
        <time>2014-06-08T10:36:45Z</time>
      </trkpt>
      <trkpt lat="43.70563" lon="3.52421">
        <ele>224.4</ele>
        <time>2014-06-08T10:36:48Z</time>
      </trkpt>
      <trkpt lat="43.70553" lon="3.52422">
        <ele>223.4</ele>
        <time>2014-06-08T10:36:50Z</time>
      </trkpt>
      <trkpt lat="43.70543" lon="3.52423">
        <ele>222.5</ele>
        <time>2014-06-08T10:36:52Z</time>
      </trkpt>
      <trkpt lat="43.70533" lon="3.52423">
        <ele>221</ele>
        <time>2014-06-08T10:36:54Z</time>
      </trkpt>
      <trkpt lat="43.70524" lon="3.52426">
        <ele>219.8</ele>
        <time>2014-06-08T10:36:56Z</time>
      </trkpt>
      <trkpt lat="43.70512" lon="3.52433">
        <ele>219.2</ele>
        <time>2014-06-08T10:36:59Z</time>
      </trkpt>
      <trkpt lat="43.70503" lon="3.52439">
        <ele>217.9</ele>
        <time>2014-06-08T10:37:01Z</time>
      </trkpt>
      <trkpt lat="43.70493" lon="3.52445">
        <ele>217.2</ele>
        <time>2014-06-08T10:37:03Z</time>
      </trkpt>
      <trkpt lat="43.70484" lon="3.52452">
        <ele>216.4</ele>
        <time>2014-06-08T10:37:05Z</time>
      </trkpt>
      <trkpt lat="43.70476" lon="3.52458">
        <ele>215.9</ele>
        <time>2014-06-08T10:37:07Z</time>
      </trkpt>
      <trkpt lat="43.70466" lon="3.52462">
        <ele>215.7</ele>
        <time>2014-06-08T10:37:09Z</time>
      </trkpt>
      <trkpt lat="43.70455" lon="3.52466">
        <ele>214.3</ele>
        <time>2014-06-08T10:37:11Z</time>
      </trkpt>
      <trkpt lat="43.70446" lon="3.5247">
        <ele>213</ele>
        <time>2014-06-08T10:37:13Z</time>
      </trkpt>
      <trkpt lat="43.70437" lon="3.52475">
        <ele>212.2</ele>
        <time>2014-06-08T10:37:15Z</time>
      </trkpt>
      <trkpt lat="43.70428" lon="3.52477">
        <ele>211.4</ele>
        <time>2014-06-08T10:37:17Z</time>
      </trkpt>
      <trkpt lat="43.70407" lon="3.52473">
        <ele>209.6</ele>
        <time>2014-06-08T10:37:21Z</time>
      </trkpt>
      <trkpt lat="43.70396" lon="3.52471">
        <ele>208.2</ele>
        <time>2014-06-08T10:37:23Z</time>
      </trkpt>
      <trkpt lat="43.70386" lon="3.52466">
        <ele>206.7</ele>
        <time>2014-06-08T10:37:26Z</time>
      </trkpt>
      <trkpt lat="43.70376" lon="3.52458">
        <ele>205</ele>
        <time>2014-06-08T10:37:29Z</time>
      </trkpt>
      <trkpt lat="43.70367" lon="3.52455">
        <ele>203.3</ele>
        <time>2014-06-08T10:37:32Z</time>
      </trkpt>
      <trkpt lat="43.70355" lon="3.5245">
        <ele>202.6</ele>
        <time>2014-06-08T10:37:35Z</time>
      </trkpt>
      <trkpt lat="43.70346" lon="3.52448">
        <ele>201.9</ele>
        <time>2014-06-08T10:37:37Z</time>
      </trkpt>
      <trkpt lat="43.70334" lon="3.52443">
        <ele>201</ele>
        <time>2014-06-08T10:37:40Z</time>
      </trkpt>
      <trkpt lat="43.70324" lon="3.52439">
        <ele>199.3</ele>
        <time>2014-06-08T10:37:43Z</time>
      </trkpt>
      <trkpt lat="43.70313" lon="3.5244">
        <ele>197.5</ele>
        <time>2014-06-08T10:37:46Z</time>
      </trkpt>
      <trkpt lat="43.70303" lon="3.52438">
        <ele>196.9</ele>
        <time>2014-06-08T10:37:48Z</time>
      </trkpt>
      <trkpt lat="43.70293" lon="3.52439">
        <ele>196.6</ele>
        <time>2014-06-08T10:37:51Z</time>
      </trkpt>
      <trkpt lat="43.70283" lon="3.52438">
        <ele>195.7</ele>
        <time>2014-06-08T10:37:54Z</time>
      </trkpt>
      <trkpt lat="43.70273" lon="3.52436">
        <ele>195.4</ele>
        <time>2014-06-08T10:37:56Z</time>
      </trkpt>
      <trkpt lat="43.70261" lon="3.52436">
        <ele>193.9</ele>
        <time>2014-06-08T10:37:59Z</time>
      </trkpt>
      <trkpt lat="43.70252" lon="3.52432">
        <ele>194</ele>
        <time>2014-06-08T10:38:01Z</time>
      </trkpt>
      <trkpt lat="43.70241" lon="3.52424">
        <ele>194.3</ele>
        <time>2014-06-08T10:38:05Z</time>
      </trkpt>
      <trkpt lat="43.70231" lon="3.52418">
        <ele>194.2</ele>
        <time>2014-06-08T10:38:08Z</time>
      </trkpt>
      <trkpt lat="43.7022" lon="3.52411">
        <ele>194</ele>
        <time>2014-06-08T10:38:11Z</time>
      </trkpt>
      <trkpt lat="43.70209" lon="3.524">
        <ele>193.6</ele>
        <time>2014-06-08T10:38:14Z</time>
      </trkpt>
      <trkpt lat="43.70199" lon="3.52391">
        <ele>193</ele>
        <time>2014-06-08T10:38:17Z</time>
      </trkpt>
      <trkpt lat="43.70189" lon="3.52381">
        <ele>192.5</ele>
        <time>2014-06-08T10:38:20Z</time>
      </trkpt>
      <trkpt lat="43.70166" lon="3.52366">
        <ele>191.4</ele>
        <time>2014-06-08T10:38:26Z</time>
      </trkpt>
      <trkpt lat="43.70156" lon="3.52367">
        <ele>191.3</ele>
        <time>2014-06-08T10:38:29Z</time>
      </trkpt>
      <trkpt lat="43.70143" lon="3.52368">
        <ele>191.4</ele>
        <time>2014-06-08T10:38:32Z</time>
      </trkpt>
      <trkpt lat="43.70134" lon="3.52371">
        <ele>190.8</ele>
        <time>2014-06-08T10:38:34Z</time>
      </trkpt>
      <trkpt lat="43.70126" lon="3.52376">
        <ele>190.4</ele>
        <time>2014-06-08T10:38:36Z</time>
      </trkpt>
      <trkpt lat="43.70117" lon="3.52381">
        <ele>190.2</ele>
        <time>2014-06-08T10:38:38Z</time>
      </trkpt>
      <trkpt lat="43.70108" lon="3.52387">
        <ele>190.2</ele>
        <time>2014-06-08T10:38:40Z</time>
      </trkpt>
      <trkpt lat="43.70099" lon="3.52393">
        <ele>190.1</ele>
        <time>2014-06-08T10:38:42Z</time>
      </trkpt>
      <trkpt lat="43.7009" lon="3.52395">
        <ele>189.7</ele>
        <time>2014-06-08T10:38:44Z</time>
      </trkpt>
      <trkpt lat="43.7008" lon="3.52393">
        <ele>189</ele>
        <time>2014-06-08T10:38:46Z</time>
      </trkpt>
      <trkpt lat="43.70068" lon="3.52387">
        <ele>188.3</ele>
        <time>2014-06-08T10:38:48Z</time>
      </trkpt>
      <trkpt lat="43.70056" lon="3.52379">
        <ele>187.1</ele>
        <time>2014-06-08T10:38:50Z</time>
      </trkpt>
      <trkpt lat="43.70041" lon="3.52374">
        <ele>186</ele>
        <time>2014-06-08T10:38:52Z</time>
      </trkpt>
      <trkpt lat="43.70025" lon="3.5237">
        <ele>185</ele>
        <time>2014-06-08T10:38:54Z</time>
      </trkpt>
      <trkpt lat="43.70007" lon="3.52365">
        <ele>184.3</ele>
        <time>2014-06-08T10:38:56Z</time>
      </trkpt>
      <trkpt lat="43.69993" lon="3.52357">
        <ele>182.2</ele>
        <time>2014-06-08T10:38:58Z</time>
      </trkpt>
      <trkpt lat="43.69982" lon="3.52345">
        <ele>180.7</ele>
        <time>2014-06-08T10:39:00Z</time>
      </trkpt>
      <trkpt lat="43.69976" lon="3.5233">
        <ele>178.6</ele>
        <time>2014-06-08T10:39:02Z</time>
      </trkpt>
      <trkpt lat="43.69973" lon="3.52315">
        <ele>177.1</ele>
        <time>2014-06-08T10:39:04Z</time>
      </trkpt>
      <trkpt lat="43.69972" lon="3.52301">
        <ele>175.6</ele>
        <time>2014-06-08T10:39:06Z</time>
      </trkpt>
      <trkpt lat="43.69965" lon="3.52292">
        <ele>173.7</ele>
        <time>2014-06-08T10:39:09Z</time>
      </trkpt>
      <trkpt lat="43.69955" lon="3.52301">
        <ele>172.2</ele>
        <time>2014-06-08T10:39:12Z</time>
      </trkpt>
      <trkpt lat="43.69946" lon="3.52303">
        <ele>171.4</ele>
        <time>2014-06-08T10:39:14Z</time>
      </trkpt>
      <trkpt lat="43.69934" lon="3.52308">
        <ele>169.2</ele>
        <time>2014-06-08T10:39:17Z</time>
      </trkpt>
      <trkpt lat="43.69929" lon="3.52321">
        <ele>167.8</ele>
        <time>2014-06-08T10:39:20Z</time>
      </trkpt>
      <trkpt lat="43.69925" lon="3.52336">
        <ele>167.3</ele>
        <time>2014-06-08T10:39:23Z</time>
      </trkpt>
      <trkpt lat="43.69923" lon="3.52368">
        <ele>167.4</ele>
        <time>2014-06-08T10:39:28Z</time>
      </trkpt>
      <trkpt lat="43.69924" lon="3.52382">
        <ele>167.2</ele>
        <time>2014-06-08T10:39:30Z</time>
      </trkpt>
      <trkpt lat="43.69926" lon="3.52396">
        <ele>167.1</ele>
        <time>2014-06-08T10:39:32Z</time>
      </trkpt>
      <trkpt lat="43.69929" lon="3.5241">
        <ele>167.2</ele>
        <time>2014-06-08T10:39:34Z</time>
      </trkpt>
      <trkpt lat="43.69931" lon="3.52424">
        <ele>167.3</ele>
        <time>2014-06-08T10:39:36Z</time>
      </trkpt>
      <trkpt lat="43.6993" lon="3.52439">
        <ele>166.7</ele>
        <time>2014-06-08T10:39:38Z</time>
      </trkpt>
      <trkpt lat="43.69928" lon="3.52454">
        <ele>166.3</ele>
        <time>2014-06-08T10:39:40Z</time>
      </trkpt>
      <trkpt lat="43.69927" lon="3.52471">
        <ele>166.2</ele>
        <time>2014-06-08T10:39:42Z</time>
      </trkpt>
      <trkpt lat="43.69925" lon="3.52487">
        <ele>165.8</ele>
        <time>2014-06-08T10:39:44Z</time>
      </trkpt>
      <trkpt lat="43.69924" lon="3.52502">
        <ele>165.6</ele>
        <time>2014-06-08T10:39:46Z</time>
      </trkpt>
      <trkpt lat="43.69923" lon="3.52515">
        <ele>165.5</ele>
        <time>2014-06-08T10:39:48Z</time>
      </trkpt>
      <trkpt lat="43.69921" lon="3.52529">
        <ele>165.6</ele>
        <time>2014-06-08T10:39:51Z</time>
      </trkpt>
      <trkpt lat="43.69919" lon="3.52541">
        <ele>166</ele>
        <time>2014-06-08T10:39:54Z</time>
      </trkpt>
      <trkpt lat="43.69916" lon="3.52554">
        <ele>166.5</ele>
        <time>2014-06-08T10:39:57Z</time>
      </trkpt>
      <trkpt lat="43.6991" lon="3.52565">
        <ele>167.6</ele>
        <time>2014-06-08T10:40:00Z</time>
      </trkpt>
      <trkpt lat="43.69904" lon="3.52577">
        <ele>167.9</ele>
        <time>2014-06-08T10:40:04Z</time>
      </trkpt>
      <trkpt lat="43.69902" lon="3.52592">
        <ele>169.2</ele>
        <time>2014-06-08T10:40:09Z</time>
      </trkpt>
      <trkpt lat="43.69906" lon="3.52605">
        <ele>169.8</ele>
        <time>2014-06-08T10:40:13Z</time>
      </trkpt>
      <trkpt lat="43.69912" lon="3.52618">
        <ele>170.2</ele>
        <time>2014-06-08T10:40:17Z</time>
      </trkpt>
      <trkpt lat="43.69919" lon="3.5263">
        <ele>170.5</ele>
        <time>2014-06-08T10:40:21Z</time>
      </trkpt>
      <trkpt lat="43.69926" lon="3.52639">
        <ele>171.2</ele>
        <time>2014-06-08T10:40:24Z</time>
      </trkpt>
      <trkpt lat="43.69944" lon="3.52659">
        <ele>170.1</ele>
        <time>2014-06-08T10:40:30Z</time>
      </trkpt>
      <trkpt lat="43.69951" lon="3.52667">
        <ele>169.3</ele>
        <time>2014-06-08T10:40:32Z</time>
      </trkpt>
      <trkpt lat="43.69957" lon="3.52678">
        <ele>168.6</ele>
        <time>2014-06-08T10:40:34Z</time>
      </trkpt>
      <trkpt lat="43.69963" lon="3.52688">
        <ele>168</ele>
        <time>2014-06-08T10:40:36Z</time>
      </trkpt>
      <trkpt lat="43.6997" lon="3.52698">
        <ele>167.2</ele>
        <time>2014-06-08T10:40:38Z</time>
      </trkpt>
      <trkpt lat="43.69978" lon="3.52706">
        <ele>166.4</ele>
        <time>2014-06-08T10:40:40Z</time>
      </trkpt>
      <trkpt lat="43.6999" lon="3.52715">
        <ele>166.6</ele>
        <time>2014-06-08T10:40:43Z</time>
      </trkpt>
      <trkpt lat="43.69999" lon="3.52721">
        <ele>166.5</ele>
        <time>2014-06-08T10:40:45Z</time>
      </trkpt>
      <trkpt lat="43.70007" lon="3.52727">
        <ele>165.5</ele>
        <time>2014-06-08T10:40:48Z</time>
      </trkpt>
      <trkpt lat="43.70016" lon="3.5274">
        <ele>163.8</ele>
        <time>2014-06-08T10:40:52Z</time>
      </trkpt>
      <trkpt lat="43.70016" lon="3.52754">
        <ele>163.6</ele>
        <time>2014-06-08T10:40:55Z</time>
      </trkpt>
      <trkpt lat="43.70017" lon="3.5277">
        <ele>163</ele>
        <time>2014-06-08T10:40:58Z</time>
      </trkpt>
      <trkpt lat="43.70026" lon="3.52782">
        <ele>161.8</ele>
        <time>2014-06-08T10:41:01Z</time>
      </trkpt>
      <trkpt lat="43.7003" lon="3.52795">
        <ele>160.9</ele>
        <time>2014-06-08T10:41:05Z</time>
      </trkpt>
      <trkpt lat="43.70023" lon="3.52806">
        <ele>160.7</ele>
        <time>2014-06-08T10:41:08Z</time>
      </trkpt>
      <trkpt lat="43.70016" lon="3.52813">
        <ele>160.5</ele>
        <time>2014-06-08T10:41:10Z</time>
      </trkpt>
      <trkpt lat="43.70014" lon="3.52826">
        <ele>160.5</ele>
        <time>2014-06-08T10:41:12Z</time>
      </trkpt>
      <trkpt lat="43.70016" lon="3.52839">
        <ele>160.3</ele>
        <time>2014-06-08T10:41:14Z</time>
      </trkpt>
      <trkpt lat="43.70021" lon="3.52856">
        <ele>160.1</ele>
        <time>2014-06-08T10:41:17Z</time>
      </trkpt>
      <trkpt lat="43.70025" lon="3.52869">
        <ele>160.3</ele>
        <time>2014-06-08T10:41:19Z</time>
      </trkpt>
      <trkpt lat="43.7003" lon="3.52881">
        <ele>160.5</ele>
        <time>2014-06-08T10:41:21Z</time>
      </trkpt>
      <trkpt lat="43.70034" lon="3.52893">
        <ele>160.6</ele>
        <time>2014-06-08T10:41:23Z</time>
      </trkpt>
      <trkpt lat="43.7004" lon="3.52906">
        <ele>161.3</ele>
        <time>2014-06-08T10:41:26Z</time>
      </trkpt>
      <trkpt lat="43.70049" lon="3.52932">
        <ele>163.5</ele>
        <time>2014-06-08T10:41:36Z</time>
      </trkpt>
      <trkpt lat="43.70055" lon="3.52942">
        <ele>164.6</ele>
        <time>2014-06-08T10:41:43Z</time>
      </trkpt>
      <trkpt lat="43.70062" lon="3.52951">
        <ele>166.3</ele>
        <time>2014-06-08T10:41:50Z</time>
      </trkpt>
      <trkpt lat="43.7007" lon="3.52956">
        <ele>168</ele>
        <time>2014-06-08T10:41:57Z</time>
      </trkpt>
      <trkpt lat="43.7008" lon="3.52957">
        <ele>169.2</ele>
        <time>2014-06-08T10:42:04Z</time>
      </trkpt>
      <trkpt lat="43.70091" lon="3.52957">
        <ele>170</ele>
        <time>2014-06-08T10:42:11Z</time>
      </trkpt>
      <trkpt lat="43.70099" lon="3.52961">
        <ele>170.6</ele>
        <time>2014-06-08T10:42:17Z</time>
      </trkpt>
      <trkpt lat="43.70102" lon="3.52974">
        <ele>172.2</ele>
        <time>2014-06-08T10:42:23Z</time>
      </trkpt>
      <trkpt lat="43.70098" lon="3.52987">
        <ele>173.1</ele>
        <time>2014-06-08T10:42:29Z</time>
      </trkpt>
      <trkpt lat="43.70084" lon="3.53006">
        <ele>175.7</ele>
        <time>2014-06-08T10:42:40Z</time>
      </trkpt>
      <trkpt lat="43.70077" lon="3.53018">
        <ele>176.3</ele>
        <time>2014-06-08T10:42:46Z</time>
      </trkpt>
      <trkpt lat="43.70071" lon="3.5303">
        <ele>177.5</ele>
        <time>2014-06-08T10:42:52Z</time>
      </trkpt>
      <trkpt lat="43.70068" lon="3.53043">
        <ele>178.3</ele>
        <time>2014-06-08T10:42:57Z</time>
      </trkpt>
      <trkpt lat="43.70065" lon="3.53056">
        <ele>178.6</ele>
        <time>2014-06-08T10:43:01Z</time>
      </trkpt>
      <trkpt lat="43.70065" lon="3.53072">
        <ele>178.5</ele>
        <time>2014-06-08T10:43:05Z</time>
      </trkpt>
      <trkpt lat="43.70063" lon="3.53087">
        <ele>178.3</ele>
        <time>2014-06-08T10:43:08Z</time>
      </trkpt>
      <trkpt lat="43.70061" lon="3.53105">
        <ele>178.1</ele>
        <time>2014-06-08T10:43:11Z</time>
      </trkpt>
      <trkpt lat="43.70059" lon="3.53118">
        <ele>177.7</ele>
        <time>2014-06-08T10:43:13Z</time>
      </trkpt>
      <trkpt lat="43.70057" lon="3.53131">
        <ele>177.8</ele>
        <time>2014-06-08T10:43:15Z</time>
      </trkpt>
      <trkpt lat="43.70055" lon="3.53145">
        <ele>177.5</ele>
        <time>2014-06-08T10:43:17Z</time>
      </trkpt>
      <trkpt lat="43.70053" lon="3.5316">
        <ele>176.9</ele>
        <time>2014-06-08T10:43:19Z</time>
      </trkpt>
      <trkpt lat="43.70051" lon="3.53175">
        <ele>176.8</ele>
        <time>2014-06-08T10:43:21Z</time>
      </trkpt>
      <trkpt lat="43.7005" lon="3.5319">
        <ele>176.8</ele>
        <time>2014-06-08T10:43:23Z</time>
      </trkpt>
      <trkpt lat="43.70048" lon="3.53205">
        <ele>176.9</ele>
        <time>2014-06-08T10:43:25Z</time>
      </trkpt>
      <trkpt lat="43.70046" lon="3.53221">
        <ele>176.8</ele>
        <time>2014-06-08T10:43:27Z</time>
      </trkpt>
      <trkpt lat="43.70045" lon="3.53236">
        <ele>176.3</ele>
        <time>2014-06-08T10:43:29Z</time>
      </trkpt>
      <trkpt lat="43.70044" lon="3.53252">
        <ele>175.7</ele>
        <time>2014-06-08T10:43:31Z</time>
      </trkpt>
      <trkpt lat="43.70042" lon="3.53282">
        <ele>175.8</ele>
        <time>2014-06-08T10:43:35Z</time>
      </trkpt>
      <trkpt lat="43.70041" lon="3.53298">
        <ele>175.3</ele>
        <time>2014-06-08T10:43:37Z</time>
      </trkpt>
      <trkpt lat="43.7004" lon="3.53314">
        <ele>174.7</ele>
        <time>2014-06-08T10:43:39Z</time>
      </trkpt>
      <trkpt lat="43.70041" lon="3.53329">
        <ele>174.5</ele>
        <time>2014-06-08T10:43:41Z</time>
      </trkpt>
      <trkpt lat="43.70042" lon="3.53344">
        <ele>174.8</ele>
        <time>2014-06-08T10:43:43Z</time>
      </trkpt>
      <trkpt lat="43.70044" lon="3.53358">
        <ele>174.8</ele>
        <time>2014-06-08T10:43:45Z</time>
      </trkpt>
      <trkpt lat="43.70045" lon="3.53372">
        <ele>174.9</ele>
        <time>2014-06-08T10:43:47Z</time>
      </trkpt>
      <trkpt lat="43.70047" lon="3.53385">
        <ele>175.3</ele>
        <time>2014-06-08T10:43:49Z</time>
      </trkpt>
      <trkpt lat="43.7005" lon="3.53398">
        <ele>175.2</ele>
        <time>2014-06-08T10:43:51Z</time>
      </trkpt>
      <trkpt lat="43.70053" lon="3.5341">
        <ele>174.9</ele>
        <time>2014-06-08T10:43:53Z</time>
      </trkpt>
      <trkpt lat="43.70055" lon="3.53422">
        <ele>174.8</ele>
        <time>2014-06-08T10:43:55Z</time>
      </trkpt>
      <trkpt lat="43.70057" lon="3.53434">
        <ele>174.8</ele>
        <time>2014-06-08T10:43:57Z</time>
      </trkpt>
      <trkpt lat="43.7006" lon="3.53446">
        <ele>174.9</ele>
        <time>2014-06-08T10:43:59Z</time>
      </trkpt>
      <trkpt lat="43.70062" lon="3.53459">
        <ele>175</ele>
        <time>2014-06-08T10:44:01Z</time>
      </trkpt>
      <trkpt lat="43.70064" lon="3.53473">
        <ele>174.9</ele>
        <time>2014-06-08T10:44:03Z</time>
      </trkpt>
      <trkpt lat="43.70066" lon="3.53488">
        <ele>174.8</ele>
        <time>2014-06-08T10:44:05Z</time>
      </trkpt>
      <trkpt lat="43.70068" lon="3.53503">
        <ele>175</ele>
        <time>2014-06-08T10:44:07Z</time>
      </trkpt>
      <trkpt lat="43.70071" lon="3.53519">
        <ele>175.2</ele>
        <time>2014-06-08T10:44:09Z</time>
      </trkpt>
      <trkpt lat="43.70073" lon="3.53536">
        <ele>174.8</ele>
        <time>2014-06-08T10:44:11Z</time>
      </trkpt>
      <trkpt lat="43.70076" lon="3.53552">
        <ele>175.1</ele>
        <time>2014-06-08T10:44:13Z</time>
      </trkpt>
      <trkpt lat="43.70079" lon="3.53569">
        <ele>173.9</ele>
        <time>2014-06-08T10:44:15Z</time>
      </trkpt>
      <trkpt lat="43.70082" lon="3.53586">
        <ele>173.2</ele>
        <time>2014-06-08T10:44:17Z</time>
      </trkpt>
      <trkpt lat="43.70085" lon="3.53603">
        <ele>172.6</ele>
        <time>2014-06-08T10:44:19Z</time>
      </trkpt>
      <trkpt lat="43.70088" lon="3.5362">
        <ele>172.1</ele>
        <time>2014-06-08T10:44:21Z</time>
      </trkpt>
      <trkpt lat="43.70091" lon="3.53637">
        <ele>171.7</ele>
        <time>2014-06-08T10:44:23Z</time>
      </trkpt>
      <trkpt lat="43.70095" lon="3.53654">
        <ele>171</ele>
        <time>2014-06-08T10:44:25Z</time>
      </trkpt>
      <trkpt lat="43.70099" lon="3.53672">
        <ele>170.5</ele>
        <time>2014-06-08T10:44:27Z</time>
      </trkpt>
      <trkpt lat="43.70105" lon="3.53688">
        <ele>169.8</ele>
        <time>2014-06-08T10:44:29Z</time>
      </trkpt>
      <trkpt lat="43.70111" lon="3.53704">
        <ele>169.2</ele>
        <time>2014-06-08T10:44:31Z</time>
      </trkpt>
      <trkpt lat="43.70115" lon="3.5372">
        <ele>168.9</ele>
        <time>2014-06-08T10:44:33Z</time>
      </trkpt>
      <trkpt lat="43.70121" lon="3.53758">
        <ele>167.8</ele>
        <time>2014-06-08T10:44:37Z</time>
      </trkpt>
      <trkpt lat="43.70123" lon="3.53778">
        <ele>167.2</ele>
        <time>2014-06-08T10:44:39Z</time>
      </trkpt>
      <trkpt lat="43.70126" lon="3.53799">
        <ele>166.6</ele>
        <time>2014-06-08T10:44:41Z</time>
      </trkpt>
      <trkpt lat="43.7013" lon="3.5382">
        <ele>166</ele>
        <time>2014-06-08T10:44:43Z</time>
      </trkpt>
      <trkpt lat="43.70132" lon="3.5384">
        <ele>165.3</ele>
        <time>2014-06-08T10:44:45Z</time>
      </trkpt>
      <trkpt lat="43.70134" lon="3.5386">
        <ele>164.9</ele>
        <time>2014-06-08T10:44:47Z</time>
      </trkpt>
      <trkpt lat="43.70136" lon="3.5388">
        <ele>164.3</ele>
        <time>2014-06-08T10:44:49Z</time>
      </trkpt>
      <trkpt lat="43.70138" lon="3.539">
        <ele>164.3</ele>
        <time>2014-06-08T10:44:51Z</time>
      </trkpt>
      <trkpt lat="43.70139" lon="3.53919">
        <ele>164.3</ele>
        <time>2014-06-08T10:44:53Z</time>
      </trkpt>
      <trkpt lat="43.7014" lon="3.53937">
        <ele>163.8</ele>
        <time>2014-06-08T10:44:55Z</time>
      </trkpt>
      <trkpt lat="43.70141" lon="3.53955">
        <ele>163.3</ele>
        <time>2014-06-08T10:44:57Z</time>
      </trkpt>
      <trkpt lat="43.70143" lon="3.53972">
        <ele>163.2</ele>
        <time>2014-06-08T10:44:59Z</time>
      </trkpt>
      <trkpt lat="43.70146" lon="3.53989">
        <ele>162.7</ele>
        <time>2014-06-08T10:45:01Z</time>
      </trkpt>
      <trkpt lat="43.7015" lon="3.54005">
        <ele>162.4</ele>
        <time>2014-06-08T10:45:03Z</time>
      </trkpt>
      <trkpt lat="43.70152" lon="3.54021">
        <ele>161.8</ele>
        <time>2014-06-08T10:45:05Z</time>
      </trkpt>
      <trkpt lat="43.70154" lon="3.54037">
        <ele>161.7</ele>
        <time>2014-06-08T10:45:07Z</time>
      </trkpt>
      <trkpt lat="43.70154" lon="3.54052">
        <ele>161.9</ele>
        <time>2014-06-08T10:45:09Z</time>
      </trkpt>
      <trkpt lat="43.70153" lon="3.54067">
        <ele>161.9</ele>
        <time>2014-06-08T10:45:11Z</time>
      </trkpt>
      <trkpt lat="43.70152" lon="3.54082">
        <ele>161.9</ele>
        <time>2014-06-08T10:45:13Z</time>
      </trkpt>
      <trkpt lat="43.70152" lon="3.54095">
        <ele>161.7</ele>
        <time>2014-06-08T10:45:15Z</time>
      </trkpt>
      <trkpt lat="43.70152" lon="3.54107">
        <ele>162.4</ele>
        <time>2014-06-08T10:45:17Z</time>
      </trkpt>
      <trkpt lat="43.70153" lon="3.54125">
        <ele>163.6</ele>
        <time>2014-06-08T10:45:20Z</time>
      </trkpt>
      <trkpt lat="43.70154" lon="3.5414">
        <ele>163.9</ele>
        <time>2014-06-08T10:45:23Z</time>
      </trkpt>
      <trkpt lat="43.70155" lon="3.54154">
        <ele>164.4</ele>
        <time>2014-06-08T10:45:26Z</time>
      </trkpt>
      <trkpt lat="43.70155" lon="3.5417">
        <ele>164.8</ele>
        <time>2014-06-08T10:45:29Z</time>
      </trkpt>
      <trkpt lat="43.70157" lon="3.54189">
        <ele>164.4</ele>
        <time>2014-06-08T10:45:32Z</time>
      </trkpt>
      <trkpt lat="43.70158" lon="3.54204">
        <ele>164.4</ele>
        <time>2014-06-08T10:45:34Z</time>
      </trkpt>
      <trkpt lat="43.70159" lon="3.54235">
        <ele>163.4</ele>
        <time>2014-06-08T10:45:38Z</time>
      </trkpt>
      <trkpt lat="43.70159" lon="3.5425">
        <ele>162.9</ele>
        <time>2014-06-08T10:45:40Z</time>
      </trkpt>
      <trkpt lat="43.70159" lon="3.54265">
        <ele>162.4</ele>
        <time>2014-06-08T10:45:42Z</time>
      </trkpt>
      <trkpt lat="43.70159" lon="3.5428">
        <ele>162.1</ele>
        <time>2014-06-08T10:45:44Z</time>
      </trkpt>
      <trkpt lat="43.70158" lon="3.54297">
        <ele>162.2</ele>
        <time>2014-06-08T10:45:46Z</time>
      </trkpt>
      <trkpt lat="43.70156" lon="3.54314">
        <ele>161.5</ele>
        <time>2014-06-08T10:45:48Z</time>
      </trkpt>
      <trkpt lat="43.70156" lon="3.54331">
        <ele>161.3</ele>
        <time>2014-06-08T10:45:50Z</time>
      </trkpt>
      <trkpt lat="43.70157" lon="3.54349">
        <ele>161</ele>
        <time>2014-06-08T10:45:52Z</time>
      </trkpt>
      <trkpt lat="43.70161" lon="3.54368">
        <ele>160.2</ele>
        <time>2014-06-08T10:45:54Z</time>
      </trkpt>
      <trkpt lat="43.70165" lon="3.54387">
        <ele>159.4</ele>
        <time>2014-06-08T10:45:56Z</time>
      </trkpt>
      <trkpt lat="43.70168" lon="3.54407">
        <ele>159</ele>
        <time>2014-06-08T10:45:58Z</time>
      </trkpt>
      <trkpt lat="43.70168" lon="3.54429">
        <ele>158.1</ele>
        <time>2014-06-08T10:46:00Z</time>
      </trkpt>
      <trkpt lat="43.70167" lon="3.54452">
        <ele>156.6</ele>
        <time>2014-06-08T10:46:02Z</time>
      </trkpt>
      <trkpt lat="43.70163" lon="3.54474">
        <ele>155.5</ele>
        <time>2014-06-08T10:46:04Z</time>
      </trkpt>
      <trkpt lat="43.70158" lon="3.54495">
        <ele>154.5</ele>
        <time>2014-06-08T10:46:06Z</time>
      </trkpt>
      <trkpt lat="43.70152" lon="3.54516">
        <ele>153.3</ele>
        <time>2014-06-08T10:46:08Z</time>
      </trkpt>
      <trkpt lat="43.70148" lon="3.5454">
        <ele>152.4</ele>
        <time>2014-06-08T10:46:10Z</time>
      </trkpt>
      <trkpt lat="43.70149" lon="3.54565">
        <ele>150.9</ele>
        <time>2014-06-08T10:46:12Z</time>
      </trkpt>
      <trkpt lat="43.70151" lon="3.54578">
        <ele>150.2</ele>
        <time>2014-06-08T10:46:13Z</time>
      </trkpt>
      <trkpt lat="43.70153" lon="3.5459">
        <ele>149.7</ele>
        <time>2014-06-08T10:46:14Z</time>
      </trkpt>
      <trkpt lat="43.70155" lon="3.54603">
        <ele>149.3</ele>
        <time>2014-06-08T10:46:15Z</time>
      </trkpt>
      <trkpt lat="43.70157" lon="3.54615">
        <ele>148.9</ele>
        <time>2014-06-08T10:46:16Z</time>
      </trkpt>
      <trkpt lat="43.70158" lon="3.54628">
        <ele>148.6</ele>
        <time>2014-06-08T10:46:17Z</time>
      </trkpt>
      <trkpt lat="43.7016" lon="3.54641">
        <ele>147.8</ele>
        <time>2014-06-08T10:46:18Z</time>
      </trkpt>
      <trkpt lat="43.70161" lon="3.54654">
        <ele>147.3</ele>
        <time>2014-06-08T10:46:19Z</time>
      </trkpt>
      <trkpt lat="43.70162" lon="3.54667">
        <ele>146.6</ele>
        <time>2014-06-08T10:46:20Z</time>
      </trkpt>
      <trkpt lat="43.70163" lon="3.5468">
        <ele>146.1</ele>
        <time>2014-06-08T10:46:21Z</time>
      </trkpt>
      <trkpt lat="43.70164" lon="3.54693">
        <ele>145.7</ele>
        <time>2014-06-08T10:46:22Z</time>
      </trkpt>
      <trkpt lat="43.70165" lon="3.54706">
        <ele>144.8</ele>
        <time>2014-06-08T10:46:23Z</time>
      </trkpt>
      <trkpt lat="43.70165" lon="3.54718">
        <ele>144.2</ele>
        <time>2014-06-08T10:46:24Z</time>
      </trkpt>
      <trkpt lat="43.70167" lon="3.54743">
        <ele>143</ele>
        <time>2014-06-08T10:46:26Z</time>
      </trkpt>
      <trkpt lat="43.70167" lon="3.54766">
        <ele>142.4</ele>
        <time>2014-06-08T10:46:28Z</time>
      </trkpt>
      <trkpt lat="43.70166" lon="3.54788">
        <ele>141.6</ele>
        <time>2014-06-08T10:46:30Z</time>
      </trkpt>
      <trkpt lat="43.70163" lon="3.54809">
        <ele>140.6</ele>
        <time>2014-06-08T10:46:32Z</time>
      </trkpt>
      <trkpt lat="43.70158" lon="3.54829">
        <ele>139.3</ele>
        <time>2014-06-08T10:46:34Z</time>
      </trkpt>
      <trkpt lat="43.70153" lon="3.54849">
        <ele>138.1</ele>
        <time>2014-06-08T10:46:36Z</time>
      </trkpt>
      <trkpt lat="43.70145" lon="3.54887">
        <ele>137.4</ele>
        <time>2014-06-08T10:46:40Z</time>
      </trkpt>
      <trkpt lat="43.7014" lon="3.54903">
        <ele>136.9</ele>
        <time>2014-06-08T10:46:42Z</time>
      </trkpt>
      <trkpt lat="43.70135" lon="3.54914">
        <ele>136.6</ele>
        <time>2014-06-08T10:46:44Z</time>
      </trkpt>
      <trkpt lat="43.70133" lon="3.54926">
        <ele>136.2</ele>
        <time>2014-06-08T10:46:46Z</time>
      </trkpt>
      <trkpt lat="43.70135" lon="3.5494">
        <ele>135.7</ele>
        <time>2014-06-08T10:46:48Z</time>
      </trkpt>
      <trkpt lat="43.70136" lon="3.54956">
        <ele>135.5</ele>
        <time>2014-06-08T10:46:50Z</time>
      </trkpt>
      <trkpt lat="43.70138" lon="3.54973">
        <ele>135.1</ele>
        <time>2014-06-08T10:46:52Z</time>
      </trkpt>
      <trkpt lat="43.7014" lon="3.5499">
        <ele>134.7</ele>
        <time>2014-06-08T10:46:54Z</time>
      </trkpt>
      <trkpt lat="43.70143" lon="3.55007">
        <ele>134.8</ele>
        <time>2014-06-08T10:46:56Z</time>
      </trkpt>
      <trkpt lat="43.70147" lon="3.55025">
        <ele>134.9</ele>
        <time>2014-06-08T10:46:58Z</time>
      </trkpt>
      <trkpt lat="43.70153" lon="3.55042">
        <ele>134.7</ele>
        <time>2014-06-08T10:47:00Z</time>
      </trkpt>
      <trkpt lat="43.7016" lon="3.55059">
        <ele>133.8</ele>
        <time>2014-06-08T10:47:02Z</time>
      </trkpt>
      <trkpt lat="43.70167" lon="3.55076">
        <ele>132.9</ele>
        <time>2014-06-08T10:47:04Z</time>
      </trkpt>
      <trkpt lat="43.70174" lon="3.55093">
        <ele>132.9</ele>
        <time>2014-06-08T10:47:06Z</time>
      </trkpt>
      <trkpt lat="43.70182" lon="3.55109">
        <ele>132.7</ele>
        <time>2014-06-08T10:47:08Z</time>
      </trkpt>
      <trkpt lat="43.70189" lon="3.55126">
        <ele>132.2</ele>
        <time>2014-06-08T10:47:10Z</time>
      </trkpt>
      <trkpt lat="43.70197" lon="3.55144">
        <ele>131.4</ele>
        <time>2014-06-08T10:47:12Z</time>
      </trkpt>
      <trkpt lat="43.70205" lon="3.55162">
        <ele>130.8</ele>
        <time>2014-06-08T10:47:14Z</time>
      </trkpt>
      <trkpt lat="43.70212" lon="3.55181">
        <ele>130.8</ele>
        <time>2014-06-08T10:47:16Z</time>
      </trkpt>
      <trkpt lat="43.70219" lon="3.552">
        <ele>129.9</ele>
        <time>2014-06-08T10:47:18Z</time>
      </trkpt>
      <trkpt lat="43.70225" lon="3.55221">
        <ele>128.8</ele>
        <time>2014-06-08T10:47:20Z</time>
      </trkpt>
      <trkpt lat="43.70227" lon="3.55242">
        <ele>127.9</ele>
        <time>2014-06-08T10:47:22Z</time>
      </trkpt>
      <trkpt lat="43.70232" lon="3.55262">
        <ele>127.2</ele>
        <time>2014-06-08T10:47:24Z</time>
      </trkpt>
      <trkpt lat="43.70245" lon="3.55275">
        <ele>126.6</ele>
        <time>2014-06-08T10:47:26Z</time>
      </trkpt>
      <trkpt lat="43.7026" lon="3.55287">
        <ele>125.4</ele>
        <time>2014-06-08T10:47:28Z</time>
      </trkpt>
      <trkpt lat="43.70276" lon="3.55299">
        <ele>124.5</ele>
        <time>2014-06-08T10:47:30Z</time>
      </trkpt>
      <trkpt lat="43.70284" lon="3.55305">
        <ele>124.1</ele>
        <time>2014-06-08T10:47:31Z</time>
      </trkpt>
      <trkpt lat="43.703" lon="3.55317">
        <ele>123.7</ele>
        <time>2014-06-08T10:47:33Z</time>
      </trkpt>
      <trkpt lat="43.70315" lon="3.55329">
        <ele>122.9</ele>
        <time>2014-06-08T10:47:35Z</time>
      </trkpt>
      <trkpt lat="43.7033" lon="3.5534">
        <ele>122.5</ele>
        <time>2014-06-08T10:47:37Z</time>
      </trkpt>
      <trkpt lat="43.70358" lon="3.55362">
        <ele>122.4</ele>
        <time>2014-06-08T10:47:41Z</time>
      </trkpt>
      <trkpt lat="43.70369" lon="3.55374">
        <ele>122.3</ele>
        <time>2014-06-08T10:47:43Z</time>
      </trkpt>
      <trkpt lat="43.70381" lon="3.55386">
        <ele>122.1</ele>
        <time>2014-06-08T10:47:45Z</time>
      </trkpt>
      <trkpt lat="43.70393" lon="3.55399">
        <ele>121.6</ele>
        <time>2014-06-08T10:47:47Z</time>
      </trkpt>
      <trkpt lat="43.70405" lon="3.55411">
        <ele>121.5</ele>
        <time>2014-06-08T10:47:49Z</time>
      </trkpt>
      <trkpt lat="43.70418" lon="3.55425">
        <ele>121</ele>
        <time>2014-06-08T10:47:51Z</time>
      </trkpt>
      <trkpt lat="43.7043" lon="3.5544">
        <ele>120.5</ele>
        <time>2014-06-08T10:47:53Z</time>
      </trkpt>
      <trkpt lat="43.70443" lon="3.55455">
        <ele>119.9</ele>
        <time>2014-06-08T10:47:55Z</time>
      </trkpt>
      <trkpt lat="43.70457" lon="3.5547">
        <ele>119.4</ele>
        <time>2014-06-08T10:47:57Z</time>
      </trkpt>
      <trkpt lat="43.70465" lon="3.55478">
        <ele>118.6</ele>
        <time>2014-06-08T10:47:58Z</time>
      </trkpt>
      <trkpt lat="43.70473" lon="3.55485">
        <ele>118.1</ele>
        <time>2014-06-08T10:47:59Z</time>
      </trkpt>
      <trkpt lat="43.70481" lon="3.55493">
        <ele>117.2</ele>
        <time>2014-06-08T10:48:00Z</time>
      </trkpt>
      <trkpt lat="43.70489" lon="3.55501">
        <ele>116.6</ele>
        <time>2014-06-08T10:48:01Z</time>
      </trkpt>
      <trkpt lat="43.70497" lon="3.55508">
        <ele>116</ele>
        <time>2014-06-08T10:48:02Z</time>
      </trkpt>
      <trkpt lat="43.70504" lon="3.55516">
        <ele>115.6</ele>
        <time>2014-06-08T10:48:03Z</time>
      </trkpt>
      <trkpt lat="43.70512" lon="3.55523">
        <ele>115.3</ele>
        <time>2014-06-08T10:48:04Z</time>
      </trkpt>
      <trkpt lat="43.7052" lon="3.55529">
        <ele>114.5</ele>
        <time>2014-06-08T10:48:05Z</time>
      </trkpt>
      <trkpt lat="43.70529" lon="3.55535">
        <ele>113.9</ele>
        <time>2014-06-08T10:48:06Z</time>
      </trkpt>
      <trkpt lat="43.70538" lon="3.5554">
        <ele>113.1</ele>
        <time>2014-06-08T10:48:07Z</time>
      </trkpt>
      <trkpt lat="43.70547" lon="3.55543">
        <ele>112.5</ele>
        <time>2014-06-08T10:48:08Z</time>
      </trkpt>
      <trkpt lat="43.70556" lon="3.55545">
        <ele>112.2</ele>
        <time>2014-06-08T10:48:09Z</time>
      </trkpt>
      <trkpt lat="43.70565" lon="3.55545">
        <ele>112</ele>
        <time>2014-06-08T10:48:10Z</time>
      </trkpt>
      <trkpt lat="43.70582" lon="3.55543">
        <ele>111.1</ele>
        <time>2014-06-08T10:48:12Z</time>
      </trkpt>
      <trkpt lat="43.70595" lon="3.55543">
        <ele>109.7</ele>
        <time>2014-06-08T10:48:14Z</time>
      </trkpt>
      <trkpt lat="43.70606" lon="3.55545">
        <ele>107.9</ele>
        <time>2014-06-08T10:48:16Z</time>
      </trkpt>
      <trkpt lat="43.70615" lon="3.55548">
        <ele>106.5</ele>
        <time>2014-06-08T10:48:18Z</time>
      </trkpt>
      <trkpt lat="43.70627" lon="3.55555">
        <ele>104.4</ele>
        <time>2014-06-08T10:48:20Z</time>
      </trkpt>
      <trkpt lat="43.7064" lon="3.55565">
        <ele>102.6</ele>
        <time>2014-06-08T10:48:22Z</time>
      </trkpt>
      <trkpt lat="43.70653" lon="3.55575">
        <ele>101.4</ele>
        <time>2014-06-08T10:48:24Z</time>
      </trkpt>
      <trkpt lat="43.70664" lon="3.55582">
        <ele>100.6</ele>
        <time>2014-06-08T10:48:26Z</time>
      </trkpt>
      <trkpt lat="43.70674" lon="3.5559">
        <ele>99.4</ele>
        <time>2014-06-08T10:48:28Z</time>
      </trkpt>
      <trkpt lat="43.70686" lon="3.55598">
        <ele>98.2</ele>
        <time>2014-06-08T10:48:30Z</time>
      </trkpt>
      <trkpt lat="43.70699" lon="3.55606">
        <ele>97</ele>
        <time>2014-06-08T10:48:32Z</time>
      </trkpt>
      <trkpt lat="43.7071" lon="3.55614">
        <ele>96.3</ele>
        <time>2014-06-08T10:48:34Z</time>
      </trkpt>
      <trkpt lat="43.70718" lon="3.55624">
        <ele>96.2</ele>
        <time>2014-06-08T10:48:36Z</time>
      </trkpt>
      <trkpt lat="43.70726" lon="3.55636">
        <ele>95.8</ele>
        <time>2014-06-08T10:48:38Z</time>
      </trkpt>
      <trkpt lat="43.70738" lon="3.5567">
        <ele>95</ele>
        <time>2014-06-08T10:48:42Z</time>
      </trkpt>
      <trkpt lat="43.70745" lon="3.5569">
        <ele>94</ele>
        <time>2014-06-08T10:48:44Z</time>
      </trkpt>
      <trkpt lat="43.70755" lon="3.55711">
        <ele>93.5</ele>
        <time>2014-06-08T10:48:46Z</time>
      </trkpt>
      <trkpt lat="43.70763" lon="3.55732">
        <ele>93.3</ele>
        <time>2014-06-08T10:48:48Z</time>
      </trkpt>
      <trkpt lat="43.70768" lon="3.55753">
        <ele>92.5</ele>
        <time>2014-06-08T10:48:50Z</time>
      </trkpt>
      <trkpt lat="43.70768" lon="3.55773">
        <ele>91.8</ele>
        <time>2014-06-08T10:48:52Z</time>
      </trkpt>
      <trkpt lat="43.70763" lon="3.55792">
        <ele>92</ele>
        <time>2014-06-08T10:48:54Z</time>
      </trkpt>
      <trkpt lat="43.70757" lon="3.55809">
        <ele>92.2</ele>
        <time>2014-06-08T10:48:56Z</time>
      </trkpt>
      <trkpt lat="43.70749" lon="3.55825">
        <ele>92.7</ele>
        <time>2014-06-08T10:48:58Z</time>
      </trkpt>
      <trkpt lat="43.70742" lon="3.55838">
        <ele>93.3</ele>
        <time>2014-06-08T10:49:00Z</time>
      </trkpt>
      <trkpt lat="43.70735" lon="3.55849">
        <ele>94.2</ele>
        <time>2014-06-08T10:49:02Z</time>
      </trkpt>
      <trkpt lat="43.70729" lon="3.55862">
        <ele>95.1</ele>
        <time>2014-06-08T10:49:04Z</time>
      </trkpt>
      <trkpt lat="43.70724" lon="3.55875">
        <ele>95.6</ele>
        <time>2014-06-08T10:49:06Z</time>
      </trkpt>
      <trkpt lat="43.70719" lon="3.55888">
        <ele>96</ele>
        <time>2014-06-08T10:49:08Z</time>
      </trkpt>
      <trkpt lat="43.70714" lon="3.55901">
        <ele>96.4</ele>
        <time>2014-06-08T10:49:10Z</time>
      </trkpt>
      <trkpt lat="43.70708" lon="3.55913">
        <ele>96.8</ele>
        <time>2014-06-08T10:49:12Z</time>
      </trkpt>
      <trkpt lat="43.70701" lon="3.55925">
        <ele>96.6</ele>
        <time>2014-06-08T10:49:14Z</time>
      </trkpt>
      <trkpt lat="43.70694" lon="3.55936">
        <ele>96.7</ele>
        <time>2014-06-08T10:49:16Z</time>
      </trkpt>
      <trkpt lat="43.70687" lon="3.55946">
        <ele>96.6</ele>
        <time>2014-06-08T10:49:18Z</time>
      </trkpt>
      <trkpt lat="43.70679" lon="3.55956">
        <ele>96.3</ele>
        <time>2014-06-08T10:49:20Z</time>
      </trkpt>
      <trkpt lat="43.70672" lon="3.55966">
        <ele>96.6</ele>
        <time>2014-06-08T10:49:22Z</time>
      </trkpt>
      <trkpt lat="43.70664" lon="3.55975">
        <ele>96.7</ele>
        <time>2014-06-08T10:49:24Z</time>
      </trkpt>
      <trkpt lat="43.70656" lon="3.55983">
        <ele>96.5</ele>
        <time>2014-06-08T10:49:26Z</time>
      </trkpt>
      <trkpt lat="43.70646" lon="3.5599">
        <ele>96.1</ele>
        <time>2014-06-08T10:49:28Z</time>
      </trkpt>
      <trkpt lat="43.70636" lon="3.55997">
        <ele>96.3</ele>
        <time>2014-06-08T10:49:30Z</time>
      </trkpt>
      <trkpt lat="43.70627" lon="3.56004">
        <ele>96.8</ele>
        <time>2014-06-08T10:49:32Z</time>
      </trkpt>
      <trkpt lat="43.70617" lon="3.5601">
        <ele>97</ele>
        <time>2014-06-08T10:49:34Z</time>
      </trkpt>
      <trkpt lat="43.70608" lon="3.56017">
        <ele>96.9</ele>
        <time>2014-06-08T10:49:36Z</time>
      </trkpt>
      <trkpt lat="43.706" lon="3.56023">
        <ele>96.8</ele>
        <time>2014-06-08T10:49:38Z</time>
      </trkpt>
      <trkpt lat="43.70589" lon="3.56017">
        <ele>96.6</ele>
        <time>2014-06-08T10:49:41Z</time>
      </trkpt>
      <trkpt lat="43.70567" lon="3.56011">
        <ele>96</ele>
        <time>2014-06-08T10:49:45Z</time>
      </trkpt>
      <trkpt lat="43.70555" lon="3.56013">
        <ele>96.1</ele>
        <time>2014-06-08T10:49:47Z</time>
      </trkpt>
      <trkpt lat="43.70543" lon="3.56017">
        <ele>96</ele>
        <time>2014-06-08T10:49:49Z</time>
      </trkpt>
      <trkpt lat="43.7053" lon="3.56023">
        <ele>95.9</ele>
        <time>2014-06-08T10:49:51Z</time>
      </trkpt>
      <trkpt lat="43.70518" lon="3.56027">
        <ele>95.9</ele>
        <time>2014-06-08T10:49:53Z</time>
      </trkpt>
      <trkpt lat="43.70506" lon="3.5603">
        <ele>95.8</ele>
        <time>2014-06-08T10:49:55Z</time>
      </trkpt>
      <trkpt lat="43.70494" lon="3.56032">
        <ele>95.9</ele>
        <time>2014-06-08T10:49:57Z</time>
      </trkpt>
      <trkpt lat="43.70481" lon="3.56033">
        <ele>95.8</ele>
        <time>2014-06-08T10:49:59Z</time>
      </trkpt>
      <trkpt lat="43.70469" lon="3.56031">
        <ele>95.5</ele>
        <time>2014-06-08T10:50:01Z</time>
      </trkpt>
      <trkpt lat="43.70458" lon="3.56027">
        <ele>95.4</ele>
        <time>2014-06-08T10:50:03Z</time>
      </trkpt>
      <trkpt lat="43.70449" lon="3.56023">
        <ele>95</ele>
        <time>2014-06-08T10:50:06Z</time>
      </trkpt>
      <trkpt lat="43.7044" lon="3.56022">
        <ele>94.5</ele>
        <time>2014-06-08T10:51:11Z</time>
      </trkpt>
      <trkpt lat="43.70422" lon="3.56017">
        <ele>94.1</ele>
        <time>2014-06-08T10:51:28Z</time>
      </trkpt>
      <trkpt lat="43.70413" lon="3.56013">
        <ele>94.4</ele>
        <time>2014-06-08T10:51:39Z</time>
      </trkpt>
      <trkpt lat="43.70406" lon="3.56009">
        <ele>93.7</ele>
        <time>2014-06-08T10:51:54Z</time>
      </trkpt>
    </trkseg>
  </trk>
</gpx>